<?xml version="1.0" encoding="UTF-8" standalone="no" ?>
<gpx xmlns="http://www.topografix.com/GPX/1/1" xmlns:xsi="http://www.w3.org/2001/XMLSchema-instance" xsi:schemaLocation="http://www.topografix.com/GPX/1/1 http://www.topografix.com/GPX/1/1/gpx.xsd" version="1.1" creator="VisuGPX - https://www.visugpx.com">
  <metadata>
    <name>Rando VTT Minerve</name>
    <desc><![CDATA[Randonnée VTT à partir de Minerve.
La randonnée se fait quelque soit la météo, car il y a peu de parties réellement techniques. Les montées se font pour la plupart par des pistes larges.]]></desc>
  </metadata>
  <trk>
    <name><![CDATA[20130519VttMinerve]]></name>
    <trkseg>
      <trkpt lat="43.35311" lon="2.74622">
        <ele>158.665817</ele>
        <time>2013-05-19T09:18:47Z</time>
      </trkpt>
      <trkpt lat="43.35311" lon="2.74624">
        <ele>158.462936</ele>
        <time>2013-05-19T09:18:48Z</time>
      </trkpt>
      <trkpt lat="43.35312" lon="2.74628">
        <ele>158.222366</ele>
        <time>2013-05-19T09:18:49Z</time>
      </trkpt>
      <trkpt lat="43.35313" lon="2.74631">
        <ele>157.903305</ele>
        <time>2013-05-19T09:18:50Z</time>
      </trkpt>
      <trkpt lat="43.35316" lon="2.74641">
        <ele>157.598831</ele>
        <time>2013-05-19T09:18:54Z</time>
      </trkpt>
      <trkpt lat="43.35317" lon="2.74644">
        <ele>158.057938</ele>
        <time>2013-05-19T09:18:55Z</time>
      </trkpt>
      <trkpt lat="43.35319" lon="2.74647">
        <ele>158.713394</ele>
        <time>2013-05-19T09:18:56Z</time>
      </trkpt>
      <trkpt lat="43.3532" lon="2.74648">
        <ele>159.452393</ele>
        <time>2013-05-19T09:18:57Z</time>
      </trkpt>
      <trkpt lat="43.35321" lon="2.74649">
        <ele>159.81192</ele>
        <time>2013-05-19T09:18:58Z</time>
      </trkpt>
      <trkpt lat="43.35324" lon="2.74652">
        <ele>161.287567</ele>
        <time>2013-05-19T09:19:07Z</time>
      </trkpt>
      <trkpt lat="43.35326" lon="2.74653">
        <ele>161.999252</ele>
        <time>2013-05-19T09:19:08Z</time>
      </trkpt>
      <trkpt lat="43.35327" lon="2.74655">
        <ele>162.586304</ele>
        <time>2013-05-19T09:19:09Z</time>
      </trkpt>
      <trkpt lat="43.35328" lon="2.74657">
        <ele>163.127151</ele>
        <time>2013-05-19T09:19:10Z</time>
      </trkpt>
      <trkpt lat="43.35329" lon="2.7466">
        <ele>163.503281</ele>
        <time>2013-05-19T09:19:11Z</time>
      </trkpt>
      <trkpt lat="43.3533" lon="2.74662">
        <ele>163.886536</ele>
        <time>2013-05-19T09:19:12Z</time>
      </trkpt>
      <trkpt lat="43.3533" lon="2.74664">
        <ele>164.223007</ele>
        <time>2013-05-19T09:19:13Z</time>
      </trkpt>
      <trkpt lat="43.35331" lon="2.74666">
        <ele>164.329712</ele>
        <time>2013-05-19T09:19:14Z</time>
      </trkpt>
      <trkpt lat="43.35331" lon="2.74669">
        <ele>164.679031</ele>
        <time>2013-05-19T09:19:15Z</time>
      </trkpt>
      <trkpt lat="43.35331" lon="2.74681">
        <ele>164.564743</ele>
        <time>2013-05-19T09:19:25Z</time>
      </trkpt>
      <trkpt lat="43.35331" lon="2.7469">
        <ele>164.276627</ele>
        <time>2013-05-19T09:19:32Z</time>
      </trkpt>
      <trkpt lat="43.35332" lon="2.74698">
        <ele>165.052521</ele>
        <time>2013-05-19T09:19:45Z</time>
      </trkpt>
      <trkpt lat="43.35333" lon="2.74702">
        <ele>165.286972</ele>
        <time>2013-05-19T09:19:58Z</time>
      </trkpt>
      <trkpt lat="43.35335" lon="2.74706">
        <ele>166.732376</ele>
        <time>2013-05-19T09:20:12Z</time>
      </trkpt>
      <trkpt lat="43.35335" lon="2.74708">
        <ele>166.666245</ele>
        <time>2013-05-19T09:20:27Z</time>
      </trkpt>
      <trkpt lat="43.35332" lon="2.74718">
        <ele>164.911804</ele>
        <time>2013-05-19T09:20:41Z</time>
      </trkpt>
      <trkpt lat="43.35331" lon="2.74724">
        <ele>164.564941</ele>
        <time>2013-05-19T09:20:46Z</time>
      </trkpt>
      <trkpt lat="43.35332" lon="2.74731">
        <ele>163.926559</ele>
        <time>2013-05-19T09:20:50Z</time>
      </trkpt>
      <trkpt lat="43.35332" lon="2.74733">
        <ele>163.607803</ele>
        <time>2013-05-19T09:20:51Z</time>
      </trkpt>
      <trkpt lat="43.35331" lon="2.74734">
        <ele>163.268921</ele>
        <time>2013-05-19T09:20:52Z</time>
      </trkpt>
      <trkpt lat="43.35331" lon="2.74738">
        <ele>162.216629</ele>
        <time>2013-05-19T09:20:55Z</time>
      </trkpt>
      <trkpt lat="43.3533" lon="2.74739">
        <ele>161.554626</ele>
        <time>2013-05-19T09:20:56Z</time>
      </trkpt>
      <trkpt lat="43.35329" lon="2.74741">
        <ele>160.936401</ele>
        <time>2013-05-19T09:20:57Z</time>
      </trkpt>
      <trkpt lat="43.35324" lon="2.74749">
        <ele>157.180008</ele>
        <time>2013-05-19T09:21:03Z</time>
      </trkpt>
      <trkpt lat="43.35333" lon="2.74761">
        <ele>159.17363</ele>
        <time>2013-05-19T09:21:09Z</time>
      </trkpt>
      <trkpt lat="43.35334" lon="2.74762">
        <ele>159.281708</ele>
        <time>2013-05-19T09:21:10Z</time>
      </trkpt>
      <trkpt lat="43.35336" lon="2.74766">
        <ele>159.605927</ele>
        <time>2013-05-19T09:21:13Z</time>
      </trkpt>
      <trkpt lat="43.35337" lon="2.74767">
        <ele>159.767624</ele>
        <time>2013-05-19T09:21:14Z</time>
      </trkpt>
      <trkpt lat="43.35338" lon="2.74768">
        <ele>159.751999</ele>
        <time>2013-05-19T09:21:15Z</time>
      </trkpt>
      <trkpt lat="43.3535" lon="2.74787">
        <ele>158.991928</ele>
        <time>2013-05-19T09:21:29Z</time>
      </trkpt>
      <trkpt lat="43.35351" lon="2.74788">
        <ele>158.956253</ele>
        <time>2013-05-19T09:21:30Z</time>
      </trkpt>
      <trkpt lat="43.35352" lon="2.74789">
        <ele>159.210526</ele>
        <time>2013-05-19T09:21:31Z</time>
      </trkpt>
      <trkpt lat="43.35353" lon="2.7479">
        <ele>159.442947</ele>
        <time>2013-05-19T09:21:32Z</time>
      </trkpt>
      <trkpt lat="43.35354" lon="2.74791">
        <ele>159.65712</ele>
        <time>2013-05-19T09:21:33Z</time>
      </trkpt>
      <trkpt lat="43.35354" lon="2.74792">
        <ele>159.771057</ele>
        <time>2013-05-19T09:21:34Z</time>
      </trkpt>
      <trkpt lat="43.35355" lon="2.74794">
        <ele>159.875504</ele>
        <time>2013-05-19T09:21:35Z</time>
      </trkpt>
      <trkpt lat="43.35356" lon="2.74795">
        <ele>160.049118</ele>
        <time>2013-05-19T09:21:36Z</time>
      </trkpt>
      <trkpt lat="43.35357" lon="2.74796">
        <ele>160.224503</ele>
        <time>2013-05-19T09:21:37Z</time>
      </trkpt>
      <trkpt lat="43.35358" lon="2.74797">
        <ele>160.394897</ele>
        <time>2013-05-19T09:21:38Z</time>
      </trkpt>
      <trkpt lat="43.3536" lon="2.74799">
        <ele>160.612045</ele>
        <time>2013-05-19T09:21:40Z</time>
      </trkpt>
      <trkpt lat="43.35361" lon="2.748">
        <ele>160.570633</ele>
        <time>2013-05-19T09:21:41Z</time>
      </trkpt>
      <trkpt lat="43.35362" lon="2.74801">
        <ele>160.545166</ele>
        <time>2013-05-19T09:21:42Z</time>
      </trkpt>
      <trkpt lat="43.35363" lon="2.74802">
        <ele>160.538696</ele>
        <time>2013-05-19T09:21:43Z</time>
      </trkpt>
      <trkpt lat="43.35366" lon="2.74803">
        <ele>160.571243</ele>
        <time>2013-05-19T09:21:46Z</time>
      </trkpt>
      <trkpt lat="43.35367" lon="2.74803">
        <ele>160.585007</ele>
        <time>2013-05-19T09:21:47Z</time>
      </trkpt>
      <trkpt lat="43.35372" lon="2.7481">
        <ele>161.254395</ele>
        <time>2013-05-19T09:21:56Z</time>
      </trkpt>
      <trkpt lat="43.35371" lon="2.74817">
        <ele>161.695053</ele>
        <time>2013-05-19T09:22:04Z</time>
      </trkpt>
      <trkpt lat="43.3537" lon="2.74819">
        <ele>161.747772</ele>
        <time>2013-05-19T09:22:05Z</time>
      </trkpt>
      <trkpt lat="43.35369" lon="2.74822">
        <ele>161.601501</ele>
        <time>2013-05-19T09:22:07Z</time>
      </trkpt>
      <trkpt lat="43.35367" lon="2.74822">
        <ele>161.36525</ele>
        <time>2013-05-19T09:22:08Z</time>
      </trkpt>
      <trkpt lat="43.35366" lon="2.74822">
        <ele>161.165741</ele>
        <time>2013-05-19T09:22:09Z</time>
      </trkpt>
      <trkpt lat="43.35355" lon="2.74824">
        <ele>160.16188</ele>
        <time>2013-05-19T09:22:21Z</time>
      </trkpt>
      <trkpt lat="43.35348" lon="2.74825">
        <ele>160.67215</ele>
        <time>2013-05-19T09:22:36Z</time>
      </trkpt>
      <trkpt lat="43.35343" lon="2.74835">
        <ele>162.298355</ele>
        <time>2013-05-19T09:22:47Z</time>
      </trkpt>
      <trkpt lat="43.35346" lon="2.74836">
        <ele>161.760849</ele>
        <time>2013-05-19T09:23:00Z</time>
      </trkpt>
      <trkpt lat="43.35343" lon="2.74832">
        <ele>161.765625</ele>
        <time>2013-05-19T09:23:11Z</time>
      </trkpt>
      <trkpt lat="43.35338" lon="2.7483">
        <ele>162.212082</ele>
        <time>2013-05-19T09:23:25Z</time>
      </trkpt>
      <trkpt lat="43.35334" lon="2.7483">
        <ele>162.674698</ele>
        <time>2013-05-19T09:23:38Z</time>
      </trkpt>
      <trkpt lat="43.35327" lon="2.7483">
        <ele>163.529999</ele>
        <time>2013-05-19T09:23:48Z</time>
      </trkpt>
      <trkpt lat="43.35322" lon="2.7483">
        <ele>164.318253</ele>
        <time>2013-05-19T09:23:59Z</time>
      </trkpt>
      <trkpt lat="43.35311" lon="2.74831">
        <ele>165.317368</ele>
        <time>2013-05-19T09:24:12Z</time>
      </trkpt>
      <trkpt lat="43.35307" lon="2.74829">
        <ele>164.477524</ele>
        <time>2013-05-19T09:24:16Z</time>
      </trkpt>
      <trkpt lat="43.35297" lon="2.74827">
        <ele>162.956436</ele>
        <time>2013-05-19T09:24:27Z</time>
      </trkpt>
      <trkpt lat="43.35291" lon="2.74827">
        <ele>162.650528</ele>
        <time>2013-05-19T09:24:37Z</time>
      </trkpt>
      <trkpt lat="43.35293" lon="2.7483">
        <ele>163.500778</ele>
        <time>2013-05-19T09:24:46Z</time>
      </trkpt>
      <trkpt lat="43.35301" lon="2.74838">
        <ele>166.958298</ele>
        <time>2013-05-19T09:24:59Z</time>
      </trkpt>
      <trkpt lat="43.35303" lon="2.74842">
        <ele>168.311874</ele>
        <time>2013-05-19T09:25:08Z</time>
      </trkpt>
      <trkpt lat="43.35305" lon="2.74842">
        <ele>168.585007</ele>
        <time>2013-05-19T09:25:11Z</time>
      </trkpt>
      <trkpt lat="43.35314" lon="2.74843">
        <ele>169.750031</ele>
        <time>2013-05-19T09:25:19Z</time>
      </trkpt>
      <trkpt lat="43.35327" lon="2.74847">
        <ele>168.051682</ele>
        <time>2013-05-19T09:25:32Z</time>
      </trkpt>
      <trkpt lat="43.35326" lon="2.7485">
        <ele>168.991165</ele>
        <time>2013-05-19T09:25:34Z</time>
      </trkpt>
      <trkpt lat="43.35327" lon="2.74854">
        <ele>169.867813</ele>
        <time>2013-05-19T09:25:36Z</time>
      </trkpt>
      <trkpt lat="43.35329" lon="2.74858">
        <ele>170.759552</ele>
        <time>2013-05-19T09:25:54Z</time>
      </trkpt>
      <trkpt lat="43.35329" lon="2.74858">
        <ele>170.846848</ele>
        <time>2013-05-19T09:27:37Z</time>
      </trkpt>
      <trkpt lat="43.35329" lon="2.74858">
        <ele>170.817749</ele>
        <time>2013-05-19T09:28:50Z</time>
      </trkpt>
      <trkpt lat="43.35329" lon="2.74859">
        <ele>171.022522</ele>
        <time>2013-05-19T09:29:48Z</time>
      </trkpt>
      <trkpt lat="43.35329" lon="2.7486">
        <ele>171.176193</ele>
        <time>2013-05-19T09:30:22Z</time>
      </trkpt>
      <trkpt lat="43.3533" lon="2.74864">
        <ele>172.369324</ele>
        <time>2013-05-19T09:30:26Z</time>
      </trkpt>
      <trkpt lat="43.35333" lon="2.74869">
        <ele>173.445984</ele>
        <time>2013-05-19T09:30:30Z</time>
      </trkpt>
      <trkpt lat="43.35355" lon="2.74895">
        <ele>178.652725</ele>
        <time>2013-05-19T09:30:47Z</time>
      </trkpt>
      <trkpt lat="43.35359" lon="2.74901">
        <ele>180.862015</ele>
        <time>2013-05-19T09:30:50Z</time>
      </trkpt>
      <trkpt lat="43.35391" lon="2.74923">
        <ele>187.427353</ele>
        <time>2013-05-19T09:31:08Z</time>
      </trkpt>
      <trkpt lat="43.35411" lon="2.74943">
        <ele>190.774597</ele>
        <time>2013-05-19T09:31:22Z</time>
      </trkpt>
      <trkpt lat="43.35415" lon="2.74947">
        <ele>191.592758</ele>
        <time>2013-05-19T09:31:25Z</time>
      </trkpt>
      <trkpt lat="43.35422" lon="2.74959">
        <ele>193.333374</ele>
        <time>2013-05-19T09:31:33Z</time>
      </trkpt>
      <trkpt lat="43.35424" lon="2.7496">
        <ele>193.67305</ele>
        <time>2013-05-19T09:31:35Z</time>
      </trkpt>
      <trkpt lat="43.35433" lon="2.74966">
        <ele>194.718796</ele>
        <time>2013-05-19T09:31:43Z</time>
      </trkpt>
      <trkpt lat="43.35439" lon="2.74967">
        <ele>195.324203</ele>
        <time>2013-05-19T09:31:56Z</time>
      </trkpt>
      <trkpt lat="43.35438" lon="2.74965">
        <ele>195.193924</ele>
        <time>2013-05-19T09:31:58Z</time>
      </trkpt>
      <trkpt lat="43.3543" lon="2.7496">
        <ele>194.253174</ele>
        <time>2013-05-19T09:32:08Z</time>
      </trkpt>
      <trkpt lat="43.35423" lon="2.74951">
        <ele>193.052505</ele>
        <time>2013-05-19T09:32:12Z</time>
      </trkpt>
      <trkpt lat="43.35425" lon="2.74935">
        <ele>192.349747</ele>
        <time>2013-05-19T09:32:18Z</time>
      </trkpt>
      <trkpt lat="43.35409" lon="2.74899">
        <ele>185.971313</ele>
        <time>2013-05-19T09:32:30Z</time>
      </trkpt>
      <trkpt lat="43.35417" lon="2.74875">
        <ele>185.699615</ele>
        <time>2013-05-19T09:32:40Z</time>
      </trkpt>
      <trkpt lat="43.35422" lon="2.74872">
        <ele>186.602524</ele>
        <time>2013-05-19T09:32:43Z</time>
      </trkpt>
      <trkpt lat="43.35441" lon="2.7486">
        <ele>191.341675</ele>
        <time>2013-05-19T09:32:59Z</time>
      </trkpt>
      <trkpt lat="43.35455" lon="2.74847">
        <ele>193.254578</ele>
        <time>2013-05-19T09:33:12Z</time>
      </trkpt>
      <trkpt lat="43.35472" lon="2.7483">
        <ele>192.809723</ele>
        <time>2013-05-19T09:33:27Z</time>
      </trkpt>
      <trkpt lat="43.35489" lon="2.74808">
        <ele>194.159943</ele>
        <time>2013-05-19T09:33:43Z</time>
      </trkpt>
      <trkpt lat="43.35506" lon="2.748">
        <ele>198.013245</ele>
        <time>2013-05-19T09:33:52Z</time>
      </trkpt>
      <trkpt lat="43.35521" lon="2.74807">
        <ele>202.695999</ele>
        <time>2013-05-19T09:34:02Z</time>
      </trkpt>
      <trkpt lat="43.35528" lon="2.74803">
        <ele>203.908508</ele>
        <time>2013-05-19T09:34:07Z</time>
      </trkpt>
      <trkpt lat="43.35531" lon="2.74772">
        <ele>201.550781</ele>
        <time>2013-05-19T09:34:21Z</time>
      </trkpt>
      <trkpt lat="43.35534" lon="2.74748">
        <ele>200.194855</ele>
        <time>2013-05-19T09:34:31Z</time>
      </trkpt>
      <trkpt lat="43.35558" lon="2.74734">
        <ele>206.11142</ele>
        <time>2013-05-19T09:34:46Z</time>
      </trkpt>
      <trkpt lat="43.35567" lon="2.7473">
        <ele>207.781097</ele>
        <time>2013-05-19T09:34:52Z</time>
      </trkpt>
      <trkpt lat="43.35584" lon="2.74704">
        <ele>209.346954</ele>
        <time>2013-05-19T09:35:07Z</time>
      </trkpt>
      <trkpt lat="43.35591" lon="2.74674">
        <ele>209.241409</ele>
        <time>2013-05-19T09:35:20Z</time>
      </trkpt>
      <trkpt lat="43.35606" lon="2.74643">
        <ele>209.947617</ele>
        <time>2013-05-19T09:35:35Z</time>
      </trkpt>
      <trkpt lat="43.35623" lon="2.74622">
        <ele>214.562851</ele>
        <time>2013-05-19T09:35:48Z</time>
      </trkpt>
      <trkpt lat="43.35647" lon="2.74599">
        <ele>217.629944</ele>
        <time>2013-05-19T09:36:06Z</time>
      </trkpt>
      <trkpt lat="43.35661" lon="2.74582">
        <ele>216.799484</ele>
        <time>2013-05-19T09:36:18Z</time>
      </trkpt>
      <trkpt lat="43.35678" lon="2.74562">
        <ele>221.23999</ele>
        <time>2013-05-19T09:36:33Z</time>
      </trkpt>
      <trkpt lat="43.35687" lon="2.74553">
        <ele>222.169846</ele>
        <time>2013-05-19T09:36:40Z</time>
      </trkpt>
      <trkpt lat="43.35696" lon="2.74546">
        <ele>223.880127</ele>
        <time>2013-05-19T09:36:47Z</time>
      </trkpt>
      <trkpt lat="43.35716" lon="2.7455">
        <ele>229.420624</ele>
        <time>2013-05-19T09:37:02Z</time>
      </trkpt>
      <trkpt lat="43.35731" lon="2.74543">
        <ele>231.507751</ele>
        <time>2013-05-19T09:37:13Z</time>
      </trkpt>
      <trkpt lat="43.35735" lon="2.74536">
        <ele>229.989883</ele>
        <time>2013-05-19T09:37:18Z</time>
      </trkpt>
      <trkpt lat="43.35751" lon="2.74518">
        <ele>229.603394</ele>
        <time>2013-05-19T09:37:33Z</time>
      </trkpt>
      <trkpt lat="43.3576" lon="2.74508">
        <ele>231.811905</ele>
        <time>2013-05-19T09:37:41Z</time>
      </trkpt>
      <trkpt lat="43.35776" lon="2.74496">
        <ele>236.017746</ele>
        <time>2013-05-19T09:37:54Z</time>
      </trkpt>
      <trkpt lat="43.3578" lon="2.74495">
        <ele>236.814117</ele>
        <time>2013-05-19T09:37:57Z</time>
      </trkpt>
      <trkpt lat="43.35801" lon="2.74479">
        <ele>240.915573</ele>
        <time>2013-05-19T09:38:13Z</time>
      </trkpt>
      <trkpt lat="43.35824" lon="2.7447">
        <ele>244.175781</ele>
        <time>2013-05-19T09:38:30Z</time>
      </trkpt>
      <trkpt lat="43.3584" lon="2.74462">
        <ele>246.180328</ele>
        <time>2013-05-19T09:38:41Z</time>
      </trkpt>
      <trkpt lat="43.35849" lon="2.74456">
        <ele>247.468994</ele>
        <time>2013-05-19T09:38:48Z</time>
      </trkpt>
      <trkpt lat="43.35875" lon="2.74447">
        <ele>250.408752</ele>
        <time>2013-05-19T09:39:05Z</time>
      </trkpt>
      <trkpt lat="43.35899" lon="2.74434">
        <ele>251.910583</ele>
        <time>2013-05-19T09:39:22Z</time>
      </trkpt>
      <trkpt lat="43.35919" lon="2.74431">
        <ele>252.244995</ele>
        <time>2013-05-19T09:39:35Z</time>
      </trkpt>
      <trkpt lat="43.3592" lon="2.74431">
        <ele>252.254822</ele>
        <time>2013-05-19T09:39:36Z</time>
      </trkpt>
      <trkpt lat="43.35927" lon="2.74433">
        <ele>252.743042</ele>
        <time>2013-05-19T09:39:41Z</time>
      </trkpt>
      <trkpt lat="43.35947" lon="2.74449">
        <ele>256.630157</ele>
        <time>2013-05-19T09:39:56Z</time>
      </trkpt>
      <trkpt lat="43.35974" lon="2.74451">
        <ele>258.228882</ele>
        <time>2013-05-19T09:40:14Z</time>
      </trkpt>
      <trkpt lat="43.35995" lon="2.74456">
        <ele>261.115875</ele>
        <time>2013-05-19T09:40:28Z</time>
      </trkpt>
      <trkpt lat="43.36018" lon="2.74459">
        <ele>265.541077</ele>
        <time>2013-05-19T09:40:43Z</time>
      </trkpt>
      <trkpt lat="43.3604" lon="2.74461">
        <ele>269.174988</ele>
        <time>2013-05-19T09:40:58Z</time>
      </trkpt>
      <trkpt lat="43.36043" lon="2.74462">
        <ele>269.544983</ele>
        <time>2013-05-19T09:41:04Z</time>
      </trkpt>
      <trkpt lat="43.36045" lon="2.74461">
        <ele>269.855011</ele>
        <time>2013-05-19T09:41:09Z</time>
      </trkpt>
      <trkpt lat="43.3606" lon="2.74461">
        <ele>271.910004</ele>
        <time>2013-05-19T09:41:20Z</time>
      </trkpt>
      <trkpt lat="43.36085" lon="2.74461">
        <ele>274.973999</ele>
        <time>2013-05-19T09:41:35Z</time>
      </trkpt>
      <trkpt lat="43.36107" lon="2.74468">
        <ele>277.437469</ele>
        <time>2013-05-19T09:41:50Z</time>
      </trkpt>
      <trkpt lat="43.36111" lon="2.7447">
        <ele>278.029205</ele>
        <time>2013-05-19T09:41:54Z</time>
      </trkpt>
      <trkpt lat="43.36134" lon="2.74481">
        <ele>280.657471</ele>
        <time>2013-05-19T09:42:10Z</time>
      </trkpt>
      <trkpt lat="43.36151" lon="2.74492">
        <ele>282.810547</ele>
        <time>2013-05-19T09:42:21Z</time>
      </trkpt>
      <trkpt lat="43.36169" lon="2.74511">
        <ele>284.820374</ele>
        <time>2013-05-19T09:42:35Z</time>
      </trkpt>
      <trkpt lat="43.3619" lon="2.74535">
        <ele>286.333679</ele>
        <time>2013-05-19T09:42:51Z</time>
      </trkpt>
      <trkpt lat="43.36214" lon="2.74553">
        <ele>287.65329</ele>
        <time>2013-05-19T09:43:07Z</time>
      </trkpt>
      <trkpt lat="43.36225" lon="2.7456">
        <ele>289.494293</ele>
        <time>2013-05-19T09:43:15Z</time>
      </trkpt>
      <trkpt lat="43.36244" lon="2.74579">
        <ele>292.355194</ele>
        <time>2013-05-19T09:43:30Z</time>
      </trkpt>
      <trkpt lat="43.36262" lon="2.746">
        <ele>293.99585</ele>
        <time>2013-05-19T09:43:45Z</time>
      </trkpt>
      <trkpt lat="43.36263" lon="2.746">
        <ele>294.143433</ele>
        <time>2013-05-19T09:43:46Z</time>
      </trkpt>
      <trkpt lat="43.36273" lon="2.74585">
        <ele>294.840637</ele>
        <time>2013-05-19T09:43:54Z</time>
      </trkpt>
      <trkpt lat="43.36286" lon="2.74569">
        <ele>296.223145</ele>
        <time>2013-05-19T09:44:05Z</time>
      </trkpt>
      <trkpt lat="43.36309" lon="2.74581">
        <ele>298.821899</ele>
        <time>2013-05-19T09:44:21Z</time>
      </trkpt>
      <trkpt lat="43.36311" lon="2.74585">
        <ele>298.925049</ele>
        <time>2013-05-19T09:44:23Z</time>
      </trkpt>
      <trkpt lat="43.36317" lon="2.74592">
        <ele>299.335052</ele>
        <time>2013-05-19T09:44:28Z</time>
      </trkpt>
      <trkpt lat="43.36323" lon="2.74598">
        <ele>299.774231</ele>
        <time>2013-05-19T09:44:33Z</time>
      </trkpt>
      <trkpt lat="43.36343" lon="2.74618">
        <ele>301.657806</ele>
        <time>2013-05-19T09:44:47Z</time>
      </trkpt>
      <trkpt lat="43.36368" lon="2.74628">
        <ele>302.851166</ele>
        <time>2013-05-19T09:45:02Z</time>
      </trkpt>
      <trkpt lat="43.36376" lon="2.74631">
        <ele>303.160065</ele>
        <time>2013-05-19T09:45:07Z</time>
      </trkpt>
      <trkpt lat="43.36397" lon="2.74632">
        <ele>303.942505</ele>
        <time>2013-05-19T09:45:20Z</time>
      </trkpt>
      <trkpt lat="43.36424" lon="2.74637">
        <ele>305.887512</ele>
        <time>2013-05-19T09:45:35Z</time>
      </trkpt>
      <trkpt lat="43.36445" lon="2.74644">
        <ele>307.892303</ele>
        <time>2013-05-19T09:45:50Z</time>
      </trkpt>
      <trkpt lat="43.3645" lon="2.74645">
        <ele>308.473938</ele>
        <time>2013-05-19T09:45:53Z</time>
      </trkpt>
      <trkpt lat="43.36473" lon="2.74648">
        <ele>311.392395</ele>
        <time>2013-05-19T09:46:09Z</time>
      </trkpt>
      <trkpt lat="43.36496" lon="2.74652">
        <ele>314.26828</ele>
        <time>2013-05-19T09:46:25Z</time>
      </trkpt>
      <trkpt lat="43.36511" lon="2.74653">
        <ele>316.19754</ele>
        <time>2013-05-19T09:46:36Z</time>
      </trkpt>
      <trkpt lat="43.3653" lon="2.74648">
        <ele>318.434998</ele>
        <time>2013-05-19T09:46:50Z</time>
      </trkpt>
      <trkpt lat="43.3654" lon="2.74652">
        <ele>319.637512</ele>
        <time>2013-05-19T09:46:57Z</time>
      </trkpt>
      <trkpt lat="43.36553" lon="2.74658">
        <ele>321.255005</ele>
        <time>2013-05-19T09:47:09Z</time>
      </trkpt>
      <trkpt lat="43.36556" lon="2.7466">
        <ele>321.722504</ele>
        <time>2013-05-19T09:47:12Z</time>
      </trkpt>
      <trkpt lat="43.36565" lon="2.74668">
        <ele>322.945007</ele>
        <time>2013-05-19T09:47:19Z</time>
      </trkpt>
      <trkpt lat="43.36571" lon="2.74671">
        <ele>323.654999</ele>
        <time>2013-05-19T09:47:23Z</time>
      </trkpt>
      <trkpt lat="43.36594" lon="2.74692">
        <ele>326.151154</ele>
        <time>2013-05-19T09:47:42Z</time>
      </trkpt>
      <trkpt lat="43.36617" lon="2.74713">
        <ele>328.261414</ele>
        <time>2013-05-19T09:47:59Z</time>
      </trkpt>
      <trkpt lat="43.36633" lon="2.74737">
        <ele>329.96936</ele>
        <time>2013-05-19T09:48:13Z</time>
      </trkpt>
      <trkpt lat="43.36651" lon="2.74751">
        <ele>330.865631</ele>
        <time>2013-05-19T09:48:27Z</time>
      </trkpt>
      <trkpt lat="43.36663" lon="2.74748">
        <ele>331.643616</ele>
        <time>2013-05-19T09:48:35Z</time>
      </trkpt>
      <trkpt lat="43.36669" lon="2.74745">
        <ele>332.154449</ele>
        <time>2013-05-19T09:48:39Z</time>
      </trkpt>
      <trkpt lat="43.36694" lon="2.74738">
        <ele>334.064331</ele>
        <time>2013-05-19T09:48:55Z</time>
      </trkpt>
      <trkpt lat="43.36701" lon="2.74739">
        <ele>334.484863</ele>
        <time>2013-05-19T09:48:59Z</time>
      </trkpt>
      <trkpt lat="43.36707" lon="2.74739">
        <ele>334.934753</ele>
        <time>2013-05-19T09:49:12Z</time>
      </trkpt>
      <trkpt lat="43.36714" lon="2.74737">
        <ele>335.689301</ele>
        <time>2013-05-19T09:49:32Z</time>
      </trkpt>
      <trkpt lat="43.36744" lon="2.7473">
        <ele>339.094421</ele>
        <time>2013-05-19T09:49:49Z</time>
      </trkpt>
      <trkpt lat="43.36764" lon="2.74706">
        <ele>340.744385</ele>
        <time>2013-05-19T09:50:04Z</time>
      </trkpt>
      <trkpt lat="43.36788" lon="2.74676">
        <ele>343.096741</ele>
        <time>2013-05-19T09:50:21Z</time>
      </trkpt>
      <trkpt lat="43.36809" lon="2.74649">
        <ele>344.310303</ele>
        <time>2013-05-19T09:50:36Z</time>
      </trkpt>
      <trkpt lat="43.36832" lon="2.74635">
        <ele>345.467377</ele>
        <time>2013-05-19T09:50:50Z</time>
      </trkpt>
      <trkpt lat="43.36855" lon="2.74621">
        <ele>347.085297</ele>
        <time>2013-05-19T09:51:03Z</time>
      </trkpt>
      <trkpt lat="43.36879" lon="2.74605">
        <ele>349.007629</ele>
        <time>2013-05-19T09:51:17Z</time>
      </trkpt>
      <trkpt lat="43.36914" lon="2.74584">
        <ele>351.930328</ele>
        <time>2013-05-19T09:51:36Z</time>
      </trkpt>
      <trkpt lat="43.36939" lon="2.74563">
        <ele>355.09549</ele>
        <time>2013-05-19T09:51:52Z</time>
      </trkpt>
      <trkpt lat="43.36949" lon="2.74557">
        <ele>356.569855</ele>
        <time>2013-05-19T09:51:59Z</time>
      </trkpt>
      <trkpt lat="43.36963" lon="2.74555">
        <ele>358.270203</ele>
        <time>2013-05-19T09:52:08Z</time>
      </trkpt>
      <trkpt lat="43.36969" lon="2.74559">
        <ele>358.776001</ele>
        <time>2013-05-19T09:52:12Z</time>
      </trkpt>
      <trkpt lat="43.36973" lon="2.74565">
        <ele>359.046509</ele>
        <time>2013-05-19T09:52:16Z</time>
      </trkpt>
      <trkpt lat="43.36994" lon="2.74565">
        <ele>361.475433</ele>
        <time>2013-05-19T09:52:30Z</time>
      </trkpt>
      <trkpt lat="43.37015" lon="2.74556">
        <ele>364.037231</ele>
        <time>2013-05-19T09:52:45Z</time>
      </trkpt>
      <trkpt lat="43.37035" lon="2.74536">
        <ele>366.892487</ele>
        <time>2013-05-19T09:53:01Z</time>
      </trkpt>
      <trkpt lat="43.3705" lon="2.7452">
        <ele>369.07251</ele>
        <time>2013-05-19T09:53:14Z</time>
      </trkpt>
      <trkpt lat="43.3707" lon="2.74509">
        <ele>371.727966</ele>
        <time>2013-05-19T09:53:29Z</time>
      </trkpt>
      <trkpt lat="43.37089" lon="2.74486">
        <ele>374.350616</ele>
        <time>2013-05-19T09:53:47Z</time>
      </trkpt>
      <trkpt lat="43.37102" lon="2.7446">
        <ele>375.882813</ele>
        <time>2013-05-19T09:54:03Z</time>
      </trkpt>
      <trkpt lat="43.37121" lon="2.7444">
        <ele>377.889252</ele>
        <time>2013-05-19T09:54:20Z</time>
      </trkpt>
      <trkpt lat="43.37144" lon="2.74439">
        <ele>380.484985</ele>
        <time>2013-05-19T09:54:35Z</time>
      </trkpt>
      <trkpt lat="43.37162" lon="2.74443">
        <ele>382.416077</ele>
        <time>2013-05-19T09:54:48Z</time>
      </trkpt>
      <trkpt lat="43.37185" lon="2.74461">
        <ele>384.25293</ele>
        <time>2013-05-19T09:55:05Z</time>
      </trkpt>
      <trkpt lat="43.37202" lon="2.74478">
        <ele>386.200806</ele>
        <time>2013-05-19T09:55:19Z</time>
      </trkpt>
      <trkpt lat="43.37208" lon="2.74486">
        <ele>386.998749</ele>
        <time>2013-05-19T09:55:25Z</time>
      </trkpt>
      <trkpt lat="43.37223" lon="2.74507">
        <ele>388.255127</ele>
        <time>2013-05-19T09:55:38Z</time>
      </trkpt>
      <trkpt lat="43.37246" lon="2.74522">
        <ele>389.843964</ele>
        <time>2013-05-19T09:55:53Z</time>
      </trkpt>
      <trkpt lat="43.37265" lon="2.74524">
        <ele>391.559998</ele>
        <time>2013-05-19T09:56:05Z</time>
      </trkpt>
      <trkpt lat="43.37286" lon="2.74521">
        <ele>393.399994</ele>
        <time>2013-05-19T09:56:17Z</time>
      </trkpt>
      <trkpt lat="43.37315" lon="2.74523">
        <ele>395.484985</ele>
        <time>2013-05-19T09:56:34Z</time>
      </trkpt>
      <trkpt lat="43.37338" lon="2.74521">
        <ele>397.017792</ele>
        <time>2013-05-19T09:56:48Z</time>
      </trkpt>
      <trkpt lat="43.37363" lon="2.74526">
        <ele>399.012573</ele>
        <time>2013-05-19T09:57:04Z</time>
      </trkpt>
      <trkpt lat="43.37376" lon="2.74524">
        <ele>399.982452</ele>
        <time>2013-05-19T09:57:11Z</time>
      </trkpt>
      <trkpt lat="43.37386" lon="2.74528">
        <ele>400.844696</ele>
        <time>2013-05-19T09:57:18Z</time>
      </trkpt>
      <trkpt lat="43.37396" lon="2.7453">
        <ele>401.801971</ele>
        <time>2013-05-19T09:57:24Z</time>
      </trkpt>
      <trkpt lat="43.3742" lon="2.74542">
        <ele>404.247925</ele>
        <time>2013-05-19T09:57:40Z</time>
      </trkpt>
      <trkpt lat="43.37449" lon="2.74548">
        <ele>406.959991</ele>
        <time>2013-05-19T09:57:58Z</time>
      </trkpt>
      <trkpt lat="43.37468" lon="2.7455">
        <ele>408.660004</ele>
        <time>2013-05-19T09:58:10Z</time>
      </trkpt>
      <trkpt lat="43.37492" lon="2.7455">
        <ele>410.776489</ele>
        <time>2013-05-19T09:58:25Z</time>
      </trkpt>
      <trkpt lat="43.37499" lon="2.74547">
        <ele>411.501892</ele>
        <time>2013-05-19T09:58:30Z</time>
      </trkpt>
      <trkpt lat="43.37528" lon="2.74532">
        <ele>414.219849</ele>
        <time>2013-05-19T09:58:49Z</time>
      </trkpt>
      <trkpt lat="43.37548" lon="2.7452">
        <ele>416.084015</ele>
        <time>2013-05-19T09:59:02Z</time>
      </trkpt>
      <trkpt lat="43.37568" lon="2.7451">
        <ele>417.884125</ele>
        <time>2013-05-19T09:59:15Z</time>
      </trkpt>
      <trkpt lat="43.37582" lon="2.74506">
        <ele>418.900055</ele>
        <time>2013-05-19T09:59:25Z</time>
      </trkpt>
      <trkpt lat="43.37611" lon="2.74509">
        <ele>420.721252</ele>
        <time>2013-05-19T09:59:42Z</time>
      </trkpt>
      <trkpt lat="43.3764" lon="2.74515">
        <ele>423.059998</ele>
        <time>2013-05-19T10:00:00Z</time>
      </trkpt>
      <trkpt lat="43.37659" lon="2.7451">
        <ele>425.062592</ele>
        <time>2013-05-19T10:00:13Z</time>
      </trkpt>
      <trkpt lat="43.37684" lon="2.74497">
        <ele>427.816132</ele>
        <time>2013-05-19T10:00:30Z</time>
      </trkpt>
      <trkpt lat="43.37705" lon="2.74493">
        <ele>429.899994</ele>
        <time>2013-05-19T10:00:44Z</time>
      </trkpt>
      <trkpt lat="43.37716" lon="2.74491">
        <ele>431.162506</ele>
        <time>2013-05-19T10:00:52Z</time>
      </trkpt>
      <trkpt lat="43.37722" lon="2.74492">
        <ele>431.787506</ele>
        <time>2013-05-19T10:00:57Z</time>
      </trkpt>
      <trkpt lat="43.37744" lon="2.74481">
        <ele>434.203064</ele>
        <time>2013-05-19T10:01:12Z</time>
      </trkpt>
      <trkpt lat="43.37767" lon="2.74465">
        <ele>436.77887</ele>
        <time>2013-05-19T10:01:29Z</time>
      </trkpt>
      <trkpt lat="43.37792" lon="2.74457">
        <ele>439.595154</ele>
        <time>2013-05-19T10:01:47Z</time>
      </trkpt>
      <trkpt lat="43.37795" lon="2.74456">
        <ele>439.822479</ele>
        <time>2013-05-19T10:01:49Z</time>
      </trkpt>
      <trkpt lat="43.3781" lon="2.74447">
        <ele>441.329193</ele>
        <time>2013-05-19T10:02:01Z</time>
      </trkpt>
      <trkpt lat="43.37826" lon="2.74426">
        <ele>443.470001</ele>
        <time>2013-05-19T10:02:16Z</time>
      </trkpt>
      <trkpt lat="43.37843" lon="2.74408">
        <ele>444.444733</ele>
        <time>2013-05-19T10:02:29Z</time>
      </trkpt>
      <trkpt lat="43.37864" lon="2.74395">
        <ele>445.680756</ele>
        <time>2013-05-19T10:02:43Z</time>
      </trkpt>
      <trkpt lat="43.37871" lon="2.74401">
        <ele>445.850922</ele>
        <time>2013-05-19T10:02:55Z</time>
      </trkpt>
      <trkpt lat="43.37872" lon="2.74401">
        <ele>445.880035</ele>
        <time>2013-05-19T10:03:27Z</time>
      </trkpt>
      <trkpt lat="43.37872" lon="2.74401">
        <ele>445.880035</ele>
        <time>2013-05-19T10:03:55Z</time>
      </trkpt>
      <trkpt lat="43.37871" lon="2.74401">
        <ele>445.883423</ele>
        <time>2013-05-19T10:04:30Z</time>
      </trkpt>
      <trkpt lat="43.37871" lon="2.74401">
        <ele>445.84256</ele>
        <time>2013-05-19T10:04:47Z</time>
      </trkpt>
      <trkpt lat="43.37871" lon="2.74401">
        <ele>445.844696</ele>
        <time>2013-05-19T10:05:37Z</time>
      </trkpt>
      <trkpt lat="43.37871" lon="2.74398">
        <ele>445.959991</ele>
        <time>2013-05-19T10:06:31Z</time>
      </trkpt>
      <trkpt lat="43.37875" lon="2.74396">
        <ele>446.161682</ele>
        <time>2013-05-19T10:06:41Z</time>
      </trkpt>
      <trkpt lat="43.37875" lon="2.74396">
        <ele>446.161682</ele>
        <time>2013-05-19T10:06:44Z</time>
      </trkpt>
      <trkpt lat="43.37887" lon="2.74413">
        <ele>445.987518</ele>
        <time>2013-05-19T10:06:54Z</time>
      </trkpt>
      <trkpt lat="43.37922" lon="2.74447">
        <ele>443.865875</ele>
        <time>2013-05-19T10:07:09Z</time>
      </trkpt>
      <trkpt lat="43.37947" lon="2.74457">
        <ele>445.661224</ele>
        <time>2013-05-19T10:07:21Z</time>
      </trkpt>
      <trkpt lat="43.37971" lon="2.74465">
        <ele>447.728333</ele>
        <time>2013-05-19T10:07:36Z</time>
      </trkpt>
      <trkpt lat="43.37991" lon="2.74484">
        <ele>448.224091</ele>
        <time>2013-05-19T10:07:49Z</time>
      </trkpt>
      <trkpt lat="43.38016" lon="2.74515">
        <ele>449.535004</ele>
        <time>2013-05-19T10:08:07Z</time>
      </trkpt>
      <trkpt lat="43.38043" lon="2.74542">
        <ele>451.485016</ele>
        <time>2013-05-19T10:08:24Z</time>
      </trkpt>
      <trkpt lat="43.38069" lon="2.7457">
        <ele>453.070007</ele>
        <time>2013-05-19T10:08:38Z</time>
      </trkpt>
      <trkpt lat="43.38097" lon="2.74598">
        <ele>455.105011</ele>
        <time>2013-05-19T10:08:53Z</time>
      </trkpt>
      <trkpt lat="43.38117" lon="2.74637">
        <ele>456.610535</ele>
        <time>2013-05-19T10:09:08Z</time>
      </trkpt>
      <trkpt lat="43.38147" lon="2.74655">
        <ele>460.697083</ele>
        <time>2013-05-19T10:09:25Z</time>
      </trkpt>
      <trkpt lat="43.38165" lon="2.74679">
        <ele>463.587402</ele>
        <time>2013-05-19T10:09:39Z</time>
      </trkpt>
      <trkpt lat="43.38185" lon="2.74713">
        <ele>465.204132</ele>
        <time>2013-05-19T10:09:55Z</time>
      </trkpt>
      <trkpt lat="43.38211" lon="2.74749">
        <ele>466.731873</ele>
        <time>2013-05-19T10:10:15Z</time>
      </trkpt>
      <trkpt lat="43.38236" lon="2.74776">
        <ele>467.769989</ele>
        <time>2013-05-19T10:10:32Z</time>
      </trkpt>
      <trkpt lat="43.38257" lon="2.74795">
        <ele>471.006256</ele>
        <time>2013-05-19T10:10:45Z</time>
      </trkpt>
      <trkpt lat="43.38262" lon="2.74806">
        <ele>471.433746</ele>
        <time>2013-05-19T10:10:50Z</time>
      </trkpt>
      <trkpt lat="43.3827" lon="2.74857">
        <ele>471.268982</ele>
        <time>2013-05-19T10:11:08Z</time>
      </trkpt>
      <trkpt lat="43.38283" lon="2.7489">
        <ele>471.825012</ele>
        <time>2013-05-19T10:11:21Z</time>
      </trkpt>
      <trkpt lat="43.38304" lon="2.74901">
        <ele>473.816254</ele>
        <time>2013-05-19T10:11:35Z</time>
      </trkpt>
      <trkpt lat="43.38332" lon="2.74908">
        <ele>476.235809</ele>
        <time>2013-05-19T10:11:49Z</time>
      </trkpt>
      <trkpt lat="43.38357" lon="2.74922">
        <ele>476.17218</ele>
        <time>2013-05-19T10:12:02Z</time>
      </trkpt>
      <trkpt lat="43.38386" lon="2.74933">
        <ele>476.634552</ele>
        <time>2013-05-19T10:12:15Z</time>
      </trkpt>
      <trkpt lat="43.38418" lon="2.74942">
        <ele>476.982086</ele>
        <time>2013-05-19T10:12:29Z</time>
      </trkpt>
      <trkpt lat="43.38447" lon="2.74945">
        <ele>477.057678</ele>
        <time>2013-05-19T10:12:42Z</time>
      </trkpt>
      <trkpt lat="43.38471" lon="2.74944">
        <ele>476.857422</ele>
        <time>2013-05-19T10:12:55Z</time>
      </trkpt>
      <trkpt lat="43.3851" lon="2.74933">
        <ele>475.459961</ele>
        <time>2013-05-19T10:13:08Z</time>
      </trkpt>
      <trkpt lat="43.38546" lon="2.74928">
        <ele>472.416962</ele>
        <time>2013-05-19T10:13:15Z</time>
      </trkpt>
      <trkpt lat="43.38553" lon="2.74924">
        <ele>472.140533</ele>
        <time>2013-05-19T10:13:16Z</time>
      </trkpt>
      <trkpt lat="43.38578" lon="2.74907">
        <ele>472.344849</ele>
        <time>2013-05-19T10:13:21Z</time>
      </trkpt>
      <trkpt lat="43.38613" lon="2.7488">
        <ele>476.218414</ele>
        <time>2013-05-19T10:13:33Z</time>
      </trkpt>
      <trkpt lat="43.38636" lon="2.74882">
        <ele>477.202789</ele>
        <time>2013-05-19T10:13:45Z</time>
      </trkpt>
      <trkpt lat="43.38663" lon="2.74862">
        <ele>477.486084</ele>
        <time>2013-05-19T10:13:57Z</time>
      </trkpt>
      <trkpt lat="43.38684" lon="2.74838">
        <ele>477.879608</ele>
        <time>2013-05-19T10:14:05Z</time>
      </trkpt>
      <trkpt lat="43.38686" lon="2.74835">
        <ele>478.045013</ele>
        <time>2013-05-19T10:14:06Z</time>
      </trkpt>
      <trkpt lat="43.38687" lon="2.74833">
        <ele>478.179993</ele>
        <time>2013-05-19T10:14:07Z</time>
      </trkpt>
      <trkpt lat="43.38689" lon="2.74831">
        <ele>478.309998</ele>
        <time>2013-05-19T10:14:08Z</time>
      </trkpt>
      <trkpt lat="43.38692" lon="2.74829">
        <ele>478.442505</ele>
        <time>2013-05-19T10:14:09Z</time>
      </trkpt>
      <trkpt lat="43.38731" lon="2.74795">
        <ele>480.394379</ele>
        <time>2013-05-19T10:14:25Z</time>
      </trkpt>
      <trkpt lat="43.38741" lon="2.74765">
        <ele>483.29715</ele>
        <time>2013-05-19T10:14:36Z</time>
      </trkpt>
      <trkpt lat="43.38736" lon="2.74715">
        <ele>484.788757</ele>
        <time>2013-05-19T10:14:50Z</time>
      </trkpt>
      <trkpt lat="43.38728" lon="2.74678">
        <ele>484.438751</ele>
        <time>2013-05-19T10:15:01Z</time>
      </trkpt>
      <trkpt lat="43.38755" lon="2.74648">
        <ele>483.200409</ele>
        <time>2013-05-19T10:15:12Z</time>
      </trkpt>
      <trkpt lat="43.38772" lon="2.74629">
        <ele>482.078888</ele>
        <time>2013-05-19T10:15:17Z</time>
      </trkpt>
      <trkpt lat="43.38775" lon="2.74624">
        <ele>481.897491</ele>
        <time>2013-05-19T10:15:18Z</time>
      </trkpt>
      <trkpt lat="43.38809" lon="2.74588">
        <ele>483.105011</ele>
        <time>2013-05-19T10:15:29Z</time>
      </trkpt>
      <trkpt lat="43.38831" lon="2.74544">
        <ele>482.628754</ele>
        <time>2013-05-19T10:15:42Z</time>
      </trkpt>
      <trkpt lat="43.38852" lon="2.74503">
        <ele>482.084991</ele>
        <time>2013-05-19T10:15:55Z</time>
      </trkpt>
      <trkpt lat="43.38876" lon="2.74475">
        <ele>483.720001</ele>
        <time>2013-05-19T10:16:06Z</time>
      </trkpt>
      <trkpt lat="43.38902" lon="2.74439">
        <ele>485.5625</ele>
        <time>2013-05-19T10:16:19Z</time>
      </trkpt>
      <trkpt lat="43.38904" lon="2.74397">
        <ele>487.077515</ele>
        <time>2013-05-19T10:16:31Z</time>
      </trkpt>
      <trkpt lat="43.38905" lon="2.74394">
        <ele>487.204987</ele>
        <time>2013-05-19T10:16:32Z</time>
      </trkpt>
      <trkpt lat="43.38905" lon="2.7439">
        <ele>487.350006</ele>
        <time>2013-05-19T10:16:33Z</time>
      </trkpt>
      <trkpt lat="43.38905" lon="2.74387">
        <ele>487.445007</ele>
        <time>2013-05-19T10:16:34Z</time>
      </trkpt>
      <trkpt lat="43.38905" lon="2.74384">
        <ele>487.540009</ele>
        <time>2013-05-19T10:16:35Z</time>
      </trkpt>
      <trkpt lat="43.38904" lon="2.74381">
        <ele>487.608826</ele>
        <time>2013-05-19T10:16:36Z</time>
      </trkpt>
      <trkpt lat="43.38904" lon="2.74378">
        <ele>487.661438</ele>
        <time>2013-05-19T10:16:37Z</time>
      </trkpt>
      <trkpt lat="43.38904" lon="2.74375">
        <ele>487.71109</ele>
        <time>2013-05-19T10:16:38Z</time>
      </trkpt>
      <trkpt lat="43.38904" lon="2.74372">
        <ele>487.729797</ele>
        <time>2013-05-19T10:16:39Z</time>
      </trkpt>
      <trkpt lat="43.38903" lon="2.74369">
        <ele>487.7258</ele>
        <time>2013-05-19T10:16:40Z</time>
      </trkpt>
      <trkpt lat="43.38893" lon="2.74315">
        <ele>488.366089</ele>
        <time>2013-05-19T10:16:55Z</time>
      </trkpt>
      <trkpt lat="43.3888" lon="2.74269">
        <ele>488.719299</ele>
        <time>2013-05-19T10:17:09Z</time>
      </trkpt>
      <trkpt lat="43.38871" lon="2.7423">
        <ele>488.744629</ele>
        <time>2013-05-19T10:17:20Z</time>
      </trkpt>
      <trkpt lat="43.38855" lon="2.74181">
        <ele>488.212494</ele>
        <time>2013-05-19T10:17:34Z</time>
      </trkpt>
      <trkpt lat="43.38847" lon="2.7413">
        <ele>487.679993</ele>
        <time>2013-05-19T10:17:46Z</time>
      </trkpt>
      <trkpt lat="43.38847" lon="2.74118">
        <ele>487.702515</ele>
        <time>2013-05-19T10:17:48Z</time>
      </trkpt>
      <trkpt lat="43.38863" lon="2.74077">
        <ele>488.737488</ele>
        <time>2013-05-19T10:17:59Z</time>
      </trkpt>
      <trkpt lat="43.38868" lon="2.74067">
        <ele>489.149658</ele>
        <time>2013-05-19T10:18:07Z</time>
      </trkpt>
      <trkpt lat="43.38867" lon="2.74066">
        <ele>489.11499</ele>
        <time>2013-05-19T10:18:23Z</time>
      </trkpt>
      <trkpt lat="43.38867" lon="2.74065">
        <ele>489.137512</ele>
        <time>2013-05-19T10:18:26Z</time>
      </trkpt>
      <trkpt lat="43.38862" lon="2.74031">
        <ele>489.328735</ele>
        <time>2013-05-19T10:18:34Z</time>
      </trkpt>
      <trkpt lat="43.38858" lon="2.7402">
        <ele>489.241241</ele>
        <time>2013-05-19T10:18:36Z</time>
      </trkpt>
      <trkpt lat="43.38845" lon="2.73981">
        <ele>488.296997</ele>
        <time>2013-05-19T10:18:42Z</time>
      </trkpt>
      <trkpt lat="43.38844" lon="2.73974">
        <ele>488.156128</ele>
        <time>2013-05-19T10:18:43Z</time>
      </trkpt>
      <trkpt lat="43.38843" lon="2.73966">
        <ele>488.05188</ele>
        <time>2013-05-19T10:18:44Z</time>
      </trkpt>
      <trkpt lat="43.38843" lon="2.73958">
        <ele>487.996399</ele>
        <time>2013-05-19T10:18:45Z</time>
      </trkpt>
      <trkpt lat="43.38844" lon="2.73949">
        <ele>487.942047</ele>
        <time>2013-05-19T10:18:46Z</time>
      </trkpt>
      <trkpt lat="43.38848" lon="2.73924">
        <ele>487.044037</ele>
        <time>2013-05-19T10:18:49Z</time>
      </trkpt>
      <trkpt lat="43.3885" lon="2.73916">
        <ele>486.78775</ele>
        <time>2013-05-19T10:18:50Z</time>
      </trkpt>
      <trkpt lat="43.38853" lon="2.73909">
        <ele>486.571106</ele>
        <time>2013-05-19T10:18:51Z</time>
      </trkpt>
      <trkpt lat="43.38857" lon="2.73902">
        <ele>486.357269</ele>
        <time>2013-05-19T10:18:52Z</time>
      </trkpt>
      <trkpt lat="43.3886" lon="2.73895">
        <ele>486.155182</ele>
        <time>2013-05-19T10:18:53Z</time>
      </trkpt>
      <trkpt lat="43.38865" lon="2.73889">
        <ele>485.953339</ele>
        <time>2013-05-19T10:18:54Z</time>
      </trkpt>
      <trkpt lat="43.38903" lon="2.73844">
        <ele>485.804718</ele>
        <time>2013-05-19T10:19:02Z</time>
      </trkpt>
      <trkpt lat="43.38906" lon="2.73836">
        <ele>485.732635</ele>
        <time>2013-05-19T10:19:03Z</time>
      </trkpt>
      <trkpt lat="43.38908" lon="2.73829">
        <ele>485.592773</ele>
        <time>2013-05-19T10:19:04Z</time>
      </trkpt>
      <trkpt lat="43.3891" lon="2.7382">
        <ele>485.256042</ele>
        <time>2013-05-19T10:19:05Z</time>
      </trkpt>
      <trkpt lat="43.38911" lon="2.73812">
        <ele>484.790009</ele>
        <time>2013-05-19T10:19:06Z</time>
      </trkpt>
      <trkpt lat="43.38911" lon="2.73803">
        <ele>484.177216</ele>
        <time>2013-05-19T10:19:07Z</time>
      </trkpt>
      <trkpt lat="43.3891" lon="2.73794">
        <ele>483.47113</ele>
        <time>2013-05-19T10:19:08Z</time>
      </trkpt>
      <trkpt lat="43.38908" lon="2.73786">
        <ele>482.688721</ele>
        <time>2013-05-19T10:19:09Z</time>
      </trkpt>
      <trkpt lat="43.38906" lon="2.73777">
        <ele>481.778412</ele>
        <time>2013-05-19T10:19:10Z</time>
      </trkpt>
      <trkpt lat="43.38903" lon="2.73768">
        <ele>480.782043</ele>
        <time>2013-05-19T10:19:11Z</time>
      </trkpt>
      <trkpt lat="43.38853" lon="2.73666">
        <ele>475.654755</ele>
        <time>2013-05-19T10:19:22Z</time>
      </trkpt>
      <trkpt lat="43.38845" lon="2.73658">
        <ele>474.249969</ele>
        <time>2013-05-19T10:19:23Z</time>
      </trkpt>
      <trkpt lat="43.38828" lon="2.73642">
        <ele>470.111572</ele>
        <time>2013-05-19T10:19:25Z</time>
      </trkpt>
      <trkpt lat="43.3882" lon="2.73632">
        <ele>469.217163</ele>
        <time>2013-05-19T10:19:26Z</time>
      </trkpt>
      <trkpt lat="43.38788" lon="2.73586">
        <ele>463.213013</ele>
        <time>2013-05-19T10:19:30Z</time>
      </trkpt>
      <trkpt lat="43.38783" lon="2.73573">
        <ele>461.669189</ele>
        <time>2013-05-19T10:19:31Z</time>
      </trkpt>
      <trkpt lat="43.3878" lon="2.73557">
        <ele>461.162445</ele>
        <time>2013-05-19T10:19:32Z</time>
      </trkpt>
      <trkpt lat="43.3878" lon="2.73542">
        <ele>461.489319</ele>
        <time>2013-05-19T10:19:33Z</time>
      </trkpt>
      <trkpt lat="43.38781" lon="2.73529">
        <ele>462.316956</ele>
        <time>2013-05-19T10:19:34Z</time>
      </trkpt>
      <trkpt lat="43.38784" lon="2.73516">
        <ele>463.792145</ele>
        <time>2013-05-19T10:19:35Z</time>
      </trkpt>
      <trkpt lat="43.38789" lon="2.73505">
        <ele>465.418304</ele>
        <time>2013-05-19T10:19:36Z</time>
      </trkpt>
      <trkpt lat="43.38792" lon="2.73495">
        <ele>466.511169</ele>
        <time>2013-05-19T10:19:37Z</time>
      </trkpt>
      <trkpt lat="43.38793" lon="2.73484">
        <ele>466.863281</ele>
        <time>2013-05-19T10:19:38Z</time>
      </trkpt>
      <trkpt lat="43.38792" lon="2.73473">
        <ele>466.691498</ele>
        <time>2013-05-19T10:19:39Z</time>
      </trkpt>
      <trkpt lat="43.38791" lon="2.73464">
        <ele>466.228668</ele>
        <time>2013-05-19T10:19:40Z</time>
      </trkpt>
      <trkpt lat="43.38789" lon="2.73454">
        <ele>466.037506</ele>
        <time>2013-05-19T10:19:41Z</time>
      </trkpt>
      <trkpt lat="43.38776" lon="2.73397">
        <ele>470.003998</ele>
        <time>2013-05-19T10:19:48Z</time>
      </trkpt>
      <trkpt lat="43.38772" lon="2.73391">
        <ele>470.094116</ele>
        <time>2013-05-19T10:19:49Z</time>
      </trkpt>
      <trkpt lat="43.38768" lon="2.73387">
        <ele>469.894226</ele>
        <time>2013-05-19T10:19:50Z</time>
      </trkpt>
      <trkpt lat="43.38763" lon="2.73383">
        <ele>469.738953</ele>
        <time>2013-05-19T10:19:51Z</time>
      </trkpt>
      <trkpt lat="43.38759" lon="2.73379">
        <ele>469.502991</ele>
        <time>2013-05-19T10:19:52Z</time>
      </trkpt>
      <trkpt lat="43.38751" lon="2.73372">
        <ele>468.900146</ele>
        <time>2013-05-19T10:19:54Z</time>
      </trkpt>
      <trkpt lat="43.38747" lon="2.73368">
        <ele>468.706787</ele>
        <time>2013-05-19T10:19:55Z</time>
      </trkpt>
      <trkpt lat="43.38744" lon="2.73364">
        <ele>468.720795</ele>
        <time>2013-05-19T10:19:56Z</time>
      </trkpt>
      <trkpt lat="43.38741" lon="2.7336">
        <ele>468.802643</ele>
        <time>2013-05-19T10:19:57Z</time>
      </trkpt>
      <trkpt lat="43.38739" lon="2.73356">
        <ele>469.076263</ele>
        <time>2013-05-19T10:19:58Z</time>
      </trkpt>
      <trkpt lat="43.38738" lon="2.73352">
        <ele>469.461914</ele>
        <time>2013-05-19T10:19:59Z</time>
      </trkpt>
      <trkpt lat="43.38737" lon="2.73348">
        <ele>469.828949</ele>
        <time>2013-05-19T10:20:00Z</time>
      </trkpt>
      <trkpt lat="43.38723" lon="2.73306">
        <ele>474.797516</ele>
        <time>2013-05-19T10:20:14Z</time>
      </trkpt>
      <trkpt lat="43.38695" lon="2.73291">
        <ele>473.517487</ele>
        <time>2013-05-19T10:20:24Z</time>
      </trkpt>
      <trkpt lat="43.38663" lon="2.73291">
        <ele>471.362061</ele>
        <time>2013-05-19T10:20:37Z</time>
      </trkpt>
      <trkpt lat="43.38653" lon="2.73292">
        <ele>470.755127</ele>
        <time>2013-05-19T10:20:43Z</time>
      </trkpt>
      <trkpt lat="43.38652" lon="2.73291">
        <ele>470.797272</ele>
        <time>2013-05-19T10:20:44Z</time>
      </trkpt>
      <trkpt lat="43.38651" lon="2.7329">
        <ele>470.765533</ele>
        <time>2013-05-19T10:20:45Z</time>
      </trkpt>
      <trkpt lat="43.3865" lon="2.73291">
        <ele>470.627228</ele>
        <time>2013-05-19T10:20:46Z</time>
      </trkpt>
      <trkpt lat="43.38649" lon="2.73292">
        <ele>470.496521</ele>
        <time>2013-05-19T10:20:47Z</time>
      </trkpt>
      <trkpt lat="43.38647" lon="2.73292">
        <ele>470.436829</ele>
        <time>2013-05-19T10:20:48Z</time>
      </trkpt>
      <trkpt lat="43.38645" lon="2.73291">
        <ele>470.386871</ele>
        <time>2013-05-19T10:20:49Z</time>
      </trkpt>
      <trkpt lat="43.38644" lon="2.7329">
        <ele>470.395233</ele>
        <time>2013-05-19T10:20:50Z</time>
      </trkpt>
      <trkpt lat="43.38643" lon="2.7329">
        <ele>470.405487</ele>
        <time>2013-05-19T10:20:51Z</time>
      </trkpt>
      <trkpt lat="43.38642" lon="2.7329">
        <ele>470.335785</ele>
        <time>2013-05-19T10:20:52Z</time>
      </trkpt>
      <trkpt lat="43.38641" lon="2.7329">
        <ele>470.23053</ele>
        <time>2013-05-19T10:20:53Z</time>
      </trkpt>
      <trkpt lat="43.3864" lon="2.73291">
        <ele>470.118835</ele>
        <time>2013-05-19T10:20:54Z</time>
      </trkpt>
      <trkpt lat="43.3864" lon="2.73294">
        <ele>469.938477</ele>
        <time>2013-05-19T10:21:12Z</time>
      </trkpt>
      <trkpt lat="43.38641" lon="2.73296">
        <ele>469.827606</ele>
        <time>2013-05-19T10:22:20Z</time>
      </trkpt>
      <trkpt lat="43.38642" lon="2.73296">
        <ele>469.832092</ele>
        <time>2013-05-19T10:22:21Z</time>
      </trkpt>
      <trkpt lat="43.38644" lon="2.73296">
        <ele>469.92923</ele>
        <time>2013-05-19T10:22:31Z</time>
      </trkpt>
      <trkpt lat="43.38644" lon="2.73296">
        <ele>469.92923</ele>
        <time>2013-05-19T10:23:21Z</time>
      </trkpt>
      <trkpt lat="43.38645" lon="2.73297">
        <ele>469.885956</ele>
        <time>2013-05-19T10:23:48Z</time>
      </trkpt>
      <trkpt lat="43.38646" lon="2.73297">
        <ele>469.931244</ele>
        <time>2013-05-19T10:23:49Z</time>
      </trkpt>
      <trkpt lat="43.38647" lon="2.73297">
        <ele>469.97345</ele>
        <time>2013-05-19T10:23:50Z</time>
      </trkpt>
      <trkpt lat="43.38649" lon="2.73297">
        <ele>470.054718</ele>
        <time>2013-05-19T10:23:51Z</time>
      </trkpt>
      <trkpt lat="43.3865" lon="2.73295">
        <ele>470.247742</ele>
        <time>2013-05-19T10:23:52Z</time>
      </trkpt>
      <trkpt lat="43.38651" lon="2.73293">
        <ele>470.475006</ele>
        <time>2013-05-19T10:23:53Z</time>
      </trkpt>
      <trkpt lat="43.38651" lon="2.73291">
        <ele>470.677826</ele>
        <time>2013-05-19T10:23:54Z</time>
      </trkpt>
      <trkpt lat="43.3865" lon="2.73289">
        <ele>470.836273</ele>
        <time>2013-05-19T10:23:55Z</time>
      </trkpt>
      <trkpt lat="43.38638" lon="2.7326">
        <ele>472.845398</ele>
        <time>2013-05-19T10:24:09Z</time>
      </trkpt>
      <trkpt lat="43.38633" lon="2.73254">
        <ele>473.18335</ele>
        <time>2013-05-19T10:24:13Z</time>
      </trkpt>
      <trkpt lat="43.3862" lon="2.73225">
        <ele>475.01532</ele>
        <time>2013-05-19T10:24:28Z</time>
      </trkpt>
      <trkpt lat="43.38607" lon="2.73188">
        <ele>476.252441</ele>
        <time>2013-05-19T10:24:42Z</time>
      </trkpt>
      <trkpt lat="43.38594" lon="2.73152">
        <ele>476.912537</ele>
        <time>2013-05-19T10:24:54Z</time>
      </trkpt>
      <trkpt lat="43.38591" lon="2.73149">
        <ele>476.856079</ele>
        <time>2013-05-19T10:25:04Z</time>
      </trkpt>
      <trkpt lat="43.38593" lon="2.73147">
        <ele>477.170013</ele>
        <time>2013-05-19T10:25:13Z</time>
      </trkpt>
      <trkpt lat="43.38593" lon="2.73142">
        <ele>477.438751</ele>
        <time>2013-05-19T10:25:30Z</time>
      </trkpt>
      <trkpt lat="43.38593" lon="2.73142">
        <ele>477.438751</ele>
        <time>2013-05-19T10:25:37Z</time>
      </trkpt>
      <trkpt lat="43.38593" lon="2.73139">
        <ele>477.526245</ele>
        <time>2013-05-19T10:25:38Z</time>
      </trkpt>
      <trkpt lat="43.38592" lon="2.73137">
        <ele>477.570007</ele>
        <time>2013-05-19T10:25:39Z</time>
      </trkpt>
      <trkpt lat="43.38578" lon="2.73093">
        <ele>478.075012</ele>
        <time>2013-05-19T10:25:51Z</time>
      </trkpt>
      <trkpt lat="43.38578" lon="2.73083">
        <ele>478.440796</ele>
        <time>2013-05-19T10:25:54Z</time>
      </trkpt>
      <trkpt lat="43.38577" lon="2.7308">
        <ele>478.377869</ele>
        <time>2013-05-19T10:25:55Z</time>
      </trkpt>
      <trkpt lat="43.38571" lon="2.73033">
        <ele>478.21347</ele>
        <time>2013-05-19T10:26:06Z</time>
      </trkpt>
      <trkpt lat="43.38567" lon="2.72978">
        <ele>477.017944</ele>
        <time>2013-05-19T10:26:19Z</time>
      </trkpt>
      <trkpt lat="43.38555" lon="2.72913">
        <ele>473.99469</ele>
        <time>2013-05-19T10:26:33Z</time>
      </trkpt>
      <trkpt lat="43.38544" lon="2.72872">
        <ele>472.484863</ele>
        <time>2013-05-19T10:26:38Z</time>
      </trkpt>
      <trkpt lat="43.38541" lon="2.72864">
        <ele>471.999786</ele>
        <time>2013-05-19T10:26:39Z</time>
      </trkpt>
      <trkpt lat="43.38537" lon="2.72856">
        <ele>471.449036</ele>
        <time>2013-05-19T10:26:40Z</time>
      </trkpt>
      <trkpt lat="43.38533" lon="2.72847">
        <ele>470.943695</ele>
        <time>2013-05-19T10:26:41Z</time>
      </trkpt>
      <trkpt lat="43.38531" lon="2.72837">
        <ele>470.478943</ele>
        <time>2013-05-19T10:26:42Z</time>
      </trkpt>
      <trkpt lat="43.38528" lon="2.72827">
        <ele>470.033844</ele>
        <time>2013-05-19T10:26:43Z</time>
      </trkpt>
      <trkpt lat="43.38526" lon="2.72817">
        <ele>469.531586</ele>
        <time>2013-05-19T10:26:44Z</time>
      </trkpt>
      <trkpt lat="43.3852" lon="2.72798">
        <ele>468.284363</ele>
        <time>2013-05-19T10:26:46Z</time>
      </trkpt>
      <trkpt lat="43.38519" lon="2.72787">
        <ele>467.725769</ele>
        <time>2013-05-19T10:26:47Z</time>
      </trkpt>
      <trkpt lat="43.38516" lon="2.72757">
        <ele>467.486755</ele>
        <time>2013-05-19T10:26:50Z</time>
      </trkpt>
      <trkpt lat="43.38517" lon="2.72725">
        <ele>468.622131</ele>
        <time>2013-05-19T10:26:54Z</time>
      </trkpt>
      <trkpt lat="43.3852" lon="2.72676">
        <ele>470.640808</ele>
        <time>2013-05-19T10:27:04Z</time>
      </trkpt>
      <trkpt lat="43.38518" lon="2.72656">
        <ele>470.874115</ele>
        <time>2013-05-19T10:27:10Z</time>
      </trkpt>
      <trkpt lat="43.38507" lon="2.72601">
        <ele>470.121796</ele>
        <time>2013-05-19T10:27:25Z</time>
      </trkpt>
      <trkpt lat="43.3851" lon="2.72558">
        <ele>471.6875</ele>
        <time>2013-05-19T10:27:38Z</time>
      </trkpt>
      <trkpt lat="43.38495" lon="2.72519">
        <ele>471.255951</ele>
        <time>2013-05-19T10:27:50Z</time>
      </trkpt>
      <trkpt lat="43.38475" lon="2.7248">
        <ele>469.74585</ele>
        <time>2013-05-19T10:28:00Z</time>
      </trkpt>
      <trkpt lat="43.38473" lon="2.72474">
        <ele>469.613007</ele>
        <time>2013-05-19T10:28:01Z</time>
      </trkpt>
      <trkpt lat="43.38471" lon="2.72469">
        <ele>469.559998</ele>
        <time>2013-05-19T10:28:02Z</time>
      </trkpt>
      <trkpt lat="43.38442" lon="2.72406">
        <ele>466.735016</ele>
        <time>2013-05-19T10:28:17Z</time>
      </trkpt>
      <trkpt lat="43.38439" lon="2.72402">
        <ele>466.38501</ele>
        <time>2013-05-19T10:28:18Z</time>
      </trkpt>
      <trkpt lat="43.38422" lon="2.72381">
        <ele>465.046173</ele>
        <time>2013-05-19T10:28:22Z</time>
      </trkpt>
      <trkpt lat="43.38398" lon="2.72346">
        <ele>464.804657</ele>
        <time>2013-05-19T10:28:29Z</time>
      </trkpt>
      <trkpt lat="43.38394" lon="2.72341">
        <ele>464.858978</ele>
        <time>2013-05-19T10:28:30Z</time>
      </trkpt>
      <trkpt lat="43.38387" lon="2.72334">
        <ele>464.877869</ele>
        <time>2013-05-19T10:28:32Z</time>
      </trkpt>
      <trkpt lat="43.38348" lon="2.72302">
        <ele>468.003754</ele>
        <time>2013-05-19T10:28:45Z</time>
      </trkpt>
      <trkpt lat="43.38306" lon="2.72297">
        <ele>468.970062</ele>
        <time>2013-05-19T10:28:59Z</time>
      </trkpt>
      <trkpt lat="43.38294" lon="2.72299">
        <ele>468.952362</ele>
        <time>2013-05-19T10:29:03Z</time>
      </trkpt>
      <trkpt lat="43.38292" lon="2.72298">
        <ele>469.306366</ele>
        <time>2013-05-19T10:29:04Z</time>
      </trkpt>
      <trkpt lat="43.38297" lon="2.72286">
        <ele>471.211853</ele>
        <time>2013-05-19T10:29:09Z</time>
      </trkpt>
      <trkpt lat="43.38323" lon="2.72274">
        <ele>472.698761</ele>
        <time>2013-05-19T10:29:21Z</time>
      </trkpt>
      <trkpt lat="43.38328" lon="2.72272">
        <ele>472.927643</ele>
        <time>2013-05-19T10:29:24Z</time>
      </trkpt>
      <trkpt lat="43.38334" lon="2.72269">
        <ele>473.394409</ele>
        <time>2013-05-19T10:29:28Z</time>
      </trkpt>
      <trkpt lat="43.38361" lon="2.72265">
        <ele>475.613251</ele>
        <time>2013-05-19T10:29:43Z</time>
      </trkpt>
      <trkpt lat="43.38383" lon="2.72262">
        <ele>477.633026</ele>
        <time>2013-05-19T10:29:56Z</time>
      </trkpt>
      <trkpt lat="43.38402" lon="2.72254">
        <ele>481.160736</ele>
        <time>2013-05-19T10:30:09Z</time>
      </trkpt>
      <trkpt lat="43.38424" lon="2.72254">
        <ele>483.906067</ele>
        <time>2013-05-19T10:30:23Z</time>
      </trkpt>
      <trkpt lat="43.3845" lon="2.72254">
        <ele>487.070648</ele>
        <time>2013-05-19T10:30:40Z</time>
      </trkpt>
      <trkpt lat="43.38474" lon="2.72271">
        <ele>488.986389</ele>
        <time>2013-05-19T10:30:57Z</time>
      </trkpt>
      <trkpt lat="43.38498" lon="2.7231">
        <ele>488.137085</ele>
        <time>2013-05-19T10:31:15Z</time>
      </trkpt>
      <trkpt lat="43.38523" lon="2.72347">
        <ele>488.361359</ele>
        <time>2013-05-19T10:31:30Z</time>
      </trkpt>
      <trkpt lat="43.38556" lon="2.72397">
        <ele>488.850861</ele>
        <time>2013-05-19T10:31:48Z</time>
      </trkpt>
      <trkpt lat="43.38582" lon="2.72448">
        <ele>489.843933</ele>
        <time>2013-05-19T10:32:04Z</time>
      </trkpt>
      <trkpt lat="43.38611" lon="2.72484">
        <ele>492.972412</ele>
        <time>2013-05-19T10:32:19Z</time>
      </trkpt>
      <trkpt lat="43.38628" lon="2.72515">
        <ele>495.201904</ele>
        <time>2013-05-19T10:32:32Z</time>
      </trkpt>
      <trkpt lat="43.38653" lon="2.72549">
        <ele>498.946259</ele>
        <time>2013-05-19T10:32:47Z</time>
      </trkpt>
      <trkpt lat="43.38655" lon="2.72558">
        <ele>499.21701</ele>
        <time>2013-05-19T10:32:51Z</time>
      </trkpt>
      <trkpt lat="43.38672" lon="2.72585">
        <ele>500.655487</ele>
        <time>2013-05-19T10:33:06Z</time>
      </trkpt>
      <trkpt lat="43.38692" lon="2.7263">
        <ele>503.78125</ele>
        <time>2013-05-19T10:33:23Z</time>
      </trkpt>
      <trkpt lat="43.38708" lon="2.72678">
        <ele>504.726501</ele>
        <time>2013-05-19T10:33:38Z</time>
      </trkpt>
      <trkpt lat="43.38722" lon="2.72726">
        <ele>507.277008</ele>
        <time>2013-05-19T10:33:52Z</time>
      </trkpt>
      <trkpt lat="43.38727" lon="2.72786">
        <ele>509.814575</ele>
        <time>2013-05-19T10:34:08Z</time>
      </trkpt>
      <trkpt lat="43.38733" lon="2.72833">
        <ele>511.331909</ele>
        <time>2013-05-19T10:34:20Z</time>
      </trkpt>
      <trkpt lat="43.38748" lon="2.72878">
        <ele>512.600159</ele>
        <time>2013-05-19T10:34:33Z</time>
      </trkpt>
      <trkpt lat="43.38777" lon="2.72912">
        <ele>515.051758</ele>
        <time>2013-05-19T10:34:47Z</time>
      </trkpt>
      <trkpt lat="43.38807" lon="2.7294">
        <ele>516.827454</ele>
        <time>2013-05-19T10:35:00Z</time>
      </trkpt>
      <trkpt lat="43.38816" lon="2.72953">
        <ele>517.338501</ele>
        <time>2013-05-19T10:35:07Z</time>
      </trkpt>
      <trkpt lat="43.38833" lon="2.72995">
        <ele>517.035706</ele>
        <time>2013-05-19T10:35:24Z</time>
      </trkpt>
      <trkpt lat="43.38849" lon="2.73031">
        <ele>516.889648</ele>
        <time>2013-05-19T10:35:38Z</time>
      </trkpt>
      <trkpt lat="43.38868" lon="2.73061">
        <ele>517.56189</ele>
        <time>2013-05-19T10:35:51Z</time>
      </trkpt>
      <trkpt lat="43.38892" lon="2.73097">
        <ele>517.952271</ele>
        <time>2013-05-19T10:36:05Z</time>
      </trkpt>
      <trkpt lat="43.38906" lon="2.73121">
        <ele>517.679993</ele>
        <time>2013-05-19T10:36:14Z</time>
      </trkpt>
      <trkpt lat="43.38908" lon="2.73124">
        <ele>517.677185</ele>
        <time>2013-05-19T10:36:16Z</time>
      </trkpt>
      <trkpt lat="43.38912" lon="2.73128">
        <ele>517.812744</ele>
        <time>2013-05-19T10:36:20Z</time>
      </trkpt>
      <trkpt lat="43.38918" lon="2.7314">
        <ele>517.71521</ele>
        <time>2013-05-19T10:36:27Z</time>
      </trkpt>
      <trkpt lat="43.38925" lon="2.73148">
        <ele>517.904297</ele>
        <time>2013-05-19T10:36:33Z</time>
      </trkpt>
      <trkpt lat="43.38931" lon="2.73155">
        <ele>518.085876</ele>
        <time>2013-05-19T10:36:43Z</time>
      </trkpt>
      <trkpt lat="43.38931" lon="2.73155">
        <ele>518.085876</ele>
        <time>2013-05-19T10:36:51Z</time>
      </trkpt>
      <trkpt lat="43.38932" lon="2.73157">
        <ele>518.057495</ele>
        <time>2013-05-19T10:36:53Z</time>
      </trkpt>
      <trkpt lat="43.38961" lon="2.73187">
        <ele>518.609131</ele>
        <time>2013-05-19T10:37:06Z</time>
      </trkpt>
      <trkpt lat="43.39008" lon="2.73231">
        <ele>519.463745</ele>
        <time>2013-05-19T10:37:22Z</time>
      </trkpt>
      <trkpt lat="43.39046" lon="2.73271">
        <ele>521.773743</ele>
        <time>2013-05-19T10:37:38Z</time>
      </trkpt>
      <trkpt lat="43.39072" lon="2.73339">
        <ele>519.759521</ele>
        <time>2013-05-19T10:37:54Z</time>
      </trkpt>
      <trkpt lat="43.39095" lon="2.73434">
        <ele>515.215454</ele>
        <time>2013-05-19T10:38:06Z</time>
      </trkpt>
      <trkpt lat="43.39095" lon="2.73445">
        <ele>514.682251</ele>
        <time>2013-05-19T10:38:07Z</time>
      </trkpt>
      <trkpt lat="43.39095" lon="2.73455">
        <ele>514.15387</ele>
        <time>2013-05-19T10:38:08Z</time>
      </trkpt>
      <trkpt lat="43.39093" lon="2.73477">
        <ele>513.989319</ele>
        <time>2013-05-19T10:38:10Z</time>
      </trkpt>
      <trkpt lat="43.3909" lon="2.73487">
        <ele>513.993652</ele>
        <time>2013-05-19T10:38:11Z</time>
      </trkpt>
      <trkpt lat="43.39073" lon="2.73539">
        <ele>515.648376</ele>
        <time>2013-05-19T10:38:18Z</time>
      </trkpt>
      <trkpt lat="43.39072" lon="2.73545">
        <ele>516.034302</ele>
        <time>2013-05-19T10:38:19Z</time>
      </trkpt>
      <trkpt lat="43.39074" lon="2.73548">
        <ele>516.200439</ele>
        <time>2013-05-19T10:38:20Z</time>
      </trkpt>
      <trkpt lat="43.39077" lon="2.73551">
        <ele>516.193237</ele>
        <time>2013-05-19T10:38:21Z</time>
      </trkpt>
      <trkpt lat="43.3908" lon="2.73553">
        <ele>516.161194</ele>
        <time>2013-05-19T10:38:22Z</time>
      </trkpt>
      <trkpt lat="43.39083" lon="2.73554">
        <ele>516.123413</ele>
        <time>2013-05-19T10:38:23Z</time>
      </trkpt>
      <trkpt lat="43.39086" lon="2.73556">
        <ele>516.126343</ele>
        <time>2013-05-19T10:38:24Z</time>
      </trkpt>
      <trkpt lat="43.39088" lon="2.73559">
        <ele>516.158752</ele>
        <time>2013-05-19T10:38:25Z</time>
      </trkpt>
      <trkpt lat="43.3909" lon="2.73563">
        <ele>516.232727</ele>
        <time>2013-05-19T10:38:26Z</time>
      </trkpt>
      <trkpt lat="43.39106" lon="2.73575">
        <ele>515.059937</ele>
        <time>2013-05-19T10:38:31Z</time>
      </trkpt>
      <trkpt lat="43.39115" lon="2.73576">
        <ele>513.864929</ele>
        <time>2013-05-19T10:38:33Z</time>
      </trkpt>
      <trkpt lat="43.3912" lon="2.73579">
        <ele>513.287476</ele>
        <time>2013-05-19T10:38:34Z</time>
      </trkpt>
      <trkpt lat="43.39129" lon="2.73584">
        <ele>512.309998</ele>
        <time>2013-05-19T10:38:36Z</time>
      </trkpt>
      <trkpt lat="43.39184" lon="2.73606">
        <ele>504.972931</ele>
        <time>2013-05-19T10:38:45Z</time>
      </trkpt>
      <trkpt lat="43.39207" lon="2.73614">
        <ele>501.291779</ele>
        <time>2013-05-19T10:38:49Z</time>
      </trkpt>
      <trkpt lat="43.39212" lon="2.73617">
        <ele>500.469391</ele>
        <time>2013-05-19T10:38:50Z</time>
      </trkpt>
      <trkpt lat="43.39218" lon="2.7362">
        <ele>499.732819</ele>
        <time>2013-05-19T10:38:51Z</time>
      </trkpt>
      <trkpt lat="43.3923" lon="2.73628">
        <ele>498.278534</ele>
        <time>2013-05-19T10:38:53Z</time>
      </trkpt>
      <trkpt lat="43.39237" lon="2.73633">
        <ele>497.30072</ele>
        <time>2013-05-19T10:38:54Z</time>
      </trkpt>
      <trkpt lat="43.39268" lon="2.73656">
        <ele>492.646362</ele>
        <time>2013-05-19T10:38:59Z</time>
      </trkpt>
      <trkpt lat="43.39273" lon="2.73659">
        <ele>492.056396</ele>
        <time>2013-05-19T10:39:00Z</time>
      </trkpt>
      <trkpt lat="43.39282" lon="2.73663">
        <ele>490.181213</ele>
        <time>2013-05-19T10:39:02Z</time>
      </trkpt>
      <trkpt lat="43.39286" lon="2.73664">
        <ele>489.289368</ele>
        <time>2013-05-19T10:39:03Z</time>
      </trkpt>
      <trkpt lat="43.39289" lon="2.73666">
        <ele>488.6521</ele>
        <time>2013-05-19T10:39:04Z</time>
      </trkpt>
      <trkpt lat="43.39292" lon="2.73666">
        <ele>488.104492</ele>
        <time>2013-05-19T10:39:05Z</time>
      </trkpt>
      <trkpt lat="43.39293" lon="2.73665">
        <ele>487.589966</ele>
        <time>2013-05-19T10:39:06Z</time>
      </trkpt>
      <trkpt lat="43.39295" lon="2.73664">
        <ele>487.008118</ele>
        <time>2013-05-19T10:39:07Z</time>
      </trkpt>
      <trkpt lat="43.39295" lon="2.73661">
        <ele>486.551819</ele>
        <time>2013-05-19T10:39:08Z</time>
      </trkpt>
      <trkpt lat="43.39294" lon="2.73657">
        <ele>486.247864</ele>
        <time>2013-05-19T10:39:09Z</time>
      </trkpt>
      <trkpt lat="43.39291" lon="2.73653">
        <ele>486.27417</ele>
        <time>2013-05-19T10:39:10Z</time>
      </trkpt>
      <trkpt lat="43.39289" lon="2.73649">
        <ele>486.30777</ele>
        <time>2013-05-19T10:39:11Z</time>
      </trkpt>
      <trkpt lat="43.39287" lon="2.73644">
        <ele>486.055817</ele>
        <time>2013-05-19T10:39:12Z</time>
      </trkpt>
      <trkpt lat="43.39286" lon="2.73639">
        <ele>485.542725</ele>
        <time>2013-05-19T10:39:13Z</time>
      </trkpt>
      <trkpt lat="43.39285" lon="2.73634">
        <ele>484.980865</ele>
        <time>2013-05-19T10:39:14Z</time>
      </trkpt>
      <trkpt lat="43.39284" lon="2.7363">
        <ele>484.338135</ele>
        <time>2013-05-19T10:39:15Z</time>
      </trkpt>
      <trkpt lat="43.39284" lon="2.73626">
        <ele>483.703369</ele>
        <time>2013-05-19T10:39:16Z</time>
      </trkpt>
      <trkpt lat="43.39283" lon="2.73622">
        <ele>483.386353</ele>
        <time>2013-05-19T10:39:17Z</time>
      </trkpt>
      <trkpt lat="43.3928" lon="2.73613">
        <ele>482.984314</ele>
        <time>2013-05-19T10:39:19Z</time>
      </trkpt>
      <trkpt lat="43.39278" lon="2.73608">
        <ele>482.864685</ele>
        <time>2013-05-19T10:39:20Z</time>
      </trkpt>
      <trkpt lat="43.39277" lon="2.73602">
        <ele>482.444794</ele>
        <time>2013-05-19T10:39:21Z</time>
      </trkpt>
      <trkpt lat="43.39276" lon="2.73596">
        <ele>481.642151</ele>
        <time>2013-05-19T10:39:22Z</time>
      </trkpt>
      <trkpt lat="43.39278" lon="2.73591">
        <ele>480.277771</ele>
        <time>2013-05-19T10:39:23Z</time>
      </trkpt>
      <trkpt lat="43.39281" lon="2.73588">
        <ele>478.541809</ele>
        <time>2013-05-19T10:39:24Z</time>
      </trkpt>
      <trkpt lat="43.39285" lon="2.73584">
        <ele>476.67395</ele>
        <time>2013-05-19T10:39:25Z</time>
      </trkpt>
      <trkpt lat="43.39289" lon="2.73581">
        <ele>475.522522</ele>
        <time>2013-05-19T10:39:26Z</time>
      </trkpt>
      <trkpt lat="43.39293" lon="2.73579">
        <ele>474.264099</ele>
        <time>2013-05-19T10:39:27Z</time>
      </trkpt>
      <trkpt lat="43.39298" lon="2.73575">
        <ele>472.86972</ele>
        <time>2013-05-19T10:39:28Z</time>
      </trkpt>
      <trkpt lat="43.39304" lon="2.73573">
        <ele>471.25946</ele>
        <time>2013-05-19T10:39:29Z</time>
      </trkpt>
      <trkpt lat="43.39309" lon="2.73573">
        <ele>469.453522</ele>
        <time>2013-05-19T10:39:30Z</time>
      </trkpt>
      <trkpt lat="43.39313" lon="2.73575">
        <ele>467.816376</ele>
        <time>2013-05-19T10:39:31Z</time>
      </trkpt>
      <trkpt lat="43.39316" lon="2.73575">
        <ele>466.509735</ele>
        <time>2013-05-19T10:39:32Z</time>
      </trkpt>
      <trkpt lat="43.39319" lon="2.73574">
        <ele>465.450012</ele>
        <time>2013-05-19T10:39:33Z</time>
      </trkpt>
      <trkpt lat="43.39322" lon="2.73574">
        <ele>463.899994</ele>
        <time>2013-05-19T10:39:34Z</time>
      </trkpt>
      <trkpt lat="43.39325" lon="2.73572">
        <ele>462.700012</ele>
        <time>2013-05-19T10:39:35Z</time>
      </trkpt>
      <trkpt lat="43.39328" lon="2.7357">
        <ele>461.714996</ele>
        <time>2013-05-19T10:39:36Z</time>
      </trkpt>
      <trkpt lat="43.39331" lon="2.73569">
        <ele>460.769989</ele>
        <time>2013-05-19T10:39:37Z</time>
      </trkpt>
      <trkpt lat="43.39333" lon="2.73566">
        <ele>460.140015</ele>
        <time>2013-05-19T10:39:38Z</time>
      </trkpt>
      <trkpt lat="43.39335" lon="2.73563">
        <ele>459.734985</ele>
        <time>2013-05-19T10:39:39Z</time>
      </trkpt>
      <trkpt lat="43.39337" lon="2.73559">
        <ele>459.434998</ele>
        <time>2013-05-19T10:39:40Z</time>
      </trkpt>
      <trkpt lat="43.39339" lon="2.73555">
        <ele>459.61499</ele>
        <time>2013-05-19T10:39:41Z</time>
      </trkpt>
      <trkpt lat="43.39339" lon="2.7355">
        <ele>460.325012</ele>
        <time>2013-05-19T10:39:42Z</time>
      </trkpt>
      <trkpt lat="43.39339" lon="2.73545">
        <ele>461.195007</ele>
        <time>2013-05-19T10:39:43Z</time>
      </trkpt>
      <trkpt lat="43.3934" lon="2.73539">
        <ele>461.934998</ele>
        <time>2013-05-19T10:39:44Z</time>
      </trkpt>
      <trkpt lat="43.3934" lon="2.73534">
        <ele>462.975006</ele>
        <time>2013-05-19T10:39:45Z</time>
      </trkpt>
      <trkpt lat="43.39341" lon="2.73528">
        <ele>463.899994</ele>
        <time>2013-05-19T10:39:46Z</time>
      </trkpt>
      <trkpt lat="43.39342" lon="2.73524">
        <ele>464.139984</ele>
        <time>2013-05-19T10:39:47Z</time>
      </trkpt>
      <trkpt lat="43.39344" lon="2.7352">
        <ele>463.668091</ele>
        <time>2013-05-19T10:39:48Z</time>
      </trkpt>
      <trkpt lat="43.39347" lon="2.73516">
        <ele>463.033447</ele>
        <time>2013-05-19T10:39:49Z</time>
      </trkpt>
      <trkpt lat="43.39351" lon="2.73511">
        <ele>462.059448</ele>
        <time>2013-05-19T10:39:50Z</time>
      </trkpt>
      <trkpt lat="43.39357" lon="2.73507">
        <ele>460.701965</ele>
        <time>2013-05-19T10:39:51Z</time>
      </trkpt>
      <trkpt lat="43.39367" lon="2.73499">
        <ele>458.720276</ele>
        <time>2013-05-19T10:39:53Z</time>
      </trkpt>
      <trkpt lat="43.39372" lon="2.73496">
        <ele>457.716614</ele>
        <time>2013-05-19T10:39:54Z</time>
      </trkpt>
      <trkpt lat="43.39378" lon="2.73496">
        <ele>455.943146</ele>
        <time>2013-05-19T10:39:55Z</time>
      </trkpt>
      <trkpt lat="43.39385" lon="2.73496">
        <ele>453.789581</ele>
        <time>2013-05-19T10:39:56Z</time>
      </trkpt>
      <trkpt lat="43.39392" lon="2.73496">
        <ele>451.696198</ele>
        <time>2013-05-19T10:39:57Z</time>
      </trkpt>
      <trkpt lat="43.39399" lon="2.73496">
        <ele>449.700012</ele>
        <time>2013-05-19T10:39:58Z</time>
      </trkpt>
      <trkpt lat="43.39405" lon="2.73496">
        <ele>447.77179</ele>
        <time>2013-05-19T10:39:59Z</time>
      </trkpt>
      <trkpt lat="43.39422" lon="2.73496">
        <ele>443.35202</ele>
        <time>2013-05-19T10:40:02Z</time>
      </trkpt>
      <trkpt lat="43.39426" lon="2.73495">
        <ele>443.24881</ele>
        <time>2013-05-19T10:40:03Z</time>
      </trkpt>
      <trkpt lat="43.3943" lon="2.73494">
        <ele>442.841705</ele>
        <time>2013-05-19T10:40:04Z</time>
      </trkpt>
      <trkpt lat="43.39439" lon="2.73491">
        <ele>441.835999</ele>
        <time>2013-05-19T10:40:06Z</time>
      </trkpt>
      <trkpt lat="43.39448" lon="2.73487">
        <ele>441.360138</ele>
        <time>2013-05-19T10:40:08Z</time>
      </trkpt>
      <trkpt lat="43.39454" lon="2.73487">
        <ele>440.283264</ele>
        <time>2013-05-19T10:40:09Z</time>
      </trkpt>
      <trkpt lat="43.39459" lon="2.73486">
        <ele>439.250702</ele>
        <time>2013-05-19T10:40:10Z</time>
      </trkpt>
      <trkpt lat="43.39464" lon="2.73483">
        <ele>438.904816</ele>
        <time>2013-05-19T10:40:11Z</time>
      </trkpt>
      <trkpt lat="43.39469" lon="2.73479">
        <ele>439.185211</ele>
        <time>2013-05-19T10:40:12Z</time>
      </trkpt>
      <trkpt lat="43.39474" lon="2.73475">
        <ele>439.737518</ele>
        <time>2013-05-19T10:40:13Z</time>
      </trkpt>
      <trkpt lat="43.39479" lon="2.73471">
        <ele>439.890289</ele>
        <time>2013-05-19T10:40:14Z</time>
      </trkpt>
      <trkpt lat="43.39483" lon="2.73469">
        <ele>439.688507</ele>
        <time>2013-05-19T10:40:15Z</time>
      </trkpt>
      <trkpt lat="43.39486" lon="2.73467">
        <ele>439.519836</ele>
        <time>2013-05-19T10:40:16Z</time>
      </trkpt>
      <trkpt lat="43.39493" lon="2.73465">
        <ele>438.263763</ele>
        <time>2013-05-19T10:40:18Z</time>
      </trkpt>
      <trkpt lat="43.39502" lon="2.73466">
        <ele>435.512512</ele>
        <time>2013-05-19T10:40:20Z</time>
      </trkpt>
      <trkpt lat="43.39511" lon="2.7347">
        <ele>432.044983</ele>
        <time>2013-05-19T10:40:22Z</time>
      </trkpt>
      <trkpt lat="43.39517" lon="2.73473">
        <ele>429.765015</ele>
        <time>2013-05-19T10:40:23Z</time>
      </trkpt>
      <trkpt lat="43.39523" lon="2.73474">
        <ele>428.404999</ele>
        <time>2013-05-19T10:40:24Z</time>
      </trkpt>
      <trkpt lat="43.39536" lon="2.73472">
        <ele>426.922485</ele>
        <time>2013-05-19T10:40:26Z</time>
      </trkpt>
      <trkpt lat="43.39545" lon="2.73469">
        <ele>426.595245</ele>
        <time>2013-05-19T10:40:28Z</time>
      </trkpt>
      <trkpt lat="43.3957" lon="2.73471">
        <ele>421.60022</ele>
        <time>2013-05-19T10:40:35Z</time>
      </trkpt>
      <trkpt lat="43.39573" lon="2.73472">
        <ele>420.706024</ele>
        <time>2013-05-19T10:40:36Z</time>
      </trkpt>
      <trkpt lat="43.39577" lon="2.73473">
        <ele>419.97464</ele>
        <time>2013-05-19T10:40:37Z</time>
      </trkpt>
      <trkpt lat="43.396" lon="2.73459">
        <ele>417.473724</ele>
        <time>2013-05-19T10:40:43Z</time>
      </trkpt>
      <trkpt lat="43.396" lon="2.73454">
        <ele>417.58783</ele>
        <time>2013-05-19T10:40:44Z</time>
      </trkpt>
      <trkpt lat="43.396" lon="2.73449">
        <ele>417.988159</ele>
        <time>2013-05-19T10:40:45Z</time>
      </trkpt>
      <trkpt lat="43.39601" lon="2.73443">
        <ele>418.377411</ele>
        <time>2013-05-19T10:40:46Z</time>
      </trkpt>
      <trkpt lat="43.39601" lon="2.73438">
        <ele>418.774139</ele>
        <time>2013-05-19T10:40:47Z</time>
      </trkpt>
      <trkpt lat="43.39601" lon="2.73432">
        <ele>418.940613</ele>
        <time>2013-05-19T10:40:48Z</time>
      </trkpt>
      <trkpt lat="43.39601" lon="2.73426">
        <ele>419.452118</ele>
        <time>2013-05-19T10:40:49Z</time>
      </trkpt>
      <trkpt lat="43.39602" lon="2.7342">
        <ele>419.8172</ele>
        <time>2013-05-19T10:40:50Z</time>
      </trkpt>
      <trkpt lat="43.39603" lon="2.73412">
        <ele>419.720306</ele>
        <time>2013-05-19T10:40:51Z</time>
      </trkpt>
      <trkpt lat="43.39605" lon="2.73405">
        <ele>419.134369</ele>
        <time>2013-05-19T10:40:52Z</time>
      </trkpt>
      <trkpt lat="43.39606" lon="2.73398">
        <ele>418.519989</ele>
        <time>2013-05-19T10:40:53Z</time>
      </trkpt>
      <trkpt lat="43.39607" lon="2.73393">
        <ele>417.902496</ele>
        <time>2013-05-19T10:40:54Z</time>
      </trkpt>
      <trkpt lat="43.39608" lon="2.73389">
        <ele>417.169983</ele>
        <time>2013-05-19T10:40:55Z</time>
      </trkpt>
      <trkpt lat="43.3961" lon="2.73384">
        <ele>415.845001</ele>
        <time>2013-05-19T10:40:56Z</time>
      </trkpt>
      <trkpt lat="43.39613" lon="2.73378">
        <ele>414.035004</ele>
        <time>2013-05-19T10:40:57Z</time>
      </trkpt>
      <trkpt lat="43.39615" lon="2.73372">
        <ele>412.589996</ele>
        <time>2013-05-19T10:40:58Z</time>
      </trkpt>
      <trkpt lat="43.39616" lon="2.73367">
        <ele>411.765015</ele>
        <time>2013-05-19T10:40:59Z</time>
      </trkpt>
      <trkpt lat="43.39617" lon="2.73361">
        <ele>411.005005</ele>
        <time>2013-05-19T10:41:00Z</time>
      </trkpt>
      <trkpt lat="43.39617" lon="2.73354">
        <ele>410.714996</ele>
        <time>2013-05-19T10:41:01Z</time>
      </trkpt>
      <trkpt lat="43.39616" lon="2.73347">
        <ele>411.205017</ele>
        <time>2013-05-19T10:41:02Z</time>
      </trkpt>
      <trkpt lat="43.39615" lon="2.73341">
        <ele>411.972504</ele>
        <time>2013-05-19T10:41:03Z</time>
      </trkpt>
      <trkpt lat="43.39612" lon="2.73335">
        <ele>412.452454</ele>
        <time>2013-05-19T10:41:04Z</time>
      </trkpt>
      <trkpt lat="43.3961" lon="2.73328">
        <ele>412.698273</ele>
        <time>2013-05-19T10:41:05Z</time>
      </trkpt>
      <trkpt lat="43.39609" lon="2.73321">
        <ele>412.740967</ele>
        <time>2013-05-19T10:41:06Z</time>
      </trkpt>
      <trkpt lat="43.39607" lon="2.73314">
        <ele>412.667786</ele>
        <time>2013-05-19T10:41:07Z</time>
      </trkpt>
      <trkpt lat="43.39605" lon="2.73308">
        <ele>413.190704</ele>
        <time>2013-05-19T10:41:08Z</time>
      </trkpt>
      <trkpt lat="43.39603" lon="2.73303">
        <ele>413.536072</ele>
        <time>2013-05-19T10:41:09Z</time>
      </trkpt>
      <trkpt lat="43.39602" lon="2.73297">
        <ele>413.082184</ele>
        <time>2013-05-19T10:41:10Z</time>
      </trkpt>
      <trkpt lat="43.39603" lon="2.7329">
        <ele>411.459534</ele>
        <time>2013-05-19T10:41:11Z</time>
      </trkpt>
      <trkpt lat="43.39605" lon="2.73282">
        <ele>409.380188</ele>
        <time>2013-05-19T10:41:12Z</time>
      </trkpt>
      <trkpt lat="43.39611" lon="2.73251">
        <ele>402.825012</ele>
        <time>2013-05-19T10:41:16Z</time>
      </trkpt>
      <trkpt lat="43.39613" lon="2.73246">
        <ele>401.241913</ele>
        <time>2013-05-19T10:41:17Z</time>
      </trkpt>
      <trkpt lat="43.39615" lon="2.7324">
        <ele>399.880615</ele>
        <time>2013-05-19T10:41:18Z</time>
      </trkpt>
      <trkpt lat="43.39622" lon="2.73216">
        <ele>393.857513</ele>
        <time>2013-05-19T10:41:23Z</time>
      </trkpt>
      <trkpt lat="43.39624" lon="2.7321">
        <ele>391.868896</ele>
        <time>2013-05-19T10:41:24Z</time>
      </trkpt>
      <trkpt lat="43.39625" lon="2.73203">
        <ele>389.786407</ele>
        <time>2013-05-19T10:41:25Z</time>
      </trkpt>
      <trkpt lat="43.39626" lon="2.73195">
        <ele>388.136292</ele>
        <time>2013-05-19T10:41:26Z</time>
      </trkpt>
      <trkpt lat="43.39626" lon="2.73187">
        <ele>386.953125</ele>
        <time>2013-05-19T10:41:27Z</time>
      </trkpt>
      <trkpt lat="43.39623" lon="2.73168">
        <ele>384.975006</ele>
        <time>2013-05-19T10:41:31Z</time>
      </trkpt>
      <trkpt lat="43.39624" lon="2.73168">
        <ele>384.210663</ele>
        <time>2013-05-19T10:41:32Z</time>
      </trkpt>
      <trkpt lat="43.39626" lon="2.73168">
        <ele>383.622498</ele>
        <time>2013-05-19T10:41:33Z</time>
      </trkpt>
      <trkpt lat="43.39631" lon="2.73177">
        <ele>382.416962</ele>
        <time>2013-05-19T10:41:36Z</time>
      </trkpt>
      <trkpt lat="43.39642" lon="2.73193">
        <ele>382.317993</ele>
        <time>2013-05-19T10:41:39Z</time>
      </trkpt>
      <trkpt lat="43.39644" lon="2.732">
        <ele>382.774414</ele>
        <time>2013-05-19T10:41:40Z</time>
      </trkpt>
      <trkpt lat="43.39646" lon="2.73207">
        <ele>383.146881</ele>
        <time>2013-05-19T10:41:41Z</time>
      </trkpt>
      <trkpt lat="43.39648" lon="2.73213">
        <ele>383.44751</ele>
        <time>2013-05-19T10:41:42Z</time>
      </trkpt>
      <trkpt lat="43.39649" lon="2.73217">
        <ele>383.654877</ele>
        <time>2013-05-19T10:41:43Z</time>
      </trkpt>
      <trkpt lat="43.3965" lon="2.73221">
        <ele>383.688324</ele>
        <time>2013-05-19T10:41:44Z</time>
      </trkpt>
      <trkpt lat="43.3965" lon="2.73225">
        <ele>383.831177</ele>
        <time>2013-05-19T10:41:45Z</time>
      </trkpt>
      <trkpt lat="43.39649" lon="2.73229">
        <ele>384.286438</ele>
        <time>2013-05-19T10:41:46Z</time>
      </trkpt>
      <trkpt lat="43.39648" lon="2.73235">
        <ele>384.821014</ele>
        <time>2013-05-19T10:41:47Z</time>
      </trkpt>
      <trkpt lat="43.39647" lon="2.73241">
        <ele>385.372162</ele>
        <time>2013-05-19T10:41:48Z</time>
      </trkpt>
      <trkpt lat="43.39645" lon="2.73247">
        <ele>386.063446</ele>
        <time>2013-05-19T10:41:49Z</time>
      </trkpt>
      <trkpt lat="43.39645" lon="2.73253">
        <ele>386.513092</ele>
        <time>2013-05-19T10:41:50Z</time>
      </trkpt>
      <trkpt lat="43.39646" lon="2.7326">
        <ele>386.609528</ele>
        <time>2013-05-19T10:41:51Z</time>
      </trkpt>
      <trkpt lat="43.39647" lon="2.73266">
        <ele>386.573151</ele>
        <time>2013-05-19T10:41:52Z</time>
      </trkpt>
      <trkpt lat="43.39649" lon="2.73273">
        <ele>386.418549</ele>
        <time>2013-05-19T10:41:53Z</time>
      </trkpt>
      <trkpt lat="43.3965" lon="2.73278">
        <ele>386.247742</ele>
        <time>2013-05-19T10:41:54Z</time>
      </trkpt>
      <trkpt lat="43.39651" lon="2.73281">
        <ele>386.38913</ele>
        <time>2013-05-19T10:41:55Z</time>
      </trkpt>
      <trkpt lat="43.39652" lon="2.73283">
        <ele>386.125244</ele>
        <time>2013-05-19T10:41:56Z</time>
      </trkpt>
      <trkpt lat="43.39655" lon="2.73285">
        <ele>385.695953</ele>
        <time>2013-05-19T10:41:57Z</time>
      </trkpt>
      <trkpt lat="43.39658" lon="2.73287">
        <ele>385.010895</ele>
        <time>2013-05-19T10:41:58Z</time>
      </trkpt>
      <trkpt lat="43.39662" lon="2.73291">
        <ele>384.144043</ele>
        <time>2013-05-19T10:41:59Z</time>
      </trkpt>
      <trkpt lat="43.39667" lon="2.73295">
        <ele>382.989227</ele>
        <time>2013-05-19T10:42:00Z</time>
      </trkpt>
      <trkpt lat="43.39671" lon="2.73299">
        <ele>381.729187</ele>
        <time>2013-05-19T10:42:01Z</time>
      </trkpt>
      <trkpt lat="43.39676" lon="2.73302">
        <ele>380.447693</ele>
        <time>2013-05-19T10:42:02Z</time>
      </trkpt>
      <trkpt lat="43.39679" lon="2.73304">
        <ele>379.836212</ele>
        <time>2013-05-19T10:42:03Z</time>
      </trkpt>
      <trkpt lat="43.39682" lon="2.73306">
        <ele>380.429993</ele>
        <time>2013-05-19T10:42:04Z</time>
      </trkpt>
      <trkpt lat="43.39686" lon="2.73307">
        <ele>381.041199</ele>
        <time>2013-05-19T10:42:05Z</time>
      </trkpt>
      <trkpt lat="43.39697" lon="2.73313">
        <ele>383.065887</ele>
        <time>2013-05-19T10:42:10Z</time>
      </trkpt>
      <trkpt lat="43.39701" lon="2.73313">
        <ele>383.68515</ele>
        <time>2013-05-19T10:42:18Z</time>
      </trkpt>
      <trkpt lat="43.39706" lon="2.73313">
        <ele>384.329803</ele>
        <time>2013-05-19T10:42:22Z</time>
      </trkpt>
      <trkpt lat="43.39713" lon="2.73311">
        <ele>385.345215</ele>
        <time>2013-05-19T10:42:32Z</time>
      </trkpt>
      <trkpt lat="43.39715" lon="2.73311">
        <ele>385.690887</ele>
        <time>2013-05-19T10:42:54Z</time>
      </trkpt>
      <trkpt lat="43.39713" lon="2.73308">
        <ele>385.356232</ele>
        <time>2013-05-19T10:43:00Z</time>
      </trkpt>
      <trkpt lat="43.39709" lon="2.73314">
        <ele>384.859192</ele>
        <time>2013-05-19T10:43:13Z</time>
      </trkpt>
      <trkpt lat="43.39709" lon="2.73314">
        <ele>384.919891</ele>
        <time>2013-05-19T10:43:32Z</time>
      </trkpt>
      <trkpt lat="43.39711" lon="2.73311">
        <ele>385.114868</ele>
        <time>2013-05-19T10:43:54Z</time>
      </trkpt>
      <trkpt lat="43.39713" lon="2.7331">
        <ele>385.378326</ele>
        <time>2013-05-19T10:43:56Z</time>
      </trkpt>
      <trkpt lat="43.39714" lon="2.73307">
        <ele>385.443787</ele>
        <time>2013-05-19T10:43:58Z</time>
      </trkpt>
      <trkpt lat="43.39714" lon="2.73303">
        <ele>385.464508</ele>
        <time>2013-05-19T10:44:00Z</time>
      </trkpt>
      <trkpt lat="43.39715" lon="2.73299">
        <ele>385.492096</ele>
        <time>2013-05-19T10:44:02Z</time>
      </trkpt>
      <trkpt lat="43.39715" lon="2.73297">
        <ele>385.544067</ele>
        <time>2013-05-19T10:44:03Z</time>
      </trkpt>
      <trkpt lat="43.39715" lon="2.73295">
        <ele>385.536652</ele>
        <time>2013-05-19T10:44:04Z</time>
      </trkpt>
      <trkpt lat="43.39709" lon="2.73276">
        <ele>384.230255</ele>
        <time>2013-05-19T10:44:15Z</time>
      </trkpt>
      <trkpt lat="43.39709" lon="2.73275">
        <ele>384.10144</ele>
        <time>2013-05-19T10:44:16Z</time>
      </trkpt>
      <trkpt lat="43.39708" lon="2.73273">
        <ele>383.977997</ele>
        <time>2013-05-19T10:44:17Z</time>
      </trkpt>
      <trkpt lat="43.39707" lon="2.73272">
        <ele>383.876709</ele>
        <time>2013-05-19T10:44:18Z</time>
      </trkpt>
      <trkpt lat="43.39707" lon="2.7327">
        <ele>383.799927</ele>
        <time>2013-05-19T10:44:19Z</time>
      </trkpt>
      <trkpt lat="43.39702" lon="2.73257">
        <ele>383.025299</ele>
        <time>2013-05-19T10:44:27Z</time>
      </trkpt>
      <trkpt lat="43.39702" lon="2.73255">
        <ele>383.084991</ele>
        <time>2013-05-19T10:44:28Z</time>
      </trkpt>
      <trkpt lat="43.39703" lon="2.73252">
        <ele>383.333435</ele>
        <time>2013-05-19T10:44:30Z</time>
      </trkpt>
      <trkpt lat="43.39704" lon="2.7325">
        <ele>383.557739</ele>
        <time>2013-05-19T10:44:31Z</time>
      </trkpt>
      <trkpt lat="43.39714" lon="2.73234">
        <ele>386.56546</ele>
        <time>2013-05-19T10:44:40Z</time>
      </trkpt>
      <trkpt lat="43.39715" lon="2.73232">
        <ele>386.863739</ele>
        <time>2013-05-19T10:44:41Z</time>
      </trkpt>
      <trkpt lat="43.39716" lon="2.7323">
        <ele>387.227631</ele>
        <time>2013-05-19T10:44:42Z</time>
      </trkpt>
      <trkpt lat="43.3973" lon="2.73202">
        <ele>394.402161</ele>
        <time>2013-05-19T10:44:57Z</time>
      </trkpt>
      <trkpt lat="43.39728" lon="2.73174">
        <ele>395.223724</ele>
        <time>2013-05-19T10:45:08Z</time>
      </trkpt>
      <trkpt lat="43.39719" lon="2.73144">
        <ele>392.247986</ele>
        <time>2013-05-19T10:45:22Z</time>
      </trkpt>
      <trkpt lat="43.39709" lon="2.73108">
        <ele>388.506073</ele>
        <time>2013-05-19T10:45:38Z</time>
      </trkpt>
      <trkpt lat="43.39709" lon="2.73106">
        <ele>388.456024</ele>
        <time>2013-05-19T10:45:39Z</time>
      </trkpt>
      <trkpt lat="43.39709" lon="2.73103">
        <ele>388.400391</ele>
        <time>2013-05-19T10:45:40Z</time>
      </trkpt>
      <trkpt lat="43.39705" lon="2.73067">
        <ele>385.064209</ele>
        <time>2013-05-19T10:45:55Z</time>
      </trkpt>
      <trkpt lat="43.39705" lon="2.73039">
        <ele>383.237885</ele>
        <time>2013-05-19T10:46:05Z</time>
      </trkpt>
      <trkpt lat="43.39706" lon="2.73036">
        <ele>383.445038</ele>
        <time>2013-05-19T10:46:06Z</time>
      </trkpt>
      <trkpt lat="43.39729" lon="2.7301">
        <ele>386.914917</ele>
        <time>2013-05-19T10:46:18Z</time>
      </trkpt>
      <trkpt lat="43.39755" lon="2.72992">
        <ele>391.237213</ele>
        <time>2013-05-19T10:46:28Z</time>
      </trkpt>
      <trkpt lat="43.39786" lon="2.72985">
        <ele>400.304382</ele>
        <time>2013-05-19T10:46:39Z</time>
      </trkpt>
      <trkpt lat="43.39793" lon="2.72949">
        <ele>394.653229</ele>
        <time>2013-05-19T10:46:51Z</time>
      </trkpt>
      <trkpt lat="43.39811" lon="2.7291">
        <ele>394.30658</ele>
        <time>2013-05-19T10:47:05Z</time>
      </trkpt>
      <trkpt lat="43.39831" lon="2.72873">
        <ele>390.701019</ele>
        <time>2013-05-19T10:47:18Z</time>
      </trkpt>
      <trkpt lat="43.39833" lon="2.72871">
        <ele>390.547241</ele>
        <time>2013-05-19T10:47:19Z</time>
      </trkpt>
      <trkpt lat="43.39834" lon="2.72869">
        <ele>390.389099</ele>
        <time>2013-05-19T10:47:20Z</time>
      </trkpt>
      <trkpt lat="43.39837" lon="2.72867">
        <ele>390.424042</ele>
        <time>2013-05-19T10:47:21Z</time>
      </trkpt>
      <trkpt lat="43.39839" lon="2.72864">
        <ele>390.389282</ele>
        <time>2013-05-19T10:47:22Z</time>
      </trkpt>
      <trkpt lat="43.39841" lon="2.72862">
        <ele>390.411255</ele>
        <time>2013-05-19T10:47:23Z</time>
      </trkpt>
      <trkpt lat="43.39874" lon="2.72839">
        <ele>394.01413</ele>
        <time>2013-05-19T10:47:36Z</time>
      </trkpt>
      <trkpt lat="43.39897" lon="2.72829">
        <ele>397.727386</ele>
        <time>2013-05-19T10:47:49Z</time>
      </trkpt>
      <trkpt lat="43.39912" lon="2.72828">
        <ele>400.146149</ele>
        <time>2013-05-19T10:47:58Z</time>
      </trkpt>
      <trkpt lat="43.39914" lon="2.72827">
        <ele>400.29361</ele>
        <time>2013-05-19T10:47:59Z</time>
      </trkpt>
      <trkpt lat="43.39938" lon="2.72819">
        <ele>403.021606</ele>
        <time>2013-05-19T10:48:09Z</time>
      </trkpt>
      <trkpt lat="43.3994" lon="2.72817">
        <ele>403.04425</ele>
        <time>2013-05-19T10:48:10Z</time>
      </trkpt>
      <trkpt lat="43.39942" lon="2.72814">
        <ele>403.015015</ele>
        <time>2013-05-19T10:48:11Z</time>
      </trkpt>
      <trkpt lat="43.39943" lon="2.72811">
        <ele>402.736389</ele>
        <time>2013-05-19T10:48:12Z</time>
      </trkpt>
      <trkpt lat="43.39943" lon="2.72807">
        <ele>402.327789</ele>
        <time>2013-05-19T10:48:13Z</time>
      </trkpt>
      <trkpt lat="43.39943" lon="2.72803">
        <ele>401.701172</ele>
        <time>2013-05-19T10:48:14Z</time>
      </trkpt>
      <trkpt lat="43.39942" lon="2.728">
        <ele>401.010559</ele>
        <time>2013-05-19T10:48:15Z</time>
      </trkpt>
      <trkpt lat="43.39941" lon="2.72797">
        <ele>400.317108</ele>
        <time>2013-05-19T10:48:16Z</time>
      </trkpt>
      <trkpt lat="43.39911" lon="2.72776">
        <ele>397.376068</ele>
        <time>2013-05-19T10:48:30Z</time>
      </trkpt>
      <trkpt lat="43.39874" lon="2.72758">
        <ele>401.381104</ele>
        <time>2013-05-19T10:48:45Z</time>
      </trkpt>
      <trkpt lat="43.39836" lon="2.72754">
        <ele>400.386261</ele>
        <time>2013-05-19T10:48:59Z</time>
      </trkpt>
      <trkpt lat="43.39806" lon="2.72745">
        <ele>402.037323</ele>
        <time>2013-05-19T10:49:13Z</time>
      </trkpt>
      <trkpt lat="43.39783" lon="2.72734">
        <ele>404.293488</ele>
        <time>2013-05-19T10:49:25Z</time>
      </trkpt>
      <trkpt lat="43.39757" lon="2.7272">
        <ele>406.657806</ele>
        <time>2013-05-19T10:49:39Z</time>
      </trkpt>
      <trkpt lat="43.39733" lon="2.72712">
        <ele>405.306885</ele>
        <time>2013-05-19T10:49:51Z</time>
      </trkpt>
      <trkpt lat="43.39711" lon="2.72702">
        <ele>402.575653</ele>
        <time>2013-05-19T10:50:03Z</time>
      </trkpt>
      <trkpt lat="43.39703" lon="2.7269">
        <ele>402.08316</ele>
        <time>2013-05-19T10:50:10Z</time>
      </trkpt>
      <trkpt lat="43.39704" lon="2.72688">
        <ele>402.437256</ele>
        <time>2013-05-19T10:50:11Z</time>
      </trkpt>
      <trkpt lat="43.39708" lon="2.72654">
        <ele>406.531006</ele>
        <time>2013-05-19T10:50:23Z</time>
      </trkpt>
      <trkpt lat="43.39709" lon="2.72647">
        <ele>406.419617</ele>
        <time>2013-05-19T10:50:26Z</time>
      </trkpt>
      <trkpt lat="43.39709" lon="2.72645">
        <ele>406.385193</ele>
        <time>2013-05-19T10:50:27Z</time>
      </trkpt>
      <trkpt lat="43.39709" lon="2.72642">
        <ele>406.146759</ele>
        <time>2013-05-19T10:50:28Z</time>
      </trkpt>
      <trkpt lat="43.39709" lon="2.7264">
        <ele>405.787262</ele>
        <time>2013-05-19T10:50:29Z</time>
      </trkpt>
      <trkpt lat="43.39709" lon="2.72637">
        <ele>405.690277</ele>
        <time>2013-05-19T10:50:30Z</time>
      </trkpt>
      <trkpt lat="43.39709" lon="2.72635">
        <ele>405.651337</ele>
        <time>2013-05-19T10:50:31Z</time>
      </trkpt>
      <trkpt lat="43.39713" lon="2.72592">
        <ele>405.650574</ele>
        <time>2013-05-19T10:50:43Z</time>
      </trkpt>
      <trkpt lat="43.39724" lon="2.72522">
        <ele>410.108032</ele>
        <time>2013-05-19T10:50:52Z</time>
      </trkpt>
      <trkpt lat="43.39724" lon="2.72512">
        <ele>409.882385</ele>
        <time>2013-05-19T10:50:53Z</time>
      </trkpt>
      <trkpt lat="43.39724" lon="2.72502">
        <ele>409.076691</ele>
        <time>2013-05-19T10:50:54Z</time>
      </trkpt>
      <trkpt lat="43.39722" lon="2.72493">
        <ele>407.859222</ele>
        <time>2013-05-19T10:50:55Z</time>
      </trkpt>
      <trkpt lat="43.3972" lon="2.72483">
        <ele>406.380035</ele>
        <time>2013-05-19T10:50:56Z</time>
      </trkpt>
      <trkpt lat="43.39718" lon="2.72474">
        <ele>404.968201</ele>
        <time>2013-05-19T10:50:57Z</time>
      </trkpt>
      <trkpt lat="43.39715" lon="2.72464">
        <ele>403.947693</ele>
        <time>2013-05-19T10:50:58Z</time>
      </trkpt>
      <trkpt lat="43.39663" lon="2.72346">
        <ele>396.294006</ele>
        <time>2013-05-19T10:51:11Z</time>
      </trkpt>
      <trkpt lat="43.39656" lon="2.72339">
        <ele>395.809875</ele>
        <time>2013-05-19T10:51:12Z</time>
      </trkpt>
      <trkpt lat="43.39649" lon="2.72332">
        <ele>395.076202</ele>
        <time>2013-05-19T10:51:13Z</time>
      </trkpt>
      <trkpt lat="43.39604" lon="2.72308">
        <ele>392.721375</ele>
        <time>2013-05-19T10:51:18Z</time>
      </trkpt>
      <trkpt lat="43.39575" lon="2.72305">
        <ele>387.686951</ele>
        <time>2013-05-19T10:51:21Z</time>
      </trkpt>
      <trkpt lat="43.39555" lon="2.72307">
        <ele>382.47464</ele>
        <time>2013-05-19T10:51:23Z</time>
      </trkpt>
      <trkpt lat="43.39546" lon="2.72306">
        <ele>381.169891</ele>
        <time>2013-05-19T10:51:24Z</time>
      </trkpt>
      <trkpt lat="43.39537" lon="2.723">
        <ele>381.28067</ele>
        <time>2013-05-19T10:51:25Z</time>
      </trkpt>
      <trkpt lat="43.3953" lon="2.7229">
        <ele>382.230621</ele>
        <time>2013-05-19T10:51:26Z</time>
      </trkpt>
      <trkpt lat="43.39526" lon="2.72278">
        <ele>382.255768</ele>
        <time>2013-05-19T10:51:27Z</time>
      </trkpt>
      <trkpt lat="43.39523" lon="2.72265">
        <ele>382.564789</ele>
        <time>2013-05-19T10:51:28Z</time>
      </trkpt>
      <trkpt lat="43.39514" lon="2.72211">
        <ele>380.516418</ele>
        <time>2013-05-19T10:51:32Z</time>
      </trkpt>
      <trkpt lat="43.39515" lon="2.72198">
        <ele>379.240936</ele>
        <time>2013-05-19T10:51:33Z</time>
      </trkpt>
      <trkpt lat="43.39519" lon="2.72187">
        <ele>378.961334</ele>
        <time>2013-05-19T10:51:34Z</time>
      </trkpt>
      <trkpt lat="43.39526" lon="2.7218">
        <ele>379.490326</ele>
        <time>2013-05-19T10:51:35Z</time>
      </trkpt>
      <trkpt lat="43.39535" lon="2.72177">
        <ele>380.56488</ele>
        <time>2013-05-19T10:51:36Z</time>
      </trkpt>
      <trkpt lat="43.39542" lon="2.72176">
        <ele>381.707428</ele>
        <time>2013-05-19T10:51:37Z</time>
      </trkpt>
      <trkpt lat="43.39578" lon="2.72173">
        <ele>386.387634</ele>
        <time>2013-05-19T10:51:42Z</time>
      </trkpt>
      <trkpt lat="43.39585" lon="2.72171">
        <ele>386.873505</ele>
        <time>2013-05-19T10:51:43Z</time>
      </trkpt>
      <trkpt lat="43.39647" lon="2.72145">
        <ele>380.824951</ele>
        <time>2013-05-19T10:51:52Z</time>
      </trkpt>
      <trkpt lat="43.39653" lon="2.7214">
        <ele>379.961121</ele>
        <time>2013-05-19T10:51:53Z</time>
      </trkpt>
      <trkpt lat="43.39678" lon="2.72118">
        <ele>376.079437</ele>
        <time>2013-05-19T10:51:57Z</time>
      </trkpt>
      <trkpt lat="43.39685" lon="2.72113">
        <ele>375.885132</ele>
        <time>2013-05-19T10:51:58Z</time>
      </trkpt>
      <trkpt lat="43.39692" lon="2.72108">
        <ele>375.599457</ele>
        <time>2013-05-19T10:51:59Z</time>
      </trkpt>
      <trkpt lat="43.39698" lon="2.72103">
        <ele>375.394318</ele>
        <time>2013-05-19T10:52:00Z</time>
      </trkpt>
      <trkpt lat="43.39705" lon="2.72097">
        <ele>374.831268</ele>
        <time>2013-05-19T10:52:01Z</time>
      </trkpt>
      <trkpt lat="43.39736" lon="2.72065">
        <ele>370.35675</ele>
        <time>2013-05-19T10:52:06Z</time>
      </trkpt>
      <trkpt lat="43.39798" lon="2.7204">
        <ele>365.912445</ele>
        <time>2013-05-19T10:52:14Z</time>
      </trkpt>
      <trkpt lat="43.39922" lon="2.72039">
        <ele>362.164764</ele>
        <time>2013-05-19T10:52:28Z</time>
      </trkpt>
      <trkpt lat="43.40054" lon="2.72063">
        <ele>358.133453</ele>
        <time>2013-05-19T10:52:42Z</time>
      </trkpt>
      <trkpt lat="43.40064" lon="2.72062">
        <ele>357.423004</ele>
        <time>2013-05-19T10:52:43Z</time>
      </trkpt>
      <trkpt lat="43.40072" lon="2.72058">
        <ele>356.773773</ele>
        <time>2013-05-19T10:52:44Z</time>
      </trkpt>
      <trkpt lat="43.40081" lon="2.72053">
        <ele>356.289276</ele>
        <time>2013-05-19T10:52:45Z</time>
      </trkpt>
      <trkpt lat="43.40088" lon="2.72046">
        <ele>356.192871</ele>
        <time>2013-05-19T10:52:46Z</time>
      </trkpt>
      <trkpt lat="43.40091" lon="2.72037">
        <ele>356.906647</ele>
        <time>2013-05-19T10:52:47Z</time>
      </trkpt>
      <trkpt lat="43.40092" lon="2.72027">
        <ele>357.595184</ele>
        <time>2013-05-19T10:52:48Z</time>
      </trkpt>
      <trkpt lat="43.40089" lon="2.72018">
        <ele>358.058807</ele>
        <time>2013-05-19T10:52:49Z</time>
      </trkpt>
      <trkpt lat="43.40086" lon="2.72011">
        <ele>358.409912</ele>
        <time>2013-05-19T10:52:50Z</time>
      </trkpt>
      <trkpt lat="43.40081" lon="2.72001">
        <ele>359.061798</ele>
        <time>2013-05-19T10:52:52Z</time>
      </trkpt>
      <trkpt lat="43.40059" lon="2.71966">
        <ele>360.550385</ele>
        <time>2013-05-19T10:53:04Z</time>
      </trkpt>
      <trkpt lat="43.4004" lon="2.7194">
        <ele>360.481171</ele>
        <time>2013-05-19T10:53:15Z</time>
      </trkpt>
      <trkpt lat="43.40016" lon="2.71895">
        <ele>361.625214</ele>
        <time>2013-05-19T10:53:31Z</time>
      </trkpt>
      <trkpt lat="43.40007" lon="2.71854">
        <ele>362.444855</ele>
        <time>2013-05-19T10:53:45Z</time>
      </trkpt>
      <trkpt lat="43.40005" lon="2.71815">
        <ele>364.340393</ele>
        <time>2013-05-19T10:53:59Z</time>
      </trkpt>
      <trkpt lat="43.40004" lon="2.71771">
        <ele>366.445313</ele>
        <time>2013-05-19T10:54:14Z</time>
      </trkpt>
      <trkpt lat="43.40003" lon="2.71731">
        <ele>368.283386</ele>
        <time>2013-05-19T10:54:27Z</time>
      </trkpt>
      <trkpt lat="43.40002" lon="2.71682">
        <ele>370.348755</ele>
        <time>2013-05-19T10:54:43Z</time>
      </trkpt>
      <trkpt lat="43.39995" lon="2.71636">
        <ele>373.117889</ele>
        <time>2013-05-19T10:54:59Z</time>
      </trkpt>
      <trkpt lat="43.39987" lon="2.71586">
        <ele>376.950287</ele>
        <time>2013-05-19T10:55:16Z</time>
      </trkpt>
      <trkpt lat="43.39986" lon="2.71584">
        <ele>377.196472</ele>
        <time>2013-05-19T10:55:17Z</time>
      </trkpt>
      <trkpt lat="43.39986" lon="2.71581">
        <ele>377.496063</ele>
        <time>2013-05-19T10:55:18Z</time>
      </trkpt>
      <trkpt lat="43.39987" lon="2.71578">
        <ele>377.815247</ele>
        <time>2013-05-19T10:55:19Z</time>
      </trkpt>
      <trkpt lat="43.39988" lon="2.71577">
        <ele>378.025787</ele>
        <time>2013-05-19T10:55:20Z</time>
      </trkpt>
      <trkpt lat="43.3999" lon="2.71578">
        <ele>378.105316</ele>
        <time>2013-05-19T10:55:21Z</time>
      </trkpt>
      <trkpt lat="43.39992" lon="2.71579">
        <ele>378.147644</ele>
        <time>2013-05-19T10:55:22Z</time>
      </trkpt>
      <trkpt lat="43.39994" lon="2.7158">
        <ele>378.175842</ele>
        <time>2013-05-19T10:55:23Z</time>
      </trkpt>
      <trkpt lat="43.40018" lon="2.716">
        <ele>380.328461</ele>
        <time>2013-05-19T10:55:37Z</time>
      </trkpt>
      <trkpt lat="43.40042" lon="2.71628">
        <ele>382.633759</ele>
        <time>2013-05-19T10:55:52Z</time>
      </trkpt>
      <trkpt lat="43.40066" lon="2.71657">
        <ele>385.743744</ele>
        <time>2013-05-19T10:56:07Z</time>
      </trkpt>
      <trkpt lat="43.40092" lon="2.71691">
        <ele>388.824005</ele>
        <time>2013-05-19T10:56:23Z</time>
      </trkpt>
      <trkpt lat="43.40123" lon="2.71728">
        <ele>392.204987</ele>
        <time>2013-05-19T10:56:42Z</time>
      </trkpt>
      <trkpt lat="43.40156" lon="2.71758">
        <ele>394.845001</ele>
        <time>2013-05-19T10:57:00Z</time>
      </trkpt>
      <trkpt lat="43.40186" lon="2.71777">
        <ele>397.74115</ele>
        <time>2013-05-19T10:57:15Z</time>
      </trkpt>
      <trkpt lat="43.40216" lon="2.71795">
        <ele>400.768463</ele>
        <time>2013-05-19T10:57:30Z</time>
      </trkpt>
      <trkpt lat="43.40246" lon="2.71814">
        <ele>404.162506</ele>
        <time>2013-05-19T10:57:45Z</time>
      </trkpt>
      <trkpt lat="43.40276" lon="2.71836">
        <ele>407.669983</ele>
        <time>2013-05-19T10:58:01Z</time>
      </trkpt>
      <trkpt lat="43.40294" lon="2.71853">
        <ele>410.100006</ele>
        <time>2013-05-19T10:58:13Z</time>
      </trkpt>
      <trkpt lat="43.40319" lon="2.71876">
        <ele>413.382507</ele>
        <time>2013-05-19T10:58:27Z</time>
      </trkpt>
      <trkpt lat="43.40344" lon="2.71903">
        <ele>417.179993</ele>
        <time>2013-05-19T10:58:44Z</time>
      </trkpt>
      <trkpt lat="43.40345" lon="2.71901">
        <ele>417.765015</ele>
        <time>2013-05-19T10:58:45Z</time>
      </trkpt>
      <trkpt lat="43.40345" lon="2.71899">
        <ele>418.130005</ele>
        <time>2013-05-19T10:58:46Z</time>
      </trkpt>
      <trkpt lat="43.40345" lon="2.71896">
        <ele>418.470001</ele>
        <time>2013-05-19T10:58:47Z</time>
      </trkpt>
      <trkpt lat="43.40345" lon="2.71894">
        <ele>418.797485</ele>
        <time>2013-05-19T10:58:48Z</time>
      </trkpt>
      <trkpt lat="43.40345" lon="2.71891">
        <ele>419.005005</ele>
        <time>2013-05-19T10:58:49Z</time>
      </trkpt>
      <trkpt lat="43.40344" lon="2.71888">
        <ele>419.097504</ele>
        <time>2013-05-19T10:58:50Z</time>
      </trkpt>
      <trkpt lat="43.40343" lon="2.71886">
        <ele>419.11499</ele>
        <time>2013-05-19T10:58:51Z</time>
      </trkpt>
      <trkpt lat="43.4033" lon="2.71844">
        <ele>420.666901</ele>
        <time>2013-05-19T10:59:05Z</time>
      </trkpt>
      <trkpt lat="43.40307" lon="2.71791">
        <ele>420.878845</ele>
        <time>2013-05-19T10:59:20Z</time>
      </trkpt>
      <trkpt lat="43.40289" lon="2.71733">
        <ele>423.682495</ele>
        <time>2013-05-19T10:59:36Z</time>
      </trkpt>
      <trkpt lat="43.40269" lon="2.71666">
        <ele>426.690002</ele>
        <time>2013-05-19T10:59:53Z</time>
      </trkpt>
      <trkpt lat="43.4025" lon="2.71603">
        <ele>429.5</ele>
        <time>2013-05-19T11:00:09Z</time>
      </trkpt>
      <trkpt lat="43.40227" lon="2.71554">
        <ele>429.824036</ele>
        <time>2013-05-19T11:00:22Z</time>
      </trkpt>
      <trkpt lat="43.40219" lon="2.71537">
        <ele>429.967133</ele>
        <time>2013-05-19T11:00:27Z</time>
      </trkpt>
      <trkpt lat="43.40219" lon="2.71533">
        <ele>430.336853</ele>
        <time>2013-05-19T11:00:28Z</time>
      </trkpt>
      <trkpt lat="43.40219" lon="2.71529">
        <ele>430.844391</ele>
        <time>2013-05-19T11:00:29Z</time>
      </trkpt>
      <trkpt lat="43.4022" lon="2.71525">
        <ele>431.493134</ele>
        <time>2013-05-19T11:00:30Z</time>
      </trkpt>
      <trkpt lat="43.40221" lon="2.71523">
        <ele>432.164246</ele>
        <time>2013-05-19T11:00:31Z</time>
      </trkpt>
      <trkpt lat="43.40223" lon="2.71522">
        <ele>432.743713</ele>
        <time>2013-05-19T11:00:32Z</time>
      </trkpt>
      <trkpt lat="43.40225" lon="2.71523">
        <ele>433.099762</ele>
        <time>2013-05-19T11:00:33Z</time>
      </trkpt>
      <trkpt lat="43.40227" lon="2.71524">
        <ele>433.357605</ele>
        <time>2013-05-19T11:00:34Z</time>
      </trkpt>
      <trkpt lat="43.40229" lon="2.71527">
        <ele>433.529175</ele>
        <time>2013-05-19T11:00:35Z</time>
      </trkpt>
      <trkpt lat="43.40231" lon="2.71529">
        <ele>433.757263</ele>
        <time>2013-05-19T11:00:36Z</time>
      </trkpt>
      <trkpt lat="43.40233" lon="2.71532">
        <ele>434.051056</ele>
        <time>2013-05-19T11:00:37Z</time>
      </trkpt>
      <trkpt lat="43.40236" lon="2.71534">
        <ele>434.327362</ele>
        <time>2013-05-19T11:00:38Z</time>
      </trkpt>
      <trkpt lat="43.40237" lon="2.71537">
        <ele>434.424377</ele>
        <time>2013-05-19T11:00:39Z</time>
      </trkpt>
      <trkpt lat="43.40274" lon="2.71587">
        <ele>436.920319</ele>
        <time>2013-05-19T11:00:55Z</time>
      </trkpt>
      <trkpt lat="43.40307" lon="2.71647">
        <ele>437.39624</ele>
        <time>2013-05-19T11:01:09Z</time>
      </trkpt>
      <trkpt lat="43.40326" lon="2.7169">
        <ele>437.363739</ele>
        <time>2013-05-19T11:01:18Z</time>
      </trkpt>
      <trkpt lat="43.40348" lon="2.71739">
        <ele>437.706238</ele>
        <time>2013-05-19T11:01:28Z</time>
      </trkpt>
      <trkpt lat="43.40353" lon="2.71748">
        <ele>437.928741</ele>
        <time>2013-05-19T11:01:30Z</time>
      </trkpt>
      <trkpt lat="43.40381" lon="2.71805">
        <ele>438.962585</ele>
        <time>2013-05-19T11:01:41Z</time>
      </trkpt>
      <trkpt lat="43.40384" lon="2.7181">
        <ele>439.195129</ele>
        <time>2013-05-19T11:01:42Z</time>
      </trkpt>
      <trkpt lat="43.40386" lon="2.71816">
        <ele>439.341736</ele>
        <time>2013-05-19T11:01:43Z</time>
      </trkpt>
      <trkpt lat="43.40415" lon="2.71891">
        <ele>439.875</ele>
        <time>2013-05-19T11:01:59Z</time>
      </trkpt>
      <trkpt lat="43.40442" lon="2.71948">
        <ele>443.673096</ele>
        <time>2013-05-19T11:02:14Z</time>
      </trkpt>
      <trkpt lat="43.40448" lon="2.71981">
        <ele>444.484741</ele>
        <time>2013-05-19T11:02:24Z</time>
      </trkpt>
      <trkpt lat="43.40461" lon="2.72039">
        <ele>441.953064</ele>
        <time>2013-05-19T11:02:39Z</time>
      </trkpt>
      <trkpt lat="43.40498" lon="2.72065">
        <ele>444.306183</ele>
        <time>2013-05-19T11:02:52Z</time>
      </trkpt>
      <trkpt lat="43.40536" lon="2.72094">
        <ele>444.548889</ele>
        <time>2013-05-19T11:03:06Z</time>
      </trkpt>
      <trkpt lat="43.40578" lon="2.7209">
        <ele>445.56839</ele>
        <time>2013-05-19T11:03:20Z</time>
      </trkpt>
      <trkpt lat="43.40611" lon="2.72052">
        <ele>454.091553</ele>
        <time>2013-05-19T11:03:35Z</time>
      </trkpt>
      <trkpt lat="43.40643" lon="2.72028">
        <ele>458.26297</ele>
        <time>2013-05-19T11:03:48Z</time>
      </trkpt>
      <trkpt lat="43.40682" lon="2.72006">
        <ele>463.476257</ele>
        <time>2013-05-19T11:04:02Z</time>
      </trkpt>
      <trkpt lat="43.40717" lon="2.72004">
        <ele>463.88327</ele>
        <time>2013-05-19T11:04:14Z</time>
      </trkpt>
      <trkpt lat="43.40783" lon="2.72004">
        <ele>461.962494</ele>
        <time>2013-05-19T11:04:32Z</time>
      </trkpt>
      <trkpt lat="43.40834" lon="2.7198">
        <ele>462.725006</ele>
        <time>2013-05-19T11:04:46Z</time>
      </trkpt>
      <trkpt lat="43.40879" lon="2.71957">
        <ele>464.467926</ele>
        <time>2013-05-19T11:04:59Z</time>
      </trkpt>
      <trkpt lat="43.40914" lon="2.71955">
        <ele>469.016266</ele>
        <time>2013-05-19T11:05:12Z</time>
      </trkpt>
      <trkpt lat="43.4092" lon="2.71918">
        <ele>474.408905</ele>
        <time>2013-05-19T11:05:23Z</time>
      </trkpt>
      <trkpt lat="43.40945" lon="2.71885">
        <ele>476.241333</ele>
        <time>2013-05-19T11:05:35Z</time>
      </trkpt>
      <trkpt lat="43.40965" lon="2.71852">
        <ele>476.111694</ele>
        <time>2013-05-19T11:05:46Z</time>
      </trkpt>
      <trkpt lat="43.40967" lon="2.71849">
        <ele>476.073395</ele>
        <time>2013-05-19T11:05:47Z</time>
      </trkpt>
      <trkpt lat="43.40969" lon="2.71846">
        <ele>476.033936</ele>
        <time>2013-05-19T11:05:48Z</time>
      </trkpt>
      <trkpt lat="43.41" lon="2.71825">
        <ele>476.943939</ele>
        <time>2013-05-19T11:05:59Z</time>
      </trkpt>
      <trkpt lat="43.41046" lon="2.71805">
        <ele>481.83606</ele>
        <time>2013-05-19T11:06:14Z</time>
      </trkpt>
      <trkpt lat="43.41049" lon="2.71791">
        <ele>483.513123</ele>
        <time>2013-05-19T11:06:17Z</time>
      </trkpt>
      <trkpt lat="43.41048" lon="2.71786">
        <ele>483.638947</ele>
        <time>2013-05-19T11:06:18Z</time>
      </trkpt>
      <trkpt lat="43.41046" lon="2.71782">
        <ele>483.724213</ele>
        <time>2013-05-19T11:06:19Z</time>
      </trkpt>
      <trkpt lat="43.41044" lon="2.71778">
        <ele>483.785309</ele>
        <time>2013-05-19T11:06:20Z</time>
      </trkpt>
      <trkpt lat="43.41041" lon="2.71774">
        <ele>483.865631</ele>
        <time>2013-05-19T11:06:21Z</time>
      </trkpt>
      <trkpt lat="43.41039" lon="2.71771">
        <ele>484.060394</ele>
        <time>2013-05-19T11:06:22Z</time>
      </trkpt>
      <trkpt lat="43.41037" lon="2.71768">
        <ele>484.294189</ele>
        <time>2013-05-19T11:06:23Z</time>
      </trkpt>
      <trkpt lat="43.41035" lon="2.71766">
        <ele>484.311707</ele>
        <time>2013-05-19T11:06:24Z</time>
      </trkpt>
      <trkpt lat="43.41036" lon="2.71769">
        <ele>483.990875</ele>
        <time>2013-05-19T11:06:28Z</time>
      </trkpt>
      <trkpt lat="43.41038" lon="2.71771">
        <ele>483.921844</ele>
        <time>2013-05-19T11:06:29Z</time>
      </trkpt>
      <trkpt lat="43.41052" lon="2.7178">
        <ele>484.58374</ele>
        <time>2013-05-19T11:06:41Z</time>
      </trkpt>
      <trkpt lat="43.41048" lon="2.71782">
        <ele>483.931366</ele>
        <time>2013-05-19T11:17:00Z</time>
      </trkpt>
      <trkpt lat="43.41044" lon="2.7178">
        <ele>483.662781</ele>
        <time>2013-05-19T11:19:29Z</time>
      </trkpt>
      <trkpt lat="43.41043" lon="2.71779">
        <ele>483.569946</ele>
        <time>2013-05-19T11:19:30Z</time>
      </trkpt>
      <trkpt lat="43.41042" lon="2.71778">
        <ele>483.526855</ele>
        <time>2013-05-19T11:19:31Z</time>
      </trkpt>
      <trkpt lat="43.41041" lon="2.71777">
        <ele>483.578674</ele>
        <time>2013-05-19T11:19:32Z</time>
      </trkpt>
      <trkpt lat="43.4104" lon="2.71776">
        <ele>483.625305</ele>
        <time>2013-05-19T11:19:33Z</time>
      </trkpt>
      <trkpt lat="43.41039" lon="2.71775">
        <ele>483.636292</ele>
        <time>2013-05-19T11:19:34Z</time>
      </trkpt>
      <trkpt lat="43.41038" lon="2.71774">
        <ele>483.623047</ele>
        <time>2013-05-19T11:19:35Z</time>
      </trkpt>
      <trkpt lat="43.41036" lon="2.71773">
        <ele>483.57431</ele>
        <time>2013-05-19T11:19:36Z</time>
      </trkpt>
      <trkpt lat="43.41035" lon="2.71772">
        <ele>483.545197</ele>
        <time>2013-05-19T11:19:37Z</time>
      </trkpt>
      <trkpt lat="43.41033" lon="2.71771">
        <ele>483.54007</ele>
        <time>2013-05-19T11:19:38Z</time>
      </trkpt>
      <trkpt lat="43.41031" lon="2.7177">
        <ele>483.538239</ele>
        <time>2013-05-19T11:19:39Z</time>
      </trkpt>
      <trkpt lat="43.4103" lon="2.71769">
        <ele>483.648804</ele>
        <time>2013-05-19T11:19:40Z</time>
      </trkpt>
      <trkpt lat="43.41028" lon="2.71767">
        <ele>483.718201</ele>
        <time>2013-05-19T11:19:41Z</time>
      </trkpt>
      <trkpt lat="43.41026" lon="2.71767">
        <ele>483.711395</ele>
        <time>2013-05-19T11:19:42Z</time>
      </trkpt>
      <trkpt lat="43.40997" lon="2.71757">
        <ele>484.279419</ele>
        <time>2013-05-19T11:19:56Z</time>
      </trkpt>
      <trkpt lat="43.40963" lon="2.71763">
        <ele>480.999664</ele>
        <time>2013-05-19T11:20:11Z</time>
      </trkpt>
      <trkpt lat="43.40932" lon="2.71761">
        <ele>477.043762</ele>
        <time>2013-05-19T11:20:24Z</time>
      </trkpt>
      <trkpt lat="43.4093" lon="2.71724">
        <ele>483.043549</ele>
        <time>2013-05-19T11:20:35Z</time>
      </trkpt>
      <trkpt lat="43.40937" lon="2.71688">
        <ele>490.003998</ele>
        <time>2013-05-19T11:20:52Z</time>
      </trkpt>
      <trkpt lat="43.40941" lon="2.71659">
        <ele>493.341003</ele>
        <time>2013-05-19T11:21:06Z</time>
      </trkpt>
      <trkpt lat="43.40943" lon="2.71626">
        <ele>495.897797</ele>
        <time>2013-05-19T11:21:19Z</time>
      </trkpt>
      <trkpt lat="43.40942" lon="2.71597">
        <ele>498.109283</ele>
        <time>2013-05-19T11:21:31Z</time>
      </trkpt>
      <trkpt lat="43.40933" lon="2.71562">
        <ele>497.508331</ele>
        <time>2013-05-19T11:21:45Z</time>
      </trkpt>
      <trkpt lat="43.4091" lon="2.71524">
        <ele>499.779572</ele>
        <time>2013-05-19T11:21:59Z</time>
      </trkpt>
      <trkpt lat="43.40887" lon="2.71493">
        <ele>499.750214</ele>
        <time>2013-05-19T11:22:11Z</time>
      </trkpt>
      <trkpt lat="43.40864" lon="2.7147">
        <ele>496.990173</ele>
        <time>2013-05-19T11:22:25Z</time>
      </trkpt>
      <trkpt lat="43.4085" lon="2.71436">
        <ele>500.193756</ele>
        <time>2013-05-19T11:22:40Z</time>
      </trkpt>
      <trkpt lat="43.40841" lon="2.71407">
        <ele>498.76001</ele>
        <time>2013-05-19T11:22:53Z</time>
      </trkpt>
      <trkpt lat="43.40839" lon="2.7137">
        <ele>500.185638</ele>
        <time>2013-05-19T11:23:06Z</time>
      </trkpt>
      <trkpt lat="43.40854" lon="2.71318">
        <ele>501.459991</ele>
        <time>2013-05-19T11:23:21Z</time>
      </trkpt>
      <trkpt lat="43.40881" lon="2.71297">
        <ele>506.921265</ele>
        <time>2013-05-19T11:23:33Z</time>
      </trkpt>
      <trkpt lat="43.40902" lon="2.71281">
        <ele>511.152161</ele>
        <time>2013-05-19T11:23:44Z</time>
      </trkpt>
      <trkpt lat="43.40921" lon="2.71251">
        <ele>513.014221</ele>
        <time>2013-05-19T11:23:58Z</time>
      </trkpt>
      <trkpt lat="43.40922" lon="2.71247">
        <ele>512.940002</ele>
        <time>2013-05-19T11:24:00Z</time>
      </trkpt>
      <trkpt lat="43.40923" lon="2.71244">
        <ele>512.910217</ele>
        <time>2013-05-19T11:24:01Z</time>
      </trkpt>
      <trkpt lat="43.40924" lon="2.71242">
        <ele>513.047729</ele>
        <time>2013-05-19T11:24:02Z</time>
      </trkpt>
      <trkpt lat="43.40939" lon="2.71208">
        <ele>515.440735</ele>
        <time>2013-05-19T11:24:18Z</time>
      </trkpt>
      <trkpt lat="43.40954" lon="2.71172">
        <ele>521.564758</ele>
        <time>2013-05-19T11:24:33Z</time>
      </trkpt>
      <trkpt lat="43.40955" lon="2.71154">
        <ele>522.901001</ele>
        <time>2013-05-19T11:24:40Z</time>
      </trkpt>
      <trkpt lat="43.40955" lon="2.71152">
        <ele>522.723389</ele>
        <time>2013-05-19T11:24:41Z</time>
      </trkpt>
      <trkpt lat="43.40947" lon="2.71131">
        <ele>519.979004</ele>
        <time>2013-05-19T11:24:50Z</time>
      </trkpt>
      <trkpt lat="43.40941" lon="2.71116">
        <ele>520.911743</ele>
        <time>2013-05-19T11:24:56Z</time>
      </trkpt>
      <trkpt lat="43.4094" lon="2.71114">
        <ele>521.102478</ele>
        <time>2013-05-19T11:24:57Z</time>
      </trkpt>
      <trkpt lat="43.40937" lon="2.71105">
        <ele>522.138428</ele>
        <time>2013-05-19T11:25:01Z</time>
      </trkpt>
      <trkpt lat="43.40929" lon="2.71071">
        <ele>527.946411</ele>
        <time>2013-05-19T11:25:14Z</time>
      </trkpt>
      <trkpt lat="43.40907" lon="2.71034">
        <ele>528.831787</ele>
        <time>2013-05-19T11:25:30Z</time>
      </trkpt>
      <trkpt lat="43.40882" lon="2.71008">
        <ele>532.043884</ele>
        <time>2013-05-19T11:25:44Z</time>
      </trkpt>
      <trkpt lat="43.4087" lon="2.7099">
        <ele>533.694641</ele>
        <time>2013-05-19T11:25:51Z</time>
      </trkpt>
      <trkpt lat="43.40871" lon="2.70987">
        <ele>534.011902</ele>
        <time>2013-05-19T11:25:52Z</time>
      </trkpt>
      <trkpt lat="43.40871" lon="2.70983">
        <ele>534.353333</ele>
        <time>2013-05-19T11:25:53Z</time>
      </trkpt>
      <trkpt lat="43.40872" lon="2.7098">
        <ele>534.653442</ele>
        <time>2013-05-19T11:25:54Z</time>
      </trkpt>
      <trkpt lat="43.40874" lon="2.70977">
        <ele>534.953857</ele>
        <time>2013-05-19T11:25:55Z</time>
      </trkpt>
      <trkpt lat="43.40897" lon="2.7095">
        <ele>538.328918</ele>
        <time>2013-05-19T11:26:10Z</time>
      </trkpt>
      <trkpt lat="43.40913" lon="2.70915">
        <ele>540.915955</ele>
        <time>2013-05-19T11:26:26Z</time>
      </trkpt>
      <trkpt lat="43.40937" lon="2.70872">
        <ele>544.134521</ele>
        <time>2013-05-19T11:26:47Z</time>
      </trkpt>
      <trkpt lat="43.40939" lon="2.70869">
        <ele>544.342041</ele>
        <time>2013-05-19T11:26:49Z</time>
      </trkpt>
      <trkpt lat="43.4094" lon="2.70866">
        <ele>544.219849</ele>
        <time>2013-05-19T11:26:50Z</time>
      </trkpt>
      <trkpt lat="43.40961" lon="2.70838">
        <ele>546.63501</ele>
        <time>2013-05-19T11:27:05Z</time>
      </trkpt>
      <trkpt lat="43.40984" lon="2.70812">
        <ele>548.985901</ele>
        <time>2013-05-19T11:27:20Z</time>
      </trkpt>
      <trkpt lat="43.40996" lon="2.70799">
        <ele>548.556885</ele>
        <time>2013-05-19T11:27:29Z</time>
      </trkpt>
      <trkpt lat="43.40998" lon="2.70797">
        <ele>548.477783</ele>
        <time>2013-05-19T11:27:30Z</time>
      </trkpt>
      <trkpt lat="43.41022" lon="2.70785">
        <ele>549.890015</ele>
        <time>2013-05-19T11:27:45Z</time>
      </trkpt>
      <trkpt lat="43.41043" lon="2.70778">
        <ele>552.063171</ele>
        <time>2013-05-19T11:27:56Z</time>
      </trkpt>
      <trkpt lat="43.41045" lon="2.70777">
        <ele>551.875854</ele>
        <time>2013-05-19T11:27:57Z</time>
      </trkpt>
      <trkpt lat="43.41046" lon="2.70777">
        <ele>551.953613</ele>
        <time>2013-05-19T11:27:58Z</time>
      </trkpt>
      <trkpt lat="43.41048" lon="2.70776">
        <ele>552.151367</ele>
        <time>2013-05-19T11:27:59Z</time>
      </trkpt>
      <trkpt lat="43.4105" lon="2.70776">
        <ele>552.407043</ele>
        <time>2013-05-19T11:28:00Z</time>
      </trkpt>
      <trkpt lat="43.41057" lon="2.70775">
        <ele>553.270508</ele>
        <time>2013-05-19T11:28:04Z</time>
      </trkpt>
      <trkpt lat="43.41059" lon="2.70775">
        <ele>553.648071</ele>
        <time>2013-05-19T11:28:05Z</time>
      </trkpt>
      <trkpt lat="43.41061" lon="2.70775">
        <ele>553.833557</ele>
        <time>2013-05-19T11:28:06Z</time>
      </trkpt>
      <trkpt lat="43.41088" lon="2.70771">
        <ele>556.399231</ele>
        <time>2013-05-19T11:28:21Z</time>
      </trkpt>
      <trkpt lat="43.41114" lon="2.70772">
        <ele>558.690063</ele>
        <time>2013-05-19T11:28:35Z</time>
      </trkpt>
      <trkpt lat="43.41131" lon="2.70778">
        <ele>561.540588</ele>
        <time>2013-05-19T11:28:47Z</time>
      </trkpt>
      <trkpt lat="43.4115" lon="2.70787">
        <ele>563.958069</ele>
        <time>2013-05-19T11:29:01Z</time>
      </trkpt>
      <trkpt lat="43.41166" lon="2.70794">
        <ele>566.079712</ele>
        <time>2013-05-19T11:29:13Z</time>
      </trkpt>
      <trkpt lat="43.41166" lon="2.70796">
        <ele>566.816589</ele>
        <time>2013-05-19T11:29:14Z</time>
      </trkpt>
      <trkpt lat="43.41166" lon="2.70797">
        <ele>567.53595</ele>
        <time>2013-05-19T11:29:15Z</time>
      </trkpt>
      <trkpt lat="43.41165" lon="2.70799">
        <ele>568.064758</ele>
        <time>2013-05-19T11:29:16Z</time>
      </trkpt>
      <trkpt lat="43.41158" lon="2.70801">
        <ele>568.96698</ele>
        <time>2013-05-19T11:29:21Z</time>
      </trkpt>
      <trkpt lat="43.41156" lon="2.708">
        <ele>568.493713</ele>
        <time>2013-05-19T11:29:22Z</time>
      </trkpt>
      <trkpt lat="43.41155" lon="2.70798">
        <ele>568.133789</ele>
        <time>2013-05-19T11:29:23Z</time>
      </trkpt>
      <trkpt lat="43.41153" lon="2.70798">
        <ele>567.913513</ele>
        <time>2013-05-19T11:29:24Z</time>
      </trkpt>
      <trkpt lat="43.41151" lon="2.70797">
        <ele>567.754456</ele>
        <time>2013-05-19T11:29:25Z</time>
      </trkpt>
      <trkpt lat="43.4112" lon="2.70796">
        <ele>567.610535</ele>
        <time>2013-05-19T11:29:41Z</time>
      </trkpt>
      <trkpt lat="43.41094" lon="2.70807">
        <ele>569.426147</ele>
        <time>2013-05-19T11:29:54Z</time>
      </trkpt>
      <trkpt lat="43.41061" lon="2.70826">
        <ele>571.016235</ele>
        <time>2013-05-19T11:30:11Z</time>
      </trkpt>
      <trkpt lat="43.41045" lon="2.70853">
        <ele>572.635132</ele>
        <time>2013-05-19T11:30:23Z</time>
      </trkpt>
      <trkpt lat="43.41044" lon="2.70856">
        <ele>572.974609</ele>
        <time>2013-05-19T11:30:24Z</time>
      </trkpt>
      <trkpt lat="43.41031" lon="2.70903">
        <ele>575.484863</ele>
        <time>2013-05-19T11:30:38Z</time>
      </trkpt>
      <trkpt lat="43.41033" lon="2.70914">
        <ele>576.276245</ele>
        <time>2013-05-19T11:30:41Z</time>
      </trkpt>
      <trkpt lat="43.41034" lon="2.70917">
        <ele>576.90155</ele>
        <time>2013-05-19T11:30:42Z</time>
      </trkpt>
      <trkpt lat="43.41037" lon="2.70919">
        <ele>577.622498</ele>
        <time>2013-05-19T11:30:43Z</time>
      </trkpt>
      <trkpt lat="43.41039" lon="2.70919">
        <ele>578.273865</ele>
        <time>2013-05-19T11:30:44Z</time>
      </trkpt>
      <trkpt lat="43.4104" lon="2.70918">
        <ele>578.732117</ele>
        <time>2013-05-19T11:30:45Z</time>
      </trkpt>
      <trkpt lat="43.41041" lon="2.70915">
        <ele>578.905151</ele>
        <time>2013-05-19T11:30:46Z</time>
      </trkpt>
      <trkpt lat="43.41042" lon="2.70912">
        <ele>579.021179</ele>
        <time>2013-05-19T11:30:47Z</time>
      </trkpt>
      <trkpt lat="43.41054" lon="2.70875">
        <ele>579.292969</ele>
        <time>2013-05-19T11:30:59Z</time>
      </trkpt>
      <trkpt lat="43.41078" lon="2.70856">
        <ele>581.20459</ele>
        <time>2013-05-19T11:31:12Z</time>
      </trkpt>
      <trkpt lat="43.41106" lon="2.7085">
        <ele>583.081848</ele>
        <time>2013-05-19T11:31:26Z</time>
      </trkpt>
      <trkpt lat="43.41133" lon="2.70854">
        <ele>586.586243</ele>
        <time>2013-05-19T11:31:39Z</time>
      </trkpt>
      <trkpt lat="43.41157" lon="2.70858">
        <ele>588.185425</ele>
        <time>2013-05-19T11:31:51Z</time>
      </trkpt>
      <trkpt lat="43.41186" lon="2.70866">
        <ele>592.210815</ele>
        <time>2013-05-19T11:32:06Z</time>
      </trkpt>
      <trkpt lat="43.41198" lon="2.70874">
        <ele>595.652832</ele>
        <time>2013-05-19T11:32:15Z</time>
      </trkpt>
      <trkpt lat="43.41198" lon="2.70876">
        <ele>596.25238</ele>
        <time>2013-05-19T11:32:16Z</time>
      </trkpt>
      <trkpt lat="43.41197" lon="2.70878">
        <ele>596.721375</ele>
        <time>2013-05-19T11:32:17Z</time>
      </trkpt>
      <trkpt lat="43.41195" lon="2.70879">
        <ele>596.833374</ele>
        <time>2013-05-19T11:32:18Z</time>
      </trkpt>
      <trkpt lat="43.41193" lon="2.70879">
        <ele>596.745605</ele>
        <time>2013-05-19T11:32:19Z</time>
      </trkpt>
      <trkpt lat="43.41191" lon="2.70879">
        <ele>596.551025</ele>
        <time>2013-05-19T11:32:20Z</time>
      </trkpt>
      <trkpt lat="43.41189" lon="2.70878">
        <ele>596.191833</ele>
        <time>2013-05-19T11:32:21Z</time>
      </trkpt>
      <trkpt lat="43.41158" lon="2.70881">
        <ele>595.429871</ele>
        <time>2013-05-19T11:32:34Z</time>
      </trkpt>
      <trkpt lat="43.41119" lon="2.70894">
        <ele>596.40625</ele>
        <time>2013-05-19T11:32:49Z</time>
      </trkpt>
      <trkpt lat="43.41104" lon="2.70916">
        <ele>596.172424</ele>
        <time>2013-05-19T11:33:00Z</time>
      </trkpt>
      <trkpt lat="43.41106" lon="2.70948">
        <ele>600.421875</ele>
        <time>2013-05-19T11:33:15Z</time>
      </trkpt>
      <trkpt lat="43.4111" lon="2.7097">
        <ele>601.309265</ele>
        <time>2013-05-19T11:33:25Z</time>
      </trkpt>
      <trkpt lat="43.41111" lon="2.70971">
        <ele>601.421875</ele>
        <time>2013-05-19T11:33:26Z</time>
      </trkpt>
      <trkpt lat="43.41118" lon="2.71">
        <ele>603.643738</ele>
        <time>2013-05-19T11:33:40Z</time>
      </trkpt>
      <trkpt lat="43.41128" lon="2.71028">
        <ele>605.135681</ele>
        <time>2013-05-19T11:33:53Z</time>
      </trkpt>
      <trkpt lat="43.41139" lon="2.71059">
        <ele>606.556641</ele>
        <time>2013-05-19T11:34:06Z</time>
      </trkpt>
      <trkpt lat="43.41154" lon="2.71095">
        <ele>608.822571</ele>
        <time>2013-05-19T11:34:21Z</time>
      </trkpt>
      <trkpt lat="43.41154" lon="2.71097">
        <ele>608.817261</ele>
        <time>2013-05-19T11:34:22Z</time>
      </trkpt>
      <trkpt lat="43.41166" lon="2.71136">
        <ele>609.880005</ele>
        <time>2013-05-19T11:34:37Z</time>
      </trkpt>
      <trkpt lat="43.41171" lon="2.71145">
        <ele>611.618713</ele>
        <time>2013-05-19T11:34:41Z</time>
      </trkpt>
      <trkpt lat="43.41173" lon="2.71145">
        <ele>612.17749</ele>
        <time>2013-05-19T11:34:42Z</time>
      </trkpt>
      <trkpt lat="43.41175" lon="2.71144">
        <ele>612.650574</ele>
        <time>2013-05-19T11:34:43Z</time>
      </trkpt>
      <trkpt lat="43.41176" lon="2.71143">
        <ele>612.949707</ele>
        <time>2013-05-19T11:34:44Z</time>
      </trkpt>
      <trkpt lat="43.41177" lon="2.71141">
        <ele>613.103394</ele>
        <time>2013-05-19T11:34:45Z</time>
      </trkpt>
      <trkpt lat="43.41177" lon="2.71138">
        <ele>613.169922</ele>
        <time>2013-05-19T11:34:46Z</time>
      </trkpt>
      <trkpt lat="43.41177" lon="2.71136">
        <ele>613.146729</ele>
        <time>2013-05-19T11:34:47Z</time>
      </trkpt>
      <trkpt lat="43.41177" lon="2.71134">
        <ele>613.063293</ele>
        <time>2013-05-19T11:34:48Z</time>
      </trkpt>
      <trkpt lat="43.41176" lon="2.71131">
        <ele>612.934204</ele>
        <time>2013-05-19T11:34:49Z</time>
      </trkpt>
      <trkpt lat="43.41176" lon="2.71129">
        <ele>612.996948</ele>
        <time>2013-05-19T11:34:50Z</time>
      </trkpt>
      <trkpt lat="43.41169" lon="2.71089">
        <ele>614.931396</ele>
        <time>2013-05-19T11:35:03Z</time>
      </trkpt>
      <trkpt lat="43.41168" lon="2.71033">
        <ele>618.415833</ele>
        <time>2013-05-19T11:35:18Z</time>
      </trkpt>
      <trkpt lat="43.4118" lon="2.70995">
        <ele>620.487</ele>
        <time>2013-05-19T11:35:30Z</time>
      </trkpt>
      <trkpt lat="43.41208" lon="2.7097">
        <ele>621.541748</ele>
        <time>2013-05-19T11:35:44Z</time>
      </trkpt>
      <trkpt lat="43.41237" lon="2.70965">
        <ele>624.984619</ele>
        <time>2013-05-19T11:35:59Z</time>
      </trkpt>
      <trkpt lat="43.41263" lon="2.70956">
        <ele>628.375122</ele>
        <time>2013-05-19T11:36:12Z</time>
      </trkpt>
      <trkpt lat="43.41284" lon="2.70929">
        <ele>630.307983</ele>
        <time>2013-05-19T11:36:26Z</time>
      </trkpt>
      <trkpt lat="43.4131" lon="2.70901">
        <ele>629.895935</ele>
        <time>2013-05-19T11:36:43Z</time>
      </trkpt>
      <trkpt lat="43.4134" lon="2.70888">
        <ele>633.936829</ele>
        <time>2013-05-19T11:36:59Z</time>
      </trkpt>
      <trkpt lat="43.41354" lon="2.70881">
        <ele>635.810852</ele>
        <time>2013-05-19T11:37:07Z</time>
      </trkpt>
      <trkpt lat="43.41356" lon="2.70881">
        <ele>636.237671</ele>
        <time>2013-05-19T11:37:08Z</time>
      </trkpt>
      <trkpt lat="43.41382" lon="2.70861">
        <ele>639.276184</ele>
        <time>2013-05-19T11:37:23Z</time>
      </trkpt>
      <trkpt lat="43.41403" lon="2.70822">
        <ele>639.974548</ele>
        <time>2013-05-19T11:37:40Z</time>
      </trkpt>
      <trkpt lat="43.41422" lon="2.70789">
        <ele>638.733765</ele>
        <time>2013-05-19T11:37:53Z</time>
      </trkpt>
      <trkpt lat="43.4145" lon="2.70772">
        <ele>642.687012</ele>
        <time>2013-05-19T11:38:06Z</time>
      </trkpt>
      <trkpt lat="43.41452" lon="2.70771">
        <ele>642.832825</ele>
        <time>2013-05-19T11:38:07Z</time>
      </trkpt>
      <trkpt lat="43.41453" lon="2.70769">
        <ele>642.943726</ele>
        <time>2013-05-19T11:38:08Z</time>
      </trkpt>
      <trkpt lat="43.41455" lon="2.70768">
        <ele>643.1026</ele>
        <time>2013-05-19T11:38:09Z</time>
      </trkpt>
      <trkpt lat="43.41457" lon="2.70766">
        <ele>643.222229</ele>
        <time>2013-05-19T11:38:10Z</time>
      </trkpt>
      <trkpt lat="43.41458" lon="2.70765">
        <ele>643.374084</ele>
        <time>2013-05-19T11:38:11Z</time>
      </trkpt>
      <trkpt lat="43.41459" lon="2.70763">
        <ele>643.440002</ele>
        <time>2013-05-19T11:38:12Z</time>
      </trkpt>
      <trkpt lat="43.41475" lon="2.70746">
        <ele>643.987549</ele>
        <time>2013-05-19T11:38:23Z</time>
      </trkpt>
      <trkpt lat="43.415" lon="2.70724">
        <ele>646.056885</ele>
        <time>2013-05-19T11:38:38Z</time>
      </trkpt>
      <trkpt lat="43.4153" lon="2.70703">
        <ele>649.040039</ele>
        <time>2013-05-19T11:38:53Z</time>
      </trkpt>
      <trkpt lat="43.41565" lon="2.70684">
        <ele>651.019653</ele>
        <time>2013-05-19T11:39:11Z</time>
      </trkpt>
      <trkpt lat="43.41595" lon="2.70673">
        <ele>653.937256</ele>
        <time>2013-05-19T11:39:25Z</time>
      </trkpt>
      <trkpt lat="43.41622" lon="2.70653">
        <ele>655.055542</ele>
        <time>2013-05-19T11:39:39Z</time>
      </trkpt>
      <trkpt lat="43.41653" lon="2.70633">
        <ele>658.086853</ele>
        <time>2013-05-19T11:39:54Z</time>
      </trkpt>
      <trkpt lat="43.4168" lon="2.70616">
        <ele>661.002502</ele>
        <time>2013-05-19T11:40:09Z</time>
      </trkpt>
      <trkpt lat="43.41701" lon="2.70597">
        <ele>662.681335</ele>
        <time>2013-05-19T11:40:23Z</time>
      </trkpt>
      <trkpt lat="43.41728" lon="2.70573">
        <ele>664.768677</ele>
        <time>2013-05-19T11:40:39Z</time>
      </trkpt>
      <trkpt lat="43.41752" lon="2.70552">
        <ele>666.674866</ele>
        <time>2013-05-19T11:40:54Z</time>
      </trkpt>
      <trkpt lat="43.41772" lon="2.70528">
        <ele>668.866577</ele>
        <time>2013-05-19T11:41:07Z</time>
      </trkpt>
      <trkpt lat="43.418" lon="2.70494">
        <ele>672.48999</ele>
        <time>2013-05-19T11:41:24Z</time>
      </trkpt>
      <trkpt lat="43.4182" lon="2.70467">
        <ele>674.292419</ele>
        <time>2013-05-19T11:41:37Z</time>
      </trkpt>
      <trkpt lat="43.41824" lon="2.70458">
        <ele>674.079712</ele>
        <time>2013-05-19T11:41:41Z</time>
      </trkpt>
      <trkpt lat="43.4184" lon="2.70436">
        <ele>675.625</ele>
        <time>2013-05-19T11:41:52Z</time>
      </trkpt>
      <trkpt lat="43.41859" lon="2.70415">
        <ele>677.869995</ele>
        <time>2013-05-19T11:42:05Z</time>
      </trkpt>
      <trkpt lat="43.41883" lon="2.70391">
        <ele>681.072571</ele>
        <time>2013-05-19T11:42:20Z</time>
      </trkpt>
      <trkpt lat="43.41909" lon="2.70368">
        <ele>685.179504</ele>
        <time>2013-05-19T11:42:35Z</time>
      </trkpt>
      <trkpt lat="43.41928" lon="2.70333">
        <ele>686.51123</ele>
        <time>2013-05-19T11:42:48Z</time>
      </trkpt>
      <trkpt lat="43.41932" lon="2.70315">
        <ele>686.340027</ele>
        <time>2013-05-19T11:42:53Z</time>
      </trkpt>
      <trkpt lat="43.41932" lon="2.70312">
        <ele>686.02002</ele>
        <time>2013-05-19T11:42:54Z</time>
      </trkpt>
      <trkpt lat="43.41932" lon="2.70309">
        <ele>685.755005</ele>
        <time>2013-05-19T11:42:55Z</time>
      </trkpt>
      <trkpt lat="43.41933" lon="2.70305">
        <ele>685.6875</ele>
        <time>2013-05-19T11:42:56Z</time>
      </trkpt>
      <trkpt lat="43.41934" lon="2.70301">
        <ele>685.57251</ele>
        <time>2013-05-19T11:42:57Z</time>
      </trkpt>
      <trkpt lat="43.41934" lon="2.70297">
        <ele>685.41626</ele>
        <time>2013-05-19T11:42:58Z</time>
      </trkpt>
      <trkpt lat="43.41935" lon="2.70293">
        <ele>685.288757</ele>
        <time>2013-05-19T11:42:59Z</time>
      </trkpt>
      <trkpt lat="43.41936" lon="2.70288">
        <ele>685.161255</ele>
        <time>2013-05-19T11:43:00Z</time>
      </trkpt>
      <trkpt lat="43.41937" lon="2.70284">
        <ele>685.033752</ele>
        <time>2013-05-19T11:43:01Z</time>
      </trkpt>
      <trkpt lat="43.41938" lon="2.7028">
        <ele>684.89624</ele>
        <time>2013-05-19T11:43:02Z</time>
      </trkpt>
      <trkpt lat="43.41956" lon="2.70227">
        <ele>684.215027</ele>
        <time>2013-05-19T11:43:16Z</time>
      </trkpt>
      <trkpt lat="43.41971" lon="2.70178">
        <ele>683.750732</ele>
        <time>2013-05-19T11:43:27Z</time>
      </trkpt>
      <trkpt lat="43.41985" lon="2.70148">
        <ele>682.95874</ele>
        <time>2013-05-19T11:43:36Z</time>
      </trkpt>
      <trkpt lat="43.41985" lon="2.70146">
        <ele>682.906494</ele>
        <time>2013-05-19T11:43:37Z</time>
      </trkpt>
      <trkpt lat="43.41986" lon="2.70144">
        <ele>682.84668</ele>
        <time>2013-05-19T11:43:38Z</time>
      </trkpt>
      <trkpt lat="43.41986" lon="2.70141">
        <ele>682.789734</ele>
        <time>2013-05-19T11:43:39Z</time>
      </trkpt>
      <trkpt lat="43.41997" lon="2.70139">
        <ele>682.535278</ele>
        <time>2013-05-19T11:43:47Z</time>
      </trkpt>
      <trkpt lat="43.42002" lon="2.70139">
        <ele>682.483521</ele>
        <time>2013-05-19T11:43:59Z</time>
      </trkpt>
      <trkpt lat="43.42004" lon="2.7014">
        <ele>682.496277</ele>
        <time>2013-05-19T11:49:52Z</time>
      </trkpt>
      <trkpt lat="43.42004" lon="2.7014">
        <ele>682.473511</ele>
        <time>2013-05-19T11:54:44Z</time>
      </trkpt>
      <trkpt lat="43.42004" lon="2.7014">
        <ele>682.468323</ele>
        <time>2013-05-19T11:55:38Z</time>
      </trkpt>
      <trkpt lat="43.42006" lon="2.70141">
        <ele>682.501587</ele>
        <time>2013-05-19T12:20:30Z</time>
      </trkpt>
      <trkpt lat="43.42051" lon="2.70185">
        <ele>682.39502</ele>
        <time>2013-05-19T12:21:28Z</time>
      </trkpt>
      <trkpt lat="43.42062" lon="2.70208">
        <ele>682.85498</ele>
        <time>2013-05-19T12:21:36Z</time>
      </trkpt>
      <trkpt lat="43.42073" lon="2.70228">
        <ele>683.438354</ele>
        <time>2013-05-19T12:21:43Z</time>
      </trkpt>
      <trkpt lat="43.42102" lon="2.70269">
        <ele>684.757751</ele>
        <time>2013-05-19T12:21:57Z</time>
      </trkpt>
      <trkpt lat="43.42123" lon="2.70276">
        <ele>683.15271</ele>
        <time>2013-05-19T12:22:02Z</time>
      </trkpt>
      <trkpt lat="43.42127" lon="2.70276">
        <ele>682.674622</ele>
        <time>2013-05-19T12:22:03Z</time>
      </trkpt>
      <trkpt lat="43.4213" lon="2.70278">
        <ele>682.350952</ele>
        <time>2013-05-19T12:22:04Z</time>
      </trkpt>
      <trkpt lat="43.42135" lon="2.7028">
        <ele>681.941833</ele>
        <time>2013-05-19T12:22:05Z</time>
      </trkpt>
      <trkpt lat="43.42139" lon="2.70282">
        <ele>681.45929</ele>
        <time>2013-05-19T12:22:06Z</time>
      </trkpt>
      <trkpt lat="43.42143" lon="2.70286">
        <ele>681.124878</ele>
        <time>2013-05-19T12:22:07Z</time>
      </trkpt>
      <trkpt lat="43.42146" lon="2.70289">
        <ele>680.938721</ele>
        <time>2013-05-19T12:22:08Z</time>
      </trkpt>
      <trkpt lat="43.42149" lon="2.70292">
        <ele>680.754822</ele>
        <time>2013-05-19T12:22:09Z</time>
      </trkpt>
      <trkpt lat="43.42181" lon="2.70337">
        <ele>676.593201</ele>
        <time>2013-05-19T12:22:20Z</time>
      </trkpt>
      <trkpt lat="43.42183" lon="2.70343">
        <ele>676.163147</ele>
        <time>2013-05-19T12:22:21Z</time>
      </trkpt>
      <trkpt lat="43.42185" lon="2.70349">
        <ele>675.779663</ele>
        <time>2013-05-19T12:22:22Z</time>
      </trkpt>
      <trkpt lat="43.42187" lon="2.70353">
        <ele>675.27533</ele>
        <time>2013-05-19T12:22:23Z</time>
      </trkpt>
      <trkpt lat="43.42189" lon="2.70358">
        <ele>674.828552</ele>
        <time>2013-05-19T12:22:24Z</time>
      </trkpt>
      <trkpt lat="43.42191" lon="2.70364">
        <ele>674.489624</ele>
        <time>2013-05-19T12:22:25Z</time>
      </trkpt>
      <trkpt lat="43.42192" lon="2.7037">
        <ele>674.187866</ele>
        <time>2013-05-19T12:22:26Z</time>
      </trkpt>
      <trkpt lat="43.42194" lon="2.70379">
        <ele>673.853149</ele>
        <time>2013-05-19T12:22:27Z</time>
      </trkpt>
      <trkpt lat="43.42195" lon="2.70388">
        <ele>673.658691</ele>
        <time>2013-05-19T12:22:28Z</time>
      </trkpt>
      <trkpt lat="43.42196" lon="2.70397">
        <ele>673.480164</ele>
        <time>2013-05-19T12:22:29Z</time>
      </trkpt>
      <trkpt lat="43.42197" lon="2.70405">
        <ele>673.017029</ele>
        <time>2013-05-19T12:22:30Z</time>
      </trkpt>
      <trkpt lat="43.42198" lon="2.70414">
        <ele>672.505859</ele>
        <time>2013-05-19T12:22:31Z</time>
      </trkpt>
      <trkpt lat="43.42198" lon="2.70423">
        <ele>672.205261</ele>
        <time>2013-05-19T12:22:32Z</time>
      </trkpt>
      <trkpt lat="43.42199" lon="2.70451">
        <ele>671.210999</ele>
        <time>2013-05-19T12:22:35Z</time>
      </trkpt>
      <trkpt lat="43.422" lon="2.70459">
        <ele>670.604065</ele>
        <time>2013-05-19T12:22:36Z</time>
      </trkpt>
      <trkpt lat="43.42202" lon="2.70464">
        <ele>669.64917</ele>
        <time>2013-05-19T12:22:37Z</time>
      </trkpt>
      <trkpt lat="43.42205" lon="2.70468">
        <ele>668.508789</ele>
        <time>2013-05-19T12:22:38Z</time>
      </trkpt>
      <trkpt lat="43.42209" lon="2.70468">
        <ele>667.346252</ele>
        <time>2013-05-19T12:22:39Z</time>
      </trkpt>
      <trkpt lat="43.42212" lon="2.70465">
        <ele>666.403748</ele>
        <time>2013-05-19T12:22:40Z</time>
      </trkpt>
      <trkpt lat="43.42214" lon="2.7046">
        <ele>666.122498</ele>
        <time>2013-05-19T12:22:41Z</time>
      </trkpt>
      <trkpt lat="43.42215" lon="2.70455">
        <ele>666.065552</ele>
        <time>2013-05-19T12:22:42Z</time>
      </trkpt>
      <trkpt lat="43.42215" lon="2.70449">
        <ele>666.130066</ele>
        <time>2013-05-19T12:22:43Z</time>
      </trkpt>
      <trkpt lat="43.42216" lon="2.70443">
        <ele>666.273499</ele>
        <time>2013-05-19T12:22:44Z</time>
      </trkpt>
      <trkpt lat="43.42216" lon="2.70433">
        <ele>666.399597</ele>
        <time>2013-05-19T12:22:46Z</time>
      </trkpt>
      <trkpt lat="43.42228" lon="2.70365">
        <ele>664.164001</ele>
        <time>2013-05-19T12:22:58Z</time>
      </trkpt>
      <trkpt lat="43.42228" lon="2.70357">
        <ele>663.947998</ele>
        <time>2013-05-19T12:22:59Z</time>
      </trkpt>
      <trkpt lat="43.4223" lon="2.70323">
        <ele>663.054321</ele>
        <time>2013-05-19T12:23:03Z</time>
      </trkpt>
      <trkpt lat="43.4223" lon="2.70314">
        <ele>662.786255</ele>
        <time>2013-05-19T12:23:04Z</time>
      </trkpt>
      <trkpt lat="43.42229" lon="2.70306">
        <ele>662.607788</ele>
        <time>2013-05-19T12:23:05Z</time>
      </trkpt>
      <trkpt lat="43.42229" lon="2.70297">
        <ele>662.510498</ele>
        <time>2013-05-19T12:23:06Z</time>
      </trkpt>
      <trkpt lat="43.42228" lon="2.70288">
        <ele>662.354248</ele>
        <time>2013-05-19T12:23:07Z</time>
      </trkpt>
      <trkpt lat="43.42226" lon="2.70271">
        <ele>662.038818</ele>
        <time>2013-05-19T12:23:09Z</time>
      </trkpt>
      <trkpt lat="43.42221" lon="2.70255">
        <ele>661.722778</ele>
        <time>2013-05-19T12:23:11Z</time>
      </trkpt>
      <trkpt lat="43.42215" lon="2.70241">
        <ele>661.492493</ele>
        <time>2013-05-19T12:23:13Z</time>
      </trkpt>
      <trkpt lat="43.42211" lon="2.70235">
        <ele>661.498352</ele>
        <time>2013-05-19T12:23:14Z</time>
      </trkpt>
      <trkpt lat="43.42207" lon="2.70229">
        <ele>661.600891</ele>
        <time>2013-05-19T12:23:15Z</time>
      </trkpt>
      <trkpt lat="43.42199" lon="2.7021">
        <ele>660.789368</ele>
        <time>2013-05-19T12:23:20Z</time>
      </trkpt>
      <trkpt lat="43.422" lon="2.70208">
        <ele>660.279785</ele>
        <time>2013-05-19T12:23:21Z</time>
      </trkpt>
      <trkpt lat="43.42203" lon="2.70207">
        <ele>659.776917</ele>
        <time>2013-05-19T12:23:22Z</time>
      </trkpt>
      <trkpt lat="43.42205" lon="2.70209">
        <ele>659.542664</ele>
        <time>2013-05-19T12:23:23Z</time>
      </trkpt>
      <trkpt lat="43.42207" lon="2.70211">
        <ele>659.515564</ele>
        <time>2013-05-19T12:23:24Z</time>
      </trkpt>
      <trkpt lat="43.42209" lon="2.70213">
        <ele>659.494934</ele>
        <time>2013-05-19T12:23:25Z</time>
      </trkpt>
      <trkpt lat="43.42229" lon="2.70227">
        <ele>657.91803</ele>
        <time>2013-05-19T12:23:33Z</time>
      </trkpt>
      <trkpt lat="43.42245" lon="2.70227">
        <ele>655.584839</ele>
        <time>2013-05-19T12:23:36Z</time>
      </trkpt>
      <trkpt lat="43.42298" lon="2.70215">
        <ele>650.774048</ele>
        <time>2013-05-19T12:23:44Z</time>
      </trkpt>
      <trkpt lat="43.42305" lon="2.7021">
        <ele>650.023438</ele>
        <time>2013-05-19T12:23:45Z</time>
      </trkpt>
      <trkpt lat="43.42319" lon="2.70199">
        <ele>649.017761</ele>
        <time>2013-05-19T12:23:47Z</time>
      </trkpt>
      <trkpt lat="43.42325" lon="2.70194">
        <ele>648.768188</ele>
        <time>2013-05-19T12:23:48Z</time>
      </trkpt>
      <trkpt lat="43.42385" lon="2.70152">
        <ele>652.195251</ele>
        <time>2013-05-19T12:23:59Z</time>
      </trkpt>
      <trkpt lat="43.42401" lon="2.70141">
        <ele>652.797729</ele>
        <time>2013-05-19T12:24:08Z</time>
      </trkpt>
      <trkpt lat="43.42408" lon="2.70138">
        <ele>652.921204</ele>
        <time>2013-05-19T12:24:13Z</time>
      </trkpt>
      <trkpt lat="43.42409" lon="2.70137">
        <ele>653.019104</ele>
        <time>2013-05-19T12:24:14Z</time>
      </trkpt>
      <trkpt lat="43.42411" lon="2.70136">
        <ele>653.220825</ele>
        <time>2013-05-19T12:24:15Z</time>
      </trkpt>
      <trkpt lat="43.42412" lon="2.70134">
        <ele>653.430176</ele>
        <time>2013-05-19T12:24:16Z</time>
      </trkpt>
      <trkpt lat="43.42413" lon="2.70134">
        <ele>653.5</ele>
        <time>2013-05-19T12:24:17Z</time>
      </trkpt>
      <trkpt lat="43.42417" lon="2.70132">
        <ele>653.667969</ele>
        <time>2013-05-19T12:24:20Z</time>
      </trkpt>
      <trkpt lat="43.42443" lon="2.70112">
        <ele>656.425964</ele>
        <time>2013-05-19T12:24:37Z</time>
      </trkpt>
      <trkpt lat="43.42457" lon="2.70099">
        <ele>657.829346</ele>
        <time>2013-05-19T12:24:50Z</time>
      </trkpt>
      <trkpt lat="43.42469" lon="2.70079">
        <ele>662.112488</ele>
        <time>2013-05-19T12:25:04Z</time>
      </trkpt>
      <trkpt lat="43.42481" lon="2.70067">
        <ele>666.363464</ele>
        <time>2013-05-19T12:25:18Z</time>
      </trkpt>
      <trkpt lat="43.42494" lon="2.70065">
        <ele>668.403259</ele>
        <time>2013-05-19T12:25:31Z</time>
      </trkpt>
      <trkpt lat="43.42509" lon="2.70065">
        <ele>670.012634</ele>
        <time>2013-05-19T12:25:40Z</time>
      </trkpt>
      <trkpt lat="43.42529" lon="2.70066">
        <ele>671.311401</ele>
        <time>2013-05-19T12:25:54Z</time>
      </trkpt>
      <trkpt lat="43.42544" lon="2.70073">
        <ele>670.043579</ele>
        <time>2013-05-19T12:26:07Z</time>
      </trkpt>
      <trkpt lat="43.42554" lon="2.70074">
        <ele>670.429504</ele>
        <time>2013-05-19T12:26:13Z</time>
      </trkpt>
      <trkpt lat="43.42556" lon="2.70073">
        <ele>670.697327</ele>
        <time>2013-05-19T12:26:14Z</time>
      </trkpt>
      <trkpt lat="43.42558" lon="2.70073">
        <ele>670.897644</ele>
        <time>2013-05-19T12:26:15Z</time>
      </trkpt>
      <trkpt lat="43.42559" lon="2.70072">
        <ele>671.081177</ele>
        <time>2013-05-19T12:26:16Z</time>
      </trkpt>
      <trkpt lat="43.42561" lon="2.70072">
        <ele>671.286682</ele>
        <time>2013-05-19T12:26:17Z</time>
      </trkpt>
      <trkpt lat="43.42562" lon="2.70071">
        <ele>671.577271</ele>
        <time>2013-05-19T12:26:18Z</time>
      </trkpt>
      <trkpt lat="43.42563" lon="2.7007">
        <ele>671.899536</ele>
        <time>2013-05-19T12:26:19Z</time>
      </trkpt>
      <trkpt lat="43.42564" lon="2.7007">
        <ele>672.05603</ele>
        <time>2013-05-19T12:26:20Z</time>
      </trkpt>
      <trkpt lat="43.42573" lon="2.70066">
        <ele>671.683044</ele>
        <time>2013-05-19T12:26:27Z</time>
      </trkpt>
      <trkpt lat="43.42582" lon="2.70044">
        <ele>674.277405</ele>
        <time>2013-05-19T12:26:40Z</time>
      </trkpt>
      <trkpt lat="43.42583" lon="2.70043">
        <ele>674.415894</ele>
        <time>2013-05-19T12:26:41Z</time>
      </trkpt>
      <trkpt lat="43.42583" lon="2.70041">
        <ele>674.743042</ele>
        <time>2013-05-19T12:26:42Z</time>
      </trkpt>
      <trkpt lat="43.42584" lon="2.70039">
        <ele>675.029724</ele>
        <time>2013-05-19T12:26:43Z</time>
      </trkpt>
      <trkpt lat="43.42584" lon="2.70038">
        <ele>675.295715</ele>
        <time>2013-05-19T12:26:44Z</time>
      </trkpt>
      <trkpt lat="43.42585" lon="2.70036">
        <ele>675.592773</ele>
        <time>2013-05-19T12:26:45Z</time>
      </trkpt>
      <trkpt lat="43.42585" lon="2.70034">
        <ele>675.885498</ele>
        <time>2013-05-19T12:26:46Z</time>
      </trkpt>
      <trkpt lat="43.42586" lon="2.70032">
        <ele>676.082031</ele>
        <time>2013-05-19T12:26:47Z</time>
      </trkpt>
      <trkpt lat="43.42588" lon="2.70022">
        <ele>676.55011</ele>
        <time>2013-05-19T12:26:52Z</time>
      </trkpt>
      <trkpt lat="43.42588" lon="2.7002">
        <ele>676.698853</ele>
        <time>2013-05-19T12:26:53Z</time>
      </trkpt>
      <trkpt lat="43.42596" lon="2.69987">
        <ele>677.39679</ele>
        <time>2013-05-19T12:27:09Z</time>
      </trkpt>
      <trkpt lat="43.42602" lon="2.69952">
        <ele>677.114929</ele>
        <time>2013-05-19T12:27:23Z</time>
      </trkpt>
      <trkpt lat="43.42605" lon="2.69925">
        <ele>676.827026</ele>
        <time>2013-05-19T12:27:32Z</time>
      </trkpt>
      <trkpt lat="43.42606" lon="2.69877">
        <ele>676.147766</ele>
        <time>2013-05-19T12:27:44Z</time>
      </trkpt>
      <trkpt lat="43.42607" lon="2.69855">
        <ele>675.472656</ele>
        <time>2013-05-19T12:27:48Z</time>
      </trkpt>
      <trkpt lat="43.42605" lon="2.69821">
        <ele>675.100403</ele>
        <time>2013-05-19T12:27:53Z</time>
      </trkpt>
      <trkpt lat="43.42603" lon="2.69807">
        <ele>675.284363</ele>
        <time>2013-05-19T12:27:55Z</time>
      </trkpt>
      <trkpt lat="43.426" lon="2.6978">
        <ele>676.039063</ele>
        <time>2013-05-19T12:27:59Z</time>
      </trkpt>
      <trkpt lat="43.42598" lon="2.69767">
        <ele>676.972595</ele>
        <time>2013-05-19T12:28:01Z</time>
      </trkpt>
      <trkpt lat="43.42597" lon="2.69761">
        <ele>677.314209</ele>
        <time>2013-05-19T12:28:02Z</time>
      </trkpt>
      <trkpt lat="43.42588" lon="2.69714">
        <ele>680.785461</ele>
        <time>2013-05-19T12:28:13Z</time>
      </trkpt>
      <trkpt lat="43.42587" lon="2.69673">
        <ele>682.859985</ele>
        <time>2013-05-19T12:28:28Z</time>
      </trkpt>
      <trkpt lat="43.4259" lon="2.69637">
        <ele>684.086487</ele>
        <time>2013-05-19T12:28:42Z</time>
      </trkpt>
      <trkpt lat="43.42596" lon="2.69608">
        <ele>685.141663</ele>
        <time>2013-05-19T12:28:54Z</time>
      </trkpt>
      <trkpt lat="43.42598" lon="2.69606">
        <ele>685.201416</ele>
        <time>2013-05-19T12:28:55Z</time>
      </trkpt>
      <trkpt lat="43.42598" lon="2.69603">
        <ele>685.332947</ele>
        <time>2013-05-19T12:28:56Z</time>
      </trkpt>
      <trkpt lat="43.42599" lon="2.696">
        <ele>685.526611</ele>
        <time>2013-05-19T12:28:57Z</time>
      </trkpt>
      <trkpt lat="43.426" lon="2.69597">
        <ele>685.616638</ele>
        <time>2013-05-19T12:28:58Z</time>
      </trkpt>
      <trkpt lat="43.42601" lon="2.69594">
        <ele>685.664246</ele>
        <time>2013-05-19T12:28:59Z</time>
      </trkpt>
      <trkpt lat="43.42602" lon="2.69592">
        <ele>685.703918</ele>
        <time>2013-05-19T12:29:00Z</time>
      </trkpt>
      <trkpt lat="43.42604" lon="2.6959">
        <ele>685.732178</ele>
        <time>2013-05-19T12:29:01Z</time>
      </trkpt>
      <trkpt lat="43.42604" lon="2.69587">
        <ele>685.8302</ele>
        <time>2013-05-19T12:29:02Z</time>
      </trkpt>
      <trkpt lat="43.42605" lon="2.69583">
        <ele>685.960571</ele>
        <time>2013-05-19T12:29:03Z</time>
      </trkpt>
      <trkpt lat="43.42605" lon="2.6958">
        <ele>686.060852</ele>
        <time>2013-05-19T12:29:04Z</time>
      </trkpt>
      <trkpt lat="43.42606" lon="2.69577">
        <ele>686.174072</ele>
        <time>2013-05-19T12:29:05Z</time>
      </trkpt>
      <trkpt lat="43.42612" lon="2.69551">
        <ele>687.398682</ele>
        <time>2013-05-19T12:29:13Z</time>
      </trkpt>
      <trkpt lat="43.42613" lon="2.69548">
        <ele>687.60675</ele>
        <time>2013-05-19T12:29:14Z</time>
      </trkpt>
      <trkpt lat="43.42613" lon="2.69545">
        <ele>687.910339</ele>
        <time>2013-05-19T12:29:15Z</time>
      </trkpt>
      <trkpt lat="43.42614" lon="2.69543">
        <ele>688.084717</ele>
        <time>2013-05-19T12:29:16Z</time>
      </trkpt>
      <trkpt lat="43.42614" lon="2.69541">
        <ele>688.306885</ele>
        <time>2013-05-19T12:29:17Z</time>
      </trkpt>
      <trkpt lat="43.42615" lon="2.69539">
        <ele>688.614624</ele>
        <time>2013-05-19T12:29:18Z</time>
      </trkpt>
      <trkpt lat="43.42616" lon="2.69536">
        <ele>688.913269</ele>
        <time>2013-05-19T12:29:19Z</time>
      </trkpt>
      <trkpt lat="43.42616" lon="2.69534">
        <ele>689.077026</ele>
        <time>2013-05-19T12:29:20Z</time>
      </trkpt>
      <trkpt lat="43.42617" lon="2.69531">
        <ele>689.320862</ele>
        <time>2013-05-19T12:29:21Z</time>
      </trkpt>
      <trkpt lat="43.42617" lon="2.69528">
        <ele>689.467712</ele>
        <time>2013-05-19T12:29:22Z</time>
      </trkpt>
      <trkpt lat="43.42618" lon="2.69525">
        <ele>689.752502</ele>
        <time>2013-05-19T12:29:23Z</time>
      </trkpt>
      <trkpt lat="43.42619" lon="2.69522">
        <ele>690.122559</ele>
        <time>2013-05-19T12:29:24Z</time>
      </trkpt>
      <trkpt lat="43.4262" lon="2.69519">
        <ele>690.508606</ele>
        <time>2013-05-19T12:29:26Z</time>
      </trkpt>
      <trkpt lat="43.42621" lon="2.69516">
        <ele>690.814209</ele>
        <time>2013-05-19T12:29:27Z</time>
      </trkpt>
      <trkpt lat="43.42621" lon="2.69513">
        <ele>690.974976</ele>
        <time>2013-05-19T12:29:28Z</time>
      </trkpt>
      <trkpt lat="43.42622" lon="2.6951">
        <ele>691.171326</ele>
        <time>2013-05-19T12:29:29Z</time>
      </trkpt>
      <trkpt lat="43.42623" lon="2.69507">
        <ele>691.630676</ele>
        <time>2013-05-19T12:29:30Z</time>
      </trkpt>
      <trkpt lat="43.42624" lon="2.69504">
        <ele>692.036377</ele>
        <time>2013-05-19T12:29:31Z</time>
      </trkpt>
      <trkpt lat="43.42624" lon="2.69501">
        <ele>692.30127</ele>
        <time>2013-05-19T12:29:32Z</time>
      </trkpt>
      <trkpt lat="43.42625" lon="2.69498">
        <ele>692.494568</ele>
        <time>2013-05-19T12:29:33Z</time>
      </trkpt>
      <trkpt lat="43.42625" lon="2.69495">
        <ele>692.790222</ele>
        <time>2013-05-19T12:29:34Z</time>
      </trkpt>
      <trkpt lat="43.42625" lon="2.69492">
        <ele>692.981506</ele>
        <time>2013-05-19T12:29:35Z</time>
      </trkpt>
      <trkpt lat="43.42625" lon="2.69489">
        <ele>693.091187</ele>
        <time>2013-05-19T12:29:36Z</time>
      </trkpt>
      <trkpt lat="43.42626" lon="2.69486">
        <ele>693.273682</ele>
        <time>2013-05-19T12:29:37Z</time>
      </trkpt>
      <trkpt lat="43.42626" lon="2.69484">
        <ele>693.346008</ele>
        <time>2013-05-19T12:29:38Z</time>
      </trkpt>
      <trkpt lat="43.42625" lon="2.6948">
        <ele>693.360168</ele>
        <time>2013-05-19T12:29:39Z</time>
      </trkpt>
      <trkpt lat="43.42624" lon="2.69476">
        <ele>693.154236</ele>
        <time>2013-05-19T12:29:40Z</time>
      </trkpt>
      <trkpt lat="43.42623" lon="2.69453">
        <ele>692.892517</ele>
        <time>2013-05-19T12:29:46Z</time>
      </trkpt>
      <trkpt lat="43.42626" lon="2.69452">
        <ele>693.937439</ele>
        <time>2013-05-19T12:29:55Z</time>
      </trkpt>
      <trkpt lat="43.42627" lon="2.69454">
        <ele>694.468018</ele>
        <time>2013-05-19T12:29:58Z</time>
      </trkpt>
      <trkpt lat="43.42632" lon="2.69476">
        <ele>695.80957</ele>
        <time>2013-05-19T12:30:10Z</time>
      </trkpt>
      <trkpt lat="43.42632" lon="2.69481">
        <ele>695.796021</ele>
        <time>2013-05-19T12:30:13Z</time>
      </trkpt>
      <trkpt lat="43.42634" lon="2.69495">
        <ele>695.625977</ele>
        <time>2013-05-19T12:30:20Z</time>
      </trkpt>
      <trkpt lat="43.42639" lon="2.69511">
        <ele>696.17041</ele>
        <time>2013-05-19T12:30:29Z</time>
      </trkpt>
      <trkpt lat="43.4264" lon="2.69517">
        <ele>696.298096</ele>
        <time>2013-05-19T12:30:32Z</time>
      </trkpt>
      <trkpt lat="43.42645" lon="2.69526">
        <ele>697.02655</ele>
        <time>2013-05-19T12:30:38Z</time>
      </trkpt>
      <trkpt lat="43.42651" lon="2.69536">
        <ele>697.681396</ele>
        <time>2013-05-19T12:30:44Z</time>
      </trkpt>
      <trkpt lat="43.42661" lon="2.69558">
        <ele>697.890747</ele>
        <time>2013-05-19T12:30:57Z</time>
      </trkpt>
      <trkpt lat="43.42662" lon="2.69559">
        <ele>697.976257</ele>
        <time>2013-05-19T12:30:58Z</time>
      </trkpt>
      <trkpt lat="43.42673" lon="2.69565">
        <ele>700.741211</ele>
        <time>2013-05-19T12:31:05Z</time>
      </trkpt>
      <trkpt lat="43.42675" lon="2.69565">
        <ele>701.3927</ele>
        <time>2013-05-19T12:31:07Z</time>
      </trkpt>
      <trkpt lat="43.42675" lon="2.69556">
        <ele>703.242004</ele>
        <time>2013-05-19T12:31:12Z</time>
      </trkpt>
      <trkpt lat="43.4267" lon="2.69535">
        <ele>704.68866</ele>
        <time>2013-05-19T12:31:23Z</time>
      </trkpt>
      <trkpt lat="43.42666" lon="2.69513">
        <ele>705.042114</ele>
        <time>2013-05-19T12:31:36Z</time>
      </trkpt>
      <trkpt lat="43.42665" lon="2.69507">
        <ele>705.542725</ele>
        <time>2013-05-19T12:31:39Z</time>
      </trkpt>
      <trkpt lat="43.42665" lon="2.69475">
        <ele>708.374573</ele>
        <time>2013-05-19T12:31:56Z</time>
      </trkpt>
      <trkpt lat="43.42666" lon="2.69448">
        <ele>710.449402</ele>
        <time>2013-05-19T12:32:10Z</time>
      </trkpt>
      <trkpt lat="43.42669" lon="2.69435">
        <ele>712.469482</ele>
        <time>2013-05-19T12:32:17Z</time>
      </trkpt>
      <trkpt lat="43.42672" lon="2.69412">
        <ele>715.245178</ele>
        <time>2013-05-19T12:32:30Z</time>
      </trkpt>
      <trkpt lat="43.42673" lon="2.6941">
        <ele>715.344482</ele>
        <time>2013-05-19T12:32:31Z</time>
      </trkpt>
      <trkpt lat="43.42674" lon="2.69401">
        <ele>716.005066</ele>
        <time>2013-05-19T12:32:36Z</time>
      </trkpt>
      <trkpt lat="43.42673" lon="2.69399">
        <ele>715.553772</ele>
        <time>2013-05-19T12:32:38Z</time>
      </trkpt>
      <trkpt lat="43.42679" lon="2.69377">
        <ele>718.161438</ele>
        <time>2013-05-19T12:32:50Z</time>
      </trkpt>
      <trkpt lat="43.42681" lon="2.69375">
        <ele>719.107178</ele>
        <time>2013-05-19T12:32:52Z</time>
      </trkpt>
      <trkpt lat="43.42688" lon="2.69377">
        <ele>722.537537</ele>
        <time>2013-05-19T12:32:58Z</time>
      </trkpt>
      <trkpt lat="43.42684" lon="2.69399">
        <ele>720.824402</ele>
        <time>2013-05-19T12:33:12Z</time>
      </trkpt>
      <trkpt lat="43.42686" lon="2.69429">
        <ele>721.1521</ele>
        <time>2013-05-19T12:33:25Z</time>
      </trkpt>
      <trkpt lat="43.42689" lon="2.69436">
        <ele>722.318359</ele>
        <time>2013-05-19T12:33:28Z</time>
      </trkpt>
      <trkpt lat="43.42692" lon="2.69451">
        <ele>722.832214</ele>
        <time>2013-05-19T12:33:35Z</time>
      </trkpt>
      <trkpt lat="43.42699" lon="2.69481">
        <ele>723.859741</ele>
        <time>2013-05-19T12:33:47Z</time>
      </trkpt>
      <trkpt lat="43.4271" lon="2.69508">
        <ele>725.405518</ele>
        <time>2013-05-19T12:33:59Z</time>
      </trkpt>
      <trkpt lat="43.42714" lon="2.69517">
        <ele>725.515991</ele>
        <time>2013-05-19T12:34:04Z</time>
      </trkpt>
      <trkpt lat="43.42715" lon="2.69521">
        <ele>725.342896</ele>
        <time>2013-05-19T12:34:06Z</time>
      </trkpt>
      <trkpt lat="43.42721" lon="2.69531">
        <ele>726.43689</ele>
        <time>2013-05-19T12:34:12Z</time>
      </trkpt>
      <trkpt lat="43.42725" lon="2.6954">
        <ele>726.744751</ele>
        <time>2013-05-19T12:34:20Z</time>
      </trkpt>
      <trkpt lat="43.4273" lon="2.69535">
        <ele>730.168152</ele>
        <time>2013-05-19T12:34:25Z</time>
      </trkpt>
      <trkpt lat="43.42723" lon="2.69515">
        <ele>730.238647</ele>
        <time>2013-05-19T12:34:36Z</time>
      </trkpt>
      <trkpt lat="43.42719" lon="2.69489">
        <ele>732.868225</ele>
        <time>2013-05-19T12:34:49Z</time>
      </trkpt>
      <trkpt lat="43.42723" lon="2.69465">
        <ele>737.684265</ele>
        <time>2013-05-19T12:35:01Z</time>
      </trkpt>
      <trkpt lat="43.42732" lon="2.69438">
        <ele>743.361206</ele>
        <time>2013-05-19T12:35:14Z</time>
      </trkpt>
      <trkpt lat="43.42736" lon="2.69414">
        <ele>746.309998</ele>
        <time>2013-05-19T12:35:24Z</time>
      </trkpt>
      <trkpt lat="43.42742" lon="2.69386">
        <ele>748.991272</ele>
        <time>2013-05-19T12:35:35Z</time>
      </trkpt>
      <trkpt lat="43.42744" lon="2.69369">
        <ele>749.48877</ele>
        <time>2013-05-19T12:35:42Z</time>
      </trkpt>
      <trkpt lat="43.42748" lon="2.6935">
        <ele>750.768005</ele>
        <time>2013-05-19T12:35:50Z</time>
      </trkpt>
      <trkpt lat="43.42748" lon="2.69328">
        <ele>749.833679</ele>
        <time>2013-05-19T12:35:59Z</time>
      </trkpt>
      <trkpt lat="43.42752" lon="2.69322">
        <ele>752.11731</ele>
        <time>2013-05-19T12:36:03Z</time>
      </trkpt>
      <trkpt lat="43.4276" lon="2.6933">
        <ele>756.750488</ele>
        <time>2013-05-19T12:36:14Z</time>
      </trkpt>
      <trkpt lat="43.42754" lon="2.69357">
        <ele>754.405945</ele>
        <time>2013-05-19T12:36:28Z</time>
      </trkpt>
      <trkpt lat="43.42753" lon="2.69368">
        <ele>753.636841</ele>
        <time>2013-05-19T12:36:34Z</time>
      </trkpt>
      <trkpt lat="43.42755" lon="2.69387">
        <ele>755.093445</ele>
        <time>2013-05-19T12:36:45Z</time>
      </trkpt>
      <trkpt lat="43.42757" lon="2.69402">
        <ele>755.982117</ele>
        <time>2013-05-19T12:36:53Z</time>
      </trkpt>
      <trkpt lat="43.42758" lon="2.69418">
        <ele>756.154968</ele>
        <time>2013-05-19T12:37:02Z</time>
      </trkpt>
      <trkpt lat="43.4276" lon="2.69439">
        <ele>756.080017</ele>
        <time>2013-05-19T12:37:15Z</time>
      </trkpt>
      <trkpt lat="43.4276" lon="2.69443">
        <ele>756.094971</ele>
        <time>2013-05-19T12:37:17Z</time>
      </trkpt>
      <trkpt lat="43.42762" lon="2.6945">
        <ele>756.83252</ele>
        <time>2013-05-19T12:37:21Z</time>
      </trkpt>
      <trkpt lat="43.42766" lon="2.69459">
        <ele>758.01001</ele>
        <time>2013-05-19T12:37:25Z</time>
      </trkpt>
      <trkpt lat="43.42767" lon="2.69464">
        <ele>758.3125</ele>
        <time>2013-05-19T12:37:27Z</time>
      </trkpt>
      <trkpt lat="43.42768" lon="2.69473">
        <ele>758.51001</ele>
        <time>2013-05-19T12:37:31Z</time>
      </trkpt>
      <trkpt lat="43.42775" lon="2.69497">
        <ele>756.391663</ele>
        <time>2013-05-19T12:37:44Z</time>
      </trkpt>
      <trkpt lat="43.42775" lon="2.69498">
        <ele>756.21637</ele>
        <time>2013-05-19T12:37:45Z</time>
      </trkpt>
      <trkpt lat="43.4278" lon="2.69507">
        <ele>755.781494</ele>
        <time>2013-05-19T12:37:52Z</time>
      </trkpt>
      <trkpt lat="43.42786" lon="2.69504">
        <ele>758.544189</ele>
        <time>2013-05-19T12:38:05Z</time>
      </trkpt>
      <trkpt lat="43.4278" lon="2.69492">
        <ele>759.464905</ele>
        <time>2013-05-19T12:38:13Z</time>
      </trkpt>
      <trkpt lat="43.42779" lon="2.69484">
        <ele>761.033386</ele>
        <time>2013-05-19T12:38:18Z</time>
      </trkpt>
      <trkpt lat="43.42776" lon="2.69462">
        <ele>761.969971</ele>
        <time>2013-05-19T12:38:30Z</time>
      </trkpt>
      <trkpt lat="43.42776" lon="2.69455">
        <ele>762.195007</ele>
        <time>2013-05-19T12:38:34Z</time>
      </trkpt>
      <trkpt lat="43.42779" lon="2.69428">
        <ele>764.337524</ele>
        <time>2013-05-19T12:38:48Z</time>
      </trkpt>
      <trkpt lat="43.42782" lon="2.69419">
        <ele>765.66748</ele>
        <time>2013-05-19T12:38:53Z</time>
      </trkpt>
      <trkpt lat="43.42786" lon="2.69386">
        <ele>768.945618</ele>
        <time>2013-05-19T12:39:10Z</time>
      </trkpt>
      <trkpt lat="43.42787" lon="2.69352">
        <ele>771.409851</ele>
        <time>2013-05-19T12:39:24Z</time>
      </trkpt>
      <trkpt lat="43.42788" lon="2.69346">
        <ele>771.77417</ele>
        <time>2013-05-19T12:39:27Z</time>
      </trkpt>
      <trkpt lat="43.42789" lon="2.69342">
        <ele>772.753113</ele>
        <time>2013-05-19T12:39:29Z</time>
      </trkpt>
      <trkpt lat="43.4279" lon="2.69332">
        <ele>773.487793</ele>
        <time>2013-05-19T12:39:33Z</time>
      </trkpt>
      <trkpt lat="43.42791" lon="2.69326">
        <ele>774.535767</ele>
        <time>2013-05-19T12:39:36Z</time>
      </trkpt>
      <trkpt lat="43.42792" lon="2.69314">
        <ele>775.763</ele>
        <time>2013-05-19T12:39:42Z</time>
      </trkpt>
      <trkpt lat="43.42794" lon="2.69304">
        <ele>776.933594</ele>
        <time>2013-05-19T12:39:47Z</time>
      </trkpt>
      <trkpt lat="43.42793" lon="2.69285">
        <ele>777.398743</ele>
        <time>2013-05-19T12:39:55Z</time>
      </trkpt>
      <trkpt lat="43.42794" lon="2.69258">
        <ele>778.30127</ele>
        <time>2013-05-19T12:40:07Z</time>
      </trkpt>
      <trkpt lat="43.42799" lon="2.69248">
        <ele>780.648743</ele>
        <time>2013-05-19T12:40:12Z</time>
      </trkpt>
      <trkpt lat="43.42801" lon="2.6924">
        <ele>781.996277</ele>
        <time>2013-05-19T12:40:16Z</time>
      </trkpt>
      <trkpt lat="43.42802" lon="2.69232">
        <ele>782.402466</ele>
        <time>2013-05-19T12:40:19Z</time>
      </trkpt>
      <trkpt lat="43.42807" lon="2.69215">
        <ele>784.263794</ele>
        <time>2013-05-19T12:40:25Z</time>
      </trkpt>
      <trkpt lat="43.42817" lon="2.69183">
        <ele>786.489929</ele>
        <time>2013-05-19T12:40:37Z</time>
      </trkpt>
      <trkpt lat="43.42829" lon="2.69153">
        <ele>789.467529</ele>
        <time>2013-05-19T12:40:49Z</time>
      </trkpt>
      <trkpt lat="43.42842" lon="2.69119">
        <ele>791.495728</ele>
        <time>2013-05-19T12:41:02Z</time>
      </trkpt>
      <trkpt lat="43.42855" lon="2.69087">
        <ele>792.039734</ele>
        <time>2013-05-19T12:41:14Z</time>
      </trkpt>
      <trkpt lat="43.42864" lon="2.69059">
        <ele>791.344543</ele>
        <time>2013-05-19T12:41:24Z</time>
      </trkpt>
      <trkpt lat="43.42873" lon="2.6904">
        <ele>792.333191</ele>
        <time>2013-05-19T12:41:31Z</time>
      </trkpt>
      <trkpt lat="43.42879" lon="2.69026">
        <ele>793.199707</ele>
        <time>2013-05-19T12:41:36Z</time>
      </trkpt>
      <trkpt lat="43.4289" lon="2.69005">
        <ele>795.136353</ele>
        <time>2013-05-19T12:41:43Z</time>
      </trkpt>
      <trkpt lat="43.42902" lon="2.6897">
        <ele>797.105347</ele>
        <time>2013-05-19T12:41:55Z</time>
      </trkpt>
      <trkpt lat="43.42904" lon="2.68929">
        <ele>795.460388</ele>
        <time>2013-05-19T12:42:07Z</time>
      </trkpt>
      <trkpt lat="43.42907" lon="2.68892">
        <ele>795.004822</ele>
        <time>2013-05-19T12:42:20Z</time>
      </trkpt>
      <trkpt lat="43.42923" lon="2.68858">
        <ele>795.932922</ele>
        <time>2013-05-19T12:42:35Z</time>
      </trkpt>
      <trkpt lat="43.42934" lon="2.68844">
        <ele>795.396606</ele>
        <time>2013-05-19T12:42:47Z</time>
      </trkpt>
      <trkpt lat="43.42933" lon="2.68845">
        <ele>795.529785</ele>
        <time>2013-05-19T12:45:16Z</time>
      </trkpt>
      <trkpt lat="43.42934" lon="2.68845">
        <ele>795.49408</ele>
        <time>2013-05-19T12:45:18Z</time>
      </trkpt>
      <trkpt lat="43.42938" lon="2.68838">
        <ele>794.881897</ele>
        <time>2013-05-19T12:45:22Z</time>
      </trkpt>
      <trkpt lat="43.42968" lon="2.68809">
        <ele>791.338318</ele>
        <time>2013-05-19T12:45:34Z</time>
      </trkpt>
      <trkpt lat="43.4297" lon="2.68804">
        <ele>790.589905</ele>
        <time>2013-05-19T12:45:35Z</time>
      </trkpt>
      <trkpt lat="43.42971" lon="2.68798">
        <ele>789.891235</ele>
        <time>2013-05-19T12:45:36Z</time>
      </trkpt>
      <trkpt lat="43.42972" lon="2.68792">
        <ele>789.393738</ele>
        <time>2013-05-19T12:45:37Z</time>
      </trkpt>
      <trkpt lat="43.42972" lon="2.68786">
        <ele>788.877502</ele>
        <time>2013-05-19T12:45:38Z</time>
      </trkpt>
      <trkpt lat="43.42972" lon="2.6878">
        <ele>788.387512</ele>
        <time>2013-05-19T12:45:39Z</time>
      </trkpt>
      <trkpt lat="43.4297" lon="2.68775">
        <ele>788.022522</ele>
        <time>2013-05-19T12:45:40Z</time>
      </trkpt>
      <trkpt lat="43.42968" lon="2.6877">
        <ele>787.733765</ele>
        <time>2013-05-19T12:45:41Z</time>
      </trkpt>
      <trkpt lat="43.42953" lon="2.68757">
        <ele>786.95874</ele>
        <time>2013-05-19T12:45:46Z</time>
      </trkpt>
      <trkpt lat="43.4295" lon="2.68752">
        <ele>786.650024</ele>
        <time>2013-05-19T12:45:47Z</time>
      </trkpt>
      <trkpt lat="43.42949" lon="2.68745">
        <ele>786.059998</ele>
        <time>2013-05-19T12:45:48Z</time>
      </trkpt>
      <trkpt lat="43.4295" lon="2.68736">
        <ele>785.383484</ele>
        <time>2013-05-19T12:45:49Z</time>
      </trkpt>
      <trkpt lat="43.42952" lon="2.68728">
        <ele>784.748962</ele>
        <time>2013-05-19T12:45:50Z</time>
      </trkpt>
      <trkpt lat="43.42954" lon="2.6872">
        <ele>784.076904</ele>
        <time>2013-05-19T12:45:51Z</time>
      </trkpt>
      <trkpt lat="43.42955" lon="2.68711">
        <ele>783.400574</ele>
        <time>2013-05-19T12:45:52Z</time>
      </trkpt>
      <trkpt lat="43.42957" lon="2.68703">
        <ele>782.733826</ele>
        <time>2013-05-19T12:45:53Z</time>
      </trkpt>
      <trkpt lat="43.42958" lon="2.68695">
        <ele>782.07843</ele>
        <time>2013-05-19T12:45:54Z</time>
      </trkpt>
      <trkpt lat="43.42959" lon="2.68686">
        <ele>781.401062</ele>
        <time>2013-05-19T12:45:55Z</time>
      </trkpt>
      <trkpt lat="43.4296" lon="2.68678">
        <ele>780.70929</ele>
        <time>2013-05-19T12:45:56Z</time>
      </trkpt>
      <trkpt lat="43.42961" lon="2.68669">
        <ele>780.276489</ele>
        <time>2013-05-19T12:45:57Z</time>
      </trkpt>
      <trkpt lat="43.42964" lon="2.68654">
        <ele>779.426208</ele>
        <time>2013-05-19T12:45:59Z</time>
      </trkpt>
      <trkpt lat="43.42966" lon="2.68646">
        <ele>778.984741</ele>
        <time>2013-05-19T12:46:00Z</time>
      </trkpt>
      <trkpt lat="43.42969" lon="2.68624">
        <ele>777.745239</ele>
        <time>2013-05-19T12:46:03Z</time>
      </trkpt>
      <trkpt lat="43.42971" lon="2.68616">
        <ele>777.332214</ele>
        <time>2013-05-19T12:46:04Z</time>
      </trkpt>
      <trkpt lat="43.42972" lon="2.68609">
        <ele>777.079163</ele>
        <time>2013-05-19T12:46:05Z</time>
      </trkpt>
      <trkpt lat="43.42975" lon="2.68587">
        <ele>776.554321</ele>
        <time>2013-05-19T12:46:08Z</time>
      </trkpt>
      <trkpt lat="43.42975" lon="2.6858">
        <ele>776.414612</ele>
        <time>2013-05-19T12:46:09Z</time>
      </trkpt>
      <trkpt lat="43.42976" lon="2.68574">
        <ele>776.27533</ele>
        <time>2013-05-19T12:46:10Z</time>
      </trkpt>
      <trkpt lat="43.42977" lon="2.68568">
        <ele>776.110596</ele>
        <time>2013-05-19T12:46:11Z</time>
      </trkpt>
      <trkpt lat="43.42978" lon="2.68563">
        <ele>775.970093</ele>
        <time>2013-05-19T12:46:12Z</time>
      </trkpt>
      <trkpt lat="43.42982" lon="2.68518">
        <ele>774.362488</ele>
        <time>2013-05-19T12:46:21Z</time>
      </trkpt>
      <trkpt lat="43.42984" lon="2.68513">
        <ele>774.094971</ele>
        <time>2013-05-19T12:46:22Z</time>
      </trkpt>
      <trkpt lat="43.42984" lon="2.68506">
        <ele>773.85498</ele>
        <time>2013-05-19T12:46:23Z</time>
      </trkpt>
      <trkpt lat="43.42985" lon="2.685">
        <ele>773.597473</ele>
        <time>2013-05-19T12:46:24Z</time>
      </trkpt>
      <trkpt lat="43.42986" lon="2.68493">
        <ele>773.342468</ele>
        <time>2013-05-19T12:46:25Z</time>
      </trkpt>
      <trkpt lat="43.42994" lon="2.68405">
        <ele>770.342529</ele>
        <time>2013-05-19T12:46:38Z</time>
      </trkpt>
      <trkpt lat="43.42994" lon="2.68398">
        <ele>770.213745</ele>
        <time>2013-05-19T12:46:39Z</time>
      </trkpt>
      <trkpt lat="43.42996" lon="2.68378">
        <ele>769.808777</ele>
        <time>2013-05-19T12:46:42Z</time>
      </trkpt>
      <trkpt lat="43.42999" lon="2.68279">
        <ele>772.382507</ele>
        <time>2013-05-19T12:46:56Z</time>
      </trkpt>
      <trkpt lat="43.43001" lon="2.68234">
        <ele>773.427795</ele>
        <time>2013-05-19T12:47:02Z</time>
      </trkpt>
      <trkpt lat="43.43002" lon="2.68227">
        <ele>773.457825</ele>
        <time>2013-05-19T12:47:03Z</time>
      </trkpt>
      <trkpt lat="43.43002" lon="2.6822">
        <ele>773.487061</ele>
        <time>2013-05-19T12:47:04Z</time>
      </trkpt>
      <trkpt lat="43.43009" lon="2.68138">
        <ele>773.559998</ele>
        <time>2013-05-19T12:47:19Z</time>
      </trkpt>
      <trkpt lat="43.43017" lon="2.68066">
        <ele>775.096436</ele>
        <time>2013-05-19T12:47:32Z</time>
      </trkpt>
      <trkpt lat="43.43018" lon="2.6806">
        <ele>775.247925</ele>
        <time>2013-05-19T12:47:33Z</time>
      </trkpt>
      <trkpt lat="43.43019" lon="2.68049">
        <ele>775.765015</ele>
        <time>2013-05-19T12:47:35Z</time>
      </trkpt>
      <trkpt lat="43.43023" lon="2.68004">
        <ele>777.710327</ele>
        <time>2013-05-19T12:47:45Z</time>
      </trkpt>
      <trkpt lat="43.43022" lon="2.68001">
        <ele>777.90332</ele>
        <time>2013-05-19T12:47:46Z</time>
      </trkpt>
      <trkpt lat="43.43023" lon="2.67997">
        <ele>778.181824</ele>
        <time>2013-05-19T12:47:47Z</time>
      </trkpt>
      <trkpt lat="43.43023" lon="2.67993">
        <ele>778.522217</ele>
        <time>2013-05-19T12:47:48Z</time>
      </trkpt>
      <trkpt lat="43.43024" lon="2.6799">
        <ele>778.825928</ele>
        <time>2013-05-19T12:47:49Z</time>
      </trkpt>
      <trkpt lat="43.43024" lon="2.67983">
        <ele>779.493835</ele>
        <time>2013-05-19T12:47:51Z</time>
      </trkpt>
      <trkpt lat="43.43024" lon="2.67979">
        <ele>779.831726</ele>
        <time>2013-05-19T12:47:52Z</time>
      </trkpt>
      <trkpt lat="43.43025" lon="2.67975">
        <ele>780.194275</ele>
        <time>2013-05-19T12:47:53Z</time>
      </trkpt>
      <trkpt lat="43.43026" lon="2.67972">
        <ele>780.510193</ele>
        <time>2013-05-19T12:47:54Z</time>
      </trkpt>
      <trkpt lat="43.43027" lon="2.67969">
        <ele>780.783569</ele>
        <time>2013-05-19T12:47:55Z</time>
      </trkpt>
      <trkpt lat="43.43027" lon="2.67966">
        <ele>781.051331</ele>
        <time>2013-05-19T12:47:56Z</time>
      </trkpt>
      <trkpt lat="43.43028" lon="2.67963">
        <ele>781.287476</ele>
        <time>2013-05-19T12:47:57Z</time>
      </trkpt>
      <trkpt lat="43.4303" lon="2.6796">
        <ele>781.512512</ele>
        <time>2013-05-19T12:47:58Z</time>
      </trkpt>
      <trkpt lat="43.43031" lon="2.67957">
        <ele>781.719971</ele>
        <time>2013-05-19T12:47:59Z</time>
      </trkpt>
      <trkpt lat="43.43032" lon="2.67954">
        <ele>781.984985</ele>
        <time>2013-05-19T12:48:00Z</time>
      </trkpt>
      <trkpt lat="43.43042" lon="2.67913">
        <ele>784.302063</ele>
        <time>2013-05-19T12:48:12Z</time>
      </trkpt>
      <trkpt lat="43.43045" lon="2.67871">
        <ele>786.039978</ele>
        <time>2013-05-19T12:48:23Z</time>
      </trkpt>
      <trkpt lat="43.43043" lon="2.6783">
        <ele>786.882507</ele>
        <time>2013-05-19T12:48:34Z</time>
      </trkpt>
      <trkpt lat="43.43044" lon="2.67775">
        <ele>786.43457</ele>
        <time>2013-05-19T12:48:46Z</time>
      </trkpt>
      <trkpt lat="43.43052" lon="2.67711">
        <ele>784.78717</ele>
        <time>2013-05-19T12:48:59Z</time>
      </trkpt>
      <trkpt lat="43.43049" lon="2.67671">
        <ele>784.287964</ele>
        <time>2013-05-19T12:49:09Z</time>
      </trkpt>
      <trkpt lat="43.43049" lon="2.67667">
        <ele>784.257751</ele>
        <time>2013-05-19T12:49:10Z</time>
      </trkpt>
      <trkpt lat="43.43039" lon="2.67624">
        <ele>783.864502</ele>
        <time>2013-05-19T12:49:20Z</time>
      </trkpt>
      <trkpt lat="43.43028" lon="2.67592">
        <ele>782.863647</ele>
        <time>2013-05-19T12:49:26Z</time>
      </trkpt>
      <trkpt lat="43.43021" lon="2.67561">
        <ele>781.567322</ele>
        <time>2013-05-19T12:49:30Z</time>
      </trkpt>
      <trkpt lat="43.43019" lon="2.67541">
        <ele>780.162964</ele>
        <time>2013-05-19T12:49:32Z</time>
      </trkpt>
      <trkpt lat="43.4302" lon="2.67531">
        <ele>779.476501</ele>
        <time>2013-05-19T12:49:33Z</time>
      </trkpt>
      <trkpt lat="43.4302" lon="2.67521">
        <ele>778.788757</ele>
        <time>2013-05-19T12:49:34Z</time>
      </trkpt>
      <trkpt lat="43.4302" lon="2.6751">
        <ele>778.107605</ele>
        <time>2013-05-19T12:49:35Z</time>
      </trkpt>
      <trkpt lat="43.43021" lon="2.675">
        <ele>777.558777</ele>
        <time>2013-05-19T12:49:36Z</time>
      </trkpt>
      <trkpt lat="43.43023" lon="2.67489">
        <ele>777.152771</ele>
        <time>2013-05-19T12:49:37Z</time>
      </trkpt>
      <trkpt lat="43.43025" lon="2.67478">
        <ele>776.742126</ele>
        <time>2013-05-19T12:49:38Z</time>
      </trkpt>
      <trkpt lat="43.43026" lon="2.67467">
        <ele>776.244568</ele>
        <time>2013-05-19T12:49:39Z</time>
      </trkpt>
      <trkpt lat="43.43035" lon="2.67386">
        <ele>773.123596</ele>
        <time>2013-05-19T12:49:47Z</time>
      </trkpt>
      <trkpt lat="43.43035" lon="2.67377">
        <ele>773</ele>
        <time>2013-05-19T12:49:48Z</time>
      </trkpt>
      <trkpt lat="43.43041" lon="2.67334">
        <ele>773</ele>
        <time>2013-05-19T12:49:53Z</time>
      </trkpt>
      <trkpt lat="43.43041" lon="2.67326">
        <ele>773</ele>
        <time>2013-05-19T12:49:54Z</time>
      </trkpt>
      <trkpt lat="43.43042" lon="2.67318">
        <ele>773.04126</ele>
        <time>2013-05-19T12:49:55Z</time>
      </trkpt>
      <trkpt lat="43.43042" lon="2.6731">
        <ele>773.172485</ele>
        <time>2013-05-19T12:49:56Z</time>
      </trkpt>
      <trkpt lat="43.43043" lon="2.67303">
        <ele>773.297485</ele>
        <time>2013-05-19T12:49:57Z</time>
      </trkpt>
      <trkpt lat="43.43045" lon="2.67295">
        <ele>773.413757</ele>
        <time>2013-05-19T12:49:58Z</time>
      </trkpt>
      <trkpt lat="43.43047" lon="2.67288">
        <ele>773.527527</ele>
        <time>2013-05-19T12:49:59Z</time>
      </trkpt>
      <trkpt lat="43.43049" lon="2.67281">
        <ele>773.641235</ele>
        <time>2013-05-19T12:50:00Z</time>
      </trkpt>
      <trkpt lat="43.43052" lon="2.67269">
        <ele>773.841248</ele>
        <time>2013-05-19T12:50:02Z</time>
      </trkpt>
      <trkpt lat="43.43052" lon="2.67263">
        <ele>773.946228</ele>
        <time>2013-05-19T12:50:03Z</time>
      </trkpt>
      <trkpt lat="43.43053" lon="2.67256">
        <ele>774.080322</ele>
        <time>2013-05-19T12:50:04Z</time>
      </trkpt>
      <trkpt lat="43.43055" lon="2.67243">
        <ele>774.442139</ele>
        <time>2013-05-19T12:50:06Z</time>
      </trkpt>
      <trkpt lat="43.4306" lon="2.67221">
        <ele>775.113037</ele>
        <time>2013-05-19T12:50:09Z</time>
      </trkpt>
      <trkpt lat="43.43061" lon="2.67214">
        <ele>775.352783</ele>
        <time>2013-05-19T12:50:10Z</time>
      </trkpt>
      <trkpt lat="43.43067" lon="2.67194">
        <ele>776.085144</ele>
        <time>2013-05-19T12:50:13Z</time>
      </trkpt>
      <trkpt lat="43.43071" lon="2.67188">
        <ele>776.290161</ele>
        <time>2013-05-19T12:50:14Z</time>
      </trkpt>
      <trkpt lat="43.43073" lon="2.67182">
        <ele>776.48584</ele>
        <time>2013-05-19T12:50:15Z</time>
      </trkpt>
      <trkpt lat="43.43075" lon="2.67175">
        <ele>776.698364</ele>
        <time>2013-05-19T12:50:16Z</time>
      </trkpt>
      <trkpt lat="43.43077" lon="2.67169">
        <ele>776.924133</ele>
        <time>2013-05-19T12:50:17Z</time>
      </trkpt>
      <trkpt lat="43.43078" lon="2.67163">
        <ele>777.168701</ele>
        <time>2013-05-19T12:50:18Z</time>
      </trkpt>
      <trkpt lat="43.43087" lon="2.67112">
        <ele>779.308716</ele>
        <time>2013-05-19T12:50:27Z</time>
      </trkpt>
      <trkpt lat="43.43091" lon="2.67097">
        <ele>780.029175</ele>
        <time>2013-05-19T12:50:30Z</time>
      </trkpt>
      <trkpt lat="43.43096" lon="2.67035">
        <ele>781.929016</ele>
        <time>2013-05-19T12:50:40Z</time>
      </trkpt>
      <trkpt lat="43.43099" lon="2.6702">
        <ele>782.417419</ele>
        <time>2013-05-19T12:50:43Z</time>
      </trkpt>
      <trkpt lat="43.431" lon="2.67016">
        <ele>782.60968</ele>
        <time>2013-05-19T12:50:44Z</time>
      </trkpt>
      <trkpt lat="43.43101" lon="2.67011">
        <ele>782.752502</ele>
        <time>2013-05-19T12:50:45Z</time>
      </trkpt>
      <trkpt lat="43.43102" lon="2.67006">
        <ele>782.896729</ele>
        <time>2013-05-19T12:50:46Z</time>
      </trkpt>
      <trkpt lat="43.43103" lon="2.67002">
        <ele>783.069397</ele>
        <time>2013-05-19T12:50:47Z</time>
      </trkpt>
      <trkpt lat="43.43105" lon="2.66998">
        <ele>783.259277</ele>
        <time>2013-05-19T12:50:48Z</time>
      </trkpt>
      <trkpt lat="43.43106" lon="2.66994">
        <ele>783.421387</ele>
        <time>2013-05-19T12:50:49Z</time>
      </trkpt>
      <trkpt lat="43.43107" lon="2.6699">
        <ele>783.594604</ele>
        <time>2013-05-19T12:50:50Z</time>
      </trkpt>
      <trkpt lat="43.43117" lon="2.66966">
        <ele>784.936279</ele>
        <time>2013-05-19T12:50:56Z</time>
      </trkpt>
      <trkpt lat="43.43117" lon="2.66963">
        <ele>785.052185</ele>
        <time>2013-05-19T12:50:57Z</time>
      </trkpt>
      <trkpt lat="43.43118" lon="2.6696">
        <ele>785.190552</ele>
        <time>2013-05-19T12:50:58Z</time>
      </trkpt>
      <trkpt lat="43.4312" lon="2.66956">
        <ele>785.43335</ele>
        <time>2013-05-19T12:50:59Z</time>
      </trkpt>
      <trkpt lat="43.43121" lon="2.66953">
        <ele>785.661011</ele>
        <time>2013-05-19T12:51:00Z</time>
      </trkpt>
      <trkpt lat="43.43128" lon="2.66932">
        <ele>786.375977</ele>
        <time>2013-05-19T12:51:06Z</time>
      </trkpt>
      <trkpt lat="43.43133" lon="2.66924">
        <ele>786.92572</ele>
        <time>2013-05-19T12:51:09Z</time>
      </trkpt>
      <trkpt lat="43.43134" lon="2.66921">
        <ele>787.066284</ele>
        <time>2013-05-19T12:51:10Z</time>
      </trkpt>
      <trkpt lat="43.43136" lon="2.66918">
        <ele>787.241577</ele>
        <time>2013-05-19T12:51:11Z</time>
      </trkpt>
      <trkpt lat="43.43137" lon="2.66915">
        <ele>787.422791</ele>
        <time>2013-05-19T12:51:12Z</time>
      </trkpt>
      <trkpt lat="43.43138" lon="2.66913">
        <ele>787.625183</ele>
        <time>2013-05-19T12:51:13Z</time>
      </trkpt>
      <trkpt lat="43.4314" lon="2.6691">
        <ele>787.84845</ele>
        <time>2013-05-19T12:51:14Z</time>
      </trkpt>
      <trkpt lat="43.43141" lon="2.66908">
        <ele>788.029236</ele>
        <time>2013-05-19T12:51:15Z</time>
      </trkpt>
      <trkpt lat="43.43142" lon="2.66905">
        <ele>788.200928</ele>
        <time>2013-05-19T12:51:16Z</time>
      </trkpt>
      <trkpt lat="43.43145" lon="2.66899">
        <ele>788.60553</ele>
        <time>2013-05-19T12:51:18Z</time>
      </trkpt>
      <trkpt lat="43.43147" lon="2.66897">
        <ele>788.871948</ele>
        <time>2013-05-19T12:51:19Z</time>
      </trkpt>
      <trkpt lat="43.43148" lon="2.66894">
        <ele>789.061218</ele>
        <time>2013-05-19T12:51:20Z</time>
      </trkpt>
      <trkpt lat="43.43148" lon="2.66891">
        <ele>789.187805</ele>
        <time>2013-05-19T12:51:21Z</time>
      </trkpt>
      <trkpt lat="43.43149" lon="2.66887">
        <ele>789.211365</ele>
        <time>2013-05-19T12:51:22Z</time>
      </trkpt>
      <trkpt lat="43.4315" lon="2.66884">
        <ele>789.30249</ele>
        <time>2013-05-19T12:51:23Z</time>
      </trkpt>
      <trkpt lat="43.43171" lon="2.66843">
        <ele>791.85498</ele>
        <time>2013-05-19T12:51:37Z</time>
      </trkpt>
      <trkpt lat="43.43173" lon="2.66841">
        <ele>792.048523</ele>
        <time>2013-05-19T12:51:38Z</time>
      </trkpt>
      <trkpt lat="43.43174" lon="2.66838">
        <ele>792.247009</ele>
        <time>2013-05-19T12:51:39Z</time>
      </trkpt>
      <trkpt lat="43.43175" lon="2.66836">
        <ele>792.400696</ele>
        <time>2013-05-19T12:51:40Z</time>
      </trkpt>
      <trkpt lat="43.43177" lon="2.66833">
        <ele>792.576599</ele>
        <time>2013-05-19T12:51:41Z</time>
      </trkpt>
      <trkpt lat="43.43193" lon="2.66797">
        <ele>795.606262</ele>
        <time>2013-05-19T12:51:53Z</time>
      </trkpt>
      <trkpt lat="43.43202" lon="2.66754">
        <ele>797.755127</ele>
        <time>2013-05-19T12:52:05Z</time>
      </trkpt>
      <trkpt lat="43.43204" lon="2.66735">
        <ele>798.30188</ele>
        <time>2013-05-19T12:52:11Z</time>
      </trkpt>
      <trkpt lat="43.43203" lon="2.66732">
        <ele>798.31958</ele>
        <time>2013-05-19T12:52:12Z</time>
      </trkpt>
      <trkpt lat="43.43204" lon="2.6673">
        <ele>798.432617</ele>
        <time>2013-05-19T12:52:13Z</time>
      </trkpt>
      <trkpt lat="43.43205" lon="2.66728">
        <ele>798.552917</ele>
        <time>2013-05-19T12:52:14Z</time>
      </trkpt>
      <trkpt lat="43.43206" lon="2.66725">
        <ele>798.700012</ele>
        <time>2013-05-19T12:52:15Z</time>
      </trkpt>
      <trkpt lat="43.43206" lon="2.66722">
        <ele>798.756226</ele>
        <time>2013-05-19T12:52:16Z</time>
      </trkpt>
      <trkpt lat="43.43205" lon="2.66719">
        <ele>798.660828</ele>
        <time>2013-05-19T12:52:17Z</time>
      </trkpt>
      <trkpt lat="43.43204" lon="2.66717">
        <ele>798.66864</ele>
        <time>2013-05-19T12:52:18Z</time>
      </trkpt>
      <trkpt lat="43.43204" lon="2.66714">
        <ele>798.720093</ele>
        <time>2013-05-19T12:52:19Z</time>
      </trkpt>
      <trkpt lat="43.43204" lon="2.6671">
        <ele>798.778076</ele>
        <time>2013-05-19T12:52:20Z</time>
      </trkpt>
      <trkpt lat="43.43205" lon="2.66707">
        <ele>798.889221</ele>
        <time>2013-05-19T12:52:21Z</time>
      </trkpt>
      <trkpt lat="43.43205" lon="2.66703">
        <ele>799.03656</ele>
        <time>2013-05-19T12:52:22Z</time>
      </trkpt>
      <trkpt lat="43.43209" lon="2.66666">
        <ele>801.103638</ele>
        <time>2013-05-19T12:52:33Z</time>
      </trkpt>
      <trkpt lat="43.4321" lon="2.66663">
        <ele>801.260132</ele>
        <time>2013-05-19T12:52:34Z</time>
      </trkpt>
      <trkpt lat="43.43213" lon="2.66649">
        <ele>801.942871</ele>
        <time>2013-05-19T12:52:39Z</time>
      </trkpt>
      <trkpt lat="43.43211" lon="2.66641">
        <ele>802.236145</ele>
        <time>2013-05-19T12:52:43Z</time>
      </trkpt>
      <trkpt lat="43.43211" lon="2.66639">
        <ele>802.335999</ele>
        <time>2013-05-19T12:52:44Z</time>
      </trkpt>
      <trkpt lat="43.43211" lon="2.66636">
        <ele>802.443604</ele>
        <time>2013-05-19T12:52:45Z</time>
      </trkpt>
      <trkpt lat="43.43199" lon="2.66612">
        <ele>803.094543</ele>
        <time>2013-05-19T12:52:53Z</time>
      </trkpt>
      <trkpt lat="43.43197" lon="2.6661">
        <ele>803.091736</ele>
        <time>2013-05-19T12:52:54Z</time>
      </trkpt>
      <trkpt lat="43.43196" lon="2.66608">
        <ele>803.103699</ele>
        <time>2013-05-19T12:52:55Z</time>
      </trkpt>
      <trkpt lat="43.43195" lon="2.66606">
        <ele>803.124451</ele>
        <time>2013-05-19T12:52:56Z</time>
      </trkpt>
      <trkpt lat="43.43193" lon="2.66604">
        <ele>803.155762</ele>
        <time>2013-05-19T12:52:57Z</time>
      </trkpt>
      <trkpt lat="43.4319" lon="2.66601">
        <ele>803.118652</ele>
        <time>2013-05-19T12:52:58Z</time>
      </trkpt>
      <trkpt lat="43.43188" lon="2.66599">
        <ele>803.152161</ele>
        <time>2013-05-19T12:52:59Z</time>
      </trkpt>
      <trkpt lat="43.43188" lon="2.66598">
        <ele>803.230896</ele>
        <time>2013-05-19T12:53:00Z</time>
      </trkpt>
      <trkpt lat="43.43185" lon="2.66582">
        <ele>804.049988</ele>
        <time>2013-05-19T12:53:07Z</time>
      </trkpt>
      <trkpt lat="43.43181" lon="2.66573">
        <ele>804.635254</ele>
        <time>2013-05-19T12:53:11Z</time>
      </trkpt>
      <trkpt lat="43.43169" lon="2.66543">
        <ele>806.890198</ele>
        <time>2013-05-19T12:53:24Z</time>
      </trkpt>
      <trkpt lat="43.43169" lon="2.66541">
        <ele>807.118042</ele>
        <time>2013-05-19T12:53:26Z</time>
      </trkpt>
      <trkpt lat="43.43165" lon="2.66532">
        <ele>807.896118</ele>
        <time>2013-05-19T12:53:30Z</time>
      </trkpt>
      <trkpt lat="43.43157" lon="2.66515">
        <ele>809.433228</ele>
        <time>2013-05-19T12:53:38Z</time>
      </trkpt>
      <trkpt lat="43.43148" lon="2.66495">
        <ele>811.351196</ele>
        <time>2013-05-19T12:53:50Z</time>
      </trkpt>
      <trkpt lat="43.43135" lon="2.6648">
        <ele>813.055359</ele>
        <time>2013-05-19T12:54:02Z</time>
      </trkpt>
      <trkpt lat="43.43119" lon="2.66468">
        <ele>814.702332</ele>
        <time>2013-05-19T12:54:15Z</time>
      </trkpt>
      <trkpt lat="43.43106" lon="2.66456">
        <ele>816.789978</ele>
        <time>2013-05-19T12:54:25Z</time>
      </trkpt>
      <trkpt lat="43.43101" lon="2.66452">
        <ele>817.494995</ele>
        <time>2013-05-19T12:54:29Z</time>
      </trkpt>
      <trkpt lat="43.43092" lon="2.66445">
        <ele>818.830017</ele>
        <time>2013-05-19T12:54:39Z</time>
      </trkpt>
      <trkpt lat="43.43079" lon="2.66437">
        <ele>820.440002</ele>
        <time>2013-05-19T12:54:49Z</time>
      </trkpt>
      <trkpt lat="43.43074" lon="2.66434">
        <ele>821.029968</ele>
        <time>2013-05-19T12:54:54Z</time>
      </trkpt>
      <trkpt lat="43.43063" lon="2.66424">
        <ele>822.457336</ele>
        <time>2013-05-19T12:55:04Z</time>
      </trkpt>
      <trkpt lat="43.43048" lon="2.66413">
        <ele>823.889709</ele>
        <time>2013-05-19T12:55:15Z</time>
      </trkpt>
      <trkpt lat="43.43047" lon="2.66412">
        <ele>824.080322</ele>
        <time>2013-05-19T12:55:19Z</time>
      </trkpt>
      <trkpt lat="43.43029" lon="2.66396">
        <ele>826.006348</ele>
        <time>2013-05-19T12:55:27Z</time>
      </trkpt>
      <trkpt lat="43.43026" lon="2.66392">
        <ele>826.258423</ele>
        <time>2013-05-19T12:55:30Z</time>
      </trkpt>
      <trkpt lat="43.43009" lon="2.66374">
        <ele>826.066895</ele>
        <time>2013-05-19T12:55:43Z</time>
      </trkpt>
      <trkpt lat="43.43" lon="2.66359">
        <ele>826.239502</ele>
        <time>2013-05-19T12:55:52Z</time>
      </trkpt>
      <trkpt lat="43.4299" lon="2.66337">
        <ele>826.724304</ele>
        <time>2013-05-19T12:56:05Z</time>
      </trkpt>
      <trkpt lat="43.42983" lon="2.66302">
        <ele>829.25415</ele>
        <time>2013-05-19T12:56:21Z</time>
      </trkpt>
      <trkpt lat="43.42974" lon="2.66271">
        <ele>830.623779</ele>
        <time>2013-05-19T12:56:35Z</time>
      </trkpt>
      <trkpt lat="43.42965" lon="2.66244">
        <ele>831.30127</ele>
        <time>2013-05-19T12:56:48Z</time>
      </trkpt>
      <trkpt lat="43.42961" lon="2.66212">
        <ele>833.186279</ele>
        <time>2013-05-19T12:57:03Z</time>
      </trkpt>
      <trkpt lat="43.42959" lon="2.66171">
        <ele>835.019653</ele>
        <time>2013-05-19T12:57:19Z</time>
      </trkpt>
      <trkpt lat="43.42956" lon="2.66123">
        <ele>836.445557</ele>
        <time>2013-05-19T12:57:36Z</time>
      </trkpt>
      <trkpt lat="43.42957" lon="2.66076">
        <ele>837.673218</ele>
        <time>2013-05-19T12:57:53Z</time>
      </trkpt>
      <trkpt lat="43.42957" lon="2.66038">
        <ele>838.774658</ele>
        <time>2013-05-19T12:58:08Z</time>
      </trkpt>
      <trkpt lat="43.42953" lon="2.66002">
        <ele>839.620117</ele>
        <time>2013-05-19T12:58:21Z</time>
      </trkpt>
      <trkpt lat="43.42928" lon="2.65966">
        <ele>838.493286</ele>
        <time>2013-05-19T12:58:33Z</time>
      </trkpt>
      <trkpt lat="43.42892" lon="2.65927">
        <ele>837.436401</ele>
        <time>2013-05-19T12:58:48Z</time>
      </trkpt>
      <trkpt lat="43.42862" lon="2.65895">
        <ele>836.765808</ele>
        <time>2013-05-19T12:59:01Z</time>
      </trkpt>
      <trkpt lat="43.42829" lon="2.65867">
        <ele>834.10376</ele>
        <time>2013-05-19T12:59:13Z</time>
      </trkpt>
      <trkpt lat="43.42828" lon="2.65867">
        <ele>833.994995</ele>
        <time>2013-05-19T12:59:26Z</time>
      </trkpt>
      <trkpt lat="43.42828" lon="2.65867">
        <ele>833.983765</ele>
        <time>2013-05-19T13:00:50Z</time>
      </trkpt>
      <trkpt lat="43.42826" lon="2.65864">
        <ele>833.78125</ele>
        <time>2013-05-19T13:01:29Z</time>
      </trkpt>
      <trkpt lat="43.42826" lon="2.65864">
        <ele>833.77002</ele>
        <time>2013-05-19T13:02:54Z</time>
      </trkpt>
      <trkpt lat="43.42826" lon="2.65864">
        <ele>833.766235</ele>
        <time>2013-05-19T13:03:32Z</time>
      </trkpt>
      <trkpt lat="43.42811" lon="2.65842">
        <ele>832.877502</ele>
        <time>2013-05-19T13:03:53Z</time>
      </trkpt>
      <trkpt lat="43.42787" lon="2.65797">
        <ele>828.696838</ele>
        <time>2013-05-19T13:04:03Z</time>
      </trkpt>
      <trkpt lat="43.42776" lon="2.65776">
        <ele>826.434998</ele>
        <time>2013-05-19T13:04:06Z</time>
      </trkpt>
      <trkpt lat="43.42737" lon="2.65678">
        <ele>817.792175</ele>
        <time>2013-05-19T13:04:17Z</time>
      </trkpt>
      <trkpt lat="43.42728" lon="2.65658">
        <ele>816.733887</ele>
        <time>2013-05-19T13:04:19Z</time>
      </trkpt>
      <trkpt lat="43.42719" lon="2.65635">
        <ele>815.61499</ele>
        <time>2013-05-19T13:04:21Z</time>
      </trkpt>
      <trkpt lat="43.42714" lon="2.65625">
        <ele>814.900024</ele>
        <time>2013-05-19T13:04:22Z</time>
      </trkpt>
      <trkpt lat="43.42707" lon="2.65617">
        <ele>814.224976</ele>
        <time>2013-05-19T13:04:23Z</time>
      </trkpt>
      <trkpt lat="43.42683" lon="2.65588">
        <ele>811.255005</ele>
        <time>2013-05-19T13:04:27Z</time>
      </trkpt>
      <trkpt lat="43.42642" lon="2.6555">
        <ele>804.384644</ele>
        <time>2013-05-19T13:04:34Z</time>
      </trkpt>
      <trkpt lat="43.42636" lon="2.65548">
        <ele>803.568298</ele>
        <time>2013-05-19T13:04:35Z</time>
      </trkpt>
      <trkpt lat="43.4263" lon="2.65549">
        <ele>802.962891</ele>
        <time>2013-05-19T13:04:36Z</time>
      </trkpt>
      <trkpt lat="43.42624" lon="2.65551">
        <ele>802.554871</ele>
        <time>2013-05-19T13:04:37Z</time>
      </trkpt>
      <trkpt lat="43.42618" lon="2.65553">
        <ele>802.341797</ele>
        <time>2013-05-19T13:04:38Z</time>
      </trkpt>
      <trkpt lat="43.42602" lon="2.65568">
        <ele>802.322693</ele>
        <time>2013-05-19T13:04:44Z</time>
      </trkpt>
      <trkpt lat="43.426" lon="2.65569">
        <ele>802.267273</ele>
        <time>2013-05-19T13:04:45Z</time>
      </trkpt>
      <trkpt lat="43.42598" lon="2.6557">
        <ele>802.213379</ele>
        <time>2013-05-19T13:04:46Z</time>
      </trkpt>
      <trkpt lat="43.42596" lon="2.6557">
        <ele>802.090576</ele>
        <time>2013-05-19T13:04:47Z</time>
      </trkpt>
      <trkpt lat="43.42594" lon="2.6557">
        <ele>801.93396</ele>
        <time>2013-05-19T13:04:48Z</time>
      </trkpt>
      <trkpt lat="43.42592" lon="2.6557">
        <ele>801.787781</ele>
        <time>2013-05-19T13:04:49Z</time>
      </trkpt>
      <trkpt lat="43.4259" lon="2.65572">
        <ele>801.773193</ele>
        <time>2013-05-19T13:04:50Z</time>
      </trkpt>
      <trkpt lat="43.42587" lon="2.65574">
        <ele>801.817444</ele>
        <time>2013-05-19T13:04:51Z</time>
      </trkpt>
      <trkpt lat="43.42585" lon="2.65577">
        <ele>801.881897</ele>
        <time>2013-05-19T13:04:52Z</time>
      </trkpt>
      <trkpt lat="43.42567" lon="2.65627">
        <ele>803.89386</ele>
        <time>2013-05-19T13:05:05Z</time>
      </trkpt>
      <trkpt lat="43.42563" lon="2.6567">
        <ele>803.960022</ele>
        <time>2013-05-19T13:05:13Z</time>
      </trkpt>
      <trkpt lat="43.42569" lon="2.65732">
        <ele>799.81488</ele>
        <time>2013-05-19T13:05:23Z</time>
      </trkpt>
      <trkpt lat="43.42574" lon="2.65755">
        <ele>798.333618</ele>
        <time>2013-05-19T13:05:27Z</time>
      </trkpt>
      <trkpt lat="43.42576" lon="2.6576">
        <ele>798.032166</ele>
        <time>2013-05-19T13:05:28Z</time>
      </trkpt>
      <trkpt lat="43.42577" lon="2.65765">
        <ele>797.740723</ele>
        <time>2013-05-19T13:05:29Z</time>
      </trkpt>
      <trkpt lat="43.42589" lon="2.65791">
        <ele>796.801331</ele>
        <time>2013-05-19T13:05:34Z</time>
      </trkpt>
      <trkpt lat="43.42604" lon="2.65823">
        <ele>795.880676</ele>
        <time>2013-05-19T13:05:40Z</time>
      </trkpt>
      <trkpt lat="43.42605" lon="2.65829">
        <ele>795.583008</ele>
        <time>2013-05-19T13:05:41Z</time>
      </trkpt>
      <trkpt lat="43.42604" lon="2.65834">
        <ele>795.078186</ele>
        <time>2013-05-19T13:05:42Z</time>
      </trkpt>
      <trkpt lat="43.42601" lon="2.65839">
        <ele>794.41864</ele>
        <time>2013-05-19T13:05:43Z</time>
      </trkpt>
      <trkpt lat="43.42597" lon="2.65843">
        <ele>793.737732</ele>
        <time>2013-05-19T13:05:44Z</time>
      </trkpt>
      <trkpt lat="43.42592" lon="2.65848">
        <ele>792.919922</ele>
        <time>2013-05-19T13:05:45Z</time>
      </trkpt>
      <trkpt lat="43.42545" lon="2.65892">
        <ele>787.880432</ele>
        <time>2013-05-19T13:05:52Z</time>
      </trkpt>
      <trkpt lat="43.42536" lon="2.65896">
        <ele>787.32135</ele>
        <time>2013-05-19T13:05:53Z</time>
      </trkpt>
      <trkpt lat="43.42526" lon="2.65898">
        <ele>786.823181</ele>
        <time>2013-05-19T13:05:54Z</time>
      </trkpt>
      <trkpt lat="43.42517" lon="2.65897">
        <ele>786.499695</ele>
        <time>2013-05-19T13:05:55Z</time>
      </trkpt>
      <trkpt lat="43.42508" lon="2.65896">
        <ele>786.287109</ele>
        <time>2013-05-19T13:05:56Z</time>
      </trkpt>
      <trkpt lat="43.4243" lon="2.65875">
        <ele>783.385681</ele>
        <time>2013-05-19T13:06:06Z</time>
      </trkpt>
      <trkpt lat="43.42398" lon="2.65875">
        <ele>780.924988</ele>
        <time>2013-05-19T13:06:10Z</time>
      </trkpt>
      <trkpt lat="43.42389" lon="2.65875">
        <ele>780.246277</ele>
        <time>2013-05-19T13:06:11Z</time>
      </trkpt>
      <trkpt lat="43.42352" lon="2.65884">
        <ele>775.683899</ele>
        <time>2013-05-19T13:06:15Z</time>
      </trkpt>
      <trkpt lat="43.42249" lon="2.65925">
        <ele>765.158691</ele>
        <time>2013-05-19T13:06:25Z</time>
      </trkpt>
      <trkpt lat="43.42188" lon="2.65945">
        <ele>757.236267</ele>
        <time>2013-05-19T13:06:32Z</time>
      </trkpt>
      <trkpt lat="43.42155" lon="2.65951">
        <ele>750.763</ele>
        <time>2013-05-19T13:06:35Z</time>
      </trkpt>
      <trkpt lat="43.42145" lon="2.6595">
        <ele>748.992981</ele>
        <time>2013-05-19T13:06:36Z</time>
      </trkpt>
      <trkpt lat="43.42135" lon="2.65946">
        <ele>748.182068</ele>
        <time>2013-05-19T13:06:37Z</time>
      </trkpt>
      <trkpt lat="43.42126" lon="2.6594">
        <ele>747.930603</ele>
        <time>2013-05-19T13:06:38Z</time>
      </trkpt>
      <trkpt lat="43.42119" lon="2.65932">
        <ele>748.129395</ele>
        <time>2013-05-19T13:06:39Z</time>
      </trkpt>
      <trkpt lat="43.42113" lon="2.65925">
        <ele>749.006165</ele>
        <time>2013-05-19T13:06:40Z</time>
      </trkpt>
      <trkpt lat="43.421" lon="2.65911">
        <ele>750.791321</ele>
        <time>2013-05-19T13:06:42Z</time>
      </trkpt>
      <trkpt lat="43.42018" lon="2.65855">
        <ele>746.667969</ele>
        <time>2013-05-19T13:06:54Z</time>
      </trkpt>
      <trkpt lat="43.41968" lon="2.65807">
        <ele>747.200012</ele>
        <time>2013-05-19T13:07:04Z</time>
      </trkpt>
      <trkpt lat="43.41965" lon="2.65807">
        <ele>746.853333</ele>
        <time>2013-05-19T13:07:13Z</time>
      </trkpt>
      <trkpt lat="43.41964" lon="2.65807">
        <ele>746.556152</ele>
        <time>2013-05-19T13:07:14Z</time>
      </trkpt>
      <trkpt lat="43.41963" lon="2.65808">
        <ele>746.153748</ele>
        <time>2013-05-19T13:07:15Z</time>
      </trkpt>
      <trkpt lat="43.41958" lon="2.65811">
        <ele>744.955444</ele>
        <time>2013-05-19T13:07:24Z</time>
      </trkpt>
      <trkpt lat="43.41952" lon="2.65811">
        <ele>743.988464</ele>
        <time>2013-05-19T13:07:37Z</time>
      </trkpt>
      <trkpt lat="43.4195" lon="2.65812">
        <ele>743.544983</ele>
        <time>2013-05-19T13:07:59Z</time>
      </trkpt>
      <trkpt lat="43.4194" lon="2.65813">
        <ele>742.721863</ele>
        <time>2013-05-19T13:08:11Z</time>
      </trkpt>
      <trkpt lat="43.41913" lon="2.65816">
        <ele>740.359009</ele>
        <time>2013-05-19T13:08:25Z</time>
      </trkpt>
      <trkpt lat="43.41873" lon="2.65797">
        <ele>740.062683</ele>
        <time>2013-05-19T13:08:41Z</time>
      </trkpt>
      <trkpt lat="43.41821" lon="2.65764">
        <ele>739.304382</ele>
        <time>2013-05-19T13:08:53Z</time>
      </trkpt>
      <trkpt lat="43.41807" lon="2.65759">
        <ele>739.135315</ele>
        <time>2013-05-19T13:08:55Z</time>
      </trkpt>
      <trkpt lat="43.41801" lon="2.65759">
        <ele>738.894531</ele>
        <time>2013-05-19T13:08:56Z</time>
      </trkpt>
      <trkpt lat="43.41794" lon="2.65762">
        <ele>738.03009</ele>
        <time>2013-05-19T13:08:57Z</time>
      </trkpt>
      <trkpt lat="43.41788" lon="2.65769">
        <ele>736.553101</ele>
        <time>2013-05-19T13:08:58Z</time>
      </trkpt>
      <trkpt lat="43.41782" lon="2.65776">
        <ele>734.29657</ele>
        <time>2013-05-19T13:08:59Z</time>
      </trkpt>
      <trkpt lat="43.41755" lon="2.65813">
        <ele>724.464355</ele>
        <time>2013-05-19T13:09:04Z</time>
      </trkpt>
      <trkpt lat="43.41748" lon="2.65818">
        <ele>723.807556</ele>
        <time>2013-05-19T13:09:05Z</time>
      </trkpt>
      <trkpt lat="43.41724" lon="2.65834">
        <ele>723.134705</ele>
        <time>2013-05-19T13:09:08Z</time>
      </trkpt>
      <trkpt lat="43.41689" lon="2.65845">
        <ele>721.15033</ele>
        <time>2013-05-19T13:09:12Z</time>
      </trkpt>
      <trkpt lat="43.41682" lon="2.65845">
        <ele>721.627075</ele>
        <time>2013-05-19T13:09:13Z</time>
      </trkpt>
      <trkpt lat="43.41674" lon="2.65844">
        <ele>720.739868</ele>
        <time>2013-05-19T13:09:14Z</time>
      </trkpt>
      <trkpt lat="43.41667" lon="2.65842">
        <ele>719.915466</ele>
        <time>2013-05-19T13:09:15Z</time>
      </trkpt>
      <trkpt lat="43.41661" lon="2.65838">
        <ele>719.608459</ele>
        <time>2013-05-19T13:09:16Z</time>
      </trkpt>
      <trkpt lat="43.41655" lon="2.65835">
        <ele>719.449829</ele>
        <time>2013-05-19T13:09:17Z</time>
      </trkpt>
      <trkpt lat="43.41651" lon="2.65831">
        <ele>719.167236</ele>
        <time>2013-05-19T13:09:18Z</time>
      </trkpt>
      <trkpt lat="43.41647" lon="2.65827">
        <ele>718.661926</ele>
        <time>2013-05-19T13:09:19Z</time>
      </trkpt>
      <trkpt lat="43.41623" lon="2.65801">
        <ele>713.324585</ele>
        <time>2013-05-19T13:09:24Z</time>
      </trkpt>
      <trkpt lat="43.41619" lon="2.65794">
        <ele>712.333252</ele>
        <time>2013-05-19T13:09:25Z</time>
      </trkpt>
      <trkpt lat="43.41616" lon="2.65787">
        <ele>711.566711</ele>
        <time>2013-05-19T13:09:26Z</time>
      </trkpt>
      <trkpt lat="43.41613" lon="2.65778">
        <ele>711.001343</ele>
        <time>2013-05-19T13:09:27Z</time>
      </trkpt>
      <trkpt lat="43.4161" lon="2.65769">
        <ele>710.39917</ele>
        <time>2013-05-19T13:09:28Z</time>
      </trkpt>
      <trkpt lat="43.41608" lon="2.6576">
        <ele>709.171204</ele>
        <time>2013-05-19T13:09:29Z</time>
      </trkpt>
      <trkpt lat="43.41588" lon="2.65668">
        <ele>697.335693</ele>
        <time>2013-05-19T13:09:38Z</time>
      </trkpt>
      <trkpt lat="43.41584" lon="2.6566">
        <ele>695.326904</ele>
        <time>2013-05-19T13:09:39Z</time>
      </trkpt>
      <trkpt lat="43.41573" lon="2.65644">
        <ele>690.685486</ele>
        <time>2013-05-19T13:09:41Z</time>
      </trkpt>
      <trkpt lat="43.41559" lon="2.6562">
        <ele>688.064636</ele>
        <time>2013-05-19T13:09:44Z</time>
      </trkpt>
      <trkpt lat="43.41534" lon="2.65588">
        <ele>682.640625</ele>
        <time>2013-05-19T13:09:48Z</time>
      </trkpt>
      <trkpt lat="43.41528" lon="2.65581">
        <ele>681.463013</ele>
        <time>2013-05-19T13:09:49Z</time>
      </trkpt>
      <trkpt lat="43.41475" lon="2.6554">
        <ele>672.121887</ele>
        <time>2013-05-19T13:09:57Z</time>
      </trkpt>
      <trkpt lat="43.41469" lon="2.65537">
        <ele>670.803101</ele>
        <time>2013-05-19T13:09:58Z</time>
      </trkpt>
      <trkpt lat="43.41464" lon="2.65535">
        <ele>669.375244</ele>
        <time>2013-05-19T13:09:59Z</time>
      </trkpt>
      <trkpt lat="43.41429" lon="2.65522">
        <ele>663.434021</ele>
        <time>2013-05-19T13:10:04Z</time>
      </trkpt>
      <trkpt lat="43.41424" lon="2.65517">
        <ele>662.689941</ele>
        <time>2013-05-19T13:10:05Z</time>
      </trkpt>
      <trkpt lat="43.4142" lon="2.65512">
        <ele>662.15033</ele>
        <time>2013-05-19T13:10:06Z</time>
      </trkpt>
      <trkpt lat="43.41416" lon="2.65505">
        <ele>661.588013</ele>
        <time>2013-05-19T13:10:07Z</time>
      </trkpt>
      <trkpt lat="43.41412" lon="2.65499">
        <ele>661.075256</ele>
        <time>2013-05-19T13:10:08Z</time>
      </trkpt>
      <trkpt lat="43.41403" lon="2.65484">
        <ele>660.541382</ele>
        <time>2013-05-19T13:10:11Z</time>
      </trkpt>
      <trkpt lat="43.414" lon="2.65481">
        <ele>660.194946</ele>
        <time>2013-05-19T13:10:12Z</time>
      </trkpt>
      <trkpt lat="43.41397" lon="2.65479">
        <ele>659.72406</ele>
        <time>2013-05-19T13:10:13Z</time>
      </trkpt>
      <trkpt lat="43.41394" lon="2.65479">
        <ele>659.003601</ele>
        <time>2013-05-19T13:10:14Z</time>
      </trkpt>
      <trkpt lat="43.4139" lon="2.65482">
        <ele>658.141357</ele>
        <time>2013-05-19T13:10:15Z</time>
      </trkpt>
      <trkpt lat="43.41386" lon="2.65486">
        <ele>657.243225</ele>
        <time>2013-05-19T13:10:16Z</time>
      </trkpt>
      <trkpt lat="43.41383" lon="2.65492">
        <ele>656.415283</ele>
        <time>2013-05-19T13:10:17Z</time>
      </trkpt>
      <trkpt lat="43.41381" lon="2.65499">
        <ele>655.739197</ele>
        <time>2013-05-19T13:10:18Z</time>
      </trkpt>
      <trkpt lat="43.41379" lon="2.65507">
        <ele>655.136169</ele>
        <time>2013-05-19T13:10:19Z</time>
      </trkpt>
      <trkpt lat="43.41377" lon="2.65512">
        <ele>654.65094</ele>
        <time>2013-05-19T13:10:20Z</time>
      </trkpt>
      <trkpt lat="43.41376" lon="2.65514">
        <ele>654.524109</ele>
        <time>2013-05-19T13:10:21Z</time>
      </trkpt>
      <trkpt lat="43.41376" lon="2.65515">
        <ele>654.43335</ele>
        <time>2013-05-19T13:10:29Z</time>
      </trkpt>
      <trkpt lat="43.41377" lon="2.65518">
        <ele>654.556641</ele>
        <time>2013-05-19T13:10:40Z</time>
      </trkpt>
      <trkpt lat="43.41377" lon="2.65519">
        <ele>654.551819</ele>
        <time>2013-05-19T13:11:19Z</time>
      </trkpt>
      <trkpt lat="43.41375" lon="2.6552">
        <ele>654.22345</ele>
        <time>2013-05-19T13:11:32Z</time>
      </trkpt>
      <trkpt lat="43.41373" lon="2.65521">
        <ele>653.91217</ele>
        <time>2013-05-19T13:11:33Z</time>
      </trkpt>
      <trkpt lat="43.4137" lon="2.65522">
        <ele>653.519592</ele>
        <time>2013-05-19T13:11:34Z</time>
      </trkpt>
      <trkpt lat="43.41368" lon="2.65523">
        <ele>653.141785</ele>
        <time>2013-05-19T13:11:35Z</time>
      </trkpt>
      <trkpt lat="43.41365" lon="2.65525">
        <ele>652.70752</ele>
        <time>2013-05-19T13:11:36Z</time>
      </trkpt>
      <trkpt lat="43.41363" lon="2.65528">
        <ele>652.313721</ele>
        <time>2013-05-19T13:11:37Z</time>
      </trkpt>
      <trkpt lat="43.41361" lon="2.6553">
        <ele>651.922485</ele>
        <time>2013-05-19T13:11:38Z</time>
      </trkpt>
      <trkpt lat="43.41359" lon="2.65532">
        <ele>651.655029</ele>
        <time>2013-05-19T13:11:39Z</time>
      </trkpt>
      <trkpt lat="43.41357" lon="2.65533">
        <ele>651.47998</ele>
        <time>2013-05-19T13:11:40Z</time>
      </trkpt>
      <trkpt lat="43.41355" lon="2.65534">
        <ele>651.359985</ele>
        <time>2013-05-19T13:11:41Z</time>
      </trkpt>
      <trkpt lat="43.41354" lon="2.65534">
        <ele>651.348755</ele>
        <time>2013-05-19T13:11:42Z</time>
      </trkpt>
      <trkpt lat="43.41352" lon="2.65534">
        <ele>651.397522</ele>
        <time>2013-05-19T13:11:43Z</time>
      </trkpt>
      <trkpt lat="43.41351" lon="2.65534">
        <ele>651.441284</ele>
        <time>2013-05-19T13:11:44Z</time>
      </trkpt>
      <trkpt lat="43.41349" lon="2.65534">
        <ele>651.47876</ele>
        <time>2013-05-19T13:11:45Z</time>
      </trkpt>
      <trkpt lat="43.41348" lon="2.65534">
        <ele>651.609985</ele>
        <time>2013-05-19T13:11:46Z</time>
      </trkpt>
      <trkpt lat="43.41347" lon="2.65533">
        <ele>651.762512</ele>
        <time>2013-05-19T13:11:47Z</time>
      </trkpt>
      <trkpt lat="43.41346" lon="2.65533">
        <ele>651.973755</ele>
        <time>2013-05-19T13:11:48Z</time>
      </trkpt>
      <trkpt lat="43.41345" lon="2.65532">
        <ele>652.148743</ele>
        <time>2013-05-19T13:11:49Z</time>
      </trkpt>
      <trkpt lat="43.41343" lon="2.65532">
        <ele>652.289978</ele>
        <time>2013-05-19T13:11:50Z</time>
      </trkpt>
      <trkpt lat="43.41342" lon="2.65531">
        <ele>652.414978</ele>
        <time>2013-05-19T13:11:51Z</time>
      </trkpt>
      <trkpt lat="43.4134" lon="2.65531">
        <ele>652.561218</ele>
        <time>2013-05-19T13:11:52Z</time>
      </trkpt>
      <trkpt lat="43.41339" lon="2.6553">
        <ele>652.767517</ele>
        <time>2013-05-19T13:11:53Z</time>
      </trkpt>
      <trkpt lat="43.41338" lon="2.65529">
        <ele>653.038757</ele>
        <time>2013-05-19T13:11:54Z</time>
      </trkpt>
      <trkpt lat="43.41337" lon="2.65528">
        <ele>653.337524</ele>
        <time>2013-05-19T13:11:55Z</time>
      </trkpt>
      <trkpt lat="43.41335" lon="2.65527">
        <ele>653.598755</ele>
        <time>2013-05-19T13:11:56Z</time>
      </trkpt>
      <trkpt lat="43.41334" lon="2.65526">
        <ele>653.821228</ele>
        <time>2013-05-19T13:11:57Z</time>
      </trkpt>
      <trkpt lat="43.41333" lon="2.65526">
        <ele>654.027527</ele>
        <time>2013-05-19T13:11:58Z</time>
      </trkpt>
      <trkpt lat="43.41331" lon="2.65525">
        <ele>654.233765</ele>
        <time>2013-05-19T13:11:59Z</time>
      </trkpt>
      <trkpt lat="43.41313" lon="2.65516">
        <ele>655.725098</ele>
        <time>2013-05-19T13:12:12Z</time>
      </trkpt>
      <trkpt lat="43.41291" lon="2.65507">
        <ele>658.212402</ele>
        <time>2013-05-19T13:12:26Z</time>
      </trkpt>
      <trkpt lat="43.41266" lon="2.65494">
        <ele>660.512085</ele>
        <time>2013-05-19T13:12:40Z</time>
      </trkpt>
      <trkpt lat="43.41241" lon="2.65478">
        <ele>662.721863</ele>
        <time>2013-05-19T13:12:56Z</time>
      </trkpt>
      <trkpt lat="43.41219" lon="2.65471">
        <ele>664.087402</ele>
        <time>2013-05-19T13:13:09Z</time>
      </trkpt>
      <trkpt lat="43.41203" lon="2.65468">
        <ele>664.457886</ele>
        <time>2013-05-19T13:13:18Z</time>
      </trkpt>
      <trkpt lat="43.41202" lon="2.65467">
        <ele>664.511353</ele>
        <time>2013-05-19T13:13:19Z</time>
      </trkpt>
      <trkpt lat="43.41201" lon="2.65466">
        <ele>664.555481</ele>
        <time>2013-05-19T13:13:20Z</time>
      </trkpt>
      <trkpt lat="43.41199" lon="2.65466">
        <ele>664.5896</ele>
        <time>2013-05-19T13:13:21Z</time>
      </trkpt>
      <trkpt lat="43.41198" lon="2.65466">
        <ele>664.630432</ele>
        <time>2013-05-19T13:13:22Z</time>
      </trkpt>
      <trkpt lat="43.41196" lon="2.65465">
        <ele>664.673889</ele>
        <time>2013-05-19T13:13:23Z</time>
      </trkpt>
      <trkpt lat="43.41192" lon="2.65465">
        <ele>664.781311</ele>
        <time>2013-05-19T13:13:35Z</time>
      </trkpt>
      <trkpt lat="43.41177" lon="2.65452">
        <ele>664.04126</ele>
        <time>2013-05-19T13:13:47Z</time>
      </trkpt>
      <trkpt lat="43.41158" lon="2.65423">
        <ele>662.68103</ele>
        <time>2013-05-19T13:13:55Z</time>
      </trkpt>
      <trkpt lat="43.41155" lon="2.65419">
        <ele>662.635986</ele>
        <time>2013-05-19T13:13:56Z</time>
      </trkpt>
      <trkpt lat="43.41152" lon="2.65414">
        <ele>662.622253</ele>
        <time>2013-05-19T13:13:57Z</time>
      </trkpt>
      <trkpt lat="43.41122" lon="2.65367">
        <ele>660.650879</ele>
        <time>2013-05-19T13:14:09Z</time>
      </trkpt>
      <trkpt lat="43.41094" lon="2.65284">
        <ele>658.853027</ele>
        <time>2013-05-19T13:14:25Z</time>
      </trkpt>
      <trkpt lat="43.41089" lon="2.65265">
        <ele>657.167603</ele>
        <time>2013-05-19T13:14:28Z</time>
      </trkpt>
      <trkpt lat="43.41078" lon="2.65229">
        <ele>653.222778</ele>
        <time>2013-05-19T13:14:33Z</time>
      </trkpt>
      <trkpt lat="43.41072" lon="2.65201">
        <ele>650.579041</ele>
        <time>2013-05-19T13:14:37Z</time>
      </trkpt>
      <trkpt lat="43.4107" lon="2.65195">
        <ele>649.949646</ele>
        <time>2013-05-19T13:14:38Z</time>
      </trkpt>
      <trkpt lat="43.41067" lon="2.6519">
        <ele>649.441406</ele>
        <time>2013-05-19T13:14:39Z</time>
      </trkpt>
      <trkpt lat="43.41063" lon="2.65185">
        <ele>649.068481</ele>
        <time>2013-05-19T13:14:40Z</time>
      </trkpt>
      <trkpt lat="43.41058" lon="2.65181">
        <ele>648.806885</ele>
        <time>2013-05-19T13:14:41Z</time>
      </trkpt>
      <trkpt lat="43.41053" lon="2.65177">
        <ele>648.584595</ele>
        <time>2013-05-19T13:14:42Z</time>
      </trkpt>
      <trkpt lat="43.41047" lon="2.65174">
        <ele>647.307922</ele>
        <time>2013-05-19T13:14:43Z</time>
      </trkpt>
      <trkpt lat="43.4104" lon="2.6517">
        <ele>645.912598</ele>
        <time>2013-05-19T13:14:44Z</time>
      </trkpt>
      <trkpt lat="43.41032" lon="2.65167">
        <ele>644.560303</ele>
        <time>2013-05-19T13:14:45Z</time>
      </trkpt>
      <trkpt lat="43.41007" lon="2.65163">
        <ele>640.520691</ele>
        <time>2013-05-19T13:14:49Z</time>
      </trkpt>
      <trkpt lat="43.41001" lon="2.6516">
        <ele>639.191223</ele>
        <time>2013-05-19T13:14:50Z</time>
      </trkpt>
      <trkpt lat="43.40996" lon="2.65154">
        <ele>638.365662</ele>
        <time>2013-05-19T13:14:51Z</time>
      </trkpt>
      <trkpt lat="43.40993" lon="2.65149">
        <ele>637.977905</ele>
        <time>2013-05-19T13:14:52Z</time>
      </trkpt>
      <trkpt lat="43.4099" lon="2.65143">
        <ele>637.80188</ele>
        <time>2013-05-19T13:14:53Z</time>
      </trkpt>
      <trkpt lat="43.40988" lon="2.65138">
        <ele>637.710693</ele>
        <time>2013-05-19T13:14:54Z</time>
      </trkpt>
      <trkpt lat="43.40985" lon="2.65133">
        <ele>637.571472</ele>
        <time>2013-05-19T13:14:55Z</time>
      </trkpt>
      <trkpt lat="43.40982" lon="2.65129">
        <ele>637.431885</ele>
        <time>2013-05-19T13:14:56Z</time>
      </trkpt>
      <trkpt lat="43.40972" lon="2.65111">
        <ele>637.470093</ele>
        <time>2013-05-19T13:15:00Z</time>
      </trkpt>
      <trkpt lat="43.40962" lon="2.65099">
        <ele>637.599426</ele>
        <time>2013-05-19T13:15:03Z</time>
      </trkpt>
      <trkpt lat="43.4095" lon="2.65087">
        <ele>637.148682</ele>
        <time>2013-05-19T13:15:06Z</time>
      </trkpt>
      <trkpt lat="43.40947" lon="2.65083">
        <ele>636.952515</ele>
        <time>2013-05-19T13:15:07Z</time>
      </trkpt>
      <trkpt lat="43.40937" lon="2.6507">
        <ele>636.824036</ele>
        <time>2013-05-19T13:15:10Z</time>
      </trkpt>
      <trkpt lat="43.40934" lon="2.65065">
        <ele>637.080688</ele>
        <time>2013-05-19T13:15:11Z</time>
      </trkpt>
      <trkpt lat="43.40931" lon="2.6506">
        <ele>637.216248</ele>
        <time>2013-05-19T13:15:12Z</time>
      </trkpt>
      <trkpt lat="43.4089" lon="2.6501">
        <ele>636.416992</ele>
        <time>2013-05-19T13:15:24Z</time>
      </trkpt>
      <trkpt lat="43.40824" lon="2.64975">
        <ele>631.073853</ele>
        <time>2013-05-19T13:15:35Z</time>
      </trkpt>
      <trkpt lat="43.4076" lon="2.64954">
        <ele>622.61499</ele>
        <time>2013-05-19T13:15:44Z</time>
      </trkpt>
      <trkpt lat="43.40755" lon="2.6495">
        <ele>621.890015</ele>
        <time>2013-05-19T13:15:45Z</time>
      </trkpt>
      <trkpt lat="43.4075" lon="2.64943">
        <ele>621.382507</ele>
        <time>2013-05-19T13:15:46Z</time>
      </trkpt>
      <trkpt lat="43.40747" lon="2.64935">
        <ele>621.1875</ele>
        <time>2013-05-19T13:15:47Z</time>
      </trkpt>
      <trkpt lat="43.40746" lon="2.64927">
        <ele>621.287476</ele>
        <time>2013-05-19T13:15:48Z</time>
      </trkpt>
      <trkpt lat="43.40745" lon="2.64919">
        <ele>621.36499</ele>
        <time>2013-05-19T13:15:49Z</time>
      </trkpt>
      <trkpt lat="43.40743" lon="2.64912">
        <ele>621.277466</ele>
        <time>2013-05-19T13:15:50Z</time>
      </trkpt>
      <trkpt lat="43.40734" lon="2.64864">
        <ele>621.051697</ele>
        <time>2013-05-19T13:16:00Z</time>
      </trkpt>
      <trkpt lat="43.40734" lon="2.64859">
        <ele>621.125854</ele>
        <time>2013-05-19T13:16:11Z</time>
      </trkpt>
      <trkpt lat="43.40734" lon="2.64858">
        <ele>621.13031</ele>
        <time>2013-05-19T13:16:33Z</time>
      </trkpt>
      <trkpt lat="43.40729" lon="2.64849">
        <ele>620.740845</ele>
        <time>2013-05-19T13:16:43Z</time>
      </trkpt>
      <trkpt lat="43.40725" lon="2.64846">
        <ele>620.351563</ele>
        <time>2013-05-19T13:16:44Z</time>
      </trkpt>
      <trkpt lat="43.40722" lon="2.64846">
        <ele>619.960999</ele>
        <time>2013-05-19T13:16:45Z</time>
      </trkpt>
      <trkpt lat="43.40719" lon="2.64847">
        <ele>619.630859</ele>
        <time>2013-05-19T13:16:46Z</time>
      </trkpt>
      <trkpt lat="43.40716" lon="2.64849">
        <ele>619.285461</ele>
        <time>2013-05-19T13:16:47Z</time>
      </trkpt>
      <trkpt lat="43.40674" lon="2.64856">
        <ele>618.83374</ele>
        <time>2013-05-19T13:16:59Z</time>
      </trkpt>
      <trkpt lat="43.40646" lon="2.64858">
        <ele>621.391235</ele>
        <time>2013-05-19T13:17:12Z</time>
      </trkpt>
      <trkpt lat="43.4062" lon="2.64859">
        <ele>625.203003</ele>
        <time>2013-05-19T13:17:25Z</time>
      </trkpt>
      <trkpt lat="43.40587" lon="2.6485">
        <ele>633.40094</ele>
        <time>2013-05-19T13:17:41Z</time>
      </trkpt>
      <trkpt lat="43.40563" lon="2.6484">
        <ele>640.838318</ele>
        <time>2013-05-19T13:17:55Z</time>
      </trkpt>
      <trkpt lat="43.40562" lon="2.64839">
        <ele>641.09375</ele>
        <time>2013-05-19T13:17:56Z</time>
      </trkpt>
      <trkpt lat="43.4056" lon="2.64839">
        <ele>641.419739</ele>
        <time>2013-05-19T13:17:57Z</time>
      </trkpt>
      <trkpt lat="43.40559" lon="2.64839">
        <ele>641.494141</ele>
        <time>2013-05-19T13:17:58Z</time>
      </trkpt>
      <trkpt lat="43.40557" lon="2.64838">
        <ele>641.429199</ele>
        <time>2013-05-19T13:17:59Z</time>
      </trkpt>
      <trkpt lat="43.40556" lon="2.64838">
        <ele>641.472046</ele>
        <time>2013-05-19T13:18:00Z</time>
      </trkpt>
      <trkpt lat="43.4053" lon="2.64836">
        <ele>642.188782</ele>
        <time>2013-05-19T13:18:16Z</time>
      </trkpt>
      <trkpt lat="43.40513" lon="2.64818">
        <ele>642.215149</ele>
        <time>2013-05-19T13:18:31Z</time>
      </trkpt>
      <trkpt lat="43.40491" lon="2.64777">
        <ele>642.144653</ele>
        <time>2013-05-19T13:18:50Z</time>
      </trkpt>
      <trkpt lat="43.40469" lon="2.64732">
        <ele>640.843811</ele>
        <time>2013-05-19T13:19:01Z</time>
      </trkpt>
      <trkpt lat="43.40446" lon="2.64675">
        <ele>637.914795</ele>
        <time>2013-05-19T13:19:14Z</time>
      </trkpt>
      <trkpt lat="43.40433" lon="2.64646">
        <ele>637.194702</ele>
        <time>2013-05-19T13:19:21Z</time>
      </trkpt>
      <trkpt lat="43.40428" lon="2.64626">
        <ele>635.436401</ele>
        <time>2013-05-19T13:19:24Z</time>
      </trkpt>
      <trkpt lat="43.4042" lon="2.64579">
        <ele>628.325928</ele>
        <time>2013-05-19T13:19:29Z</time>
      </trkpt>
      <trkpt lat="43.40419" lon="2.64569">
        <ele>626.966675</ele>
        <time>2013-05-19T13:19:30Z</time>
      </trkpt>
      <trkpt lat="43.40419" lon="2.64559">
        <ele>625.808838</ele>
        <time>2013-05-19T13:19:31Z</time>
      </trkpt>
      <trkpt lat="43.40424" lon="2.6451">
        <ele>619.981384</ele>
        <time>2013-05-19T13:19:37Z</time>
      </trkpt>
      <trkpt lat="43.40426" lon="2.64505">
        <ele>619.459229</ele>
        <time>2013-05-19T13:19:38Z</time>
      </trkpt>
      <trkpt lat="43.40429" lon="2.645">
        <ele>618.27771</ele>
        <time>2013-05-19T13:19:39Z</time>
      </trkpt>
      <trkpt lat="43.40432" lon="2.64497">
        <ele>617.080933</ele>
        <time>2013-05-19T13:19:40Z</time>
      </trkpt>
      <trkpt lat="43.40435" lon="2.64493">
        <ele>615.980347</ele>
        <time>2013-05-19T13:19:41Z</time>
      </trkpt>
      <trkpt lat="43.40441" lon="2.64483">
        <ele>612.845337</ele>
        <time>2013-05-19T13:19:44Z</time>
      </trkpt>
      <trkpt lat="43.40442" lon="2.6448">
        <ele>612.105957</ele>
        <time>2013-05-19T13:19:45Z</time>
      </trkpt>
      <trkpt lat="43.40442" lon="2.64476">
        <ele>611.57074</ele>
        <time>2013-05-19T13:19:46Z</time>
      </trkpt>
      <trkpt lat="43.40441" lon="2.64473">
        <ele>610.99115</ele>
        <time>2013-05-19T13:19:47Z</time>
      </trkpt>
      <trkpt lat="43.4044" lon="2.64468">
        <ele>610.859009</ele>
        <time>2013-05-19T13:19:48Z</time>
      </trkpt>
      <trkpt lat="43.40438" lon="2.64464">
        <ele>611.098206</ele>
        <time>2013-05-19T13:19:49Z</time>
      </trkpt>
      <trkpt lat="43.40435" lon="2.64459">
        <ele>611.46759</ele>
        <time>2013-05-19T13:19:50Z</time>
      </trkpt>
      <trkpt lat="43.40431" lon="2.64453">
        <ele>612.005127</ele>
        <time>2013-05-19T13:19:51Z</time>
      </trkpt>
      <trkpt lat="43.40425" lon="2.64448">
        <ele>612.380005</ele>
        <time>2013-05-19T13:19:52Z</time>
      </trkpt>
      <trkpt lat="43.4042" lon="2.64442">
        <ele>611.224976</ele>
        <time>2013-05-19T13:19:53Z</time>
      </trkpt>
      <trkpt lat="43.40414" lon="2.64437">
        <ele>610.179993</ele>
        <time>2013-05-19T13:19:54Z</time>
      </trkpt>
      <trkpt lat="43.40409" lon="2.64433">
        <ele>609.22998</ele>
        <time>2013-05-19T13:19:55Z</time>
      </trkpt>
      <trkpt lat="43.40403" lon="2.64431">
        <ele>608.294983</ele>
        <time>2013-05-19T13:19:56Z</time>
      </trkpt>
      <trkpt lat="43.40397" lon="2.6443">
        <ele>607.450012</ele>
        <time>2013-05-19T13:19:57Z</time>
      </trkpt>
      <trkpt lat="43.40392" lon="2.6443">
        <ele>606.780029</ele>
        <time>2013-05-19T13:19:58Z</time>
      </trkpt>
      <trkpt lat="43.40387" lon="2.6443">
        <ele>606.13501</ele>
        <time>2013-05-19T13:19:59Z</time>
      </trkpt>
      <trkpt lat="43.40382" lon="2.64432">
        <ele>605.534973</ele>
        <time>2013-05-19T13:20:00Z</time>
      </trkpt>
      <trkpt lat="43.40377" lon="2.64433">
        <ele>604.124023</ele>
        <time>2013-05-19T13:20:01Z</time>
      </trkpt>
      <trkpt lat="43.40372" lon="2.64434">
        <ele>602.729492</ele>
        <time>2013-05-19T13:20:02Z</time>
      </trkpt>
      <trkpt lat="43.40368" lon="2.64432">
        <ele>601.376465</ele>
        <time>2013-05-19T13:20:03Z</time>
      </trkpt>
      <trkpt lat="43.40365" lon="2.64429">
        <ele>600.148132</ele>
        <time>2013-05-19T13:20:04Z</time>
      </trkpt>
      <trkpt lat="43.40362" lon="2.64427">
        <ele>599.019775</ele>
        <time>2013-05-19T13:20:05Z</time>
      </trkpt>
      <trkpt lat="43.40359" lon="2.64425">
        <ele>597.833618</ele>
        <time>2013-05-19T13:20:06Z</time>
      </trkpt>
      <trkpt lat="43.40355" lon="2.64425">
        <ele>596.675049</ele>
        <time>2013-05-19T13:20:07Z</time>
      </trkpt>
      <trkpt lat="43.40352" lon="2.64426">
        <ele>595.739258</ele>
        <time>2013-05-19T13:20:08Z</time>
      </trkpt>
      <trkpt lat="43.40347" lon="2.64428">
        <ele>594.472473</ele>
        <time>2013-05-19T13:20:09Z</time>
      </trkpt>
      <trkpt lat="43.40342" lon="2.64432">
        <ele>592.793701</ele>
        <time>2013-05-19T13:20:10Z</time>
      </trkpt>
      <trkpt lat="43.40335" lon="2.64436">
        <ele>590.855774</ele>
        <time>2013-05-19T13:20:11Z</time>
      </trkpt>
      <trkpt lat="43.40327" lon="2.64439">
        <ele>588.856812</ele>
        <time>2013-05-19T13:20:12Z</time>
      </trkpt>
      <trkpt lat="43.40319" lon="2.64441">
        <ele>586.859192</ele>
        <time>2013-05-19T13:20:13Z</time>
      </trkpt>
      <trkpt lat="43.40311" lon="2.64442">
        <ele>584.84375</ele>
        <time>2013-05-19T13:20:14Z</time>
      </trkpt>
      <trkpt lat="43.40303" lon="2.64444">
        <ele>582.677002</ele>
        <time>2013-05-19T13:20:15Z</time>
      </trkpt>
      <trkpt lat="43.40287" lon="2.64449">
        <ele>578.817078</ele>
        <time>2013-05-19T13:20:17Z</time>
      </trkpt>
      <trkpt lat="43.40281" lon="2.64451">
        <ele>577.463562</ele>
        <time>2013-05-19T13:20:18Z</time>
      </trkpt>
      <trkpt lat="43.40274" lon="2.64451">
        <ele>576.033447</ele>
        <time>2013-05-19T13:20:19Z</time>
      </trkpt>
      <trkpt lat="43.40267" lon="2.6445">
        <ele>574.579468</ele>
        <time>2013-05-19T13:20:20Z</time>
      </trkpt>
      <trkpt lat="43.4026" lon="2.64448">
        <ele>573.117249</ele>
        <time>2013-05-19T13:20:21Z</time>
      </trkpt>
      <trkpt lat="43.40253" lon="2.64448">
        <ele>571.765625</ele>
        <time>2013-05-19T13:20:22Z</time>
      </trkpt>
      <trkpt lat="43.40248" lon="2.6445">
        <ele>570.525818</ele>
        <time>2013-05-19T13:20:23Z</time>
      </trkpt>
      <trkpt lat="43.40244" lon="2.64453">
        <ele>569.810364</ele>
        <time>2013-05-19T13:20:24Z</time>
      </trkpt>
      <trkpt lat="43.40241" lon="2.64458">
        <ele>569.324524</ele>
        <time>2013-05-19T13:20:25Z</time>
      </trkpt>
      <trkpt lat="43.40238" lon="2.64463">
        <ele>568.827942</ele>
        <time>2013-05-19T13:20:26Z</time>
      </trkpt>
      <trkpt lat="43.40235" lon="2.64469">
        <ele>568.184753</ele>
        <time>2013-05-19T13:20:27Z</time>
      </trkpt>
      <trkpt lat="43.40227" lon="2.64481">
        <ele>566.14563</ele>
        <time>2013-05-19T13:20:29Z</time>
      </trkpt>
      <trkpt lat="43.40222" lon="2.64485">
        <ele>565.138245</ele>
        <time>2013-05-19T13:20:30Z</time>
      </trkpt>
      <trkpt lat="43.40217" lon="2.64487">
        <ele>564.033691</ele>
        <time>2013-05-19T13:20:31Z</time>
      </trkpt>
      <trkpt lat="43.4021" lon="2.6449">
        <ele>562.761658</ele>
        <time>2013-05-19T13:20:32Z</time>
      </trkpt>
      <trkpt lat="43.40204" lon="2.64496">
        <ele>561.295715</ele>
        <time>2013-05-19T13:20:33Z</time>
      </trkpt>
      <trkpt lat="43.40198" lon="2.64501">
        <ele>560.343079</ele>
        <time>2013-05-19T13:20:34Z</time>
      </trkpt>
      <trkpt lat="43.40184" lon="2.64517">
        <ele>558.457397</ele>
        <time>2013-05-19T13:20:37Z</time>
      </trkpt>
      <trkpt lat="43.4018" lon="2.64523">
        <ele>557.772949</ele>
        <time>2013-05-19T13:20:38Z</time>
      </trkpt>
      <trkpt lat="43.40175" lon="2.64527">
        <ele>557.214539</ele>
        <time>2013-05-19T13:20:39Z</time>
      </trkpt>
      <trkpt lat="43.40171" lon="2.64528">
        <ele>556.886292</ele>
        <time>2013-05-19T13:20:40Z</time>
      </trkpt>
      <trkpt lat="43.40168" lon="2.64527">
        <ele>556.818604</ele>
        <time>2013-05-19T13:20:47Z</time>
      </trkpt>
      <trkpt lat="43.40167" lon="2.6453">
        <ele>556.518188</ele>
        <time>2013-05-19T13:21:01Z</time>
      </trkpt>
      <trkpt lat="43.40167" lon="2.64531">
        <ele>556.515991</ele>
        <time>2013-05-19T13:21:36Z</time>
      </trkpt>
      <trkpt lat="43.40168" lon="2.64532">
        <ele>556.378845</ele>
        <time>2013-05-19T13:21:41Z</time>
      </trkpt>
      <trkpt lat="43.40179" lon="2.64554">
        <ele>553.864441</ele>
        <time>2013-05-19T13:21:48Z</time>
      </trkpt>
      <trkpt lat="43.40181" lon="2.64559">
        <ele>553.236816</ele>
        <time>2013-05-19T13:21:49Z</time>
      </trkpt>
      <trkpt lat="43.40211" lon="2.64629">
        <ele>546.687134</ele>
        <time>2013-05-19T13:21:58Z</time>
      </trkpt>
      <trkpt lat="43.40229" lon="2.64653">
        <ele>547.80835</ele>
        <time>2013-05-19T13:22:01Z</time>
      </trkpt>
      <trkpt lat="43.40234" lon="2.64663">
        <ele>547.306335</ele>
        <time>2013-05-19T13:22:02Z</time>
      </trkpt>
      <trkpt lat="43.40237" lon="2.64675">
        <ele>546.104675</ele>
        <time>2013-05-19T13:22:03Z</time>
      </trkpt>
      <trkpt lat="43.40241" lon="2.64699">
        <ele>543.351929</ele>
        <time>2013-05-19T13:22:05Z</time>
      </trkpt>
      <trkpt lat="43.40245" lon="2.6471">
        <ele>542.764832</ele>
        <time>2013-05-19T13:22:06Z</time>
      </trkpt>
      <trkpt lat="43.40259" lon="2.64743">
        <ele>543.59491</ele>
        <time>2013-05-19T13:22:09Z</time>
      </trkpt>
      <trkpt lat="43.40264" lon="2.64756">
        <ele>543.543213</ele>
        <time>2013-05-19T13:22:10Z</time>
      </trkpt>
      <trkpt lat="43.40269" lon="2.64767">
        <ele>543.756042</ele>
        <time>2013-05-19T13:22:11Z</time>
      </trkpt>
      <trkpt lat="43.40281" lon="2.64791">
        <ele>544.516785</ele>
        <time>2013-05-19T13:22:13Z</time>
      </trkpt>
      <trkpt lat="43.40286" lon="2.64803">
        <ele>544.267944</ele>
        <time>2013-05-19T13:22:14Z</time>
      </trkpt>
      <trkpt lat="43.40291" lon="2.64817">
        <ele>543.546204</ele>
        <time>2013-05-19T13:22:15Z</time>
      </trkpt>
      <trkpt lat="43.40294" lon="2.64831">
        <ele>542.759705</ele>
        <time>2013-05-19T13:22:16Z</time>
      </trkpt>
      <trkpt lat="43.40297" lon="2.64845">
        <ele>541.813721</ele>
        <time>2013-05-19T13:22:17Z</time>
      </trkpt>
      <trkpt lat="43.40309" lon="2.64931">
        <ele>535.459839</ele>
        <time>2013-05-19T13:22:23Z</time>
      </trkpt>
      <trkpt lat="43.4031" lon="2.64945">
        <ele>533.849792</ele>
        <time>2013-05-19T13:22:24Z</time>
      </trkpt>
      <trkpt lat="43.40311" lon="2.64959">
        <ele>532.231689</ele>
        <time>2013-05-19T13:22:25Z</time>
      </trkpt>
      <trkpt lat="43.40313" lon="2.64973">
        <ele>530.94751</ele>
        <time>2013-05-19T13:22:26Z</time>
      </trkpt>
      <trkpt lat="43.40316" lon="2.64986">
        <ele>530.164978</ele>
        <time>2013-05-19T13:22:27Z</time>
      </trkpt>
      <trkpt lat="43.40319" lon="2.64999">
        <ele>529.647522</ele>
        <time>2013-05-19T13:22:28Z</time>
      </trkpt>
      <trkpt lat="43.40354" lon="2.65129">
        <ele>525.838745</ele>
        <time>2013-05-19T13:22:38Z</time>
      </trkpt>
      <trkpt lat="43.40372" lon="2.65269">
        <ele>514.200012</ele>
        <time>2013-05-19T13:22:48Z</time>
      </trkpt>
      <trkpt lat="43.40382" lon="2.65294">
        <ele>515.875427</ele>
        <time>2013-05-19T13:22:50Z</time>
      </trkpt>
      <trkpt lat="43.40394" lon="2.65319">
        <ele>518.049011</ele>
        <time>2013-05-19T13:22:52Z</time>
      </trkpt>
      <trkpt lat="43.40397" lon="2.65333">
        <ele>518.154175</ele>
        <time>2013-05-19T13:22:53Z</time>
      </trkpt>
      <trkpt lat="43.40398" lon="2.65347">
        <ele>517.243469</ele>
        <time>2013-05-19T13:22:54Z</time>
      </trkpt>
      <trkpt lat="43.40398" lon="2.65362">
        <ele>516.06012</ele>
        <time>2013-05-19T13:22:55Z</time>
      </trkpt>
      <trkpt lat="43.40399" lon="2.65376">
        <ele>515.412109</ele>
        <time>2013-05-19T13:22:56Z</time>
      </trkpt>
      <trkpt lat="43.40412" lon="2.65518">
        <ele>503.905945</ele>
        <time>2013-05-19T13:23:06Z</time>
      </trkpt>
      <trkpt lat="43.40416" lon="2.65532">
        <ele>502.809662</ele>
        <time>2013-05-19T13:23:07Z</time>
      </trkpt>
      <trkpt lat="43.40425" lon="2.65557">
        <ele>500.795288</ele>
        <time>2013-05-19T13:23:09Z</time>
      </trkpt>
      <trkpt lat="43.4043" lon="2.6557">
        <ele>499.078918</ele>
        <time>2013-05-19T13:23:10Z</time>
      </trkpt>
      <trkpt lat="43.40436" lon="2.65582">
        <ele>497.138611</ele>
        <time>2013-05-19T13:23:11Z</time>
      </trkpt>
      <trkpt lat="43.40441" lon="2.65593">
        <ele>495.325836</ele>
        <time>2013-05-19T13:23:12Z</time>
      </trkpt>
      <trkpt lat="43.40448" lon="2.65602">
        <ele>494.132507</ele>
        <time>2013-05-19T13:23:13Z</time>
      </trkpt>
      <trkpt lat="43.40456" lon="2.65609">
        <ele>493.521423</ele>
        <time>2013-05-19T13:23:14Z</time>
      </trkpt>
      <trkpt lat="43.40465" lon="2.65614">
        <ele>493.553711</ele>
        <time>2013-05-19T13:23:15Z</time>
      </trkpt>
      <trkpt lat="43.40474" lon="2.65615">
        <ele>493.549164</ele>
        <time>2013-05-19T13:23:16Z</time>
      </trkpt>
      <trkpt lat="43.40483" lon="2.65616">
        <ele>493.661865</ele>
        <time>2013-05-19T13:23:17Z</time>
      </trkpt>
      <trkpt lat="43.40519" lon="2.65616">
        <ele>495.122131</ele>
        <time>2013-05-19T13:23:21Z</time>
      </trkpt>
      <trkpt lat="43.40528" lon="2.65618">
        <ele>495.759003</ele>
        <time>2013-05-19T13:23:22Z</time>
      </trkpt>
      <trkpt lat="43.40537" lon="2.65622">
        <ele>496.076202</ele>
        <time>2013-05-19T13:23:23Z</time>
      </trkpt>
      <trkpt lat="43.40543" lon="2.65628">
        <ele>495.804321</ele>
        <time>2013-05-19T13:23:24Z</time>
      </trkpt>
      <trkpt lat="43.40547" lon="2.65636">
        <ele>494.849915</ele>
        <time>2013-05-19T13:23:25Z</time>
      </trkpt>
      <trkpt lat="43.40545" lon="2.65644">
        <ele>494.077271</ele>
        <time>2013-05-19T13:23:26Z</time>
      </trkpt>
      <trkpt lat="43.40541" lon="2.65649">
        <ele>494.331421</ele>
        <time>2013-05-19T13:23:27Z</time>
      </trkpt>
      <trkpt lat="43.40536" lon="2.65651">
        <ele>493.587982</ele>
        <time>2013-05-19T13:23:28Z</time>
      </trkpt>
      <trkpt lat="43.4053" lon="2.65654">
        <ele>492.695618</ele>
        <time>2013-05-19T13:23:29Z</time>
      </trkpt>
      <trkpt lat="43.40524" lon="2.65657">
        <ele>491.65271</ele>
        <time>2013-05-19T13:23:30Z</time>
      </trkpt>
      <trkpt lat="43.40518" lon="2.65661">
        <ele>490.679779</ele>
        <time>2013-05-19T13:23:31Z</time>
      </trkpt>
      <trkpt lat="43.40512" lon="2.65667">
        <ele>489.837189</ele>
        <time>2013-05-19T13:23:32Z</time>
      </trkpt>
      <trkpt lat="43.40508" lon="2.65674">
        <ele>489.739014</ele>
        <time>2013-05-19T13:23:33Z</time>
      </trkpt>
      <trkpt lat="43.40503" lon="2.65682">
        <ele>489.296204</ele>
        <time>2013-05-19T13:23:34Z</time>
      </trkpt>
      <trkpt lat="43.40497" lon="2.6569">
        <ele>488.183685</ele>
        <time>2013-05-19T13:23:35Z</time>
      </trkpt>
      <trkpt lat="43.40477" lon="2.65716">
        <ele>483.470001</ele>
        <time>2013-05-19T13:23:39Z</time>
      </trkpt>
      <trkpt lat="43.40473" lon="2.6572">
        <ele>482.565002</ele>
        <time>2013-05-19T13:23:40Z</time>
      </trkpt>
      <trkpt lat="43.40454" lon="2.6574">
        <ele>480.440643</ele>
        <time>2013-05-19T13:23:44Z</time>
      </trkpt>
      <trkpt lat="43.4045" lon="2.65747">
        <ele>480.308624</ele>
        <time>2013-05-19T13:23:45Z</time>
      </trkpt>
      <trkpt lat="43.40435" lon="2.65804">
        <ele>479.319824</ele>
        <time>2013-05-19T13:23:55Z</time>
      </trkpt>
      <trkpt lat="43.40434" lon="2.65819">
        <ele>479.691864</ele>
        <time>2013-05-19T13:23:57Z</time>
      </trkpt>
      <trkpt lat="43.40433" lon="2.65827">
        <ele>479.665009</ele>
        <time>2013-05-19T13:23:58Z</time>
      </trkpt>
      <trkpt lat="43.40432" lon="2.65835">
        <ele>479.095001</ele>
        <time>2013-05-19T13:23:59Z</time>
      </trkpt>
      <trkpt lat="43.40431" lon="2.65844">
        <ele>478.4375</ele>
        <time>2013-05-19T13:24:00Z</time>
      </trkpt>
      <trkpt lat="43.4043" lon="2.65853">
        <ele>477.700012</ele>
        <time>2013-05-19T13:24:01Z</time>
      </trkpt>
      <trkpt lat="43.40429" lon="2.65862">
        <ele>477.0625</ele>
        <time>2013-05-19T13:24:02Z</time>
      </trkpt>
      <trkpt lat="43.40426" lon="2.65893">
        <ele>474.914703</ele>
        <time>2013-05-19T13:24:05Z</time>
      </trkpt>
      <trkpt lat="43.40427" lon="2.65937">
        <ele>472.427429</ele>
        <time>2013-05-19T13:24:09Z</time>
      </trkpt>
      <trkpt lat="43.40427" lon="2.65948">
        <ele>471.427124</ele>
        <time>2013-05-19T13:24:10Z</time>
      </trkpt>
      <trkpt lat="43.40426" lon="2.6596">
        <ele>470.13559</ele>
        <time>2013-05-19T13:24:11Z</time>
      </trkpt>
      <trkpt lat="43.40425" lon="2.65972">
        <ele>468.791595</ele>
        <time>2013-05-19T13:24:12Z</time>
      </trkpt>
      <trkpt lat="43.40425" lon="2.65984">
        <ele>467.507935</ele>
        <time>2013-05-19T13:24:13Z</time>
      </trkpt>
      <trkpt lat="43.40427" lon="2.65997">
        <ele>466.742126</ele>
        <time>2013-05-19T13:24:14Z</time>
      </trkpt>
      <trkpt lat="43.40431" lon="2.66009">
        <ele>466.480011</ele>
        <time>2013-05-19T13:24:15Z</time>
      </trkpt>
      <trkpt lat="43.40436" lon="2.6602">
        <ele>466.655426</ele>
        <time>2013-05-19T13:24:16Z</time>
      </trkpt>
      <trkpt lat="43.40441" lon="2.66032">
        <ele>466.578857</ele>
        <time>2013-05-19T13:24:17Z</time>
      </trkpt>
      <trkpt lat="43.40443" lon="2.66045">
        <ele>465.816895</ele>
        <time>2013-05-19T13:24:18Z</time>
      </trkpt>
      <trkpt lat="43.40446" lon="2.6607">
        <ele>463.728149</ele>
        <time>2013-05-19T13:24:20Z</time>
      </trkpt>
      <trkpt lat="43.40448" lon="2.6608">
        <ele>462.403351</ele>
        <time>2013-05-19T13:24:21Z</time>
      </trkpt>
      <trkpt lat="43.40452" lon="2.66088">
        <ele>461.516998</ele>
        <time>2013-05-19T13:24:22Z</time>
      </trkpt>
      <trkpt lat="43.40458" lon="2.66095">
        <ele>460.998016</ele>
        <time>2013-05-19T13:24:23Z</time>
      </trkpt>
      <trkpt lat="43.40464" lon="2.66101">
        <ele>460.974152</ele>
        <time>2013-05-19T13:24:24Z</time>
      </trkpt>
      <trkpt lat="43.40471" lon="2.66103">
        <ele>461.34024</ele>
        <time>2013-05-19T13:24:25Z</time>
      </trkpt>
      <trkpt lat="43.40479" lon="2.66104">
        <ele>462.018524</ele>
        <time>2013-05-19T13:24:26Z</time>
      </trkpt>
      <trkpt lat="43.40486" lon="2.66105">
        <ele>462.845398</ele>
        <time>2013-05-19T13:24:27Z</time>
      </trkpt>
      <trkpt lat="43.40528" lon="2.6611">
        <ele>465.357727</ele>
        <time>2013-05-19T13:24:32Z</time>
      </trkpt>
      <trkpt lat="43.40535" lon="2.66116">
        <ele>464.116608</ele>
        <time>2013-05-19T13:24:33Z</time>
      </trkpt>
      <trkpt lat="43.40539" lon="2.66125">
        <ele>461.844452</ele>
        <time>2013-05-19T13:24:34Z</time>
      </trkpt>
      <trkpt lat="43.40539" lon="2.66134">
        <ele>459.142426</ele>
        <time>2013-05-19T13:24:35Z</time>
      </trkpt>
      <trkpt lat="43.40538" lon="2.66143">
        <ele>460.585327</ele>
        <time>2013-05-19T13:24:36Z</time>
      </trkpt>
      <trkpt lat="43.40536" lon="2.66149">
        <ele>461.937012</ele>
        <time>2013-05-19T13:24:37Z</time>
      </trkpt>
      <trkpt lat="43.40533" lon="2.66152">
        <ele>462.679413</ele>
        <time>2013-05-19T13:24:38Z</time>
      </trkpt>
      <trkpt lat="43.4053" lon="2.66155">
        <ele>463.020264</ele>
        <time>2013-05-19T13:24:39Z</time>
      </trkpt>
      <trkpt lat="43.40509" lon="2.66177">
        <ele>465.423248</ele>
        <time>2013-05-19T13:24:48Z</time>
      </trkpt>
      <trkpt lat="43.40475" lon="2.66206">
        <ele>464.860809</ele>
        <time>2013-05-19T13:24:59Z</time>
      </trkpt>
      <trkpt lat="43.40437" lon="2.66255">
        <ele>468.801575</ele>
        <time>2013-05-19T13:25:13Z</time>
      </trkpt>
      <trkpt lat="43.40423" lon="2.66278">
        <ele>468.629883</ele>
        <time>2013-05-19T13:25:19Z</time>
      </trkpt>
      <trkpt lat="43.40422" lon="2.66283">
        <ele>468.574127</ele>
        <time>2013-05-19T13:25:20Z</time>
      </trkpt>
      <trkpt lat="43.40421" lon="2.66287">
        <ele>468.547455</ele>
        <time>2013-05-19T13:25:21Z</time>
      </trkpt>
      <trkpt lat="43.4042" lon="2.66292">
        <ele>468.708862</ele>
        <time>2013-05-19T13:25:22Z</time>
      </trkpt>
      <trkpt lat="43.40419" lon="2.66297">
        <ele>468.709442</ele>
        <time>2013-05-19T13:25:23Z</time>
      </trkpt>
      <trkpt lat="43.4042" lon="2.66303">
        <ele>468.459015</ele>
        <time>2013-05-19T13:25:24Z</time>
      </trkpt>
      <trkpt lat="43.40421" lon="2.66309">
        <ele>468.132843</ele>
        <time>2013-05-19T13:25:25Z</time>
      </trkpt>
      <trkpt lat="43.40424" lon="2.66315">
        <ele>467.780304</ele>
        <time>2013-05-19T13:25:26Z</time>
      </trkpt>
      <trkpt lat="43.40427" lon="2.66321">
        <ele>466.863739</ele>
        <time>2013-05-19T13:25:27Z</time>
      </trkpt>
      <trkpt lat="43.40432" lon="2.66325">
        <ele>465.206268</ele>
        <time>2013-05-19T13:25:28Z</time>
      </trkpt>
      <trkpt lat="43.40438" lon="2.66327">
        <ele>464.160004</ele>
        <time>2013-05-19T13:25:29Z</time>
      </trkpt>
      <trkpt lat="43.40443" lon="2.66328">
        <ele>463.362793</ele>
        <time>2013-05-19T13:25:30Z</time>
      </trkpt>
      <trkpt lat="43.40449" lon="2.66328">
        <ele>462.568268</ele>
        <time>2013-05-19T13:25:31Z</time>
      </trkpt>
      <trkpt lat="43.40455" lon="2.66329">
        <ele>461.761719</ele>
        <time>2013-05-19T13:25:32Z</time>
      </trkpt>
      <trkpt lat="43.4046" lon="2.6633">
        <ele>460.878113</ele>
        <time>2013-05-19T13:25:33Z</time>
      </trkpt>
      <trkpt lat="43.40465" lon="2.6633">
        <ele>460.175598</ele>
        <time>2013-05-19T13:25:34Z</time>
      </trkpt>
      <trkpt lat="43.40486" lon="2.66337">
        <ele>461.858307</ele>
        <time>2013-05-19T13:25:41Z</time>
      </trkpt>
      <trkpt lat="43.40491" lon="2.66339">
        <ele>462.016266</ele>
        <time>2013-05-19T13:25:42Z</time>
      </trkpt>
      <trkpt lat="43.40496" lon="2.66342">
        <ele>462.071442</ele>
        <time>2013-05-19T13:25:43Z</time>
      </trkpt>
      <trkpt lat="43.40512" lon="2.66354">
        <ele>462.278015</ele>
        <time>2013-05-19T13:25:46Z</time>
      </trkpt>
      <trkpt lat="43.40521" lon="2.66362">
        <ele>464.099518</ele>
        <time>2013-05-19T13:25:48Z</time>
      </trkpt>
      <trkpt lat="43.40533" lon="2.66382">
        <ele>465.673706</ele>
        <time>2013-05-19T13:25:54Z</time>
      </trkpt>
      <trkpt lat="43.40534" lon="2.66385">
        <ele>465.680878</ele>
        <time>2013-05-19T13:25:55Z</time>
      </trkpt>
      <trkpt lat="43.40539" lon="2.66426">
        <ele>465.461548</ele>
        <time>2013-05-19T13:26:08Z</time>
      </trkpt>
      <trkpt lat="43.40549" lon="2.66462">
        <ele>467.329315</ele>
        <time>2013-05-19T13:26:19Z</time>
      </trkpt>
      <trkpt lat="43.4055" lon="2.66467">
        <ele>467.533386</ele>
        <time>2013-05-19T13:26:21Z</time>
      </trkpt>
      <trkpt lat="43.4055" lon="2.66469">
        <ele>467.417938</ele>
        <time>2013-05-19T13:26:22Z</time>
      </trkpt>
      <trkpt lat="43.40557" lon="2.66519">
        <ele>466.650391</ele>
        <time>2013-05-19T13:26:38Z</time>
      </trkpt>
      <trkpt lat="43.40572" lon="2.6656">
        <ele>468.630951</ele>
        <time>2013-05-19T13:26:52Z</time>
      </trkpt>
      <trkpt lat="43.4059" lon="2.66597">
        <ele>470.000885</ele>
        <time>2013-05-19T13:27:08Z</time>
      </trkpt>
      <trkpt lat="43.4061" lon="2.66634">
        <ele>471.787872</ele>
        <time>2013-05-19T13:27:24Z</time>
      </trkpt>
      <trkpt lat="43.40623" lon="2.66661">
        <ele>471.700104</ele>
        <time>2013-05-19T13:27:34Z</time>
      </trkpt>
      <trkpt lat="43.40647" lon="2.66719">
        <ele>466.93634</ele>
        <time>2013-05-19T13:27:45Z</time>
      </trkpt>
      <trkpt lat="43.40666" lon="2.66764">
        <ele>461.624512</ele>
        <time>2013-05-19T13:27:50Z</time>
      </trkpt>
      <trkpt lat="43.40671" lon="2.66774">
        <ele>460.643677</ele>
        <time>2013-05-19T13:27:51Z</time>
      </trkpt>
      <trkpt lat="43.40703" lon="2.66821">
        <ele>456.561493</ele>
        <time>2013-05-19T13:27:56Z</time>
      </trkpt>
      <trkpt lat="43.4071" lon="2.66827">
        <ele>457.013855</ele>
        <time>2013-05-19T13:27:57Z</time>
      </trkpt>
      <trkpt lat="43.40762" lon="2.66873">
        <ele>456.788422</ele>
        <time>2013-05-19T13:28:03Z</time>
      </trkpt>
      <trkpt lat="43.40769" lon="2.66884">
        <ele>456.803589</ele>
        <time>2013-05-19T13:28:04Z</time>
      </trkpt>
      <trkpt lat="43.40783" lon="2.66907">
        <ele>455.963562</ele>
        <time>2013-05-19T13:28:06Z</time>
      </trkpt>
      <trkpt lat="43.40788" lon="2.66918">
        <ele>455.444</ele>
        <time>2013-05-19T13:28:07Z</time>
      </trkpt>
      <trkpt lat="43.40792" lon="2.6693">
        <ele>454.414246</ele>
        <time>2013-05-19T13:28:08Z</time>
      </trkpt>
      <trkpt lat="43.40795" lon="2.66941">
        <ele>453.685089</ele>
        <time>2013-05-19T13:28:09Z</time>
      </trkpt>
      <trkpt lat="43.40797" lon="2.66951">
        <ele>454.491638</ele>
        <time>2013-05-19T13:28:10Z</time>
      </trkpt>
      <trkpt lat="43.40798" lon="2.66961">
        <ele>454.925171</ele>
        <time>2013-05-19T13:28:11Z</time>
      </trkpt>
      <trkpt lat="43.40799" lon="2.66971">
        <ele>455.191132</ele>
        <time>2013-05-19T13:28:12Z</time>
      </trkpt>
      <trkpt lat="43.40801" lon="2.66987">
        <ele>455.350922</ele>
        <time>2013-05-19T13:28:14Z</time>
      </trkpt>
      <trkpt lat="43.40803" lon="2.66994">
        <ele>455.141602</ele>
        <time>2013-05-19T13:28:15Z</time>
      </trkpt>
      <trkpt lat="43.40806" lon="2.66999">
        <ele>454.716583</ele>
        <time>2013-05-19T13:28:16Z</time>
      </trkpt>
      <trkpt lat="43.40808" lon="2.67004">
        <ele>455.408752</ele>
        <time>2013-05-19T13:28:17Z</time>
      </trkpt>
      <trkpt lat="43.40811" lon="2.67009">
        <ele>456.023132</ele>
        <time>2013-05-19T13:28:18Z</time>
      </trkpt>
      <trkpt lat="43.40814" lon="2.67013">
        <ele>456.375</ele>
        <time>2013-05-19T13:28:19Z</time>
      </trkpt>
      <trkpt lat="43.40817" lon="2.67016">
        <ele>456.493134</ele>
        <time>2013-05-19T13:28:20Z</time>
      </trkpt>
      <trkpt lat="43.40821" lon="2.67018">
        <ele>456.31308</ele>
        <time>2013-05-19T13:28:21Z</time>
      </trkpt>
      <trkpt lat="43.40824" lon="2.6702">
        <ele>456.228119</ele>
        <time>2013-05-19T13:28:22Z</time>
      </trkpt>
      <trkpt lat="43.40863" lon="2.67042">
        <ele>456.182281</ele>
        <time>2013-05-19T13:28:34Z</time>
      </trkpt>
      <trkpt lat="43.40866" lon="2.67047">
        <ele>455.707428</ele>
        <time>2013-05-19T13:28:35Z</time>
      </trkpt>
      <trkpt lat="43.40908" lon="2.67112">
        <ele>457.129486</ele>
        <time>2013-05-19T13:28:50Z</time>
      </trkpt>
      <trkpt lat="43.40931" lon="2.67144">
        <ele>462.592957</ele>
        <time>2013-05-19T13:29:02Z</time>
      </trkpt>
      <trkpt lat="43.40932" lon="2.67145">
        <ele>463.046997</ele>
        <time>2013-05-19T13:29:03Z</time>
      </trkpt>
      <trkpt lat="43.40933" lon="2.67147">
        <ele>463.332397</ele>
        <time>2013-05-19T13:29:04Z</time>
      </trkpt>
      <trkpt lat="43.40933" lon="2.67198">
        <ele>460.906006</ele>
        <time>2013-05-19T13:29:19Z</time>
      </trkpt>
      <trkpt lat="43.40933" lon="2.6724">
        <ele>460.719421</ele>
        <time>2013-05-19T13:29:33Z</time>
      </trkpt>
      <trkpt lat="43.40935" lon="2.67258">
        <ele>460.995728</ele>
        <time>2013-05-19T13:29:40Z</time>
      </trkpt>
      <trkpt lat="43.40936" lon="2.6726">
        <ele>461.038635</ele>
        <time>2013-05-19T13:29:41Z</time>
      </trkpt>
      <trkpt lat="43.40936" lon="2.67262">
        <ele>461.107483</ele>
        <time>2013-05-19T13:29:42Z</time>
      </trkpt>
      <trkpt lat="43.40962" lon="2.67293">
        <ele>462.363495</ele>
        <time>2013-05-19T13:29:58Z</time>
      </trkpt>
      <trkpt lat="43.40974" lon="2.673">
        <ele>462.948639</ele>
        <time>2013-05-19T13:30:02Z</time>
      </trkpt>
      <trkpt lat="43.40977" lon="2.67303">
        <ele>463.102264</ele>
        <time>2013-05-19T13:30:03Z</time>
      </trkpt>
      <trkpt lat="43.41" lon="2.67327">
        <ele>464.710327</ele>
        <time>2013-05-19T13:30:09Z</time>
      </trkpt>
      <trkpt lat="43.41003" lon="2.67333">
        <ele>464.841248</ele>
        <time>2013-05-19T13:30:10Z</time>
      </trkpt>
      <trkpt lat="43.41005" lon="2.67339">
        <ele>465.314514</ele>
        <time>2013-05-19T13:30:11Z</time>
      </trkpt>
      <trkpt lat="43.41008" lon="2.67345">
        <ele>465.688171</ele>
        <time>2013-05-19T13:30:12Z</time>
      </trkpt>
      <trkpt lat="43.4101" lon="2.67352">
        <ele>466.058807</ele>
        <time>2013-05-19T13:30:13Z</time>
      </trkpt>
      <trkpt lat="43.41027" lon="2.67432">
        <ele>470.765869</ele>
        <time>2013-05-19T13:30:26Z</time>
      </trkpt>
      <trkpt lat="43.4103" lon="2.67443">
        <ele>470.670563</ele>
        <time>2013-05-19T13:30:28Z</time>
      </trkpt>
      <trkpt lat="43.41037" lon="2.67459">
        <ele>469.556305</ele>
        <time>2013-05-19T13:30:31Z</time>
      </trkpt>
      <trkpt lat="43.41042" lon="2.67468">
        <ele>468.06662</ele>
        <time>2013-05-19T13:30:33Z</time>
      </trkpt>
      <trkpt lat="43.41082" lon="2.67546">
        <ele>469.181183</ele>
        <time>2013-05-19T13:30:50Z</time>
      </trkpt>
      <trkpt lat="43.411" lon="2.67605">
        <ele>468.129791</ele>
        <time>2013-05-19T13:31:05Z</time>
      </trkpt>
      <trkpt lat="43.41102" lon="2.67631">
        <ele>468.245605</ele>
        <time>2013-05-19T13:31:13Z</time>
      </trkpt>
      <trkpt lat="43.41101" lon="2.67633">
        <ele>468.341827</ele>
        <time>2013-05-19T13:31:14Z</time>
      </trkpt>
      <trkpt lat="43.41101" lon="2.67635">
        <ele>468.478394</ele>
        <time>2013-05-19T13:31:15Z</time>
      </trkpt>
      <trkpt lat="43.41101" lon="2.67637">
        <ele>468.560822</ele>
        <time>2013-05-19T13:31:16Z</time>
      </trkpt>
      <trkpt lat="43.41102" lon="2.67639">
        <ele>468.672241</ele>
        <time>2013-05-19T13:31:17Z</time>
      </trkpt>
      <trkpt lat="43.41103" lon="2.67639">
        <ele>468.832886</ele>
        <time>2013-05-19T13:31:19Z</time>
      </trkpt>
      <trkpt lat="43.41104" lon="2.67639">
        <ele>468.846436</ele>
        <time>2013-05-19T13:31:20Z</time>
      </trkpt>
      <trkpt lat="43.41105" lon="2.67637">
        <ele>468.802734</ele>
        <time>2013-05-19T13:31:21Z</time>
      </trkpt>
      <trkpt lat="43.41104" lon="2.67636">
        <ele>468.688477</ele>
        <time>2013-05-19T13:31:22Z</time>
      </trkpt>
      <trkpt lat="43.41103" lon="2.67636">
        <ele>468.592407</ele>
        <time>2013-05-19T13:31:23Z</time>
      </trkpt>
      <trkpt lat="43.41102" lon="2.67636">
        <ele>468.530396</ele>
        <time>2013-05-19T13:31:24Z</time>
      </trkpt>
      <trkpt lat="43.41101" lon="2.67638">
        <ele>468.575836</ele>
        <time>2013-05-19T13:31:25Z</time>
      </trkpt>
      <trkpt lat="43.41101" lon="2.6764">
        <ele>468.6698</ele>
        <time>2013-05-19T13:31:26Z</time>
      </trkpt>
      <trkpt lat="43.411" lon="2.67642">
        <ele>468.737213</ele>
        <time>2013-05-19T13:31:27Z</time>
      </trkpt>
      <trkpt lat="43.41099" lon="2.67644">
        <ele>468.823303</ele>
        <time>2013-05-19T13:31:28Z</time>
      </trkpt>
      <trkpt lat="43.41098" lon="2.67647">
        <ele>468.931641</ele>
        <time>2013-05-19T13:31:29Z</time>
      </trkpt>
      <trkpt lat="43.41099" lon="2.67689">
        <ele>471.216339</ele>
        <time>2013-05-19T13:31:41Z</time>
      </trkpt>
      <trkpt lat="43.411" lon="2.67695">
        <ele>471.568695</ele>
        <time>2013-05-19T13:31:43Z</time>
      </trkpt>
      <trkpt lat="43.41101" lon="2.67697">
        <ele>471.773163</ele>
        <time>2013-05-19T13:31:44Z</time>
      </trkpt>
      <trkpt lat="43.41101" lon="2.67699">
        <ele>471.980011</ele>
        <time>2013-05-19T13:31:45Z</time>
      </trkpt>
      <trkpt lat="43.41102" lon="2.67701">
        <ele>472.123138</ele>
        <time>2013-05-19T13:31:46Z</time>
      </trkpt>
      <trkpt lat="43.41102" lon="2.67703">
        <ele>472.308746</ele>
        <time>2013-05-19T13:31:47Z</time>
      </trkpt>
      <trkpt lat="43.41103" lon="2.67705">
        <ele>472.537659</ele>
        <time>2013-05-19T13:31:48Z</time>
      </trkpt>
      <trkpt lat="43.41104" lon="2.67707">
        <ele>472.799774</ele>
        <time>2013-05-19T13:31:49Z</time>
      </trkpt>
      <trkpt lat="43.4111" lon="2.67724">
        <ele>474.740723</ele>
        <time>2013-05-19T13:31:58Z</time>
      </trkpt>
      <trkpt lat="43.41109" lon="2.67727">
        <ele>474.87204</ele>
        <time>2013-05-19T13:31:59Z</time>
      </trkpt>
      <trkpt lat="43.41109" lon="2.6773">
        <ele>474.960938</ele>
        <time>2013-05-19T13:32:00Z</time>
      </trkpt>
      <trkpt lat="43.41108" lon="2.67732">
        <ele>474.948822</ele>
        <time>2013-05-19T13:32:01Z</time>
      </trkpt>
      <trkpt lat="43.41107" lon="2.67733">
        <ele>474.802094</ele>
        <time>2013-05-19T13:32:02Z</time>
      </trkpt>
      <trkpt lat="43.41105" lon="2.67734">
        <ele>474.509644</ele>
        <time>2013-05-19T13:32:03Z</time>
      </trkpt>
      <trkpt lat="43.41103" lon="2.67735">
        <ele>474.17569</ele>
        <time>2013-05-19T13:32:04Z</time>
      </trkpt>
      <trkpt lat="43.41101" lon="2.67736">
        <ele>473.882507</ele>
        <time>2013-05-19T13:32:05Z</time>
      </trkpt>
      <trkpt lat="43.41099" lon="2.67737">
        <ele>473.587036</ele>
        <time>2013-05-19T13:32:06Z</time>
      </trkpt>
      <trkpt lat="43.41081" lon="2.67744">
        <ele>475.123108</ele>
        <time>2013-05-19T13:32:17Z</time>
      </trkpt>
      <trkpt lat="43.4108" lon="2.67746">
        <ele>475.440552</ele>
        <time>2013-05-19T13:32:18Z</time>
      </trkpt>
      <trkpt lat="43.41079" lon="2.67747">
        <ele>475.791229</ele>
        <time>2013-05-19T13:32:19Z</time>
      </trkpt>
      <trkpt lat="43.41078" lon="2.67749">
        <ele>476.1987</ele>
        <time>2013-05-19T13:32:20Z</time>
      </trkpt>
      <trkpt lat="43.41077" lon="2.6775">
        <ele>476.528046</ele>
        <time>2013-05-19T13:32:21Z</time>
      </trkpt>
      <trkpt lat="43.41075" lon="2.67752">
        <ele>477.026764</ele>
        <time>2013-05-19T13:32:22Z</time>
      </trkpt>
      <trkpt lat="43.41069" lon="2.67777">
        <ele>479.07251</ele>
        <time>2013-05-19T13:32:34Z</time>
      </trkpt>
      <trkpt lat="43.41069" lon="2.67779">
        <ele>479.015839</ele>
        <time>2013-05-19T13:32:35Z</time>
      </trkpt>
      <trkpt lat="43.41069" lon="2.67782">
        <ele>479.012268</ele>
        <time>2013-05-19T13:32:36Z</time>
      </trkpt>
      <trkpt lat="43.41069" lon="2.67784">
        <ele>479.088287</ele>
        <time>2013-05-19T13:32:37Z</time>
      </trkpt>
      <trkpt lat="43.41069" lon="2.67786">
        <ele>479.189026</ele>
        <time>2013-05-19T13:32:38Z</time>
      </trkpt>
      <trkpt lat="43.41063" lon="2.6782">
        <ele>480.47641</ele>
        <time>2013-05-19T13:32:52Z</time>
      </trkpt>
      <trkpt lat="43.41048" lon="2.67851">
        <ele>482.740967</ele>
        <time>2013-05-19T13:33:05Z</time>
      </trkpt>
      <trkpt lat="43.41044" lon="2.67889">
        <ele>485.399994</ele>
        <time>2013-05-19T13:33:18Z</time>
      </trkpt>
      <trkpt lat="43.41056" lon="2.67919">
        <ele>485.33078</ele>
        <time>2013-05-19T13:33:31Z</time>
      </trkpt>
      <trkpt lat="43.41079" lon="2.67955">
        <ele>486.461823</ele>
        <time>2013-05-19T13:33:48Z</time>
      </trkpt>
      <trkpt lat="43.41102" lon="2.6799">
        <ele>487.180817</ele>
        <time>2013-05-19T13:34:05Z</time>
      </trkpt>
      <trkpt lat="43.41119" lon="2.68026">
        <ele>490.072174</ele>
        <time>2013-05-19T13:34:21Z</time>
      </trkpt>
      <trkpt lat="43.41133" lon="2.6806">
        <ele>492.100006</ele>
        <time>2013-05-19T13:34:36Z</time>
      </trkpt>
      <trkpt lat="43.41138" lon="2.68071">
        <ele>493.649872</ele>
        <time>2013-05-19T13:34:41Z</time>
      </trkpt>
      <trkpt lat="43.41154" lon="2.68091">
        <ele>495.221252</ele>
        <time>2013-05-19T13:34:53Z</time>
      </trkpt>
      <trkpt lat="43.41154" lon="2.68094">
        <ele>495.930389</ele>
        <time>2013-05-19T13:34:54Z</time>
      </trkpt>
      <trkpt lat="43.41152" lon="2.68095">
        <ele>496.549255</ele>
        <time>2013-05-19T13:34:55Z</time>
      </trkpt>
      <trkpt lat="43.4115" lon="2.68094">
        <ele>496.770599</ele>
        <time>2013-05-19T13:34:56Z</time>
      </trkpt>
      <trkpt lat="43.41149" lon="2.68093">
        <ele>496.896057</ele>
        <time>2013-05-19T13:34:57Z</time>
      </trkpt>
      <trkpt lat="43.41129" lon="2.68075">
        <ele>497.144989</ele>
        <time>2013-05-19T13:35:10Z</time>
      </trkpt>
      <trkpt lat="43.41126" lon="2.68072">
        <ele>497.237488</ele>
        <time>2013-05-19T13:35:12Z</time>
      </trkpt>
      <trkpt lat="43.41125" lon="2.6807">
        <ele>497.398743</ele>
        <time>2013-05-19T13:35:13Z</time>
      </trkpt>
      <trkpt lat="43.41124" lon="2.68068">
        <ele>497.369995</ele>
        <time>2013-05-19T13:35:14Z</time>
      </trkpt>
      <trkpt lat="43.41102" lon="2.68039">
        <ele>497.985107</ele>
        <time>2013-05-19T13:35:31Z</time>
      </trkpt>
      <trkpt lat="43.41078" lon="2.6801">
        <ele>498.506104</ele>
        <time>2013-05-19T13:35:48Z</time>
      </trkpt>
      <trkpt lat="43.41046" lon="2.67993">
        <ele>503.113892</ele>
        <time>2013-05-19T13:36:04Z</time>
      </trkpt>
      <trkpt lat="43.41033" lon="2.67986">
        <ele>504.918182</ele>
        <time>2013-05-19T13:36:11Z</time>
      </trkpt>
      <trkpt lat="43.41031" lon="2.67984">
        <ele>504.98349</ele>
        <time>2013-05-19T13:36:12Z</time>
      </trkpt>
      <trkpt lat="43.41029" lon="2.67983">
        <ele>505.243317</ele>
        <time>2013-05-19T13:36:13Z</time>
      </trkpt>
      <trkpt lat="43.41007" lon="2.67971">
        <ele>508.658386</ele>
        <time>2013-05-19T13:36:25Z</time>
      </trkpt>
      <trkpt lat="43.41005" lon="2.6797">
        <ele>509.076843</ele>
        <time>2013-05-19T13:36:26Z</time>
      </trkpt>
      <trkpt lat="43.40982" lon="2.67955">
        <ele>512.132263</ele>
        <time>2013-05-19T13:36:39Z</time>
      </trkpt>
      <trkpt lat="43.40982" lon="2.67956">
        <ele>512.255798</ele>
        <time>2013-05-19T13:36:43Z</time>
      </trkpt>
      <trkpt lat="43.40986" lon="2.67961">
        <ele>512.077881</ele>
        <time>2013-05-19T13:36:46Z</time>
      </trkpt>
      <trkpt lat="43.40987" lon="2.67964">
        <ele>512.449646</ele>
        <time>2013-05-19T13:36:47Z</time>
      </trkpt>
      <trkpt lat="43.40987" lon="2.67967">
        <ele>513.182617</ele>
        <time>2013-05-19T13:36:48Z</time>
      </trkpt>
      <trkpt lat="43.40986" lon="2.67968">
        <ele>513.723083</ele>
        <time>2013-05-19T13:36:49Z</time>
      </trkpt>
      <trkpt lat="43.40984" lon="2.67969">
        <ele>514.211548</ele>
        <time>2013-05-19T13:36:50Z</time>
      </trkpt>
      <trkpt lat="43.40975" lon="2.67973">
        <ele>517.346191</ele>
        <time>2013-05-19T13:37:02Z</time>
      </trkpt>
      <trkpt lat="43.40971" lon="2.67974">
        <ele>518.625183</ele>
        <time>2013-05-19T13:37:30Z</time>
      </trkpt>
      <trkpt lat="43.40969" lon="2.67975">
        <ele>519.526184</ele>
        <time>2013-05-19T13:37:42Z</time>
      </trkpt>
      <trkpt lat="43.40961" lon="2.67971">
        <ele>520.768494</ele>
        <time>2013-05-19T13:37:55Z</time>
      </trkpt>
      <trkpt lat="43.40954" lon="2.67968">
        <ele>522.078003</ele>
        <time>2013-05-19T13:38:06Z</time>
      </trkpt>
      <trkpt lat="43.40952" lon="2.67968">
        <ele>522.518982</ele>
        <time>2013-05-19T13:38:10Z</time>
      </trkpt>
      <trkpt lat="43.40951" lon="2.67968">
        <ele>522.806946</ele>
        <time>2013-05-19T13:38:11Z</time>
      </trkpt>
      <trkpt lat="43.40939" lon="2.67967">
        <ele>525.92395</ele>
        <time>2013-05-19T13:38:24Z</time>
      </trkpt>
      <trkpt lat="43.40935" lon="2.67965">
        <ele>526.687378</ele>
        <time>2013-05-19T13:38:29Z</time>
      </trkpt>
      <trkpt lat="43.4093" lon="2.67957">
        <ele>526.848022</ele>
        <time>2013-05-19T13:38:42Z</time>
      </trkpt>
      <trkpt lat="43.40921" lon="2.6795">
        <ele>528.362061</ele>
        <time>2013-05-19T13:38:55Z</time>
      </trkpt>
      <trkpt lat="43.40922" lon="2.67955">
        <ele>528.915222</ele>
        <time>2013-05-19T13:38:59Z</time>
      </trkpt>
      <trkpt lat="43.40923" lon="2.67956">
        <ele>528.967529</ele>
        <time>2013-05-19T13:39:00Z</time>
      </trkpt>
      <trkpt lat="43.40923" lon="2.67958">
        <ele>529.182678</ele>
        <time>2013-05-19T13:39:01Z</time>
      </trkpt>
      <trkpt lat="43.40923" lon="2.67964">
        <ele>530.019226</ele>
        <time>2013-05-19T13:39:06Z</time>
      </trkpt>
      <trkpt lat="43.40923" lon="2.6797">
        <ele>530.935303</ele>
        <time>2013-05-19T13:39:10Z</time>
      </trkpt>
      <trkpt lat="43.40922" lon="2.67976">
        <ele>532.038696</ele>
        <time>2013-05-19T13:39:14Z</time>
      </trkpt>
      <trkpt lat="43.40924" lon="2.67992">
        <ele>534.323914</ele>
        <time>2013-05-19T13:39:26Z</time>
      </trkpt>
      <trkpt lat="43.40925" lon="2.67994">
        <ele>534.465637</ele>
        <time>2013-05-19T13:39:28Z</time>
      </trkpt>
      <trkpt lat="43.40927" lon="2.68">
        <ele>534.908142</ele>
        <time>2013-05-19T13:39:32Z</time>
      </trkpt>
      <trkpt lat="43.40929" lon="2.68002">
        <ele>534.938049</ele>
        <time>2013-05-19T13:39:34Z</time>
      </trkpt>
      <trkpt lat="43.40933" lon="2.68013">
        <ele>536.189575</ele>
        <time>2013-05-19T13:39:46Z</time>
      </trkpt>
      <trkpt lat="43.40923" lon="2.68012">
        <ele>538.573914</ele>
        <time>2013-05-19T13:39:59Z</time>
      </trkpt>
      <trkpt lat="43.4092" lon="2.68011">
        <ele>538.87439</ele>
        <time>2013-05-19T13:40:03Z</time>
      </trkpt>
      <trkpt lat="43.40918" lon="2.68011">
        <ele>539.302734</ele>
        <time>2013-05-19T13:40:05Z</time>
      </trkpt>
      <trkpt lat="43.40908" lon="2.68001">
        <ele>540.213074</ele>
        <time>2013-05-19T13:40:20Z</time>
      </trkpt>
      <trkpt lat="43.40903" lon="2.67991">
        <ele>540.487244</ele>
        <time>2013-05-19T13:40:33Z</time>
      </trkpt>
      <trkpt lat="43.40894" lon="2.6798">
        <ele>542.559937</ele>
        <time>2013-05-19T13:40:46Z</time>
      </trkpt>
      <trkpt lat="43.40889" lon="2.67969">
        <ele>543.064026</ele>
        <time>2013-05-19T13:41:00Z</time>
      </trkpt>
      <trkpt lat="43.40882" lon="2.67954">
        <ele>543.775391</ele>
        <time>2013-05-19T13:41:13Z</time>
      </trkpt>
      <trkpt lat="43.40881" lon="2.67951">
        <ele>543.784973</ele>
        <time>2013-05-19T13:41:18Z</time>
      </trkpt>
      <trkpt lat="43.40873" lon="2.67934">
        <ele>544.749634</ele>
        <time>2013-05-19T13:41:28Z</time>
      </trkpt>
      <trkpt lat="43.4087" lon="2.6793">
        <ele>545.720947</ele>
        <time>2013-05-19T13:41:37Z</time>
      </trkpt>
      <trkpt lat="43.40864" lon="2.67921">
        <ele>547.315002</ele>
        <time>2013-05-19T13:41:48Z</time>
      </trkpt>
      <trkpt lat="43.40858" lon="2.67911">
        <ele>548.772522</ele>
        <time>2013-05-19T13:41:57Z</time>
      </trkpt>
      <trkpt lat="43.40853" lon="2.67895">
        <ele>549.13623</ele>
        <time>2013-05-19T13:42:10Z</time>
      </trkpt>
      <trkpt lat="43.40849" lon="2.67886">
        <ele>549.940002</ele>
        <time>2013-05-19T13:42:20Z</time>
      </trkpt>
      <trkpt lat="43.40842" lon="2.67872">
        <ele>551.693726</ele>
        <time>2013-05-19T13:42:32Z</time>
      </trkpt>
      <trkpt lat="43.40837" lon="2.67861">
        <ele>552.575195</ele>
        <time>2013-05-19T13:42:46Z</time>
      </trkpt>
      <trkpt lat="43.40836" lon="2.67859">
        <ele>553.162598</ele>
        <time>2013-05-19T13:42:48Z</time>
      </trkpt>
      <trkpt lat="43.40831" lon="2.67845">
        <ele>555.371826</ele>
        <time>2013-05-19T13:43:02Z</time>
      </trkpt>
      <trkpt lat="43.40826" lon="2.6783">
        <ele>557.410034</ele>
        <time>2013-05-19T13:43:13Z</time>
      </trkpt>
      <trkpt lat="43.40823" lon="2.67814">
        <ele>559.094727</ele>
        <time>2013-05-19T13:43:26Z</time>
      </trkpt>
      <trkpt lat="43.40822" lon="2.67799">
        <ele>559.842102</ele>
        <time>2013-05-19T13:43:36Z</time>
      </trkpt>
      <trkpt lat="43.40822" lon="2.67798">
        <ele>559.844055</ele>
        <time>2013-05-19T13:43:37Z</time>
      </trkpt>
      <trkpt lat="43.40823" lon="2.67791">
        <ele>559.934753</ele>
        <time>2013-05-19T13:43:45Z</time>
      </trkpt>
      <trkpt lat="43.40823" lon="2.67781">
        <ele>560.572815</ele>
        <time>2013-05-19T13:43:50Z</time>
      </trkpt>
      <trkpt lat="43.40824" lon="2.6776">
        <ele>561.733887</ele>
        <time>2013-05-19T13:43:59Z</time>
      </trkpt>
      <trkpt lat="43.40828" lon="2.67738">
        <ele>562.209473</ele>
        <time>2013-05-19T13:44:08Z</time>
      </trkpt>
      <trkpt lat="43.40829" lon="2.67736">
        <ele>562.070618</ele>
        <time>2013-05-19T13:44:09Z</time>
      </trkpt>
      <trkpt lat="43.40844" lon="2.67703">
        <ele>562.476685</ele>
        <time>2013-05-19T13:44:21Z</time>
      </trkpt>
      <trkpt lat="43.40862" lon="2.67677">
        <ele>562.664429</ele>
        <time>2013-05-19T13:44:33Z</time>
      </trkpt>
      <trkpt lat="43.40868" lon="2.67643">
        <ele>564.205872</ele>
        <time>2013-05-19T13:44:47Z</time>
      </trkpt>
      <trkpt lat="43.4087" lon="2.67612">
        <ele>565.744995</ele>
        <time>2013-05-19T13:44:58Z</time>
      </trkpt>
      <trkpt lat="43.40876" lon="2.67576">
        <ele>564.003723</ele>
        <time>2013-05-19T13:45:12Z</time>
      </trkpt>
      <trkpt lat="43.40871" lon="2.67546">
        <ele>564.923889</ele>
        <time>2013-05-19T13:45:23Z</time>
      </trkpt>
      <trkpt lat="43.40862" lon="2.67535">
        <ele>565.790466</ele>
        <time>2013-05-19T13:45:31Z</time>
      </trkpt>
      <trkpt lat="43.40828" lon="2.67518">
        <ele>569.928833</ele>
        <time>2013-05-19T13:45:51Z</time>
      </trkpt>
      <trkpt lat="43.40817" lon="2.67523">
        <ele>572.084473</ele>
        <time>2013-05-19T13:46:03Z</time>
      </trkpt>
      <trkpt lat="43.40817" lon="2.67523">
        <ele>572.084473</ele>
        <time>2013-05-19T13:46:22Z</time>
      </trkpt>
      <trkpt lat="43.4082" lon="2.67528">
        <ele>573.417725</ele>
        <time>2013-05-19T13:46:31Z</time>
      </trkpt>
      <trkpt lat="43.40834" lon="2.67532">
        <ele>571.595886</ele>
        <time>2013-05-19T13:46:44Z</time>
      </trkpt>
      <trkpt lat="43.40837" lon="2.67536">
        <ele>571.529419</ele>
        <time>2013-05-19T13:46:49Z</time>
      </trkpt>
      <trkpt lat="43.40839" lon="2.67538">
        <ele>571.414001</ele>
        <time>2013-05-19T13:46:51Z</time>
      </trkpt>
      <trkpt lat="43.40837" lon="2.67558">
        <ele>574.981934</ele>
        <time>2013-05-19T13:47:05Z</time>
      </trkpt>
      <trkpt lat="43.40836" lon="2.67561">
        <ele>575.076172</ele>
        <time>2013-05-19T13:47:07Z</time>
      </trkpt>
      <trkpt lat="43.4083" lon="2.6758">
        <ele>575.835815</ele>
        <time>2013-05-19T13:47:22Z</time>
      </trkpt>
      <trkpt lat="43.40828" lon="2.67581">
        <ele>576.10437</ele>
        <time>2013-05-19T13:47:34Z</time>
      </trkpt>
      <trkpt lat="43.40829" lon="2.67581">
        <ele>576.053589</ele>
        <time>2013-05-19T13:47:57Z</time>
      </trkpt>
      <trkpt lat="43.40826" lon="2.67587">
        <ele>576.348877</ele>
        <time>2013-05-19T13:48:20Z</time>
      </trkpt>
      <trkpt lat="43.40826" lon="2.67587">
        <ele>576.429993</ele>
        <time>2013-05-19T13:49:27Z</time>
      </trkpt>
      <trkpt lat="43.40822" lon="2.6759">
        <ele>577.011475</ele>
        <time>2013-05-19T13:49:35Z</time>
      </trkpt>
      <trkpt lat="43.40808" lon="2.67599">
        <ele>577.906189</ele>
        <time>2013-05-19T13:49:47Z</time>
      </trkpt>
      <trkpt lat="43.40803" lon="2.67605">
        <ele>578.377075</ele>
        <time>2013-05-19T13:49:52Z</time>
      </trkpt>
      <trkpt lat="43.40799" lon="2.67619">
        <ele>578.78125</ele>
        <time>2013-05-19T13:49:59Z</time>
      </trkpt>
      <trkpt lat="43.4077" lon="2.67618">
        <ele>582.152832</ele>
        <time>2013-05-19T13:50:12Z</time>
      </trkpt>
      <trkpt lat="43.40746" lon="2.6761">
        <ele>582.8078</ele>
        <time>2013-05-19T13:50:23Z</time>
      </trkpt>
      <trkpt lat="43.40714" lon="2.67595">
        <ele>583.526855</ele>
        <time>2013-05-19T13:50:37Z</time>
      </trkpt>
      <trkpt lat="43.407" lon="2.67587">
        <ele>584.238342</ele>
        <time>2013-05-19T13:50:45Z</time>
      </trkpt>
      <trkpt lat="43.40697" lon="2.67584">
        <ele>584.296509</ele>
        <time>2013-05-19T13:50:58Z</time>
      </trkpt>
      <trkpt lat="43.40697" lon="2.67582">
        <ele>584.163818</ele>
        <time>2013-05-19T13:51:14Z</time>
      </trkpt>
      <trkpt lat="43.40695" lon="2.67582">
        <ele>584.322876</ele>
        <time>2013-05-19T13:51:27Z</time>
      </trkpt>
      <trkpt lat="43.40686" lon="2.67579">
        <ele>585.130615</ele>
        <time>2013-05-19T13:51:59Z</time>
      </trkpt>
      <trkpt lat="43.40664" lon="2.6757">
        <ele>587.95752</ele>
        <time>2013-05-19T13:52:10Z</time>
      </trkpt>
      <trkpt lat="43.40631" lon="2.67551">
        <ele>591.872681</ele>
        <time>2013-05-19T13:52:24Z</time>
      </trkpt>
      <trkpt lat="43.4061" lon="2.67546">
        <ele>595.218994</ele>
        <time>2013-05-19T13:52:33Z</time>
      </trkpt>
      <trkpt lat="43.40608" lon="2.67545">
        <ele>595.392029</ele>
        <time>2013-05-19T13:52:34Z</time>
      </trkpt>
      <trkpt lat="43.40595" lon="2.67538">
        <ele>597.21814</ele>
        <time>2013-05-19T13:52:41Z</time>
      </trkpt>
      <trkpt lat="43.40576" lon="2.67524">
        <ele>600.108643</ele>
        <time>2013-05-19T13:52:53Z</time>
      </trkpt>
      <trkpt lat="43.40559" lon="2.67496">
        <ele>599.135315</ele>
        <time>2013-05-19T13:53:08Z</time>
      </trkpt>
      <trkpt lat="43.40545" lon="2.67459">
        <ele>596.950439</ele>
        <time>2013-05-19T13:53:18Z</time>
      </trkpt>
      <trkpt lat="43.40534" lon="2.67394">
        <ele>591.411987</ele>
        <time>2013-05-19T13:53:26Z</time>
      </trkpt>
      <trkpt lat="43.40525" lon="2.67357">
        <ele>589.513245</ele>
        <time>2013-05-19T13:53:30Z</time>
      </trkpt>
      <trkpt lat="43.40511" lon="2.67317">
        <ele>587.928833</ele>
        <time>2013-05-19T13:53:34Z</time>
      </trkpt>
      <trkpt lat="43.40505" lon="2.67308">
        <ele>587.951111</ele>
        <time>2013-05-19T13:53:35Z</time>
      </trkpt>
      <trkpt lat="43.405" lon="2.673">
        <ele>587.418762</ele>
        <time>2013-05-19T13:53:36Z</time>
      </trkpt>
      <trkpt lat="43.40496" lon="2.67294">
        <ele>587.136841</ele>
        <time>2013-05-19T13:53:37Z</time>
      </trkpt>
      <trkpt lat="43.40493" lon="2.6729">
        <ele>587.010437</ele>
        <time>2013-05-19T13:53:38Z</time>
      </trkpt>
      <trkpt lat="43.40451" lon="2.67262">
        <ele>585.920837</ele>
        <time>2013-05-19T13:53:50Z</time>
      </trkpt>
      <trkpt lat="43.40447" lon="2.67262">
        <ele>585.270203</ele>
        <time>2013-05-19T13:53:51Z</time>
      </trkpt>
      <trkpt lat="43.40443" lon="2.67262">
        <ele>584.842224</ele>
        <time>2013-05-19T13:53:52Z</time>
      </trkpt>
      <trkpt lat="43.40439" lon="2.67263">
        <ele>584.768982</ele>
        <time>2013-05-19T13:53:53Z</time>
      </trkpt>
      <trkpt lat="43.40435" lon="2.67265">
        <ele>584.856384</ele>
        <time>2013-05-19T13:53:54Z</time>
      </trkpt>
      <trkpt lat="43.40426" lon="2.67268">
        <ele>584.749573</ele>
        <time>2013-05-19T13:53:56Z</time>
      </trkpt>
      <trkpt lat="43.40421" lon="2.6727">
        <ele>584.722534</ele>
        <time>2013-05-19T13:53:57Z</time>
      </trkpt>
      <trkpt lat="43.40416" lon="2.67272">
        <ele>585.039978</ele>
        <time>2013-05-19T13:53:58Z</time>
      </trkpt>
      <trkpt lat="43.40413" lon="2.67275">
        <ele>585.623596</ele>
        <time>2013-05-19T13:53:59Z</time>
      </trkpt>
      <trkpt lat="43.40411" lon="2.67279">
        <ele>586.28241</ele>
        <time>2013-05-19T13:54:00Z</time>
      </trkpt>
      <trkpt lat="43.40409" lon="2.67281">
        <ele>586.86969</ele>
        <time>2013-05-19T13:54:01Z</time>
      </trkpt>
      <trkpt lat="43.40407" lon="2.67284">
        <ele>587.444824</ele>
        <time>2013-05-19T13:54:02Z</time>
      </trkpt>
      <trkpt lat="43.40405" lon="2.67287">
        <ele>588.124023</ele>
        <time>2013-05-19T13:54:03Z</time>
      </trkpt>
      <trkpt lat="43.40386" lon="2.67315">
        <ele>593.459473</ele>
        <time>2013-05-19T13:54:16Z</time>
      </trkpt>
      <trkpt lat="43.40359" lon="2.67313">
        <ele>593.440186</ele>
        <time>2013-05-19T13:54:30Z</time>
      </trkpt>
      <trkpt lat="43.4033" lon="2.67285">
        <ele>592.369141</ele>
        <time>2013-05-19T13:54:46Z</time>
      </trkpt>
      <trkpt lat="43.40298" lon="2.67244">
        <ele>595.560669</ele>
        <time>2013-05-19T13:55:05Z</time>
      </trkpt>
      <trkpt lat="43.40264" lon="2.67205">
        <ele>597.209534</ele>
        <time>2013-05-19T13:55:23Z</time>
      </trkpt>
      <trkpt lat="43.40225" lon="2.67209">
        <ele>604.372253</ele>
        <time>2013-05-19T13:55:37Z</time>
      </trkpt>
      <trkpt lat="43.40204" lon="2.67238">
        <ele>608.44696</ele>
        <time>2013-05-19T13:55:50Z</time>
      </trkpt>
      <trkpt lat="43.40205" lon="2.67245">
        <ele>608.631104</ele>
        <time>2013-05-19T13:55:54Z</time>
      </trkpt>
      <trkpt lat="43.40206" lon="2.67245">
        <ele>608.584229</ele>
        <time>2013-05-19T13:55:55Z</time>
      </trkpt>
      <trkpt lat="43.40207" lon="2.67244">
        <ele>608.62677</ele>
        <time>2013-05-19T13:55:56Z</time>
      </trkpt>
      <trkpt lat="43.40208" lon="2.67242">
        <ele>608.58905</ele>
        <time>2013-05-19T13:55:57Z</time>
      </trkpt>
      <trkpt lat="43.40209" lon="2.67239">
        <ele>608.369812</ele>
        <time>2013-05-19T13:55:58Z</time>
      </trkpt>
      <trkpt lat="43.4021" lon="2.67237">
        <ele>608.14325</ele>
        <time>2013-05-19T13:55:59Z</time>
      </trkpt>
      <trkpt lat="43.40212" lon="2.67235">
        <ele>607.927979</ele>
        <time>2013-05-19T13:56:00Z</time>
      </trkpt>
      <trkpt lat="43.40214" lon="2.67235">
        <ele>607.80011</ele>
        <time>2013-05-19T13:56:01Z</time>
      </trkpt>
      <trkpt lat="43.40216" lon="2.67235">
        <ele>607.745605</ele>
        <time>2013-05-19T13:56:02Z</time>
      </trkpt>
      <trkpt lat="43.40218" lon="2.67236">
        <ele>607.781433</ele>
        <time>2013-05-19T13:56:03Z</time>
      </trkpt>
      <trkpt lat="43.40219" lon="2.67237">
        <ele>607.861084</ele>
        <time>2013-05-19T13:56:04Z</time>
      </trkpt>
      <trkpt lat="43.40221" lon="2.67239">
        <ele>607.938293</ele>
        <time>2013-05-19T13:56:05Z</time>
      </trkpt>
      <trkpt lat="43.40223" lon="2.6724">
        <ele>608.033142</ele>
        <time>2013-05-19T13:56:06Z</time>
      </trkpt>
      <trkpt lat="43.40224" lon="2.67241">
        <ele>608.104736</ele>
        <time>2013-05-19T13:56:07Z</time>
      </trkpt>
      <trkpt lat="43.40226" lon="2.67242">
        <ele>608.150085</ele>
        <time>2013-05-19T13:56:08Z</time>
      </trkpt>
      <trkpt lat="43.40228" lon="2.67242">
        <ele>608.182373</ele>
        <time>2013-05-19T13:56:09Z</time>
      </trkpt>
      <trkpt lat="43.40255" lon="2.67256">
        <ele>605.657166</ele>
        <time>2013-05-19T13:56:24Z</time>
      </trkpt>
      <trkpt lat="43.40284" lon="2.67275">
        <ele>602.936279</ele>
        <time>2013-05-19T13:56:37Z</time>
      </trkpt>
      <trkpt lat="43.40305" lon="2.67318">
        <ele>602.329773</ele>
        <time>2013-05-19T13:56:48Z</time>
      </trkpt>
      <trkpt lat="43.40322" lon="2.67384">
        <ele>607.302734</ele>
        <time>2013-05-19T13:57:03Z</time>
      </trkpt>
      <trkpt lat="43.40342" lon="2.67453">
        <ele>613.482544</ele>
        <time>2013-05-19T13:57:20Z</time>
      </trkpt>
      <trkpt lat="43.40348" lon="2.67502">
        <ele>616.725952</ele>
        <time>2013-05-19T13:57:35Z</time>
      </trkpt>
      <trkpt lat="43.40346" lon="2.67551">
        <ele>618.213684</ele>
        <time>2013-05-19T13:57:51Z</time>
      </trkpt>
      <trkpt lat="43.40354" lon="2.67589">
        <ele>620.712524</ele>
        <time>2013-05-19T13:58:05Z</time>
      </trkpt>
      <trkpt lat="43.4036" lon="2.67624">
        <ele>622.450012</ele>
        <time>2013-05-19T13:58:21Z</time>
      </trkpt>
      <trkpt lat="43.40368" lon="2.67646">
        <ele>624.099976</ele>
        <time>2013-05-19T13:58:33Z</time>
      </trkpt>
      <trkpt lat="43.40369" lon="2.67648">
        <ele>624.299988</ele>
        <time>2013-05-19T13:58:34Z</time>
      </trkpt>
      <trkpt lat="43.40383" lon="2.67677">
        <ele>627.867676</ele>
        <time>2013-05-19T13:58:50Z</time>
      </trkpt>
      <trkpt lat="43.40395" lon="2.67703">
        <ele>630.124023</ele>
        <time>2013-05-19T13:59:04Z</time>
      </trkpt>
      <trkpt lat="43.40395" lon="2.67705">
        <ele>630.205627</ele>
        <time>2013-05-19T13:59:05Z</time>
      </trkpt>
      <trkpt lat="43.40396" lon="2.67706">
        <ele>630.387878</ele>
        <time>2013-05-19T13:59:06Z</time>
      </trkpt>
      <trkpt lat="43.40397" lon="2.67708">
        <ele>630.608704</ele>
        <time>2013-05-19T13:59:07Z</time>
      </trkpt>
      <trkpt lat="43.40398" lon="2.6771">
        <ele>630.721375</ele>
        <time>2013-05-19T13:59:08Z</time>
      </trkpt>
      <trkpt lat="43.40399" lon="2.67711">
        <ele>630.947327</ele>
        <time>2013-05-19T13:59:09Z</time>
      </trkpt>
      <trkpt lat="43.404" lon="2.67713">
        <ele>631.125122</ele>
        <time>2013-05-19T13:59:10Z</time>
      </trkpt>
      <trkpt lat="43.40401" lon="2.67715">
        <ele>631.275452</ele>
        <time>2013-05-19T13:59:11Z</time>
      </trkpt>
      <trkpt lat="43.40401" lon="2.67717">
        <ele>631.320007</ele>
        <time>2013-05-19T13:59:12Z</time>
      </trkpt>
      <trkpt lat="43.40402" lon="2.67719">
        <ele>631.339355</ele>
        <time>2013-05-19T13:59:13Z</time>
      </trkpt>
      <trkpt lat="43.40402" lon="2.67721">
        <ele>631.422913</ele>
        <time>2013-05-19T13:59:14Z</time>
      </trkpt>
      <trkpt lat="43.40414" lon="2.67752">
        <ele>632.489197</ele>
        <time>2013-05-19T13:59:30Z</time>
      </trkpt>
      <trkpt lat="43.40426" lon="2.67788">
        <ele>630.516846</ele>
        <time>2013-05-19T13:59:47Z</time>
      </trkpt>
      <trkpt lat="43.40432" lon="2.678">
        <ele>630.643555</ele>
        <time>2013-05-19T13:59:54Z</time>
      </trkpt>
      <trkpt lat="43.4044" lon="2.67814">
        <ele>630.877869</ele>
        <time>2013-05-19T14:00:02Z</time>
      </trkpt>
      <trkpt lat="43.40443" lon="2.67817">
        <ele>631.062256</ele>
        <time>2013-05-19T14:00:04Z</time>
      </trkpt>
      <trkpt lat="43.40445" lon="2.67818">
        <ele>631.367859</ele>
        <time>2013-05-19T14:00:05Z</time>
      </trkpt>
      <trkpt lat="43.40467" lon="2.67838">
        <ele>634.204346</ele>
        <time>2013-05-19T14:00:20Z</time>
      </trkpt>
      <trkpt lat="43.40495" lon="2.67867">
        <ele>638.899353</ele>
        <time>2013-05-19T14:00:36Z</time>
      </trkpt>
      <trkpt lat="43.40525" lon="2.67898">
        <ele>642.680298</ele>
        <time>2013-05-19T14:00:52Z</time>
      </trkpt>
      <trkpt lat="43.40542" lon="2.67931">
        <ele>644.990479</ele>
        <time>2013-05-19T14:01:07Z</time>
      </trkpt>
      <trkpt lat="43.4055" lon="2.67963">
        <ele>647.149475</ele>
        <time>2013-05-19T14:01:21Z</time>
      </trkpt>
      <trkpt lat="43.40555" lon="2.67977">
        <ele>647.890991</ele>
        <time>2013-05-19T14:01:29Z</time>
      </trkpt>
      <trkpt lat="43.40556" lon="2.67979">
        <ele>647.988159</ele>
        <time>2013-05-19T14:01:30Z</time>
      </trkpt>
      <trkpt lat="43.40557" lon="2.6798">
        <ele>648.09491</ele>
        <time>2013-05-19T14:01:31Z</time>
      </trkpt>
      <trkpt lat="43.40567" lon="2.68002">
        <ele>650.386475</ele>
        <time>2013-05-19T14:01:45Z</time>
      </trkpt>
      <trkpt lat="43.40568" lon="2.68003">
        <ele>650.575684</ele>
        <time>2013-05-19T14:01:46Z</time>
      </trkpt>
      <trkpt lat="43.40568" lon="2.68005">
        <ele>650.821472</ele>
        <time>2013-05-19T14:01:47Z</time>
      </trkpt>
      <trkpt lat="43.40569" lon="2.68007">
        <ele>651.088745</ele>
        <time>2013-05-19T14:01:48Z</time>
      </trkpt>
      <trkpt lat="43.40569" lon="2.6801">
        <ele>651.328369</ele>
        <time>2013-05-19T14:01:49Z</time>
      </trkpt>
      <trkpt lat="43.40569" lon="2.68012">
        <ele>651.548584</ele>
        <time>2013-05-19T14:01:50Z</time>
      </trkpt>
      <trkpt lat="43.40567" lon="2.68045">
        <ele>654.615723</ele>
        <time>2013-05-19T14:02:06Z</time>
      </trkpt>
      <trkpt lat="43.40558" lon="2.68083">
        <ele>658.297607</ele>
        <time>2013-05-19T14:02:23Z</time>
      </trkpt>
      <trkpt lat="43.40545" lon="2.6812">
        <ele>661.674255</ele>
        <time>2013-05-19T14:02:41Z</time>
      </trkpt>
      <trkpt lat="43.40536" lon="2.68151">
        <ele>665.771545</ele>
        <time>2013-05-19T14:02:57Z</time>
      </trkpt>
      <trkpt lat="43.40525" lon="2.68179">
        <ele>667.97113</ele>
        <time>2013-05-19T14:03:12Z</time>
      </trkpt>
      <trkpt lat="43.40516" lon="2.68209">
        <ele>670.581543</ele>
        <time>2013-05-19T14:03:28Z</time>
      </trkpt>
      <trkpt lat="43.40514" lon="2.68244">
        <ele>674.779053</ele>
        <time>2013-05-19T14:03:44Z</time>
      </trkpt>
      <trkpt lat="43.40519" lon="2.68275">
        <ele>677.085876</ele>
        <time>2013-05-19T14:03:59Z</time>
      </trkpt>
      <trkpt lat="43.40528" lon="2.68315">
        <ele>677.641174</ele>
        <time>2013-05-19T14:04:18Z</time>
      </trkpt>
      <trkpt lat="43.40526" lon="2.68324">
        <ele>677.165833</ele>
        <time>2013-05-19T14:04:27Z</time>
      </trkpt>
      <trkpt lat="43.40526" lon="2.68324">
        <ele>677.171875</ele>
        <time>2013-05-19T14:05:09Z</time>
      </trkpt>
      <trkpt lat="43.40526" lon="2.68324">
        <ele>677.179138</ele>
        <time>2013-05-19T14:05:44Z</time>
      </trkpt>
      <trkpt lat="43.40505" lon="2.68329">
        <ele>676.415771</ele>
        <time>2013-05-19T14:05:57Z</time>
      </trkpt>
      <trkpt lat="43.40485" lon="2.68337">
        <ele>678.014282</ele>
        <time>2013-05-19T14:06:11Z</time>
      </trkpt>
      <trkpt lat="43.40484" lon="2.68339">
        <ele>678.249207</ele>
        <time>2013-05-19T14:06:13Z</time>
      </trkpt>
      <trkpt lat="43.40482" lon="2.6834">
        <ele>678.402344</ele>
        <time>2013-05-19T14:06:14Z</time>
      </trkpt>
      <trkpt lat="43.40481" lon="2.68341">
        <ele>678.559265</ele>
        <time>2013-05-19T14:06:15Z</time>
      </trkpt>
      <trkpt lat="43.4048" lon="2.68342">
        <ele>678.768066</ele>
        <time>2013-05-19T14:06:16Z</time>
      </trkpt>
      <trkpt lat="43.40479" lon="2.68343">
        <ele>678.93573</ele>
        <time>2013-05-19T14:06:17Z</time>
      </trkpt>
      <trkpt lat="43.40463" lon="2.68352">
        <ele>681.363586</ele>
        <time>2013-05-19T14:06:30Z</time>
      </trkpt>
      <trkpt lat="43.4046" lon="2.68352">
        <ele>681.697083</ele>
        <time>2013-05-19T14:06:32Z</time>
      </trkpt>
      <trkpt lat="43.40459" lon="2.68352">
        <ele>681.820007</ele>
        <time>2013-05-19T14:06:33Z</time>
      </trkpt>
      <trkpt lat="43.40453" lon="2.6835">
        <ele>682.603027</ele>
        <time>2013-05-19T14:06:38Z</time>
      </trkpt>
      <trkpt lat="43.40452" lon="2.6835">
        <ele>682.796448</ele>
        <time>2013-05-19T14:06:39Z</time>
      </trkpt>
      <trkpt lat="43.40451" lon="2.68349">
        <ele>682.911621</ele>
        <time>2013-05-19T14:06:40Z</time>
      </trkpt>
      <trkpt lat="43.40449" lon="2.68349">
        <ele>683.04187</ele>
        <time>2013-05-19T14:06:41Z</time>
      </trkpt>
      <trkpt lat="43.40448" lon="2.68348">
        <ele>683.186523</ele>
        <time>2013-05-19T14:06:42Z</time>
      </trkpt>
      <trkpt lat="43.40447" lon="2.68348">
        <ele>683.266235</ele>
        <time>2013-05-19T14:06:43Z</time>
      </trkpt>
      <trkpt lat="43.40446" lon="2.68347">
        <ele>683.319275</ele>
        <time>2013-05-19T14:06:44Z</time>
      </trkpt>
      <trkpt lat="43.40445" lon="2.68346">
        <ele>683.39447</ele>
        <time>2013-05-19T14:06:45Z</time>
      </trkpt>
      <trkpt lat="43.40444" lon="2.68346">
        <ele>683.500916</ele>
        <time>2013-05-19T14:06:46Z</time>
      </trkpt>
      <trkpt lat="43.40434" lon="2.68343">
        <ele>684.48999</ele>
        <time>2013-05-19T14:06:54Z</time>
      </trkpt>
      <trkpt lat="43.40433" lon="2.68343">
        <ele>684.604309</ele>
        <time>2013-05-19T14:06:55Z</time>
      </trkpt>
      <trkpt lat="43.40432" lon="2.68342">
        <ele>684.702026</ele>
        <time>2013-05-19T14:06:56Z</time>
      </trkpt>
      <trkpt lat="43.40431" lon="2.68341">
        <ele>684.735596</ele>
        <time>2013-05-19T14:06:57Z</time>
      </trkpt>
      <trkpt lat="43.40429" lon="2.68341">
        <ele>684.796631</ele>
        <time>2013-05-19T14:06:58Z</time>
      </trkpt>
      <trkpt lat="43.40428" lon="2.6834">
        <ele>684.875244</ele>
        <time>2013-05-19T14:06:59Z</time>
      </trkpt>
      <trkpt lat="43.40427" lon="2.6834">
        <ele>684.978821</ele>
        <time>2013-05-19T14:07:00Z</time>
      </trkpt>
      <trkpt lat="43.40426" lon="2.68339">
        <ele>685.056274</ele>
        <time>2013-05-19T14:07:01Z</time>
      </trkpt>
      <trkpt lat="43.40424" lon="2.68339">
        <ele>685.143677</ele>
        <time>2013-05-19T14:07:02Z</time>
      </trkpt>
      <trkpt lat="43.40423" lon="2.68339">
        <ele>685.322815</ele>
        <time>2013-05-19T14:07:03Z</time>
      </trkpt>
      <trkpt lat="43.40422" lon="2.68338">
        <ele>685.433716</ele>
        <time>2013-05-19T14:07:04Z</time>
      </trkpt>
      <trkpt lat="43.4042" lon="2.68337">
        <ele>685.466431</ele>
        <time>2013-05-19T14:07:05Z</time>
      </trkpt>
      <trkpt lat="43.40419" lon="2.68337">
        <ele>685.506409</ele>
        <time>2013-05-19T14:07:06Z</time>
      </trkpt>
      <trkpt lat="43.40411" lon="2.68335">
        <ele>685.71875</ele>
        <time>2013-05-19T14:07:11Z</time>
      </trkpt>
      <trkpt lat="43.4041" lon="2.68335">
        <ele>685.727478</ele>
        <time>2013-05-19T14:07:12Z</time>
      </trkpt>
      <trkpt lat="43.40408" lon="2.68335">
        <ele>685.711243</ele>
        <time>2013-05-19T14:07:13Z</time>
      </trkpt>
      <trkpt lat="43.40387" lon="2.68346">
        <ele>687.202515</ele>
        <time>2013-05-19T14:07:27Z</time>
      </trkpt>
      <trkpt lat="43.40369" lon="2.68373">
        <ele>686.697449</ele>
        <time>2013-05-19T14:07:37Z</time>
      </trkpt>
      <trkpt lat="43.40371" lon="2.68375">
        <ele>686.593994</ele>
        <time>2013-05-19T14:07:46Z</time>
      </trkpt>
      <trkpt lat="43.40371" lon="2.68375">
        <ele>686.617249</ele>
        <time>2013-05-19T14:08:39Z</time>
      </trkpt>
      <trkpt lat="43.40371" lon="2.68374">
        <ele>686.688538</ele>
        <time>2013-05-19T14:09:46Z</time>
      </trkpt>
      <trkpt lat="43.40371" lon="2.68373">
        <ele>686.716614</ele>
        <time>2013-05-19T14:12:14Z</time>
      </trkpt>
      <trkpt lat="43.40371" lon="2.68373">
        <ele>686.709961</ele>
        <time>2013-05-19T14:13:13Z</time>
      </trkpt>
      <trkpt lat="43.40371" lon="2.68373">
        <ele>686.70166</ele>
        <time>2013-05-19T14:14:00Z</time>
      </trkpt>
      <trkpt lat="43.4037" lon="2.68374">
        <ele>686.653503</ele>
        <time>2013-05-19T14:15:32Z</time>
      </trkpt>
      <trkpt lat="43.4037" lon="2.68374">
        <ele>686.636963</ele>
        <time>2013-05-19T14:17:34Z</time>
      </trkpt>
      <trkpt lat="43.4037" lon="2.68374">
        <ele>686.638367</ele>
        <time>2013-05-19T14:20:14Z</time>
      </trkpt>
      <trkpt lat="43.4037" lon="2.68374">
        <ele>686.638367</ele>
        <time>2013-05-19T14:20:46Z</time>
      </trkpt>
      <trkpt lat="43.4037" lon="2.68374">
        <ele>686.670105</ele>
        <time>2013-05-19T14:22:01Z</time>
      </trkpt>
      <trkpt lat="43.4037" lon="2.68374">
        <ele>686.658325</ele>
        <time>2013-05-19T14:24:24Z</time>
      </trkpt>
      <trkpt lat="43.40368" lon="2.68372">
        <ele>686.625488</ele>
        <time>2013-05-19T14:24:36Z</time>
      </trkpt>
      <trkpt lat="43.40368" lon="2.68371">
        <ele>686.669556</ele>
        <time>2013-05-19T14:24:52Z</time>
      </trkpt>
      <trkpt lat="43.40367" lon="2.68371">
        <ele>686.594666</ele>
        <time>2013-05-19T14:24:57Z</time>
      </trkpt>
      <trkpt lat="43.40366" lon="2.6837">
        <ele>686.457825</ele>
        <time>2013-05-19T14:24:58Z</time>
      </trkpt>
      <trkpt lat="43.40364" lon="2.6837">
        <ele>686.266724</ele>
        <time>2013-05-19T14:24:59Z</time>
      </trkpt>
      <trkpt lat="43.40362" lon="2.68369">
        <ele>686.046509</ele>
        <time>2013-05-19T14:25:00Z</time>
      </trkpt>
      <trkpt lat="43.4036" lon="2.68368">
        <ele>685.867065</ele>
        <time>2013-05-19T14:25:01Z</time>
      </trkpt>
      <trkpt lat="43.40358" lon="2.68368">
        <ele>685.613831</ele>
        <time>2013-05-19T14:25:02Z</time>
      </trkpt>
      <trkpt lat="43.40355" lon="2.6837">
        <ele>685.260742</ele>
        <time>2013-05-19T14:25:03Z</time>
      </trkpt>
      <trkpt lat="43.40352" lon="2.68372">
        <ele>684.797363</ele>
        <time>2013-05-19T14:25:04Z</time>
      </trkpt>
      <trkpt lat="43.40348" lon="2.68375">
        <ele>684.237183</ele>
        <time>2013-05-19T14:25:05Z</time>
      </trkpt>
      <trkpt lat="43.40301" lon="2.68422">
        <ele>675.882874</ele>
        <time>2013-05-19T14:25:13Z</time>
      </trkpt>
      <trkpt lat="43.40277" lon="2.68444">
        <ele>670.733337</ele>
        <time>2013-05-19T14:25:21Z</time>
      </trkpt>
      <trkpt lat="43.40267" lon="2.68445">
        <ele>668.921082</ele>
        <time>2013-05-19T14:25:24Z</time>
      </trkpt>
      <trkpt lat="43.40262" lon="2.68446">
        <ele>668.013489</ele>
        <time>2013-05-19T14:25:25Z</time>
      </trkpt>
      <trkpt lat="43.40256" lon="2.68449">
        <ele>666.969666</ele>
        <time>2013-05-19T14:25:26Z</time>
      </trkpt>
      <trkpt lat="43.40181" lon="2.68477">
        <ele>655.871277</ele>
        <time>2013-05-19T14:25:34Z</time>
      </trkpt>
      <trkpt lat="43.40162" lon="2.68484">
        <ele>653.1698</ele>
        <time>2013-05-19T14:25:36Z</time>
      </trkpt>
      <trkpt lat="43.40153" lon="2.68484">
        <ele>652.039368</ele>
        <time>2013-05-19T14:25:37Z</time>
      </trkpt>
      <trkpt lat="43.40145" lon="2.68483">
        <ele>651.114624</ele>
        <time>2013-05-19T14:25:38Z</time>
      </trkpt>
      <trkpt lat="43.40126" lon="2.68478">
        <ele>648.467468</ele>
        <time>2013-05-19T14:25:41Z</time>
      </trkpt>
      <trkpt lat="43.40118" lon="2.68474">
        <ele>647.416321</ele>
        <time>2013-05-19T14:25:42Z</time>
      </trkpt>
      <trkpt lat="43.4011" lon="2.68467">
        <ele>646.270691</ele>
        <time>2013-05-19T14:25:43Z</time>
      </trkpt>
      <trkpt lat="43.40102" lon="2.68458">
        <ele>645.312317</ele>
        <time>2013-05-19T14:25:44Z</time>
      </trkpt>
      <trkpt lat="43.40095" lon="2.68448">
        <ele>644.328247</ele>
        <time>2013-05-19T14:25:45Z</time>
      </trkpt>
      <trkpt lat="43.40079" lon="2.68428">
        <ele>642.393066</ele>
        <time>2013-05-19T14:25:47Z</time>
      </trkpt>
      <trkpt lat="43.40071" lon="2.68421">
        <ele>641.550415</ele>
        <time>2013-05-19T14:25:48Z</time>
      </trkpt>
      <trkpt lat="43.40063" lon="2.68415">
        <ele>640.782654</ele>
        <time>2013-05-19T14:25:49Z</time>
      </trkpt>
      <trkpt lat="43.40022" lon="2.68391">
        <ele>633.782104</ele>
        <time>2013-05-19T14:25:54Z</time>
      </trkpt>
      <trkpt lat="43.40015" lon="2.68386">
        <ele>632.654968</ele>
        <time>2013-05-19T14:25:55Z</time>
      </trkpt>
      <trkpt lat="43.40007" lon="2.68382">
        <ele>631.37616</ele>
        <time>2013-05-19T14:25:56Z</time>
      </trkpt>
      <trkpt lat="43.40001" lon="2.6838">
        <ele>629.967285</ele>
        <time>2013-05-19T14:25:57Z</time>
      </trkpt>
      <trkpt lat="43.39995" lon="2.6838">
        <ele>628.681824</ele>
        <time>2013-05-19T14:25:58Z</time>
      </trkpt>
      <trkpt lat="43.39989" lon="2.68379">
        <ele>627.41394</ele>
        <time>2013-05-19T14:25:59Z</time>
      </trkpt>
      <trkpt lat="43.39983" lon="2.68376">
        <ele>626.296021</ele>
        <time>2013-05-19T14:26:00Z</time>
      </trkpt>
      <trkpt lat="43.39978" lon="2.6837">
        <ele>625.454529</ele>
        <time>2013-05-19T14:26:01Z</time>
      </trkpt>
      <trkpt lat="43.39974" lon="2.68364">
        <ele>624.927185</ele>
        <time>2013-05-19T14:26:02Z</time>
      </trkpt>
      <trkpt lat="43.3997" lon="2.68356">
        <ele>624.571472</ele>
        <time>2013-05-19T14:26:03Z</time>
      </trkpt>
      <trkpt lat="43.3994" lon="2.68307">
        <ele>624.291687</ele>
        <time>2013-05-19T14:26:10Z</time>
      </trkpt>
      <trkpt lat="43.39936" lon="2.683">
        <ele>624.378174</ele>
        <time>2013-05-19T14:26:11Z</time>
      </trkpt>
      <trkpt lat="43.39901" lon="2.68257">
        <ele>624.583618</ele>
        <time>2013-05-19T14:26:21Z</time>
      </trkpt>
      <trkpt lat="43.39882" lon="2.68232">
        <ele>625.1203</ele>
        <time>2013-05-19T14:26:30Z</time>
      </trkpt>
      <trkpt lat="43.39866" lon="2.68217">
        <ele>624.272949</ele>
        <time>2013-05-19T14:26:36Z</time>
      </trkpt>
      <trkpt lat="43.39863" lon="2.68219">
        <ele>623.765015</ele>
        <time>2013-05-19T14:26:37Z</time>
      </trkpt>
      <trkpt lat="43.39849" lon="2.68228">
        <ele>621.212524</ele>
        <time>2013-05-19T14:26:40Z</time>
      </trkpt>
      <trkpt lat="43.39842" lon="2.68231">
        <ele>620.065002</ele>
        <time>2013-05-19T14:26:41Z</time>
      </trkpt>
      <trkpt lat="43.39826" lon="2.68233">
        <ele>617.672485</ele>
        <time>2013-05-19T14:26:43Z</time>
      </trkpt>
      <trkpt lat="43.39744" lon="2.68223">
        <ele>606.725037</ele>
        <time>2013-05-19T14:26:52Z</time>
      </trkpt>
      <trkpt lat="43.39712" lon="2.68217">
        <ele>601.21936</ele>
        <time>2013-05-19T14:26:56Z</time>
      </trkpt>
      <trkpt lat="43.39708" lon="2.6822">
        <ele>599.977295</ele>
        <time>2013-05-19T14:26:57Z</time>
      </trkpt>
      <trkpt lat="43.39705" lon="2.68226">
        <ele>598.669922</ele>
        <time>2013-05-19T14:26:58Z</time>
      </trkpt>
      <trkpt lat="43.39704" lon="2.68235">
        <ele>597.189331</ele>
        <time>2013-05-19T14:26:59Z</time>
      </trkpt>
      <trkpt lat="43.39704" lon="2.68246">
        <ele>595.798706</ele>
        <time>2013-05-19T14:27:00Z</time>
      </trkpt>
      <trkpt lat="43.39704" lon="2.68257">
        <ele>594.249451</ele>
        <time>2013-05-19T14:27:01Z</time>
      </trkpt>
      <trkpt lat="43.39704" lon="2.68269">
        <ele>592.490051</ele>
        <time>2013-05-19T14:27:02Z</time>
      </trkpt>
      <trkpt lat="43.39704" lon="2.68361">
        <ele>580.825256</ele>
        <time>2013-05-19T14:27:09Z</time>
      </trkpt>
      <trkpt lat="43.39705" lon="2.6837">
        <ele>580.080627</ele>
        <time>2013-05-19T14:27:10Z</time>
      </trkpt>
      <trkpt lat="43.39705" lon="2.68377">
        <ele>579.221069</ele>
        <time>2013-05-19T14:27:11Z</time>
      </trkpt>
      <trkpt lat="43.39703" lon="2.68382">
        <ele>578.313904</ele>
        <time>2013-05-19T14:27:12Z</time>
      </trkpt>
      <trkpt lat="43.397" lon="2.68386">
        <ele>577.335144</ele>
        <time>2013-05-19T14:27:13Z</time>
      </trkpt>
      <trkpt lat="43.39696" lon="2.68387">
        <ele>576.46283</ele>
        <time>2013-05-19T14:27:14Z</time>
      </trkpt>
      <trkpt lat="43.39692" lon="2.68386">
        <ele>575.452698</ele>
        <time>2013-05-19T14:27:15Z</time>
      </trkpt>
      <trkpt lat="43.39688" lon="2.68383">
        <ele>574.489685</ele>
        <time>2013-05-19T14:27:16Z</time>
      </trkpt>
      <trkpt lat="43.39683" lon="2.68378">
        <ele>573.612854</ele>
        <time>2013-05-19T14:27:17Z</time>
      </trkpt>
      <trkpt lat="43.39678" lon="2.68372">
        <ele>572.609497</ele>
        <time>2013-05-19T14:27:18Z</time>
      </trkpt>
      <trkpt lat="43.39672" lon="2.68366">
        <ele>571.343628</ele>
        <time>2013-05-19T14:27:19Z</time>
      </trkpt>
      <trkpt lat="43.39652" lon="2.68342">
        <ele>567.627014</ele>
        <time>2013-05-19T14:27:22Z</time>
      </trkpt>
      <trkpt lat="43.39645" lon="2.68332">
        <ele>567.540283</ele>
        <time>2013-05-19T14:27:23Z</time>
      </trkpt>
      <trkpt lat="43.39637" lon="2.68324">
        <ele>567.408325</ele>
        <time>2013-05-19T14:27:24Z</time>
      </trkpt>
      <trkpt lat="43.39624" lon="2.68312">
        <ele>567.329895</ele>
        <time>2013-05-19T14:27:26Z</time>
      </trkpt>
      <trkpt lat="43.39618" lon="2.68309">
        <ele>566.837891</ele>
        <time>2013-05-19T14:27:27Z</time>
      </trkpt>
      <trkpt lat="43.39612" lon="2.6831">
        <ele>565.499329</ele>
        <time>2013-05-19T14:27:28Z</time>
      </trkpt>
      <trkpt lat="43.39606" lon="2.68313">
        <ele>563.562378</ele>
        <time>2013-05-19T14:27:29Z</time>
      </trkpt>
      <trkpt lat="43.396" lon="2.68318">
        <ele>561.771362</ele>
        <time>2013-05-19T14:27:30Z</time>
      </trkpt>
      <trkpt lat="43.39581" lon="2.68328">
        <ele>557.063843</ele>
        <time>2013-05-19T14:27:33Z</time>
      </trkpt>
      <trkpt lat="43.39575" lon="2.68329">
        <ele>556.171326</ele>
        <time>2013-05-19T14:27:34Z</time>
      </trkpt>
      <trkpt lat="43.39568" lon="2.68328">
        <ele>555.808289</ele>
        <time>2013-05-19T14:27:35Z</time>
      </trkpt>
      <trkpt lat="43.39562" lon="2.68323">
        <ele>556.057678</ele>
        <time>2013-05-19T14:27:36Z</time>
      </trkpt>
      <trkpt lat="43.39556" lon="2.68317">
        <ele>555.470398</ele>
        <time>2013-05-19T14:27:37Z</time>
      </trkpt>
      <trkpt lat="43.39549" lon="2.68312">
        <ele>554.356689</ele>
        <time>2013-05-19T14:27:38Z</time>
      </trkpt>
      <trkpt lat="43.39542" lon="2.68307">
        <ele>553.075134</ele>
        <time>2013-05-19T14:27:39Z</time>
      </trkpt>
      <trkpt lat="43.39534" lon="2.68302">
        <ele>551.730591</ele>
        <time>2013-05-19T14:27:40Z</time>
      </trkpt>
      <trkpt lat="43.39511" lon="2.68283">
        <ele>548.709229</ele>
        <time>2013-05-19T14:27:43Z</time>
      </trkpt>
      <trkpt lat="43.39504" lon="2.68273">
        <ele>549.148438</ele>
        <time>2013-05-19T14:27:44Z</time>
      </trkpt>
      <trkpt lat="43.39493" lon="2.68258">
        <ele>549.713928</ele>
        <time>2013-05-19T14:27:46Z</time>
      </trkpt>
      <trkpt lat="43.39485" lon="2.68249">
        <ele>549.509583</ele>
        <time>2013-05-19T14:27:48Z</time>
      </trkpt>
      <trkpt lat="43.39482" lon="2.68248">
        <ele>548.968384</ele>
        <time>2013-05-19T14:27:49Z</time>
      </trkpt>
      <trkpt lat="43.39479" lon="2.68249">
        <ele>548.200134</ele>
        <time>2013-05-19T14:27:50Z</time>
      </trkpt>
      <trkpt lat="43.39476" lon="2.68251">
        <ele>547.308777</ele>
        <time>2013-05-19T14:27:51Z</time>
      </trkpt>
      <trkpt lat="43.3946" lon="2.68248">
        <ele>545.776794</ele>
        <time>2013-05-19T14:27:58Z</time>
      </trkpt>
      <trkpt lat="43.39459" lon="2.68248">
        <ele>545.600464</ele>
        <time>2013-05-19T14:28:10Z</time>
      </trkpt>
      <trkpt lat="43.39438" lon="2.68258">
        <ele>542.564209</ele>
        <time>2013-05-19T14:28:28Z</time>
      </trkpt>
      <trkpt lat="43.39391" lon="2.68282">
        <ele>542.038269</ele>
        <time>2013-05-19T14:28:39Z</time>
      </trkpt>
      <trkpt lat="43.39378" lon="2.68288">
        <ele>542.913269</ele>
        <time>2013-05-19T14:28:42Z</time>
      </trkpt>
      <trkpt lat="43.39374" lon="2.68289">
        <ele>543.192261</ele>
        <time>2013-05-19T14:28:43Z</time>
      </trkpt>
      <trkpt lat="43.3937" lon="2.68288">
        <ele>543.555664</ele>
        <time>2013-05-19T14:28:44Z</time>
      </trkpt>
      <trkpt lat="43.39359" lon="2.6828">
        <ele>544.101807</ele>
        <time>2013-05-19T14:28:48Z</time>
      </trkpt>
      <trkpt lat="43.39358" lon="2.68278">
        <ele>544.007263</ele>
        <time>2013-05-19T14:28:49Z</time>
      </trkpt>
      <trkpt lat="43.39357" lon="2.68276">
        <ele>543.957458</ele>
        <time>2013-05-19T14:28:50Z</time>
      </trkpt>
      <trkpt lat="43.39356" lon="2.68274">
        <ele>543.903198</ele>
        <time>2013-05-19T14:28:51Z</time>
      </trkpt>
      <trkpt lat="43.39355" lon="2.68272">
        <ele>543.815063</ele>
        <time>2013-05-19T14:28:52Z</time>
      </trkpt>
      <trkpt lat="43.39336" lon="2.68237">
        <ele>542.143738</ele>
        <time>2013-05-19T14:29:06Z</time>
      </trkpt>
      <trkpt lat="43.39311" lon="2.68192">
        <ele>543.013306</ele>
        <time>2013-05-19T14:29:23Z</time>
      </trkpt>
      <trkpt lat="43.39289" lon="2.68167">
        <ele>544.233521</ele>
        <time>2013-05-19T14:29:37Z</time>
      </trkpt>
      <trkpt lat="43.39264" lon="2.68145">
        <ele>543.412292</ele>
        <time>2013-05-19T14:29:51Z</time>
      </trkpt>
      <trkpt lat="43.39254" lon="2.68142">
        <ele>544.155273</ele>
        <time>2013-05-19T14:30:03Z</time>
      </trkpt>
      <trkpt lat="43.39257" lon="2.68143">
        <ele>544.051331</ele>
        <time>2013-05-19T14:30:27Z</time>
      </trkpt>
      <trkpt lat="43.39258" lon="2.68142">
        <ele>543.682617</ele>
        <time>2013-05-19T14:30:28Z</time>
      </trkpt>
      <trkpt lat="43.3926" lon="2.68142">
        <ele>543.396484</ele>
        <time>2013-05-19T14:30:29Z</time>
      </trkpt>
      <trkpt lat="43.39262" lon="2.68143">
        <ele>543.208374</ele>
        <time>2013-05-19T14:30:30Z</time>
      </trkpt>
      <trkpt lat="43.39265" lon="2.68144">
        <ele>543.058716</ele>
        <time>2013-05-19T14:30:31Z</time>
      </trkpt>
      <trkpt lat="43.39267" lon="2.68146">
        <ele>543.070984</ele>
        <time>2013-05-19T14:30:32Z</time>
      </trkpt>
      <trkpt lat="43.39312" lon="2.68192">
        <ele>542.986084</ele>
        <time>2013-05-19T14:30:45Z</time>
      </trkpt>
      <trkpt lat="43.39352" lon="2.68263">
        <ele>543.310059</ele>
        <time>2013-05-19T14:31:00Z</time>
      </trkpt>
      <trkpt lat="43.39352" lon="2.68265">
        <ele>543.448608</ele>
        <time>2013-05-19T14:31:01Z</time>
      </trkpt>
      <trkpt lat="43.3935" lon="2.68268">
        <ele>543.830994</ele>
        <time>2013-05-19T14:31:06Z</time>
      </trkpt>
      <trkpt lat="43.39346" lon="2.6827">
        <ele>544.195557</ele>
        <time>2013-05-19T14:31:11Z</time>
      </trkpt>
      <trkpt lat="43.39334" lon="2.68264">
        <ele>544.806152</ele>
        <time>2013-05-19T14:31:26Z</time>
      </trkpt>
      <trkpt lat="43.39326" lon="2.6826">
        <ele>546.05603</ele>
        <time>2013-05-19T14:31:39Z</time>
      </trkpt>
      <trkpt lat="43.39316" lon="2.68253">
        <ele>547.660217</ele>
        <time>2013-05-19T14:31:50Z</time>
      </trkpt>
      <trkpt lat="43.39301" lon="2.68245">
        <ele>550.408142</ele>
        <time>2013-05-19T14:32:06Z</time>
      </trkpt>
      <trkpt lat="43.39288" lon="2.68241">
        <ele>553.01001</ele>
        <time>2013-05-19T14:32:20Z</time>
      </trkpt>
      <trkpt lat="43.39276" lon="2.68239">
        <ele>555.429993</ele>
        <time>2013-05-19T14:32:32Z</time>
      </trkpt>
      <trkpt lat="43.39265" lon="2.6824">
        <ele>558.030029</ele>
        <time>2013-05-19T14:32:46Z</time>
      </trkpt>
      <trkpt lat="43.39252" lon="2.68243">
        <ele>560.955017</ele>
        <time>2013-05-19T14:33:00Z</time>
      </trkpt>
      <trkpt lat="43.39243" lon="2.6824">
        <ele>562.826782</ele>
        <time>2013-05-19T14:33:13Z</time>
      </trkpt>
      <trkpt lat="43.39242" lon="2.6824">
        <ele>563.049988</ele>
        <time>2013-05-19T14:33:14Z</time>
      </trkpt>
      <trkpt lat="43.39241" lon="2.68239">
        <ele>563.220825</ele>
        <time>2013-05-19T14:33:15Z</time>
      </trkpt>
      <trkpt lat="43.39239" lon="2.68238">
        <ele>563.394348</ele>
        <time>2013-05-19T14:33:16Z</time>
      </trkpt>
      <trkpt lat="43.39238" lon="2.68237">
        <ele>563.576111</ele>
        <time>2013-05-19T14:33:17Z</time>
      </trkpt>
      <trkpt lat="43.39216" lon="2.68227">
        <ele>567.001648</ele>
        <time>2013-05-19T14:33:32Z</time>
      </trkpt>
      <trkpt lat="43.39213" lon="2.68228">
        <ele>567.648743</ele>
        <time>2013-05-19T14:33:34Z</time>
      </trkpt>
      <trkpt lat="43.39207" lon="2.6823">
        <ele>569.053162</ele>
        <time>2013-05-19T14:33:39Z</time>
      </trkpt>
      <trkpt lat="43.39205" lon="2.68232">
        <ele>569.440247</ele>
        <time>2013-05-19T14:33:40Z</time>
      </trkpt>
      <trkpt lat="43.39204" lon="2.68233">
        <ele>569.759399</ele>
        <time>2013-05-19T14:33:41Z</time>
      </trkpt>
      <trkpt lat="43.39204" lon="2.68234">
        <ele>570.098755</ele>
        <time>2013-05-19T14:33:42Z</time>
      </trkpt>
      <trkpt lat="43.39203" lon="2.68235">
        <ele>570.377747</ele>
        <time>2013-05-19T14:33:43Z</time>
      </trkpt>
      <trkpt lat="43.39195" lon="2.68251">
        <ele>574.250183</ele>
        <time>2013-05-19T14:33:56Z</time>
      </trkpt>
      <trkpt lat="43.39195" lon="2.68264">
        <ele>576.120483</ele>
        <time>2013-05-19T14:34:05Z</time>
      </trkpt>
      <trkpt lat="43.39203" lon="2.68285">
        <ele>576.568115</ele>
        <time>2013-05-19T14:34:18Z</time>
      </trkpt>
      <trkpt lat="43.39211" lon="2.68309">
        <ele>575.671997</ele>
        <time>2013-05-19T14:34:32Z</time>
      </trkpt>
      <trkpt lat="43.39208" lon="2.68331">
        <ele>577.521912</ele>
        <time>2013-05-19T14:34:46Z</time>
      </trkpt>
      <trkpt lat="43.39203" lon="2.68348">
        <ele>579.554688</ele>
        <time>2013-05-19T14:34:57Z</time>
      </trkpt>
      <trkpt lat="43.392" lon="2.68373">
        <ele>581.76355</ele>
        <time>2013-05-19T14:35:12Z</time>
      </trkpt>
      <trkpt lat="43.39194" lon="2.68392">
        <ele>584.032471</ele>
        <time>2013-05-19T14:35:24Z</time>
      </trkpt>
      <trkpt lat="43.39185" lon="2.6841">
        <ele>587.097534</ele>
        <time>2013-05-19T14:35:39Z</time>
      </trkpt>
      <trkpt lat="43.3918" lon="2.68421">
        <ele>589.148193</ele>
        <time>2013-05-19T14:35:51Z</time>
      </trkpt>
      <trkpt lat="43.39174" lon="2.68434">
        <ele>591.413269</ele>
        <time>2013-05-19T14:36:04Z</time>
      </trkpt>
      <trkpt lat="43.3917" lon="2.6844">
        <ele>592.724854</ele>
        <time>2013-05-19T14:36:12Z</time>
      </trkpt>
      <trkpt lat="43.39163" lon="2.68445">
        <ele>594.490356</ele>
        <time>2013-05-19T14:36:23Z</time>
      </trkpt>
      <trkpt lat="43.39154" lon="2.68449">
        <ele>596.252441</ele>
        <time>2013-05-19T14:36:35Z</time>
      </trkpt>
      <trkpt lat="43.39152" lon="2.68449">
        <ele>596.529236</ele>
        <time>2013-05-19T14:36:38Z</time>
      </trkpt>
      <trkpt lat="43.39151" lon="2.68449">
        <ele>596.622009</ele>
        <time>2013-05-19T14:36:39Z</time>
      </trkpt>
      <trkpt lat="43.3914" lon="2.68446">
        <ele>597.729614</ele>
        <time>2013-05-19T14:36:53Z</time>
      </trkpt>
      <trkpt lat="43.39128" lon="2.68443">
        <ele>598.987915</ele>
        <time>2013-05-19T14:37:07Z</time>
      </trkpt>
      <trkpt lat="43.39124" lon="2.68442">
        <ele>599.519836</ele>
        <time>2013-05-19T14:37:12Z</time>
      </trkpt>
      <trkpt lat="43.39107" lon="2.68436">
        <ele>601.087524</ele>
        <time>2013-05-19T14:37:28Z</time>
      </trkpt>
      <trkpt lat="43.391" lon="2.68435">
        <ele>601.255005</ele>
        <time>2013-05-19T14:37:40Z</time>
      </trkpt>
      <trkpt lat="43.39099" lon="2.68434">
        <ele>601.277527</ele>
        <time>2013-05-19T14:37:41Z</time>
      </trkpt>
      <trkpt lat="43.39098" lon="2.68434">
        <ele>601.30249</ele>
        <time>2013-05-19T14:37:42Z</time>
      </trkpt>
      <trkpt lat="43.39096" lon="2.68434">
        <ele>601.327515</ele>
        <time>2013-05-19T14:37:43Z</time>
      </trkpt>
      <trkpt lat="43.39095" lon="2.68433">
        <ele>601.352478</ele>
        <time>2013-05-19T14:37:44Z</time>
      </trkpt>
      <trkpt lat="43.39077" lon="2.68433">
        <ele>601.757507</ele>
        <time>2013-05-19T14:37:59Z</time>
      </trkpt>
      <trkpt lat="43.39076" lon="2.68434">
        <ele>601.79248</ele>
        <time>2013-05-19T14:38:00Z</time>
      </trkpt>
      <trkpt lat="43.39064" lon="2.6844">
        <ele>601.942505</ele>
        <time>2013-05-19T14:38:12Z</time>
      </trkpt>
      <trkpt lat="43.39045" lon="2.68453">
        <ele>601.534973</ele>
        <time>2013-05-19T14:39:43Z</time>
      </trkpt>
      <trkpt lat="43.39033" lon="2.68463">
        <ele>601.255005</ele>
        <time>2013-05-19T14:39:46Z</time>
      </trkpt>
      <trkpt lat="43.39027" lon="2.68467">
        <ele>601.140015</ele>
        <time>2013-05-19T14:39:47Z</time>
      </trkpt>
      <trkpt lat="43.38999" lon="2.68488">
        <ele>599.009399</ele>
        <time>2013-05-19T14:39:52Z</time>
      </trkpt>
      <trkpt lat="43.38995" lon="2.68493">
        <ele>598.477356</ele>
        <time>2013-05-19T14:39:53Z</time>
      </trkpt>
      <trkpt lat="43.38991" lon="2.68498">
        <ele>597.849976</ele>
        <time>2013-05-19T14:39:54Z</time>
      </trkpt>
      <trkpt lat="43.38988" lon="2.68504">
        <ele>597.200562</ele>
        <time>2013-05-19T14:39:55Z</time>
      </trkpt>
      <trkpt lat="43.38986" lon="2.68509">
        <ele>596.677246</ele>
        <time>2013-05-19T14:39:56Z</time>
      </trkpt>
      <trkpt lat="43.38985" lon="2.68513">
        <ele>596.259216</ele>
        <time>2013-05-19T14:39:57Z</time>
      </trkpt>
      <trkpt lat="43.38973" lon="2.68538">
        <ele>592.47168</ele>
        <time>2013-05-19T14:40:06Z</time>
      </trkpt>
      <trkpt lat="43.38957" lon="2.68569">
        <ele>587.688477</ele>
        <time>2013-05-19T14:40:11Z</time>
      </trkpt>
      <trkpt lat="43.38955" lon="2.68577">
        <ele>586.55542</ele>
        <time>2013-05-19T14:40:12Z</time>
      </trkpt>
      <trkpt lat="43.38952" lon="2.68585">
        <ele>585.452454</ele>
        <time>2013-05-19T14:40:13Z</time>
      </trkpt>
      <trkpt lat="43.38926" lon="2.6865">
        <ele>581.08728</ele>
        <time>2013-05-19T14:40:20Z</time>
      </trkpt>
      <trkpt lat="43.38904" lon="2.6871">
        <ele>578.624512</ele>
        <time>2013-05-19T14:40:26Z</time>
      </trkpt>
      <trkpt lat="43.38903" lon="2.68719">
        <ele>577.99292</ele>
        <time>2013-05-19T14:40:27Z</time>
      </trkpt>
      <trkpt lat="43.38899" lon="2.68733">
        <ele>576.570557</ele>
        <time>2013-05-19T14:40:29Z</time>
      </trkpt>
      <trkpt lat="43.38896" lon="2.68739">
        <ele>575.816772</ele>
        <time>2013-05-19T14:40:30Z</time>
      </trkpt>
      <trkpt lat="43.38892" lon="2.68748">
        <ele>574.408508</ele>
        <time>2013-05-19T14:40:32Z</time>
      </trkpt>
      <trkpt lat="43.3889" lon="2.68754">
        <ele>573.635803</ele>
        <time>2013-05-19T14:40:33Z</time>
      </trkpt>
      <trkpt lat="43.38889" lon="2.6876">
        <ele>572.897705</ele>
        <time>2013-05-19T14:40:34Z</time>
      </trkpt>
      <trkpt lat="43.38887" lon="2.68765">
        <ele>572.151917</ele>
        <time>2013-05-19T14:40:35Z</time>
      </trkpt>
      <trkpt lat="43.38885" lon="2.68771">
        <ele>571.344971</ele>
        <time>2013-05-19T14:40:36Z</time>
      </trkpt>
      <trkpt lat="43.38883" lon="2.68776">
        <ele>570.316223</ele>
        <time>2013-05-19T14:40:37Z</time>
      </trkpt>
      <trkpt lat="43.38881" lon="2.68781">
        <ele>569.08252</ele>
        <time>2013-05-19T14:40:38Z</time>
      </trkpt>
      <trkpt lat="43.38872" lon="2.68799">
        <ele>564.85498</ele>
        <time>2013-05-19T14:40:42Z</time>
      </trkpt>
      <trkpt lat="43.38872" lon="2.68803">
        <ele>564.20752</ele>
        <time>2013-05-19T14:40:43Z</time>
      </trkpt>
      <trkpt lat="43.38871" lon="2.68807">
        <ele>563.558777</ele>
        <time>2013-05-19T14:40:44Z</time>
      </trkpt>
      <trkpt lat="43.38871" lon="2.68811">
        <ele>563.08252</ele>
        <time>2013-05-19T14:40:45Z</time>
      </trkpt>
      <trkpt lat="43.38871" lon="2.68814">
        <ele>562.809998</ele>
        <time>2013-05-19T14:40:46Z</time>
      </trkpt>
      <trkpt lat="43.38873" lon="2.68821">
        <ele>562.451233</ele>
        <time>2013-05-19T14:40:49Z</time>
      </trkpt>
      <trkpt lat="43.38874" lon="2.68823">
        <ele>562.45874</ele>
        <time>2013-05-19T14:40:50Z</time>
      </trkpt>
      <trkpt lat="43.38875" lon="2.68826">
        <ele>562.546265</ele>
        <time>2013-05-19T14:40:51Z</time>
      </trkpt>
      <trkpt lat="43.38877" lon="2.68829">
        <ele>562.693726</ele>
        <time>2013-05-19T14:40:52Z</time>
      </trkpt>
      <trkpt lat="43.38878" lon="2.68832">
        <ele>562.66626</ele>
        <time>2013-05-19T14:40:53Z</time>
      </trkpt>
      <trkpt lat="43.38879" lon="2.68834">
        <ele>562.513733</ele>
        <time>2013-05-19T14:40:54Z</time>
      </trkpt>
      <trkpt lat="43.38879" lon="2.68838">
        <ele>562.197998</ele>
        <time>2013-05-19T14:40:55Z</time>
      </trkpt>
      <trkpt lat="43.3888" lon="2.68841">
        <ele>561.711487</ele>
        <time>2013-05-19T14:40:56Z</time>
      </trkpt>
      <trkpt lat="43.38881" lon="2.68845">
        <ele>561.22699</ele>
        <time>2013-05-19T14:40:57Z</time>
      </trkpt>
      <trkpt lat="43.38882" lon="2.68848">
        <ele>560.986877</ele>
        <time>2013-05-19T14:40:58Z</time>
      </trkpt>
      <trkpt lat="43.38882" lon="2.68849">
        <ele>560.83783</ele>
        <time>2013-05-19T14:40:59Z</time>
      </trkpt>
      <trkpt lat="43.38886" lon="2.68865">
        <ele>558.575867</ele>
        <time>2013-05-19T14:41:10Z</time>
      </trkpt>
      <trkpt lat="43.38894" lon="2.68899">
        <ele>554.128967</ele>
        <time>2013-05-19T14:41:18Z</time>
      </trkpt>
      <trkpt lat="43.38895" lon="2.68901">
        <ele>553.925232</ele>
        <time>2013-05-19T14:41:19Z</time>
      </trkpt>
      <trkpt lat="43.38899" lon="2.68909">
        <ele>553.067261</ele>
        <time>2013-05-19T14:41:22Z</time>
      </trkpt>
      <trkpt lat="43.389" lon="2.68913">
        <ele>552.361023</ele>
        <time>2013-05-19T14:41:23Z</time>
      </trkpt>
      <trkpt lat="43.38901" lon="2.68916">
        <ele>551.733459</ele>
        <time>2013-05-19T14:41:24Z</time>
      </trkpt>
      <trkpt lat="43.38902" lon="2.6892">
        <ele>551.103088</ele>
        <time>2013-05-19T14:41:25Z</time>
      </trkpt>
      <trkpt lat="43.38903" lon="2.68924">
        <ele>550.433533</ele>
        <time>2013-05-19T14:41:26Z</time>
      </trkpt>
      <trkpt lat="43.38903" lon="2.68929">
        <ele>549.493408</ele>
        <time>2013-05-19T14:41:27Z</time>
      </trkpt>
      <trkpt lat="43.38904" lon="2.68933">
        <ele>548.657288</ele>
        <time>2013-05-19T14:41:28Z</time>
      </trkpt>
      <trkpt lat="43.38905" lon="2.68938">
        <ele>547.720032</ele>
        <time>2013-05-19T14:41:29Z</time>
      </trkpt>
      <trkpt lat="43.38906" lon="2.68943">
        <ele>546.85437</ele>
        <time>2013-05-19T14:41:30Z</time>
      </trkpt>
      <trkpt lat="43.38908" lon="2.68948">
        <ele>546.024048</ele>
        <time>2013-05-19T14:41:31Z</time>
      </trkpt>
      <trkpt lat="43.38909" lon="2.68959">
        <ele>543.631836</ele>
        <time>2013-05-19T14:41:33Z</time>
      </trkpt>
      <trkpt lat="43.38908" lon="2.68965">
        <ele>541.89502</ele>
        <time>2013-05-19T14:41:34Z</time>
      </trkpt>
      <trkpt lat="43.38906" lon="2.6897">
        <ele>540.109985</ele>
        <time>2013-05-19T14:41:35Z</time>
      </trkpt>
      <trkpt lat="43.38903" lon="2.68997">
        <ele>532.549988</ele>
        <time>2013-05-19T14:41:43Z</time>
      </trkpt>
      <trkpt lat="43.38915" lon="2.69016">
        <ele>530.335022</ele>
        <time>2013-05-19T14:41:53Z</time>
      </trkpt>
      <trkpt lat="43.38917" lon="2.69024">
        <ele>528.856689</ele>
        <time>2013-05-19T14:42:07Z</time>
      </trkpt>
      <trkpt lat="43.38917" lon="2.69026">
        <ele>528.382202</ele>
        <time>2013-05-19T14:42:18Z</time>
      </trkpt>
      <trkpt lat="43.38916" lon="2.69028">
        <ele>527.744751</ele>
        <time>2013-05-19T14:42:19Z</time>
      </trkpt>
      <trkpt lat="43.38891" lon="2.69062">
        <ele>514.986877</ele>
        <time>2013-05-19T14:42:30Z</time>
      </trkpt>
      <trkpt lat="43.38887" lon="2.69063">
        <ele>513.715881</ele>
        <time>2013-05-19T14:42:39Z</time>
      </trkpt>
      <trkpt lat="43.38885" lon="2.69065">
        <ele>513.01178</ele>
        <time>2013-05-19T14:42:41Z</time>
      </trkpt>
      <trkpt lat="43.38883" lon="2.6907">
        <ele>511.37326</ele>
        <time>2013-05-19T14:42:43Z</time>
      </trkpt>
      <trkpt lat="43.38882" lon="2.69072">
        <ele>510.53952</ele>
        <time>2013-05-19T14:42:56Z</time>
      </trkpt>
      <trkpt lat="43.38879" lon="2.69069">
        <ele>509.930725</ele>
        <time>2013-05-19T14:43:08Z</time>
      </trkpt>
      <trkpt lat="43.38877" lon="2.69068">
        <ele>509.544159</ele>
        <time>2013-05-19T14:43:22Z</time>
      </trkpt>
      <trkpt lat="43.38875" lon="2.69066">
        <ele>509.277374</ele>
        <time>2013-05-19T14:43:35Z</time>
      </trkpt>
      <trkpt lat="43.38874" lon="2.69065">
        <ele>509.234192</ele>
        <time>2013-05-19T14:43:36Z</time>
      </trkpt>
      <trkpt lat="43.38874" lon="2.69063">
        <ele>509.293823</ele>
        <time>2013-05-19T14:43:37Z</time>
      </trkpt>
      <trkpt lat="43.38872" lon="2.69061">
        <ele>509.358948</ele>
        <time>2013-05-19T14:43:38Z</time>
      </trkpt>
      <trkpt lat="43.38871" lon="2.69058">
        <ele>509.235504</ele>
        <time>2013-05-19T14:43:39Z</time>
      </trkpt>
      <trkpt lat="43.38869" lon="2.69056">
        <ele>508.911713</ele>
        <time>2013-05-19T14:43:40Z</time>
      </trkpt>
      <trkpt lat="43.38866" lon="2.69055">
        <ele>508.40448</ele>
        <time>2013-05-19T14:43:41Z</time>
      </trkpt>
      <trkpt lat="43.38864" lon="2.69053">
        <ele>507.943329</ele>
        <time>2013-05-19T14:43:42Z</time>
      </trkpt>
      <trkpt lat="43.38862" lon="2.6905">
        <ele>507.743073</ele>
        <time>2013-05-19T14:43:43Z</time>
      </trkpt>
      <trkpt lat="43.38859" lon="2.69048">
        <ele>507.58136</ele>
        <time>2013-05-19T14:43:44Z</time>
      </trkpt>
      <trkpt lat="43.38857" lon="2.69044">
        <ele>507.610168</ele>
        <time>2013-05-19T14:43:45Z</time>
      </trkpt>
      <trkpt lat="43.38845" lon="2.69029">
        <ele>506.954987</ele>
        <time>2013-05-19T14:43:49Z</time>
      </trkpt>
      <trkpt lat="43.38842" lon="2.69024">
        <ele>507.192169</ele>
        <time>2013-05-19T14:43:50Z</time>
      </trkpt>
      <trkpt lat="43.38823" lon="2.68987">
        <ele>511.305969</ele>
        <time>2013-05-19T14:43:56Z</time>
      </trkpt>
      <trkpt lat="43.38818" lon="2.68982">
        <ele>511.332397</ele>
        <time>2013-05-19T14:43:57Z</time>
      </trkpt>
      <trkpt lat="43.38812" lon="2.68979">
        <ele>510.657959</ele>
        <time>2013-05-19T14:43:58Z</time>
      </trkpt>
      <trkpt lat="43.38806" lon="2.68977">
        <ele>509.588104</ele>
        <time>2013-05-19T14:43:59Z</time>
      </trkpt>
      <trkpt lat="43.388" lon="2.68976">
        <ele>508.614014</ele>
        <time>2013-05-19T14:44:00Z</time>
      </trkpt>
      <trkpt lat="43.38794" lon="2.68973">
        <ele>508.143555</ele>
        <time>2013-05-19T14:44:01Z</time>
      </trkpt>
      <trkpt lat="43.38788" lon="2.6897">
        <ele>509.330109</ele>
        <time>2013-05-19T14:44:02Z</time>
      </trkpt>
      <trkpt lat="43.38782" lon="2.68967">
        <ele>510.258179</ele>
        <time>2013-05-19T14:44:03Z</time>
      </trkpt>
      <trkpt lat="43.38777" lon="2.68966">
        <ele>510.732727</ele>
        <time>2013-05-19T14:44:04Z</time>
      </trkpt>
      <trkpt lat="43.38748" lon="2.68968">
        <ele>510.479614</ele>
        <time>2013-05-19T14:44:13Z</time>
      </trkpt>
      <trkpt lat="43.38723" lon="2.68974">
        <ele>511.007843</ele>
        <time>2013-05-19T14:44:27Z</time>
      </trkpt>
      <trkpt lat="43.38691" lon="2.68988">
        <ele>510.537964</ele>
        <time>2013-05-19T14:44:39Z</time>
      </trkpt>
      <trkpt lat="43.38688" lon="2.68992">
        <ele>510.051208</ele>
        <time>2013-05-19T14:44:40Z</time>
      </trkpt>
      <trkpt lat="43.38664" lon="2.69029">
        <ele>507.097748</ele>
        <time>2013-05-19T14:44:46Z</time>
      </trkpt>
      <trkpt lat="43.38661" lon="2.69038">
        <ele>506.317169</ele>
        <time>2013-05-19T14:44:47Z</time>
      </trkpt>
      <trkpt lat="43.38638" lon="2.69131">
        <ele>499.07251</ele>
        <time>2013-05-19T14:44:56Z</time>
      </trkpt>
      <trkpt lat="43.38633" lon="2.69141">
        <ele>499.019989</ele>
        <time>2013-05-19T14:44:57Z</time>
      </trkpt>
      <trkpt lat="43.38626" lon="2.69148">
        <ele>500.178406</ele>
        <time>2013-05-19T14:44:58Z</time>
      </trkpt>
      <trkpt lat="43.38619" lon="2.69152">
        <ele>501.902954</ele>
        <time>2013-05-19T14:44:59Z</time>
      </trkpt>
      <trkpt lat="43.38611" lon="2.69156">
        <ele>503.870667</ele>
        <time>2013-05-19T14:45:00Z</time>
      </trkpt>
      <trkpt lat="43.38605" lon="2.69159">
        <ele>505.879303</ele>
        <time>2013-05-19T14:45:01Z</time>
      </trkpt>
      <trkpt lat="43.38593" lon="2.69167">
        <ele>509.325867</ele>
        <time>2013-05-19T14:45:03Z</time>
      </trkpt>
      <trkpt lat="43.38589" lon="2.69173">
        <ele>510.312683</ele>
        <time>2013-05-19T14:45:04Z</time>
      </trkpt>
      <trkpt lat="43.38587" lon="2.69181">
        <ele>510.106567</ele>
        <time>2013-05-19T14:45:05Z</time>
      </trkpt>
      <trkpt lat="43.38589" lon="2.69188">
        <ele>508.749176</ele>
        <time>2013-05-19T14:45:06Z</time>
      </trkpt>
      <trkpt lat="43.38594" lon="2.69193">
        <ele>506.756378</ele>
        <time>2013-05-19T14:45:07Z</time>
      </trkpt>
      <trkpt lat="43.38599" lon="2.69196">
        <ele>504.573242</ele>
        <time>2013-05-19T14:45:08Z</time>
      </trkpt>
      <trkpt lat="43.38604" lon="2.692">
        <ele>502.290314</ele>
        <time>2013-05-19T14:45:09Z</time>
      </trkpt>
      <trkpt lat="43.38609" lon="2.69205">
        <ele>500.189545</ele>
        <time>2013-05-19T14:45:10Z</time>
      </trkpt>
      <trkpt lat="43.38613" lon="2.69212">
        <ele>499.37851</ele>
        <time>2013-05-19T14:45:11Z</time>
      </trkpt>
      <trkpt lat="43.38616" lon="2.6922">
        <ele>498.882904</ele>
        <time>2013-05-19T14:45:12Z</time>
      </trkpt>
      <trkpt lat="43.38619" lon="2.69228">
        <ele>498.798309</ele>
        <time>2013-05-19T14:45:13Z</time>
      </trkpt>
      <trkpt lat="43.38621" lon="2.69236">
        <ele>498.855988</ele>
        <time>2013-05-19T14:45:14Z</time>
      </trkpt>
      <trkpt lat="43.38641" lon="2.69313">
        <ele>494.714203</ele>
        <time>2013-05-19T14:45:22Z</time>
      </trkpt>
      <trkpt lat="43.38644" lon="2.69335">
        <ele>493.769958</ele>
        <time>2013-05-19T14:45:24Z</time>
      </trkpt>
      <trkpt lat="43.38644" lon="2.69346">
        <ele>493.245544</ele>
        <time>2013-05-19T14:45:25Z</time>
      </trkpt>
      <trkpt lat="43.38643" lon="2.69357">
        <ele>493.101563</ele>
        <time>2013-05-19T14:45:26Z</time>
      </trkpt>
      <trkpt lat="43.38642" lon="2.69368">
        <ele>493.298187</ele>
        <time>2013-05-19T14:45:27Z</time>
      </trkpt>
      <trkpt lat="43.3864" lon="2.69379">
        <ele>493.978668</ele>
        <time>2013-05-19T14:45:28Z</time>
      </trkpt>
      <trkpt lat="43.38637" lon="2.6939">
        <ele>494.886322</ele>
        <time>2013-05-19T14:45:29Z</time>
      </trkpt>
      <trkpt lat="43.38628" lon="2.69422">
        <ele>491.447205</ele>
        <time>2013-05-19T14:45:32Z</time>
      </trkpt>
      <trkpt lat="43.3862" lon="2.69441">
        <ele>490.722961</ele>
        <time>2013-05-19T14:45:34Z</time>
      </trkpt>
      <trkpt lat="43.38615" lon="2.6945">
        <ele>490.904449</ele>
        <time>2013-05-19T14:45:35Z</time>
      </trkpt>
      <trkpt lat="43.38609" lon="2.69458">
        <ele>493.091492</ele>
        <time>2013-05-19T14:45:36Z</time>
      </trkpt>
      <trkpt lat="43.38598" lon="2.69474">
        <ele>498.541382</ele>
        <time>2013-05-19T14:45:38Z</time>
      </trkpt>
      <trkpt lat="43.38595" lon="2.69483">
        <ele>499.462219</ele>
        <time>2013-05-19T14:45:39Z</time>
      </trkpt>
      <trkpt lat="43.38596" lon="2.69493">
        <ele>498.378876</ele>
        <time>2013-05-19T14:45:40Z</time>
      </trkpt>
      <trkpt lat="43.386" lon="2.69501">
        <ele>495.679443</ele>
        <time>2013-05-19T14:45:41Z</time>
      </trkpt>
      <trkpt lat="43.38604" lon="2.69509">
        <ele>492.57132</ele>
        <time>2013-05-19T14:45:42Z</time>
      </trkpt>
      <trkpt lat="43.38608" lon="2.69517">
        <ele>490.719177</ele>
        <time>2013-05-19T14:45:43Z</time>
      </trkpt>
      <trkpt lat="43.38611" lon="2.69526">
        <ele>490.061707</ele>
        <time>2013-05-19T14:45:44Z</time>
      </trkpt>
      <trkpt lat="43.38613" lon="2.69535">
        <ele>489.976105</ele>
        <time>2013-05-19T14:45:45Z</time>
      </trkpt>
      <trkpt lat="43.38614" lon="2.69543">
        <ele>490.553314</ele>
        <time>2013-05-19T14:45:46Z</time>
      </trkpt>
      <trkpt lat="43.38614" lon="2.69551">
        <ele>491.563293</ele>
        <time>2013-05-19T14:45:47Z</time>
      </trkpt>
      <trkpt lat="43.38614" lon="2.69559">
        <ele>492.827515</ele>
        <time>2013-05-19T14:45:48Z</time>
      </trkpt>
      <trkpt lat="43.38613" lon="2.69566">
        <ele>494.073242</ele>
        <time>2013-05-19T14:45:49Z</time>
      </trkpt>
      <trkpt lat="43.38614" lon="2.69573">
        <ele>494.719238</ele>
        <time>2013-05-19T14:45:50Z</time>
      </trkpt>
      <trkpt lat="43.38616" lon="2.69579">
        <ele>495.464813</ele>
        <time>2013-05-19T14:45:51Z</time>
      </trkpt>
      <trkpt lat="43.3862" lon="2.69584">
        <ele>495.386353</ele>
        <time>2013-05-19T14:45:52Z</time>
      </trkpt>
      <trkpt lat="43.38625" lon="2.69587">
        <ele>494.955383</ele>
        <time>2013-05-19T14:45:53Z</time>
      </trkpt>
      <trkpt lat="43.38635" lon="2.69595">
        <ele>494.053223</ele>
        <time>2013-05-19T14:45:55Z</time>
      </trkpt>
      <trkpt lat="43.38715" lon="2.69651">
        <ele>490.386536</ele>
        <time>2013-05-19T14:46:09Z</time>
      </trkpt>
      <trkpt lat="43.38738" lon="2.6967">
        <ele>488.768982</ele>
        <time>2013-05-19T14:46:13Z</time>
      </trkpt>
      <trkpt lat="43.38744" lon="2.69676">
        <ele>488.546967</ele>
        <time>2013-05-19T14:46:14Z</time>
      </trkpt>
      <trkpt lat="43.38815" lon="2.69758">
        <ele>482.357758</ele>
        <time>2013-05-19T14:46:29Z</time>
      </trkpt>
      <trkpt lat="43.38882" lon="2.69842">
        <ele>475.993622</ele>
        <time>2013-05-19T14:46:43Z</time>
      </trkpt>
      <trkpt lat="43.3889" lon="2.69855">
        <ele>475.402893</ele>
        <time>2013-05-19T14:46:45Z</time>
      </trkpt>
      <trkpt lat="43.38898" lon="2.69868">
        <ele>474.389679</ele>
        <time>2013-05-19T14:46:47Z</time>
      </trkpt>
      <trkpt lat="43.38929" lon="2.69938">
        <ele>473.807495</ele>
        <time>2013-05-19T14:46:56Z</time>
      </trkpt>
      <trkpt lat="43.38932" lon="2.69946">
        <ele>473.942505</ele>
        <time>2013-05-19T14:46:57Z</time>
      </trkpt>
      <trkpt lat="43.38943" lon="2.69969">
        <ele>473.205109</ele>
        <time>2013-05-19T14:47:00Z</time>
      </trkpt>
      <trkpt lat="43.3897" lon="2.70017">
        <ele>469.9953</ele>
        <time>2013-05-19T14:47:06Z</time>
      </trkpt>
      <trkpt lat="43.38978" lon="2.70037">
        <ele>468.940002</ele>
        <time>2013-05-19T14:47:08Z</time>
      </trkpt>
      <trkpt lat="43.39012" lon="2.70149">
        <ele>461.179871</ele>
        <time>2013-05-19T14:47:18Z</time>
      </trkpt>
      <trkpt lat="43.39013" lon="2.70162">
        <ele>461.087799</ele>
        <time>2013-05-19T14:47:19Z</time>
      </trkpt>
      <trkpt lat="43.39015" lon="2.70229">
        <ele>460.470184</ele>
        <time>2013-05-19T14:47:24Z</time>
      </trkpt>
      <trkpt lat="43.39005" lon="2.70394">
        <ele>458.279297</ele>
        <time>2013-05-19T14:47:36Z</time>
      </trkpt>
      <trkpt lat="43.39002" lon="2.70407">
        <ele>457.654633</ele>
        <time>2013-05-19T14:47:37Z</time>
      </trkpt>
      <trkpt lat="43.38998" lon="2.7042">
        <ele>457.456299</ele>
        <time>2013-05-19T14:47:38Z</time>
      </trkpt>
      <trkpt lat="43.38961" lon="2.7049">
        <ele>451.415314</ele>
        <time>2013-05-19T14:47:44Z</time>
      </trkpt>
      <trkpt lat="43.38956" lon="2.70503">
        <ele>449.390137</ele>
        <time>2013-05-19T14:47:45Z</time>
      </trkpt>
      <trkpt lat="43.38953" lon="2.70514">
        <ele>447.137421</ele>
        <time>2013-05-19T14:47:46Z</time>
      </trkpt>
      <trkpt lat="43.38948" lon="2.70534">
        <ele>443.232544</ele>
        <time>2013-05-19T14:47:48Z</time>
      </trkpt>
      <trkpt lat="43.38944" lon="2.70542">
        <ele>441.6875</ele>
        <time>2013-05-19T14:47:49Z</time>
      </trkpt>
      <trkpt lat="43.38938" lon="2.70549">
        <ele>440.723724</ele>
        <time>2013-05-19T14:47:50Z</time>
      </trkpt>
      <trkpt lat="43.38931" lon="2.70553">
        <ele>440.445068</ele>
        <time>2013-05-19T14:47:51Z</time>
      </trkpt>
      <trkpt lat="43.38924" lon="2.70555">
        <ele>440.334778</ele>
        <time>2013-05-19T14:47:52Z</time>
      </trkpt>
      <trkpt lat="43.38916" lon="2.70556">
        <ele>438.667816</ele>
        <time>2013-05-19T14:47:53Z</time>
      </trkpt>
      <trkpt lat="43.38909" lon="2.70555">
        <ele>437.486359</ele>
        <time>2013-05-19T14:47:54Z</time>
      </trkpt>
      <trkpt lat="43.38902" lon="2.70553">
        <ele>436.809235</ele>
        <time>2013-05-19T14:47:55Z</time>
      </trkpt>
      <trkpt lat="43.38895" lon="2.70548">
        <ele>436.453613</ele>
        <time>2013-05-19T14:47:56Z</time>
      </trkpt>
      <trkpt lat="43.38889" lon="2.70542">
        <ele>436.435089</ele>
        <time>2013-05-19T14:47:57Z</time>
      </trkpt>
      <trkpt lat="43.38884" lon="2.70535">
        <ele>436.800415</ele>
        <time>2013-05-19T14:47:58Z</time>
      </trkpt>
      <trkpt lat="43.3888" lon="2.70526">
        <ele>437.494507</ele>
        <time>2013-05-19T14:47:59Z</time>
      </trkpt>
      <trkpt lat="43.38877" lon="2.70517">
        <ele>437.526398</ele>
        <time>2013-05-19T14:48:00Z</time>
      </trkpt>
      <trkpt lat="43.38839" lon="2.70414">
        <ele>434.567902</ele>
        <time>2013-05-19T14:48:12Z</time>
      </trkpt>
      <trkpt lat="43.38792" lon="2.70313">
        <ele>429.142334</ele>
        <time>2013-05-19T14:48:25Z</time>
      </trkpt>
      <trkpt lat="43.38788" lon="2.70305">
        <ele>430.179901</ele>
        <time>2013-05-19T14:48:26Z</time>
      </trkpt>
      <trkpt lat="43.38783" lon="2.703">
        <ele>430.295288</ele>
        <time>2013-05-19T14:48:27Z</time>
      </trkpt>
      <trkpt lat="43.38777" lon="2.70298">
        <ele>428.968964</ele>
        <time>2013-05-19T14:48:28Z</time>
      </trkpt>
      <trkpt lat="43.3877" lon="2.70298">
        <ele>426.778473</ele>
        <time>2013-05-19T14:48:29Z</time>
      </trkpt>
      <trkpt lat="43.38764" lon="2.70297">
        <ele>425.152588</ele>
        <time>2013-05-19T14:48:30Z</time>
      </trkpt>
      <trkpt lat="43.38758" lon="2.70295">
        <ele>424.275635</ele>
        <time>2013-05-19T14:48:31Z</time>
      </trkpt>
      <trkpt lat="43.38754" lon="2.70291">
        <ele>424.17514</ele>
        <time>2013-05-19T14:48:32Z</time>
      </trkpt>
      <trkpt lat="43.38749" lon="2.70286">
        <ele>424.219086</ele>
        <time>2013-05-19T14:48:33Z</time>
      </trkpt>
      <trkpt lat="43.38745" lon="2.70282">
        <ele>424.338959</ele>
        <time>2013-05-19T14:48:34Z</time>
      </trkpt>
      <trkpt lat="43.38737" lon="2.70278">
        <ele>423.175781</ele>
        <time>2013-05-19T14:48:36Z</time>
      </trkpt>
      <trkpt lat="43.38735" lon="2.7029">
        <ele>419.103394</ele>
        <time>2013-05-19T14:48:40Z</time>
      </trkpt>
      <trkpt lat="43.38765" lon="2.70319">
        <ele>418.612946</ele>
        <time>2013-05-19T14:48:53Z</time>
      </trkpt>
      <trkpt lat="43.38773" lon="2.70323">
        <ele>420.313599</ele>
        <time>2013-05-19T14:48:55Z</time>
      </trkpt>
      <trkpt lat="43.38776" lon="2.70326">
        <ele>420.823364</ele>
        <time>2013-05-19T14:48:56Z</time>
      </trkpt>
      <trkpt lat="43.38779" lon="2.70331">
        <ele>420.765289</ele>
        <time>2013-05-19T14:48:57Z</time>
      </trkpt>
      <trkpt lat="43.3878" lon="2.70337">
        <ele>420.003693</ele>
        <time>2013-05-19T14:48:58Z</time>
      </trkpt>
      <trkpt lat="43.38781" lon="2.70344">
        <ele>419.003693</ele>
        <time>2013-05-19T14:48:59Z</time>
      </trkpt>
      <trkpt lat="43.38804" lon="2.7044">
        <ele>414.325592</ele>
        <time>2013-05-19T14:49:10Z</time>
      </trkpt>
      <trkpt lat="43.38807" lon="2.70449">
        <ele>414.309021</ele>
        <time>2013-05-19T14:49:11Z</time>
      </trkpt>
      <trkpt lat="43.3881" lon="2.70458">
        <ele>414.361877</ele>
        <time>2013-05-19T14:49:12Z</time>
      </trkpt>
      <trkpt lat="43.38813" lon="2.70467">
        <ele>414.002045</ele>
        <time>2013-05-19T14:49:13Z</time>
      </trkpt>
      <trkpt lat="43.38833" lon="2.70602">
        <ele>402.264191</ele>
        <time>2013-05-19T14:49:26Z</time>
      </trkpt>
      <trkpt lat="43.38837" lon="2.70613">
        <ele>401.6922</ele>
        <time>2013-05-19T14:49:27Z</time>
      </trkpt>
      <trkpt lat="43.38843" lon="2.70621">
        <ele>401.197021</ele>
        <time>2013-05-19T14:49:28Z</time>
      </trkpt>
      <trkpt lat="43.3885" lon="2.70627">
        <ele>400.388062</ele>
        <time>2013-05-19T14:49:29Z</time>
      </trkpt>
      <trkpt lat="43.38858" lon="2.70631">
        <ele>400.168457</ele>
        <time>2013-05-19T14:49:30Z</time>
      </trkpt>
      <trkpt lat="43.38867" lon="2.70634">
        <ele>400.099945</ele>
        <time>2013-05-19T14:49:31Z</time>
      </trkpt>
      <trkpt lat="43.38875" lon="2.70638">
        <ele>399.677399</ele>
        <time>2013-05-19T14:49:32Z</time>
      </trkpt>
      <trkpt lat="43.38892" lon="2.70647">
        <ele>397.476593</ele>
        <time>2013-05-19T14:49:34Z</time>
      </trkpt>
      <trkpt lat="43.38908" lon="2.70656">
        <ele>394.920013</ele>
        <time>2013-05-19T14:49:36Z</time>
      </trkpt>
      <trkpt lat="43.38916" lon="2.70659">
        <ele>394.797485</ele>
        <time>2013-05-19T14:49:37Z</time>
      </trkpt>
      <trkpt lat="43.38924" lon="2.7066">
        <ele>395.422302</ele>
        <time>2013-05-19T14:49:38Z</time>
      </trkpt>
      <trkpt lat="43.38933" lon="2.70659">
        <ele>394.855103</ele>
        <time>2013-05-19T14:49:39Z</time>
      </trkpt>
      <trkpt lat="43.3894" lon="2.70657">
        <ele>395.130859</ele>
        <time>2013-05-19T14:49:40Z</time>
      </trkpt>
      <trkpt lat="43.38945" lon="2.70654">
        <ele>395.60318</ele>
        <time>2013-05-19T14:49:41Z</time>
      </trkpt>
      <trkpt lat="43.38949" lon="2.70653">
        <ele>395.611328</ele>
        <time>2013-05-19T14:49:42Z</time>
      </trkpt>
      <trkpt lat="43.38954" lon="2.70653">
        <ele>395.105927</ele>
        <time>2013-05-19T14:49:43Z</time>
      </trkpt>
      <trkpt lat="43.38957" lon="2.70655">
        <ele>394.03302</ele>
        <time>2013-05-19T14:49:44Z</time>
      </trkpt>
      <trkpt lat="43.38959" lon="2.70656">
        <ele>393.134827</ele>
        <time>2013-05-19T14:49:45Z</time>
      </trkpt>
      <trkpt lat="43.38959" lon="2.70657">
        <ele>392.737946</ele>
        <time>2013-05-19T14:49:57Z</time>
      </trkpt>
      <trkpt lat="43.38956" lon="2.70659">
        <ele>391.915833</ele>
        <time>2013-05-19T14:50:11Z</time>
      </trkpt>
      <trkpt lat="43.38954" lon="2.7066">
        <ele>391.741028</ele>
        <time>2013-05-19T14:50:12Z</time>
      </trkpt>
      <trkpt lat="43.38952" lon="2.70661">
        <ele>391.498322</ele>
        <time>2013-05-19T14:50:13Z</time>
      </trkpt>
      <trkpt lat="43.38941" lon="2.70665">
        <ele>390.874664</ele>
        <time>2013-05-19T14:50:16Z</time>
      </trkpt>
      <trkpt lat="43.3892" lon="2.70668">
        <ele>391.185364</ele>
        <time>2013-05-19T14:50:20Z</time>
      </trkpt>
      <trkpt lat="43.38914" lon="2.70668">
        <ele>390.290314</ele>
        <time>2013-05-19T14:50:21Z</time>
      </trkpt>
      <trkpt lat="43.38908" lon="2.70667">
        <ele>389.762756</ele>
        <time>2013-05-19T14:50:22Z</time>
      </trkpt>
      <trkpt lat="43.38903" lon="2.70666">
        <ele>389.713806</ele>
        <time>2013-05-19T14:50:23Z</time>
      </trkpt>
      <trkpt lat="43.38897" lon="2.70663">
        <ele>389.888153</ele>
        <time>2013-05-19T14:50:24Z</time>
      </trkpt>
      <trkpt lat="43.38884" lon="2.70659">
        <ele>389.985168</ele>
        <time>2013-05-19T14:50:26Z</time>
      </trkpt>
      <trkpt lat="43.38824" lon="2.70653">
        <ele>383.599884</ele>
        <time>2013-05-19T14:50:34Z</time>
      </trkpt>
      <trkpt lat="43.38808" lon="2.70654">
        <ele>378.881439</ele>
        <time>2013-05-19T14:50:36Z</time>
      </trkpt>
      <trkpt lat="43.38803" lon="2.70653">
        <ele>377.772949</ele>
        <time>2013-05-19T14:50:37Z</time>
      </trkpt>
      <trkpt lat="43.38798" lon="2.70648">
        <ele>377.522003</ele>
        <time>2013-05-19T14:50:38Z</time>
      </trkpt>
      <trkpt lat="43.38795" lon="2.70642">
        <ele>377.915192</ele>
        <time>2013-05-19T14:50:39Z</time>
      </trkpt>
      <trkpt lat="43.38793" lon="2.70635">
        <ele>378.654449</ele>
        <time>2013-05-19T14:50:40Z</time>
      </trkpt>
      <trkpt lat="43.38792" lon="2.70626">
        <ele>379.583496</ele>
        <time>2013-05-19T14:50:41Z</time>
      </trkpt>
      <trkpt lat="43.38791" lon="2.70618">
        <ele>380.300354</ele>
        <time>2013-05-19T14:50:42Z</time>
      </trkpt>
      <trkpt lat="43.38789" lon="2.706">
        <ele>382.01001</ele>
        <time>2013-05-19T14:50:44Z</time>
      </trkpt>
      <trkpt lat="43.3879" lon="2.70562">
        <ele>387.159607</ele>
        <time>2013-05-19T14:50:48Z</time>
      </trkpt>
      <trkpt lat="43.38789" lon="2.70552">
        <ele>387.76239</ele>
        <time>2013-05-19T14:50:49Z</time>
      </trkpt>
      <trkpt lat="43.38786" lon="2.70543">
        <ele>387.81543</ele>
        <time>2013-05-19T14:50:50Z</time>
      </trkpt>
      <trkpt lat="43.3877" lon="2.70481">
        <ele>389.290497</ele>
        <time>2013-05-19T14:50:57Z</time>
      </trkpt>
      <trkpt lat="43.38766" lon="2.70474">
        <ele>388.684509</ele>
        <time>2013-05-19T14:50:58Z</time>
      </trkpt>
      <trkpt lat="43.38763" lon="2.70467">
        <ele>388.289429</ele>
        <time>2013-05-19T14:50:59Z</time>
      </trkpt>
      <trkpt lat="43.38759" lon="2.70461">
        <ele>387.493134</ele>
        <time>2013-05-19T14:51:00Z</time>
      </trkpt>
      <trkpt lat="43.38754" lon="2.70458">
        <ele>385.471985</ele>
        <time>2013-05-19T14:51:01Z</time>
      </trkpt>
      <trkpt lat="43.38749" lon="2.70459">
        <ele>382.573822</ele>
        <time>2013-05-19T14:51:02Z</time>
      </trkpt>
      <trkpt lat="43.38745" lon="2.70464">
        <ele>379.614807</ele>
        <time>2013-05-19T14:51:03Z</time>
      </trkpt>
      <trkpt lat="43.38743" lon="2.7047">
        <ele>379.497559</ele>
        <time>2013-05-19T14:51:04Z</time>
      </trkpt>
      <trkpt lat="43.38742" lon="2.70478">
        <ele>378.474701</ele>
        <time>2013-05-19T14:51:05Z</time>
      </trkpt>
      <trkpt lat="43.38741" lon="2.70486">
        <ele>377.5383</ele>
        <time>2013-05-19T14:51:06Z</time>
      </trkpt>
      <trkpt lat="43.38739" lon="2.70493">
        <ele>377.113159</ele>
        <time>2013-05-19T14:51:07Z</time>
      </trkpt>
      <trkpt lat="43.38737" lon="2.70501">
        <ele>376.644043</ele>
        <time>2013-05-19T14:51:08Z</time>
      </trkpt>
      <trkpt lat="43.38735" lon="2.70508">
        <ele>376.415314</ele>
        <time>2013-05-19T14:51:09Z</time>
      </trkpt>
      <trkpt lat="43.38733" lon="2.70516">
        <ele>376.272186</ele>
        <time>2013-05-19T14:51:10Z</time>
      </trkpt>
      <trkpt lat="43.3873" lon="2.70523">
        <ele>376.004944</ele>
        <time>2013-05-19T14:51:11Z</time>
      </trkpt>
      <trkpt lat="43.38717" lon="2.70557">
        <ele>375.320007</ele>
        <time>2013-05-19T14:51:16Z</time>
      </trkpt>
      <trkpt lat="43.38713" lon="2.70563">
        <ele>375.60611</ele>
        <time>2013-05-19T14:51:17Z</time>
      </trkpt>
      <trkpt lat="43.38708" lon="2.70568">
        <ele>375.917877</ele>
        <time>2013-05-19T14:51:18Z</time>
      </trkpt>
      <trkpt lat="43.38703" lon="2.70573">
        <ele>376.546967</ele>
        <time>2013-05-19T14:51:19Z</time>
      </trkpt>
      <trkpt lat="43.38697" lon="2.70578">
        <ele>377.211639</ele>
        <time>2013-05-19T14:51:20Z</time>
      </trkpt>
      <trkpt lat="43.3864" lon="2.70649">
        <ele>376.056671</ele>
        <time>2013-05-19T14:51:31Z</time>
      </trkpt>
      <trkpt lat="43.38628" lon="2.70675">
        <ele>373.036011</ele>
        <time>2013-05-19T14:51:34Z</time>
      </trkpt>
      <trkpt lat="43.38616" lon="2.70713">
        <ele>367.044739</ele>
        <time>2013-05-19T14:51:38Z</time>
      </trkpt>
      <trkpt lat="43.38611" lon="2.7072">
        <ele>367.187195</ele>
        <time>2013-05-19T14:51:39Z</time>
      </trkpt>
      <trkpt lat="43.38605" lon="2.70726">
        <ele>367.417664</ele>
        <time>2013-05-19T14:51:40Z</time>
      </trkpt>
      <trkpt lat="43.38598" lon="2.70729">
        <ele>367.813141</ele>
        <time>2013-05-19T14:51:41Z</time>
      </trkpt>
      <trkpt lat="43.38591" lon="2.70731">
        <ele>368.418243</ele>
        <time>2013-05-19T14:51:42Z</time>
      </trkpt>
      <trkpt lat="43.38585" lon="2.70732">
        <ele>369.457001</ele>
        <time>2013-05-19T14:51:43Z</time>
      </trkpt>
      <trkpt lat="43.38579" lon="2.70733">
        <ele>370.559052</ele>
        <time>2013-05-19T14:51:44Z</time>
      </trkpt>
      <trkpt lat="43.38567" lon="2.70736">
        <ele>371.928925</ele>
        <time>2013-05-19T14:51:46Z</time>
      </trkpt>
      <trkpt lat="43.38562" lon="2.70738">
        <ele>372.329163</ele>
        <time>2013-05-19T14:51:47Z</time>
      </trkpt>
      <trkpt lat="43.38557" lon="2.7074">
        <ele>372.808594</ele>
        <time>2013-05-19T14:51:48Z</time>
      </trkpt>
      <trkpt lat="43.3854" lon="2.70747">
        <ele>373.294891</ele>
        <time>2013-05-19T14:51:52Z</time>
      </trkpt>
      <trkpt lat="43.38536" lon="2.7075">
        <ele>372.364777</ele>
        <time>2013-05-19T14:51:53Z</time>
      </trkpt>
      <trkpt lat="43.38525" lon="2.7076">
        <ele>369.582581</ele>
        <time>2013-05-19T14:51:56Z</time>
      </trkpt>
      <trkpt lat="43.38522" lon="2.70763">
        <ele>368.763397</ele>
        <time>2013-05-19T14:51:57Z</time>
      </trkpt>
      <trkpt lat="43.38518" lon="2.70765">
        <ele>368.480804</ele>
        <time>2013-05-19T14:51:58Z</time>
      </trkpt>
      <trkpt lat="43.38514" lon="2.70767">
        <ele>368.736755</ele>
        <time>2013-05-19T14:51:59Z</time>
      </trkpt>
      <trkpt lat="43.38509" lon="2.70768">
        <ele>368.901611</ele>
        <time>2013-05-19T14:52:00Z</time>
      </trkpt>
      <trkpt lat="43.38505" lon="2.7077">
        <ele>368.977661</ele>
        <time>2013-05-19T14:52:01Z</time>
      </trkpt>
      <trkpt lat="43.385" lon="2.70772">
        <ele>369.50293</ele>
        <time>2013-05-19T14:52:02Z</time>
      </trkpt>
      <trkpt lat="43.38488" lon="2.70776">
        <ele>370.586884</ele>
        <time>2013-05-19T14:52:04Z</time>
      </trkpt>
      <trkpt lat="43.38482" lon="2.70781">
        <ele>369.725189</ele>
        <time>2013-05-19T14:52:05Z</time>
      </trkpt>
      <trkpt lat="43.38477" lon="2.70788">
        <ele>368.113892</ele>
        <time>2013-05-19T14:52:06Z</time>
      </trkpt>
      <trkpt lat="43.38458" lon="2.70816">
        <ele>366.845062</ele>
        <time>2013-05-19T14:52:10Z</time>
      </trkpt>
      <trkpt lat="43.38453" lon="2.70824">
        <ele>366.193939</ele>
        <time>2013-05-19T14:52:11Z</time>
      </trkpt>
      <trkpt lat="43.38429" lon="2.7087">
        <ele>362.834137</ele>
        <time>2013-05-19T14:52:17Z</time>
      </trkpt>
      <trkpt lat="43.38424" lon="2.70876">
        <ele>362.395294</ele>
        <time>2013-05-19T14:52:18Z</time>
      </trkpt>
      <trkpt lat="43.38355" lon="2.70932">
        <ele>357.016479</ele>
        <time>2013-05-19T14:52:29Z</time>
      </trkpt>
      <trkpt lat="43.38348" lon="2.70935">
        <ele>357.171692</ele>
        <time>2013-05-19T14:52:30Z</time>
      </trkpt>
      <trkpt lat="43.38327" lon="2.70942">
        <ele>359.952881</ele>
        <time>2013-05-19T14:52:33Z</time>
      </trkpt>
      <trkpt lat="43.38314" lon="2.70948">
        <ele>360.764954</ele>
        <time>2013-05-19T14:52:35Z</time>
      </trkpt>
      <trkpt lat="43.38292" lon="2.70964">
        <ele>359.864899</ele>
        <time>2013-05-19T14:52:39Z</time>
      </trkpt>
      <trkpt lat="43.38283" lon="2.70972">
        <ele>359.056885</ele>
        <time>2013-05-19T14:52:41Z</time>
      </trkpt>
      <trkpt lat="43.38248" lon="2.7101">
        <ele>358.71225</ele>
        <time>2013-05-19T14:52:48Z</time>
      </trkpt>
      <trkpt lat="43.38244" lon="2.71018">
        <ele>359.125519</ele>
        <time>2013-05-19T14:52:49Z</time>
      </trkpt>
      <trkpt lat="43.3824" lon="2.71025">
        <ele>359.285309</ele>
        <time>2013-05-19T14:52:50Z</time>
      </trkpt>
      <trkpt lat="43.38234" lon="2.71039">
        <ele>358.928558</ele>
        <time>2013-05-19T14:52:52Z</time>
      </trkpt>
      <trkpt lat="43.38232" lon="2.71047">
        <ele>358.46875</ele>
        <time>2013-05-19T14:52:53Z</time>
      </trkpt>
      <trkpt lat="43.38229" lon="2.71055">
        <ele>358.503174</ele>
        <time>2013-05-19T14:52:54Z</time>
      </trkpt>
      <trkpt lat="43.38228" lon="2.71062">
        <ele>358.986542</ele>
        <time>2013-05-19T14:52:55Z</time>
      </trkpt>
      <trkpt lat="43.38226" lon="2.71071">
        <ele>359.205627</ele>
        <time>2013-05-19T14:52:56Z</time>
      </trkpt>
      <trkpt lat="43.38225" lon="2.71079">
        <ele>359.580139</ele>
        <time>2013-05-19T14:52:57Z</time>
      </trkpt>
      <trkpt lat="43.38223" lon="2.71088">
        <ele>360.135803</ele>
        <time>2013-05-19T14:52:58Z</time>
      </trkpt>
      <trkpt lat="43.38222" lon="2.71096">
        <ele>360.214478</ele>
        <time>2013-05-19T14:52:59Z</time>
      </trkpt>
      <trkpt lat="43.38222" lon="2.71103">
        <ele>359.818085</ele>
        <time>2013-05-19T14:53:00Z</time>
      </trkpt>
      <trkpt lat="43.38221" lon="2.7111">
        <ele>359.797974</ele>
        <time>2013-05-19T14:53:01Z</time>
      </trkpt>
      <trkpt lat="43.3822" lon="2.71118">
        <ele>360.081604</ele>
        <time>2013-05-19T14:53:02Z</time>
      </trkpt>
      <trkpt lat="43.3822" lon="2.71124">
        <ele>359.832489</ele>
        <time>2013-05-19T14:53:03Z</time>
      </trkpt>
      <trkpt lat="43.38221" lon="2.7113">
        <ele>359.413849</ele>
        <time>2013-05-19T14:53:04Z</time>
      </trkpt>
      <trkpt lat="43.38221" lon="2.71136">
        <ele>359.268677</ele>
        <time>2013-05-19T14:53:05Z</time>
      </trkpt>
      <trkpt lat="43.38225" lon="2.71172">
        <ele>355.112274</ele>
        <time>2013-05-19T14:53:11Z</time>
      </trkpt>
      <trkpt lat="43.38226" lon="2.71177">
        <ele>353.366882</ele>
        <time>2013-05-19T14:53:12Z</time>
      </trkpt>
      <trkpt lat="43.38226" lon="2.71183">
        <ele>351.26413</ele>
        <time>2013-05-19T14:53:13Z</time>
      </trkpt>
      <trkpt lat="43.38226" lon="2.71189">
        <ele>349.875</ele>
        <time>2013-05-19T14:53:14Z</time>
      </trkpt>
      <trkpt lat="43.38224" lon="2.71195">
        <ele>349.148987</ele>
        <time>2013-05-19T14:53:15Z</time>
      </trkpt>
      <trkpt lat="43.38223" lon="2.712">
        <ele>348.697998</ele>
        <time>2013-05-19T14:53:16Z</time>
      </trkpt>
      <trkpt lat="43.3822" lon="2.71205">
        <ele>348.738312</ele>
        <time>2013-05-19T14:53:17Z</time>
      </trkpt>
      <trkpt lat="43.38218" lon="2.71209">
        <ele>349.260742</ele>
        <time>2013-05-19T14:53:18Z</time>
      </trkpt>
      <trkpt lat="43.38214" lon="2.71213">
        <ele>350.209198</ele>
        <time>2013-05-19T14:53:19Z</time>
      </trkpt>
      <trkpt lat="43.38211" lon="2.71216">
        <ele>351.385742</ele>
        <time>2013-05-19T14:53:20Z</time>
      </trkpt>
      <trkpt lat="43.382" lon="2.71225">
        <ele>353.817505</ele>
        <time>2013-05-19T14:53:23Z</time>
      </trkpt>
      <trkpt lat="43.38181" lon="2.71239">
        <ele>351.604584</ele>
        <time>2013-05-19T14:53:29Z</time>
      </trkpt>
      <trkpt lat="43.38181" lon="2.7124">
        <ele>351.104431</ele>
        <time>2013-05-19T14:53:39Z</time>
      </trkpt>
      <trkpt lat="43.38181" lon="2.7124">
        <ele>351.191406</ele>
        <time>2013-05-19T14:54:01Z</time>
      </trkpt>
      <trkpt lat="43.38185" lon="2.71239">
        <ele>351.237366</ele>
        <time>2013-05-19T14:54:24Z</time>
      </trkpt>
      <trkpt lat="43.38189" lon="2.71234">
        <ele>352.464447</ele>
        <time>2013-05-19T14:54:40Z</time>
      </trkpt>
      <trkpt lat="43.38194" lon="2.71229">
        <ele>353.683044</ele>
        <time>2013-05-19T14:55:03Z</time>
      </trkpt>
      <trkpt lat="43.38199" lon="2.71224">
        <ele>354.383514</ele>
        <time>2013-05-19T14:55:48Z</time>
      </trkpt>
      <trkpt lat="43.38219" lon="2.71207">
        <ele>349.258148</ele>
        <time>2013-05-19T14:56:00Z</time>
      </trkpt>
      <trkpt lat="43.38225" lon="2.71164">
        <ele>355.495514</ele>
        <time>2013-05-19T14:56:13Z</time>
      </trkpt>
      <trkpt lat="43.38221" lon="2.71105">
        <ele>360.531555</ele>
        <time>2013-05-19T14:56:27Z</time>
      </trkpt>
      <trkpt lat="43.38225" lon="2.71061">
        <ele>360.740051</ele>
        <time>2013-05-19T14:56:35Z</time>
      </trkpt>
      <trkpt lat="43.38242" lon="2.71016">
        <ele>361.059998</ele>
        <time>2013-05-19T14:56:44Z</time>
      </trkpt>
      <trkpt lat="43.38244" lon="2.71012">
        <ele>360.719971</ele>
        <time>2013-05-19T14:56:45Z</time>
      </trkpt>
      <trkpt lat="43.38247" lon="2.71008">
        <ele>360.4375</ele>
        <time>2013-05-19T14:56:46Z</time>
      </trkpt>
      <trkpt lat="43.3825" lon="2.71005">
        <ele>359.797028</ele>
        <time>2013-05-19T14:56:47Z</time>
      </trkpt>
      <trkpt lat="43.38253" lon="2.71002">
        <ele>359.257172</ele>
        <time>2013-05-19T14:56:48Z</time>
      </trkpt>
      <trkpt lat="43.38255" lon="2.70999">
        <ele>358.897614</ele>
        <time>2013-05-19T14:56:49Z</time>
      </trkpt>
      <trkpt lat="43.38258" lon="2.70996">
        <ele>358.649994</ele>
        <time>2013-05-19T14:56:50Z</time>
      </trkpt>
      <trkpt lat="43.3826" lon="2.70993">
        <ele>358.299164</ele>
        <time>2013-05-19T14:56:51Z</time>
      </trkpt>
      <trkpt lat="43.38263" lon="2.70991">
        <ele>357.923431</ele>
        <time>2013-05-19T14:56:52Z</time>
      </trkpt>
      <trkpt lat="43.38266" lon="2.70988">
        <ele>357.676025</ele>
        <time>2013-05-19T14:56:53Z</time>
      </trkpt>
      <trkpt lat="43.38269" lon="2.70985">
        <ele>357.988647</ele>
        <time>2013-05-19T14:56:54Z</time>
      </trkpt>
      <trkpt lat="43.38271" lon="2.70982">
        <ele>358.469086</ele>
        <time>2013-05-19T14:56:55Z</time>
      </trkpt>
      <trkpt lat="43.38296" lon="2.70958">
        <ele>361.873413</ele>
        <time>2013-05-19T14:57:07Z</time>
      </trkpt>
      <trkpt lat="43.38323" lon="2.70941">
        <ele>361.535248</ele>
        <time>2013-05-19T14:57:17Z</time>
      </trkpt>
      <trkpt lat="43.38374" lon="2.70916">
        <ele>361.758698</ele>
        <time>2013-05-19T14:57:33Z</time>
      </trkpt>
      <trkpt lat="43.38401" lon="2.70897">
        <ele>362.788757</ele>
        <time>2013-05-19T14:57:46Z</time>
      </trkpt>
      <trkpt lat="43.38416" lon="2.70883">
        <ele>362.946259</ele>
        <time>2013-05-19T14:57:55Z</time>
      </trkpt>
      <trkpt lat="43.38418" lon="2.70882">
        <ele>362.596985</ele>
        <time>2013-05-19T14:58:07Z</time>
      </trkpt>
      <trkpt lat="43.3842" lon="2.7088">
        <ele>362.676819</ele>
        <time>2013-05-19T14:58:11Z</time>
      </trkpt>
      <trkpt lat="43.38421" lon="2.70878">
        <ele>362.984009</ele>
        <time>2013-05-19T14:58:12Z</time>
      </trkpt>
      <trkpt lat="43.38422" lon="2.70876">
        <ele>363.110504</ele>
        <time>2013-05-19T14:58:13Z</time>
      </trkpt>
      <trkpt lat="43.38445" lon="2.70842">
        <ele>364.521973</ele>
        <time>2013-05-19T14:58:29Z</time>
      </trkpt>
      <trkpt lat="43.38467" lon="2.70798">
        <ele>368.36557</ele>
        <time>2013-05-19T14:58:46Z</time>
      </trkpt>
      <trkpt lat="43.38479" lon="2.70782">
        <ele>370.234619</ele>
        <time>2013-05-19T14:58:54Z</time>
      </trkpt>
      <trkpt lat="43.38492" lon="2.70775">
        <ele>369.98764</ele>
        <time>2013-05-19T14:59:02Z</time>
      </trkpt>
      <trkpt lat="43.38494" lon="2.70775">
        <ele>369.403503</ele>
        <time>2013-05-19T14:59:03Z</time>
      </trkpt>
      <trkpt lat="43.38496" lon="2.70775">
        <ele>368.943237</ele>
        <time>2013-05-19T14:59:04Z</time>
      </trkpt>
      <trkpt lat="43.3851" lon="2.70771">
        <ele>367.338684</ele>
        <time>2013-05-19T14:59:12Z</time>
      </trkpt>
      <trkpt lat="43.38517" lon="2.70768">
        <ele>367.315735</ele>
        <time>2013-05-19T14:59:17Z</time>
      </trkpt>
      <trkpt lat="43.38534" lon="2.70754">
        <ele>371.159454</ele>
        <time>2013-05-19T14:59:29Z</time>
      </trkpt>
      <trkpt lat="43.38562" lon="2.70736">
        <ele>373.272552</ele>
        <time>2013-05-19T14:59:42Z</time>
      </trkpt>
      <trkpt lat="43.38606" lon="2.70725">
        <ele>367.288208</ele>
        <time>2013-05-19T14:59:55Z</time>
      </trkpt>
      <trkpt lat="43.38627" lon="2.70683">
        <ele>371.334686</ele>
        <time>2013-05-19T15:00:06Z</time>
      </trkpt>
      <trkpt lat="43.38642" lon="2.70644">
        <ele>376.448181</ele>
        <time>2013-05-19T15:00:20Z</time>
      </trkpt>
      <trkpt lat="43.38659" lon="2.70618">
        <ele>377.665771</ele>
        <time>2013-05-19T15:00:33Z</time>
      </trkpt>
      <trkpt lat="43.38686" lon="2.70587">
        <ele>378.769531</ele>
        <time>2013-05-19T15:00:49Z</time>
      </trkpt>
      <trkpt lat="43.38704" lon="2.70572">
        <ele>376.927124</ele>
        <time>2013-05-19T15:01:00Z</time>
      </trkpt>
      <trkpt lat="43.38724" lon="2.7054">
        <ele>375.612671</ele>
        <time>2013-05-19T15:01:15Z</time>
      </trkpt>
      <trkpt lat="43.38735" lon="2.70504">
        <ele>377.090363</ele>
        <time>2013-05-19T15:01:28Z</time>
      </trkpt>
      <trkpt lat="43.38736" lon="2.70501">
        <ele>377.276367</ele>
        <time>2013-05-19T15:01:29Z</time>
      </trkpt>
      <trkpt lat="43.38736" lon="2.70498">
        <ele>377.71817</ele>
        <time>2013-05-19T15:01:30Z</time>
      </trkpt>
      <trkpt lat="43.38753" lon="2.70459">
        <ele>384.403473</ele>
        <time>2013-05-19T15:01:44Z</time>
      </trkpt>
      <trkpt lat="43.38755" lon="2.7046">
        <ele>385.336884</ele>
        <time>2013-05-19T15:01:45Z</time>
      </trkpt>
      <trkpt lat="43.38773" lon="2.70484">
        <ele>389.946594</ele>
        <time>2013-05-19T15:01:57Z</time>
      </trkpt>
      <trkpt lat="43.38775" lon="2.70485">
        <ele>390.781647</ele>
        <time>2013-05-19T15:02:15Z</time>
      </trkpt>
      <trkpt lat="43.38775" lon="2.70487">
        <ele>390.625244</ele>
        <time>2013-05-19T15:02:16Z</time>
      </trkpt>
      <trkpt lat="43.38775" lon="2.70489">
        <ele>390.312714</ele>
        <time>2013-05-19T15:02:17Z</time>
      </trkpt>
      <trkpt lat="43.38775" lon="2.70491">
        <ele>390.075592</ele>
        <time>2013-05-19T15:02:18Z</time>
      </trkpt>
      <trkpt lat="43.38786" lon="2.70536">
        <ele>388.487976</ele>
        <time>2013-05-19T15:02:30Z</time>
      </trkpt>
      <trkpt lat="43.38789" lon="2.70602">
        <ele>381.670013</ele>
        <time>2013-05-19T15:02:45Z</time>
      </trkpt>
      <trkpt lat="43.38802" lon="2.70651">
        <ele>378.257599</ele>
        <time>2013-05-19T15:02:59Z</time>
      </trkpt>
      <trkpt lat="43.38808" lon="2.70655">
        <ele>378.772003</ele>
        <time>2013-05-19T15:03:03Z</time>
      </trkpt>
      <trkpt lat="43.3881" lon="2.70655">
        <ele>379.238556</ele>
        <time>2013-05-19T15:03:05Z</time>
      </trkpt>
      <trkpt lat="43.38813" lon="2.70653">
        <ele>380.468292</ele>
        <time>2013-05-19T15:03:07Z</time>
      </trkpt>
      <trkpt lat="43.38813" lon="2.70652">
        <ele>381.155701</ele>
        <time>2013-05-19T15:03:08Z</time>
      </trkpt>
      <trkpt lat="43.38812" lon="2.70649">
        <ele>381.59549</ele>
        <time>2013-05-19T15:03:10Z</time>
      </trkpt>
      <trkpt lat="43.38811" lon="2.70647">
        <ele>381.718994</ele>
        <time>2013-05-19T15:03:11Z</time>
      </trkpt>
      <trkpt lat="43.3881" lon="2.70646">
        <ele>381.877258</ele>
        <time>2013-05-19T15:03:12Z</time>
      </trkpt>
      <trkpt lat="43.38808" lon="2.70642">
        <ele>382.074951</ele>
        <time>2013-05-19T15:03:14Z</time>
      </trkpt>
      <trkpt lat="43.38807" lon="2.7064">
        <ele>382.423798</ele>
        <time>2013-05-19T15:03:15Z</time>
      </trkpt>
      <trkpt lat="43.38801" lon="2.70613">
        <ele>385.673828</ele>
        <time>2013-05-19T15:03:26Z</time>
      </trkpt>
      <trkpt lat="43.38802" lon="2.70577">
        <ele>391.48645</ele>
        <time>2013-05-19T15:03:37Z</time>
      </trkpt>
      <trkpt lat="43.38795" lon="2.70522">
        <ele>395.261261</ele>
        <time>2013-05-19T15:03:50Z</time>
      </trkpt>
      <trkpt lat="43.38788" lon="2.70492">
        <ele>396.574585</ele>
        <time>2013-05-19T15:03:59Z</time>
      </trkpt>
      <trkpt lat="43.38788" lon="2.70489">
        <ele>396.998444</ele>
        <time>2013-05-19T15:04:00Z</time>
      </trkpt>
      <trkpt lat="43.38787" lon="2.70485">
        <ele>397.289459</ele>
        <time>2013-05-19T15:04:01Z</time>
      </trkpt>
      <trkpt lat="43.38786" lon="2.70482">
        <ele>397.522797</ele>
        <time>2013-05-19T15:04:02Z</time>
      </trkpt>
      <trkpt lat="43.38786" lon="2.70479">
        <ele>397.817169</ele>
        <time>2013-05-19T15:04:03Z</time>
      </trkpt>
      <trkpt lat="43.38778" lon="2.70448">
        <ele>399.796112</ele>
        <time>2013-05-19T15:04:16Z</time>
      </trkpt>
      <trkpt lat="43.38765" lon="2.70417">
        <ele>398.394287</ele>
        <time>2013-05-19T15:04:30Z</time>
      </trkpt>
      <trkpt lat="43.38754" lon="2.70381">
        <ele>398.763123</ele>
        <time>2013-05-19T15:04:45Z</time>
      </trkpt>
      <trkpt lat="43.38738" lon="2.70355">
        <ele>402.857391</ele>
        <time>2013-05-19T15:04:58Z</time>
      </trkpt>
      <trkpt lat="43.3873" lon="2.70351">
        <ele>405.596069</ele>
        <time>2013-05-19T15:05:02Z</time>
      </trkpt>
      <trkpt lat="43.38727" lon="2.70352">
        <ele>406.041168</ele>
        <time>2013-05-19T15:05:03Z</time>
      </trkpt>
      <trkpt lat="43.38725" lon="2.70354">
        <ele>406.18869</ele>
        <time>2013-05-19T15:05:04Z</time>
      </trkpt>
      <trkpt lat="43.38725" lon="2.70356">
        <ele>405.966309</ele>
        <time>2013-05-19T15:05:05Z</time>
      </trkpt>
      <trkpt lat="43.38724" lon="2.70365">
        <ele>404.816254</ele>
        <time>2013-05-19T15:05:16Z</time>
      </trkpt>
      <trkpt lat="43.38723" lon="2.70394">
        <ele>402.282349</ele>
        <time>2013-05-19T15:05:27Z</time>
      </trkpt>
      <trkpt lat="43.38719" lon="2.70408">
        <ele>403.155945</ele>
        <time>2013-05-19T15:05:40Z</time>
      </trkpt>
      <trkpt lat="43.38717" lon="2.70416">
        <ele>403.991669</ele>
        <time>2013-05-19T15:05:47Z</time>
      </trkpt>
      <trkpt lat="43.38711" lon="2.70425">
        <ele>406.444458</ele>
        <time>2013-05-19T15:06:00Z</time>
      </trkpt>
      <trkpt lat="43.38709" lon="2.70428">
        <ele>407.562378</ele>
        <time>2013-05-19T15:06:11Z</time>
      </trkpt>
      <trkpt lat="43.38702" lon="2.70445">
        <ele>410.294586</ele>
        <time>2013-05-19T15:06:26Z</time>
      </trkpt>
      <trkpt lat="43.38694" lon="2.70461">
        <ele>411.7435</ele>
        <time>2013-05-19T15:06:40Z</time>
      </trkpt>
      <trkpt lat="43.38686" lon="2.70472">
        <ele>414.02652</ele>
        <time>2013-05-19T15:06:52Z</time>
      </trkpt>
      <trkpt lat="43.38678" lon="2.70484">
        <ele>416.509949</ele>
        <time>2013-05-19T15:07:05Z</time>
      </trkpt>
      <trkpt lat="43.38669" lon="2.70496">
        <ele>419.440613</ele>
        <time>2013-05-19T15:07:19Z</time>
      </trkpt>
      <trkpt lat="43.38661" lon="2.70505">
        <ele>421.257507</ele>
        <time>2013-05-19T15:07:32Z</time>
      </trkpt>
      <trkpt lat="43.38646" lon="2.70519">
        <ele>423.651978</ele>
        <time>2013-05-19T15:07:46Z</time>
      </trkpt>
      <trkpt lat="43.3864" lon="2.70528">
        <ele>423.245239</ele>
        <time>2013-05-19T15:07:53Z</time>
      </trkpt>
      <trkpt lat="43.38639" lon="2.70529">
        <ele>423.381958</ele>
        <time>2013-05-19T15:07:54Z</time>
      </trkpt>
      <trkpt lat="43.38623" lon="2.70546">
        <ele>424.427582</ele>
        <time>2013-05-19T15:08:10Z</time>
      </trkpt>
      <trkpt lat="43.38603" lon="2.70557">
        <ele>429.22876</ele>
        <time>2013-05-19T15:08:27Z</time>
      </trkpt>
      <trkpt lat="43.38588" lon="2.70567">
        <ele>432.467316</ele>
        <time>2013-05-19T15:08:41Z</time>
      </trkpt>
      <trkpt lat="43.38581" lon="2.70573">
        <ele>433.581299</ele>
        <time>2013-05-19T15:08:49Z</time>
      </trkpt>
      <trkpt lat="43.3858" lon="2.70573">
        <ele>433.813293</ele>
        <time>2013-05-19T15:08:50Z</time>
      </trkpt>
      <trkpt lat="43.38578" lon="2.70574">
        <ele>434.205688</ele>
        <time>2013-05-19T15:08:51Z</time>
      </trkpt>
      <trkpt lat="43.38577" lon="2.70575">
        <ele>434.450134</ele>
        <time>2013-05-19T15:08:52Z</time>
      </trkpt>
      <trkpt lat="43.38576" lon="2.70575">
        <ele>434.835663</ele>
        <time>2013-05-19T15:08:53Z</time>
      </trkpt>
      <trkpt lat="43.38575" lon="2.70576">
        <ele>434.910278</ele>
        <time>2013-05-19T15:08:54Z</time>
      </trkpt>
      <trkpt lat="43.38574" lon="2.70577">
        <ele>434.806641</ele>
        <time>2013-05-19T15:08:55Z</time>
      </trkpt>
      <trkpt lat="43.38572" lon="2.70578">
        <ele>434.962006</ele>
        <time>2013-05-19T15:08:56Z</time>
      </trkpt>
      <trkpt lat="43.38571" lon="2.70579">
        <ele>435.046722</ele>
        <time>2013-05-19T15:08:57Z</time>
      </trkpt>
      <trkpt lat="43.3857" lon="2.7058">
        <ele>435.060394</ele>
        <time>2013-05-19T15:08:58Z</time>
      </trkpt>
      <trkpt lat="43.38569" lon="2.70581">
        <ele>435.070007</ele>
        <time>2013-05-19T15:08:59Z</time>
      </trkpt>
      <trkpt lat="43.38568" lon="2.70582">
        <ele>435.11319</ele>
        <time>2013-05-19T15:09:00Z</time>
      </trkpt>
      <trkpt lat="43.38567" lon="2.70583">
        <ele>435.173553</ele>
        <time>2013-05-19T15:09:01Z</time>
      </trkpt>
      <trkpt lat="43.38566" lon="2.70584">
        <ele>435.303711</ele>
        <time>2013-05-19T15:09:02Z</time>
      </trkpt>
      <trkpt lat="43.38565" lon="2.70585">
        <ele>435.483093</ele>
        <time>2013-05-19T15:09:03Z</time>
      </trkpt>
      <trkpt lat="43.38564" lon="2.70585">
        <ele>435.699493</ele>
        <time>2013-05-19T15:09:04Z</time>
      </trkpt>
      <trkpt lat="43.38564" lon="2.70586">
        <ele>435.62674</ele>
        <time>2013-05-19T15:09:05Z</time>
      </trkpt>
      <trkpt lat="43.3855" lon="2.70598">
        <ele>435.24884</ele>
        <time>2013-05-19T15:09:18Z</time>
      </trkpt>
      <trkpt lat="43.38549" lon="2.70599">
        <ele>435.351501</ele>
        <time>2013-05-19T15:09:19Z</time>
      </trkpt>
      <trkpt lat="43.38547" lon="2.706">
        <ele>435.411835</ele>
        <time>2013-05-19T15:09:20Z</time>
      </trkpt>
      <trkpt lat="43.38546" lon="2.706">
        <ele>435.722137</ele>
        <time>2013-05-19T15:09:21Z</time>
      </trkpt>
      <trkpt lat="43.38545" lon="2.706">
        <ele>436.023041</ele>
        <time>2013-05-19T15:09:22Z</time>
      </trkpt>
      <trkpt lat="43.38525" lon="2.70607">
        <ele>439.733063</ele>
        <time>2013-05-19T15:09:35Z</time>
      </trkpt>
      <trkpt lat="43.38502" lon="2.70615">
        <ele>442.250793</ele>
        <time>2013-05-19T15:09:51Z</time>
      </trkpt>
      <trkpt lat="43.385" lon="2.70615">
        <ele>442.779541</ele>
        <time>2013-05-19T15:09:52Z</time>
      </trkpt>
      <trkpt lat="43.38499" lon="2.70615">
        <ele>443.211914</ele>
        <time>2013-05-19T15:09:53Z</time>
      </trkpt>
      <trkpt lat="43.38491" lon="2.70614">
        <ele>445.911682</ele>
        <time>2013-05-19T15:10:08Z</time>
      </trkpt>
      <trkpt lat="43.38479" lon="2.70613">
        <ele>450.071136</ele>
        <time>2013-05-19T15:10:21Z</time>
      </trkpt>
      <trkpt lat="43.38468" lon="2.70612">
        <ele>451.69339</ele>
        <time>2013-05-19T15:10:33Z</time>
      </trkpt>
      <trkpt lat="43.38459" lon="2.70609">
        <ele>453.951019</ele>
        <time>2013-05-19T15:10:46Z</time>
      </trkpt>
      <trkpt lat="43.38455" lon="2.70607">
        <ele>455.117371</ele>
        <time>2013-05-19T15:10:51Z</time>
      </trkpt>
      <trkpt lat="43.38454" lon="2.70606">
        <ele>455.531921</ele>
        <time>2013-05-19T15:10:52Z</time>
      </trkpt>
      <trkpt lat="43.3845" lon="2.70605">
        <ele>456.405884</ele>
        <time>2013-05-19T15:10:56Z</time>
      </trkpt>
      <trkpt lat="43.38445" lon="2.70603">
        <ele>457.759033</ele>
        <time>2013-05-19T15:11:05Z</time>
      </trkpt>
      <trkpt lat="43.38434" lon="2.70599">
        <ele>460.477875</ele>
        <time>2013-05-19T15:11:15Z</time>
      </trkpt>
      <trkpt lat="43.3843" lon="2.70596">
        <ele>462.275482</ele>
        <time>2013-05-19T15:11:19Z</time>
      </trkpt>
      <trkpt lat="43.38429" lon="2.70595">
        <ele>462.512665</ele>
        <time>2013-05-19T15:11:20Z</time>
      </trkpt>
      <trkpt lat="43.38411" lon="2.70593">
        <ele>464.163116</ele>
        <time>2013-05-19T15:11:36Z</time>
      </trkpt>
      <trkpt lat="43.38404" lon="2.70593">
        <ele>464.164429</ele>
        <time>2013-05-19T15:11:41Z</time>
      </trkpt>
      <trkpt lat="43.38397" lon="2.70593">
        <ele>464.152588</ele>
        <time>2013-05-19T15:11:47Z</time>
      </trkpt>
      <trkpt lat="43.38395" lon="2.70593">
        <ele>464.21283</ele>
        <time>2013-05-19T15:11:48Z</time>
      </trkpt>
      <trkpt lat="43.38394" lon="2.70593">
        <ele>464.308868</ele>
        <time>2013-05-19T15:11:49Z</time>
      </trkpt>
      <trkpt lat="43.38384" lon="2.70591">
        <ele>465.513519</ele>
        <time>2013-05-19T15:12:00Z</time>
      </trkpt>
      <trkpt lat="43.38374" lon="2.70587">
        <ele>469.396881</ele>
        <time>2013-05-19T15:12:07Z</time>
      </trkpt>
      <trkpt lat="43.38372" lon="2.70586">
        <ele>470.153809</ele>
        <time>2013-05-19T15:12:08Z</time>
      </trkpt>
      <trkpt lat="43.38371" lon="2.70586">
        <ele>470.42337</ele>
        <time>2013-05-19T15:12:09Z</time>
      </trkpt>
      <trkpt lat="43.3837" lon="2.70586">
        <ele>470.477814</ele>
        <time>2013-05-19T15:12:10Z</time>
      </trkpt>
      <trkpt lat="43.38362" lon="2.70587">
        <ele>472.120178</ele>
        <time>2013-05-19T15:12:22Z</time>
      </trkpt>
      <trkpt lat="43.38356" lon="2.70592">
        <ele>471.172607</ele>
        <time>2013-05-19T15:12:29Z</time>
      </trkpt>
      <trkpt lat="43.3835" lon="2.70598">
        <ele>469.792786</ele>
        <time>2013-05-19T15:12:38Z</time>
      </trkpt>
      <trkpt lat="43.38342" lon="2.70605">
        <ele>468.734344</ele>
        <time>2013-05-19T15:12:48Z</time>
      </trkpt>
      <trkpt lat="43.38335" lon="2.70609">
        <ele>468.733704</ele>
        <time>2013-05-19T15:13:05Z</time>
      </trkpt>
      <trkpt lat="43.38331" lon="2.70611">
        <ele>468.844421</ele>
        <time>2013-05-19T15:13:18Z</time>
      </trkpt>
      <trkpt lat="43.38319" lon="2.70616">
        <ele>470.669373</ele>
        <time>2013-05-19T15:13:28Z</time>
      </trkpt>
      <trkpt lat="43.38314" lon="2.70617">
        <ele>471.34021</ele>
        <time>2013-05-19T15:13:31Z</time>
      </trkpt>
      <trkpt lat="43.38312" lon="2.70618">
        <ele>471.492737</ele>
        <time>2013-05-19T15:13:32Z</time>
      </trkpt>
      <trkpt lat="43.3831" lon="2.7062">
        <ele>471.644989</ele>
        <time>2013-05-19T15:13:33Z</time>
      </trkpt>
      <trkpt lat="43.38308" lon="2.70621">
        <ele>471.923004</ele>
        <time>2013-05-19T15:13:34Z</time>
      </trkpt>
      <trkpt lat="43.38307" lon="2.70622">
        <ele>472.220612</ele>
        <time>2013-05-19T15:13:35Z</time>
      </trkpt>
      <trkpt lat="43.3828" lon="2.70637">
        <ele>474.054993</ele>
        <time>2013-05-19T15:13:51Z</time>
      </trkpt>
      <trkpt lat="43.38277" lon="2.70638">
        <ele>474.035004</ele>
        <time>2013-05-19T15:13:53Z</time>
      </trkpt>
      <trkpt lat="43.38275" lon="2.7064">
        <ele>473.815002</ele>
        <time>2013-05-19T15:13:55Z</time>
      </trkpt>
      <trkpt lat="43.38273" lon="2.70641">
        <ele>473.799988</ele>
        <time>2013-05-19T15:13:56Z</time>
      </trkpt>
      <trkpt lat="43.38272" lon="2.70641">
        <ele>473.859985</ele>
        <time>2013-05-19T15:13:57Z</time>
      </trkpt>
      <trkpt lat="43.38251" lon="2.70638">
        <ele>476.269989</ele>
        <time>2013-05-19T15:14:10Z</time>
      </trkpt>
      <trkpt lat="43.38249" lon="2.70638">
        <ele>476.427002</ele>
        <time>2013-05-19T15:14:11Z</time>
      </trkpt>
      <trkpt lat="43.38248" lon="2.70637">
        <ele>476.447571</ele>
        <time>2013-05-19T15:14:12Z</time>
      </trkpt>
      <trkpt lat="43.38246" lon="2.70636">
        <ele>476.505066</ele>
        <time>2013-05-19T15:14:13Z</time>
      </trkpt>
      <trkpt lat="43.38245" lon="2.70636">
        <ele>476.538269</ele>
        <time>2013-05-19T15:14:14Z</time>
      </trkpt>
      <trkpt lat="43.38243" lon="2.70635">
        <ele>476.57959</ele>
        <time>2013-05-19T15:14:15Z</time>
      </trkpt>
      <trkpt lat="43.38242" lon="2.70635">
        <ele>476.573212</ele>
        <time>2013-05-19T15:14:16Z</time>
      </trkpt>
      <trkpt lat="43.3824" lon="2.70635">
        <ele>476.635193</ele>
        <time>2013-05-19T15:14:17Z</time>
      </trkpt>
      <trkpt lat="43.38239" lon="2.70634">
        <ele>476.621918</ele>
        <time>2013-05-19T15:14:18Z</time>
      </trkpt>
      <trkpt lat="43.38237" lon="2.70634">
        <ele>476.58902</ele>
        <time>2013-05-19T15:14:19Z</time>
      </trkpt>
      <trkpt lat="43.38235" lon="2.70634">
        <ele>476.605377</ele>
        <time>2013-05-19T15:14:20Z</time>
      </trkpt>
      <trkpt lat="43.38234" lon="2.70633">
        <ele>476.618927</ele>
        <time>2013-05-19T15:14:21Z</time>
      </trkpt>
      <trkpt lat="43.38232" lon="2.70633">
        <ele>476.555542</ele>
        <time>2013-05-19T15:14:22Z</time>
      </trkpt>
      <trkpt lat="43.3823" lon="2.70634">
        <ele>476.446442</ele>
        <time>2013-05-19T15:14:23Z</time>
      </trkpt>
      <trkpt lat="43.38229" lon="2.70633">
        <ele>476.496002</ele>
        <time>2013-05-19T15:14:24Z</time>
      </trkpt>
      <trkpt lat="43.38228" lon="2.70633">
        <ele>476.592987</ele>
        <time>2013-05-19T15:14:25Z</time>
      </trkpt>
      <trkpt lat="43.38226" lon="2.70632">
        <ele>476.552246</ele>
        <time>2013-05-19T15:14:26Z</time>
      </trkpt>
      <trkpt lat="43.38225" lon="2.70632">
        <ele>476.49057</ele>
        <time>2013-05-19T15:14:27Z</time>
      </trkpt>
      <trkpt lat="43.38223" lon="2.70632">
        <ele>476.519257</ele>
        <time>2013-05-19T15:14:28Z</time>
      </trkpt>
      <trkpt lat="43.3822" lon="2.70631">
        <ele>476.658447</ele>
        <time>2013-05-19T15:14:30Z</time>
      </trkpt>
      <trkpt lat="43.38219" lon="2.70631">
        <ele>476.681671</ele>
        <time>2013-05-19T15:14:31Z</time>
      </trkpt>
      <trkpt lat="43.38218" lon="2.7063">
        <ele>476.805817</ele>
        <time>2013-05-19T15:14:32Z</time>
      </trkpt>
      <trkpt lat="43.38214" lon="2.70626">
        <ele>477.507996</ele>
        <time>2013-05-19T15:14:37Z</time>
      </trkpt>
      <trkpt lat="43.382" lon="2.70625">
        <ele>477.606262</ele>
        <time>2013-05-19T15:14:45Z</time>
      </trkpt>
      <trkpt lat="43.38173" lon="2.70626">
        <ele>478.088745</ele>
        <time>2013-05-19T15:14:57Z</time>
      </trkpt>
      <trkpt lat="43.38171" lon="2.70625">
        <ele>478.358765</ele>
        <time>2013-05-19T15:14:58Z</time>
      </trkpt>
      <trkpt lat="43.38147" lon="2.7063">
        <ele>479.951843</ele>
        <time>2013-05-19T15:15:08Z</time>
      </trkpt>
      <trkpt lat="43.38127" lon="2.70643">
        <ele>480.238678</ele>
        <time>2013-05-19T15:15:19Z</time>
      </trkpt>
      <trkpt lat="43.38098" lon="2.70662">
        <ele>480.587738</ele>
        <time>2013-05-19T15:15:32Z</time>
      </trkpt>
      <trkpt lat="43.38084" lon="2.70665">
        <ele>482.05719</ele>
        <time>2013-05-19T15:15:39Z</time>
      </trkpt>
      <trkpt lat="43.38083" lon="2.70664">
        <ele>482.586609</ele>
        <time>2013-05-19T15:15:40Z</time>
      </trkpt>
      <trkpt lat="43.38082" lon="2.70664">
        <ele>482.880951</ele>
        <time>2013-05-19T15:15:41Z</time>
      </trkpt>
      <trkpt lat="43.3808" lon="2.70665">
        <ele>483.060822</ele>
        <time>2013-05-19T15:15:42Z</time>
      </trkpt>
      <trkpt lat="43.38078" lon="2.70665">
        <ele>483.332458</ele>
        <time>2013-05-19T15:15:43Z</time>
      </trkpt>
      <trkpt lat="43.38075" lon="2.70666">
        <ele>483.469116</ele>
        <time>2013-05-19T15:15:44Z</time>
      </trkpt>
      <trkpt lat="43.38073" lon="2.70667">
        <ele>483.471649</ele>
        <time>2013-05-19T15:15:45Z</time>
      </trkpt>
      <trkpt lat="43.3807" lon="2.70668">
        <ele>483.5625</ele>
        <time>2013-05-19T15:15:46Z</time>
      </trkpt>
      <trkpt lat="43.38068" lon="2.70669">
        <ele>483.568604</ele>
        <time>2013-05-19T15:15:47Z</time>
      </trkpt>
      <trkpt lat="43.38065" lon="2.7067">
        <ele>483.59964</ele>
        <time>2013-05-19T15:15:48Z</time>
      </trkpt>
      <trkpt lat="43.38049" lon="2.70676">
        <ele>482.866119</ele>
        <time>2013-05-19T15:15:54Z</time>
      </trkpt>
      <trkpt lat="43.38047" lon="2.70676">
        <ele>483.093323</ele>
        <time>2013-05-19T15:15:55Z</time>
      </trkpt>
      <trkpt lat="43.38046" lon="2.70677">
        <ele>483.01709</ele>
        <time>2013-05-19T15:15:56Z</time>
      </trkpt>
      <trkpt lat="43.38044" lon="2.70677">
        <ele>483.000854</ele>
        <time>2013-05-19T15:15:57Z</time>
      </trkpt>
      <trkpt lat="43.38042" lon="2.70678">
        <ele>482.91037</ele>
        <time>2013-05-19T15:15:58Z</time>
      </trkpt>
      <trkpt lat="43.3804" lon="2.70679">
        <ele>482.798706</ele>
        <time>2013-05-19T15:15:59Z</time>
      </trkpt>
      <trkpt lat="43.38037" lon="2.7068">
        <ele>482.632477</ele>
        <time>2013-05-19T15:16:00Z</time>
      </trkpt>
      <trkpt lat="43.38011" lon="2.70697">
        <ele>480.937653</ele>
        <time>2013-05-19T15:16:11Z</time>
      </trkpt>
      <trkpt lat="43.3801" lon="2.70698">
        <ele>480.837891</ele>
        <time>2013-05-19T15:16:12Z</time>
      </trkpt>
      <trkpt lat="43.38008" lon="2.707">
        <ele>480.489777</ele>
        <time>2013-05-19T15:16:13Z</time>
      </trkpt>
      <trkpt lat="43.38005" lon="2.70702">
        <ele>480.543182</ele>
        <time>2013-05-19T15:16:14Z</time>
      </trkpt>
      <trkpt lat="43.38002" lon="2.70704">
        <ele>480.497894</ele>
        <time>2013-05-19T15:16:15Z</time>
      </trkpt>
      <trkpt lat="43.37999" lon="2.70707">
        <ele>480.162872</ele>
        <time>2013-05-19T15:16:16Z</time>
      </trkpt>
      <trkpt lat="43.37995" lon="2.7071">
        <ele>479.841675</ele>
        <time>2013-05-19T15:16:17Z</time>
      </trkpt>
      <trkpt lat="43.37992" lon="2.70712">
        <ele>479.857605</ele>
        <time>2013-05-19T15:16:18Z</time>
      </trkpt>
      <trkpt lat="43.3799" lon="2.70714">
        <ele>479.959351</ele>
        <time>2013-05-19T15:16:19Z</time>
      </trkpt>
      <trkpt lat="43.37987" lon="2.70716">
        <ele>479.879761</ele>
        <time>2013-05-19T15:16:20Z</time>
      </trkpt>
      <trkpt lat="43.37984" lon="2.70717">
        <ele>480.02298</ele>
        <time>2013-05-19T15:16:21Z</time>
      </trkpt>
      <trkpt lat="43.3798" lon="2.70719">
        <ele>480.441986</ele>
        <time>2013-05-19T15:16:22Z</time>
      </trkpt>
      <trkpt lat="43.37955" lon="2.70729">
        <ele>480.222565</ele>
        <time>2013-05-19T15:16:33Z</time>
      </trkpt>
      <trkpt lat="43.37955" lon="2.70729">
        <ele>480.190155</ele>
        <time>2013-05-19T15:17:19Z</time>
      </trkpt>
      <trkpt lat="43.37937" lon="2.70732">
        <ele>481.278503</ele>
        <time>2013-05-19T15:17:33Z</time>
      </trkpt>
      <trkpt lat="43.37896" lon="2.70741">
        <ele>479.526611</ele>
        <time>2013-05-19T15:17:47Z</time>
      </trkpt>
      <trkpt lat="43.37867" lon="2.7076">
        <ele>476.44751</ele>
        <time>2013-05-19T15:17:57Z</time>
      </trkpt>
      <trkpt lat="43.37836" lon="2.70771">
        <ele>474.371307</ele>
        <time>2013-05-19T15:18:09Z</time>
      </trkpt>
      <trkpt lat="43.37809" lon="2.70765">
        <ele>473.417175</ele>
        <time>2013-05-19T15:18:19Z</time>
      </trkpt>
      <trkpt lat="43.37799" lon="2.70758">
        <ele>473.681671</ele>
        <time>2013-05-19T15:18:24Z</time>
      </trkpt>
      <trkpt lat="43.37798" lon="2.70758">
        <ele>473.46524</ele>
        <time>2013-05-19T15:18:25Z</time>
      </trkpt>
      <trkpt lat="43.37797" lon="2.70757">
        <ele>473.494415</ele>
        <time>2013-05-19T15:18:26Z</time>
      </trkpt>
      <trkpt lat="43.37795" lon="2.70756">
        <ele>473.134644</ele>
        <time>2013-05-19T15:18:27Z</time>
      </trkpt>
      <trkpt lat="43.37794" lon="2.70756">
        <ele>472.943298</ele>
        <time>2013-05-19T15:18:28Z</time>
      </trkpt>
      <trkpt lat="43.37792" lon="2.70754">
        <ele>472.829437</ele>
        <time>2013-05-19T15:18:30Z</time>
      </trkpt>
      <trkpt lat="43.37791" lon="2.70753">
        <ele>472.765015</ele>
        <time>2013-05-19T15:18:31Z</time>
      </trkpt>
      <trkpt lat="43.3779" lon="2.70751">
        <ele>472.531464</ele>
        <time>2013-05-19T15:18:32Z</time>
      </trkpt>
      <trkpt lat="43.37787" lon="2.70748">
        <ele>472.488708</ele>
        <time>2013-05-19T15:18:48Z</time>
      </trkpt>
      <trkpt lat="43.37773" lon="2.70703">
        <ele>470.247253</ele>
        <time>2013-05-19T15:18:58Z</time>
      </trkpt>
      <trkpt lat="43.37763" lon="2.70648">
        <ele>466.402496</ele>
        <time>2013-05-19T15:19:06Z</time>
      </trkpt>
      <trkpt lat="43.3776" lon="2.70634">
        <ele>465.082489</ele>
        <time>2013-05-19T15:19:08Z</time>
      </trkpt>
      <trkpt lat="43.37758" lon="2.70625">
        <ele>463.862488</ele>
        <time>2013-05-19T15:19:09Z</time>
      </trkpt>
      <trkpt lat="43.37755" lon="2.70616">
        <ele>462.565308</ele>
        <time>2013-05-19T15:19:10Z</time>
      </trkpt>
      <trkpt lat="43.37753" lon="2.70608">
        <ele>461.894745</ele>
        <time>2013-05-19T15:19:11Z</time>
      </trkpt>
      <trkpt lat="43.37752" lon="2.70601">
        <ele>461.542236</ele>
        <time>2013-05-19T15:19:12Z</time>
      </trkpt>
      <trkpt lat="43.37751" lon="2.70595">
        <ele>461.037201</ele>
        <time>2013-05-19T15:19:13Z</time>
      </trkpt>
      <trkpt lat="43.37749" lon="2.70588">
        <ele>460.149689</ele>
        <time>2013-05-19T15:19:14Z</time>
      </trkpt>
      <trkpt lat="43.37746" lon="2.70581">
        <ele>459.148651</ele>
        <time>2013-05-19T15:19:15Z</time>
      </trkpt>
      <trkpt lat="43.37741" lon="2.70565">
        <ele>457.425598</ele>
        <time>2013-05-19T15:19:17Z</time>
      </trkpt>
      <trkpt lat="43.37737" lon="2.70541">
        <ele>457.993469</ele>
        <time>2013-05-19T15:19:20Z</time>
      </trkpt>
      <trkpt lat="43.37736" lon="2.70516">
        <ele>461.273346</ele>
        <time>2013-05-19T15:19:23Z</time>
      </trkpt>
      <trkpt lat="43.37734" lon="2.7051">
        <ele>462.10202</ele>
        <time>2013-05-19T15:19:24Z</time>
      </trkpt>
      <trkpt lat="43.37726" lon="2.705">
        <ele>463.632629</ele>
        <time>2013-05-19T15:19:28Z</time>
      </trkpt>
      <trkpt lat="43.37724" lon="2.70504">
        <ele>462.727295</ele>
        <time>2013-05-19T15:19:29Z</time>
      </trkpt>
      <trkpt lat="43.37723" lon="2.70506">
        <ele>462.212189</ele>
        <time>2013-05-19T15:19:30Z</time>
      </trkpt>
      <trkpt lat="43.37721" lon="2.70507">
        <ele>461.779266</ele>
        <time>2013-05-19T15:19:31Z</time>
      </trkpt>
      <trkpt lat="43.3772" lon="2.70509">
        <ele>461.252747</ele>
        <time>2013-05-19T15:19:32Z</time>
      </trkpt>
      <trkpt lat="43.37718" lon="2.7051">
        <ele>460.698761</ele>
        <time>2013-05-19T15:19:33Z</time>
      </trkpt>
      <trkpt lat="43.37715" lon="2.70511">
        <ele>460.10022</ele>
        <time>2013-05-19T15:19:34Z</time>
      </trkpt>
      <trkpt lat="43.37713" lon="2.70513">
        <ele>459.316925</ele>
        <time>2013-05-19T15:19:35Z</time>
      </trkpt>
      <trkpt lat="43.37711" lon="2.70515">
        <ele>458.310242</ele>
        <time>2013-05-19T15:19:36Z</time>
      </trkpt>
      <trkpt lat="43.37709" lon="2.70518">
        <ele>458.057739</ele>
        <time>2013-05-19T15:19:37Z</time>
      </trkpt>
      <trkpt lat="43.37706" lon="2.7052">
        <ele>458.082703</ele>
        <time>2013-05-19T15:19:38Z</time>
      </trkpt>
      <trkpt lat="43.37704" lon="2.70521">
        <ele>458.300201</ele>
        <time>2013-05-19T15:19:39Z</time>
      </trkpt>
      <trkpt lat="43.37701" lon="2.70522">
        <ele>458.605194</ele>
        <time>2013-05-19T15:19:40Z</time>
      </trkpt>
      <trkpt lat="43.37676" lon="2.70537">
        <ele>460.362823</ele>
        <time>2013-05-19T15:19:52Z</time>
      </trkpt>
      <trkpt lat="43.37661" lon="2.70556">
        <ele>459.733093</ele>
        <time>2013-05-19T15:20:04Z</time>
      </trkpt>
      <trkpt lat="43.37649" lon="2.70563">
        <ele>462.199371</ele>
        <time>2013-05-19T15:20:14Z</time>
      </trkpt>
      <trkpt lat="43.37636" lon="2.70573">
        <ele>464.258026</ele>
        <time>2013-05-19T15:20:26Z</time>
      </trkpt>
      <trkpt lat="43.37624" lon="2.70577">
        <ele>467.458679</ele>
        <time>2013-05-19T15:20:35Z</time>
      </trkpt>
      <trkpt lat="43.37623" lon="2.70578">
        <ele>467.574493</ele>
        <time>2013-05-19T15:20:36Z</time>
      </trkpt>
      <trkpt lat="43.37606" lon="2.70588">
        <ele>469.11145</ele>
        <time>2013-05-19T15:20:49Z</time>
      </trkpt>
      <trkpt lat="43.37584" lon="2.70596">
        <ele>471.854919</ele>
        <time>2013-05-19T15:21:05Z</time>
      </trkpt>
      <trkpt lat="43.3757" lon="2.70601">
        <ele>473.431305</ele>
        <time>2013-05-19T15:21:16Z</time>
      </trkpt>
      <trkpt lat="43.37556" lon="2.70607">
        <ele>474.314484</ele>
        <time>2013-05-19T15:21:27Z</time>
      </trkpt>
      <trkpt lat="43.37536" lon="2.70616">
        <ele>475.472809</ele>
        <time>2013-05-19T15:21:42Z</time>
      </trkpt>
      <trkpt lat="43.37524" lon="2.70621">
        <ele>476.787811</ele>
        <time>2013-05-19T15:21:54Z</time>
      </trkpt>
      <trkpt lat="43.37513" lon="2.70624">
        <ele>478.85611</ele>
        <time>2013-05-19T15:22:05Z</time>
      </trkpt>
      <trkpt lat="43.37508" lon="2.70629">
        <ele>479.023865</ele>
        <time>2013-05-19T15:22:17Z</time>
      </trkpt>
      <trkpt lat="43.37495" lon="2.70635">
        <ele>480.925812</ele>
        <time>2013-05-19T15:22:31Z</time>
      </trkpt>
      <trkpt lat="43.37493" lon="2.70636">
        <ele>481.327667</ele>
        <time>2013-05-19T15:22:33Z</time>
      </trkpt>
      <trkpt lat="43.37482" lon="2.70646">
        <ele>481.305878</ele>
        <time>2013-05-19T15:22:45Z</time>
      </trkpt>
      <trkpt lat="43.37464" lon="2.70658">
        <ele>482.79895</ele>
        <time>2013-05-19T15:22:58Z</time>
      </trkpt>
      <trkpt lat="43.37453" lon="2.70667">
        <ele>483.406433</ele>
        <time>2013-05-19T15:23:10Z</time>
      </trkpt>
      <trkpt lat="43.37441" lon="2.7068">
        <ele>484.009003</ele>
        <time>2013-05-19T15:23:21Z</time>
      </trkpt>
      <trkpt lat="43.3743" lon="2.70689">
        <ele>483.914063</ele>
        <time>2013-05-19T15:23:29Z</time>
      </trkpt>
      <trkpt lat="43.37428" lon="2.7069">
        <ele>484.124786</ele>
        <time>2013-05-19T15:23:30Z</time>
      </trkpt>
      <trkpt lat="43.37427" lon="2.7069">
        <ele>484.351074</ele>
        <time>2013-05-19T15:23:31Z</time>
      </trkpt>
      <trkpt lat="43.37425" lon="2.70691">
        <ele>484.455536</ele>
        <time>2013-05-19T15:23:32Z</time>
      </trkpt>
      <trkpt lat="43.37424" lon="2.70692">
        <ele>484.556396</ele>
        <time>2013-05-19T15:23:33Z</time>
      </trkpt>
      <trkpt lat="43.37423" lon="2.70692">
        <ele>484.763519</ele>
        <time>2013-05-19T15:23:34Z</time>
      </trkpt>
      <trkpt lat="43.37421" lon="2.70693">
        <ele>484.886749</ele>
        <time>2013-05-19T15:23:35Z</time>
      </trkpt>
      <trkpt lat="43.3742" lon="2.70694">
        <ele>484.970184</ele>
        <time>2013-05-19T15:23:36Z</time>
      </trkpt>
      <trkpt lat="43.37418" lon="2.70695">
        <ele>485.038727</ele>
        <time>2013-05-19T15:23:37Z</time>
      </trkpt>
      <trkpt lat="43.37417" lon="2.70696">
        <ele>485.135681</ele>
        <time>2013-05-19T15:23:38Z</time>
      </trkpt>
      <trkpt lat="43.37415" lon="2.70698">
        <ele>485.24057</ele>
        <time>2013-05-19T15:23:39Z</time>
      </trkpt>
      <trkpt lat="43.37413" lon="2.70699">
        <ele>485.333557</ele>
        <time>2013-05-19T15:23:40Z</time>
      </trkpt>
      <trkpt lat="43.37386" lon="2.70718">
        <ele>486.287201</ele>
        <time>2013-05-19T15:23:55Z</time>
      </trkpt>
      <trkpt lat="43.3736" lon="2.70732">
        <ele>487.302277</ele>
        <time>2013-05-19T15:24:08Z</time>
      </trkpt>
      <trkpt lat="43.37333" lon="2.70753">
        <ele>486.227509</ele>
        <time>2013-05-19T15:24:22Z</time>
      </trkpt>
      <trkpt lat="43.3732" lon="2.70761">
        <ele>486.467743</ele>
        <time>2013-05-19T15:24:28Z</time>
      </trkpt>
      <trkpt lat="43.37318" lon="2.70759">
        <ele>486.860413</ele>
        <time>2013-05-19T15:24:29Z</time>
      </trkpt>
      <trkpt lat="43.37317" lon="2.70758">
        <ele>487.158569</ele>
        <time>2013-05-19T15:24:30Z</time>
      </trkpt>
      <trkpt lat="43.37317" lon="2.70756">
        <ele>487.374817</ele>
        <time>2013-05-19T15:24:31Z</time>
      </trkpt>
      <trkpt lat="43.37317" lon="2.70754">
        <ele>487.559326</ele>
        <time>2013-05-19T15:24:32Z</time>
      </trkpt>
      <trkpt lat="43.37318" lon="2.70752">
        <ele>487.675873</ele>
        <time>2013-05-19T15:24:33Z</time>
      </trkpt>
      <trkpt lat="43.37318" lon="2.70751">
        <ele>487.795288</ele>
        <time>2013-05-19T15:24:34Z</time>
      </trkpt>
      <trkpt lat="43.37319" lon="2.70748">
        <ele>488.110504</ele>
        <time>2013-05-19T15:24:50Z</time>
      </trkpt>
      <trkpt lat="43.37319" lon="2.70746">
        <ele>488.232391</ele>
        <time>2013-05-19T15:25:03Z</time>
      </trkpt>
      <trkpt lat="43.3732" lon="2.70745">
        <ele>488.323456</ele>
        <time>2013-05-19T15:25:04Z</time>
      </trkpt>
      <trkpt lat="43.3732" lon="2.70744">
        <ele>488.47699</ele>
        <time>2013-05-19T15:25:05Z</time>
      </trkpt>
      <trkpt lat="43.37326" lon="2.70718">
        <ele>490.721313</ele>
        <time>2013-05-19T15:25:19Z</time>
      </trkpt>
      <trkpt lat="43.37335" lon="2.70695">
        <ele>492.93869</ele>
        <time>2013-05-19T15:25:33Z</time>
      </trkpt>
      <trkpt lat="43.37345" lon="2.70665">
        <ele>495.970337</ele>
        <time>2013-05-19T15:25:49Z</time>
      </trkpt>
      <trkpt lat="43.37348" lon="2.70654">
        <ele>496.76239</ele>
        <time>2013-05-19T15:25:55Z</time>
      </trkpt>
      <trkpt lat="43.37349" lon="2.70652">
        <ele>496.87265</ele>
        <time>2013-05-19T15:25:56Z</time>
      </trkpt>
      <trkpt lat="43.37349" lon="2.70651">
        <ele>497.002747</ele>
        <time>2013-05-19T15:25:57Z</time>
      </trkpt>
      <trkpt lat="43.3735" lon="2.70649">
        <ele>497.136597</ele>
        <time>2013-05-19T15:25:58Z</time>
      </trkpt>
      <trkpt lat="43.37351" lon="2.70647">
        <ele>497.290497</ele>
        <time>2013-05-19T15:25:59Z</time>
      </trkpt>
      <trkpt lat="43.37354" lon="2.70628">
        <ele>498.370422</ele>
        <time>2013-05-19T15:26:08Z</time>
      </trkpt>
      <trkpt lat="43.37354" lon="2.70627">
        <ele>498.477234</ele>
        <time>2013-05-19T15:26:09Z</time>
      </trkpt>
      <trkpt lat="43.37354" lon="2.70624">
        <ele>498.605408</ele>
        <time>2013-05-19T15:26:10Z</time>
      </trkpt>
      <trkpt lat="43.37363" lon="2.70588">
        <ele>499.779999</ele>
        <time>2013-05-19T15:26:24Z</time>
      </trkpt>
      <trkpt lat="43.37371" lon="2.7055">
        <ele>500.266937</ele>
        <time>2013-05-19T15:26:38Z</time>
      </trkpt>
      <trkpt lat="43.37383" lon="2.70499">
        <ele>501.143951</ele>
        <time>2013-05-19T15:26:52Z</time>
      </trkpt>
      <trkpt lat="43.37392" lon="2.7044">
        <ele>501.306</ele>
        <time>2013-05-19T15:27:05Z</time>
      </trkpt>
      <trkpt lat="43.37403" lon="2.70378">
        <ele>501.299683</ele>
        <time>2013-05-19T15:27:18Z</time>
      </trkpt>
      <trkpt lat="43.37412" lon="2.70314">
        <ele>502.033234</ele>
        <time>2013-05-19T15:27:32Z</time>
      </trkpt>
      <trkpt lat="43.37419" lon="2.7027">
        <ele>501.775787</ele>
        <time>2013-05-19T15:27:43Z</time>
      </trkpt>
      <trkpt lat="43.37422" lon="2.70252">
        <ele>501.530945</ele>
        <time>2013-05-19T15:27:48Z</time>
      </trkpt>
      <trkpt lat="43.3742" lon="2.70249">
        <ele>501.125305</ele>
        <time>2013-05-19T15:27:49Z</time>
      </trkpt>
      <trkpt lat="43.37417" lon="2.70247">
        <ele>500.614563</ele>
        <time>2013-05-19T15:27:50Z</time>
      </trkpt>
      <trkpt lat="43.37414" lon="2.70247">
        <ele>499.914093</ele>
        <time>2013-05-19T15:27:51Z</time>
      </trkpt>
      <trkpt lat="43.3741" lon="2.70248">
        <ele>499.230103</ele>
        <time>2013-05-19T15:27:52Z</time>
      </trkpt>
      <trkpt lat="43.37406" lon="2.70249">
        <ele>498.566986</ele>
        <time>2013-05-19T15:27:53Z</time>
      </trkpt>
      <trkpt lat="43.37403" lon="2.70248">
        <ele>497.993408</ele>
        <time>2013-05-19T15:27:54Z</time>
      </trkpt>
      <trkpt lat="43.374" lon="2.70246">
        <ele>497.506287</ele>
        <time>2013-05-19T15:27:55Z</time>
      </trkpt>
      <trkpt lat="43.37399" lon="2.70243">
        <ele>497.013245</ele>
        <time>2013-05-19T15:27:56Z</time>
      </trkpt>
      <trkpt lat="43.37399" lon="2.70211">
        <ele>494.092621</ele>
        <time>2013-05-19T15:28:06Z</time>
      </trkpt>
      <trkpt lat="43.37401" lon="2.70204">
        <ele>493.70575</ele>
        <time>2013-05-19T15:28:08Z</time>
      </trkpt>
      <trkpt lat="43.374" lon="2.70202">
        <ele>493.287018</ele>
        <time>2013-05-19T15:28:09Z</time>
      </trkpt>
      <trkpt lat="43.37398" lon="2.70202">
        <ele>492.95932</ele>
        <time>2013-05-19T15:28:10Z</time>
      </trkpt>
      <trkpt lat="43.37397" lon="2.70203">
        <ele>492.744202</ele>
        <time>2013-05-19T15:28:11Z</time>
      </trkpt>
      <trkpt lat="43.37395" lon="2.70205">
        <ele>492.557495</ele>
        <time>2013-05-19T15:28:12Z</time>
      </trkpt>
      <trkpt lat="43.37393" lon="2.70207">
        <ele>492.280701</ele>
        <time>2013-05-19T15:28:13Z</time>
      </trkpt>
      <trkpt lat="43.37372" lon="2.70234">
        <ele>490.879303</ele>
        <time>2013-05-19T15:28:21Z</time>
      </trkpt>
      <trkpt lat="43.37362" lon="2.70262">
        <ele>490.5</ele>
        <time>2013-05-19T15:28:31Z</time>
      </trkpt>
      <trkpt lat="43.37361" lon="2.70262">
        <ele>490.195007</ele>
        <time>2013-05-19T15:28:51Z</time>
      </trkpt>
      <trkpt lat="43.37358" lon="2.70263">
        <ele>489.69751</ele>
        <time>2013-05-19T15:28:52Z</time>
      </trkpt>
      <trkpt lat="43.37354" lon="2.70262">
        <ele>488.890015</ele>
        <time>2013-05-19T15:28:53Z</time>
      </trkpt>
      <trkpt lat="43.37349" lon="2.70261">
        <ele>487.65332</ele>
        <time>2013-05-19T15:28:54Z</time>
      </trkpt>
      <trkpt lat="43.37342" lon="2.7026">
        <ele>486.119934</ele>
        <time>2013-05-19T15:28:55Z</time>
      </trkpt>
      <trkpt lat="43.37335" lon="2.70261">
        <ele>484.515045</ele>
        <time>2013-05-19T15:28:56Z</time>
      </trkpt>
      <trkpt lat="43.37329" lon="2.70262">
        <ele>483.159393</ele>
        <time>2013-05-19T15:28:57Z</time>
      </trkpt>
      <trkpt lat="43.37324" lon="2.70264">
        <ele>481.992065</ele>
        <time>2013-05-19T15:28:58Z</time>
      </trkpt>
      <trkpt lat="43.37318" lon="2.70266">
        <ele>480.797668</ele>
        <time>2013-05-19T15:28:59Z</time>
      </trkpt>
      <trkpt lat="43.37309" lon="2.7027">
        <ele>478.766388</ele>
        <time>2013-05-19T15:29:01Z</time>
      </trkpt>
      <trkpt lat="43.37305" lon="2.70273">
        <ele>477.734772</ele>
        <time>2013-05-19T15:29:02Z</time>
      </trkpt>
      <trkpt lat="43.37299" lon="2.70274">
        <ele>476.519073</ele>
        <time>2013-05-19T15:29:03Z</time>
      </trkpt>
      <trkpt lat="43.37294" lon="2.70273">
        <ele>475.28186</ele>
        <time>2013-05-19T15:29:04Z</time>
      </trkpt>
      <trkpt lat="43.37289" lon="2.7027">
        <ele>474.130554</ele>
        <time>2013-05-19T15:29:05Z</time>
      </trkpt>
      <trkpt lat="43.37286" lon="2.70267">
        <ele>473.293152</ele>
        <time>2013-05-19T15:29:06Z</time>
      </trkpt>
      <trkpt lat="43.37284" lon="2.70264">
        <ele>472.781097</ele>
        <time>2013-05-19T15:29:07Z</time>
      </trkpt>
      <trkpt lat="43.37282" lon="2.70263">
        <ele>472.383881</ele>
        <time>2013-05-19T15:29:08Z</time>
      </trkpt>
      <trkpt lat="43.3728" lon="2.70263">
        <ele>471.96936</ele>
        <time>2013-05-19T15:29:09Z</time>
      </trkpt>
      <trkpt lat="43.37279" lon="2.70263">
        <ele>471.609802</ele>
        <time>2013-05-19T15:29:10Z</time>
      </trkpt>
      <trkpt lat="43.37277" lon="2.70264">
        <ele>471.355621</ele>
        <time>2013-05-19T15:29:11Z</time>
      </trkpt>
      <trkpt lat="43.37276" lon="2.70264">
        <ele>471.101257</ele>
        <time>2013-05-19T15:29:12Z</time>
      </trkpt>
      <trkpt lat="43.37275" lon="2.70265">
        <ele>470.793488</ele>
        <time>2013-05-19T15:29:13Z</time>
      </trkpt>
      <trkpt lat="43.37274" lon="2.70265">
        <ele>470.537292</ele>
        <time>2013-05-19T15:29:14Z</time>
      </trkpt>
      <trkpt lat="43.37272" lon="2.70266">
        <ele>470.203888</ele>
        <time>2013-05-19T15:29:15Z</time>
      </trkpt>
      <trkpt lat="43.37271" lon="2.70268">
        <ele>469.844879</ele>
        <time>2013-05-19T15:29:16Z</time>
      </trkpt>
      <trkpt lat="43.37269" lon="2.7027">
        <ele>469.356049</ele>
        <time>2013-05-19T15:29:17Z</time>
      </trkpt>
      <trkpt lat="43.37262" lon="2.70274">
        <ele>467.886169</ele>
        <time>2013-05-19T15:29:19Z</time>
      </trkpt>
      <trkpt lat="43.37253" lon="2.70276">
        <ele>466.62619</ele>
        <time>2013-05-19T15:29:21Z</time>
      </trkpt>
      <trkpt lat="43.3725" lon="2.70276">
        <ele>466.106415</ele>
        <time>2013-05-19T15:29:22Z</time>
      </trkpt>
      <trkpt lat="43.37246" lon="2.70276">
        <ele>465.639832</ele>
        <time>2013-05-19T15:29:23Z</time>
      </trkpt>
      <trkpt lat="43.37243" lon="2.70277">
        <ele>465.131409</ele>
        <time>2013-05-19T15:29:24Z</time>
      </trkpt>
      <trkpt lat="43.37239" lon="2.70279">
        <ele>464.529816</ele>
        <time>2013-05-19T15:29:25Z</time>
      </trkpt>
      <trkpt lat="43.37234" lon="2.70281">
        <ele>463.9104</ele>
        <time>2013-05-19T15:29:26Z</time>
      </trkpt>
      <trkpt lat="43.37229" lon="2.70283">
        <ele>463.206696</ele>
        <time>2013-05-19T15:29:27Z</time>
      </trkpt>
      <trkpt lat="43.37223" lon="2.70285">
        <ele>462.407898</ele>
        <time>2013-05-19T15:29:28Z</time>
      </trkpt>
      <trkpt lat="43.37217" lon="2.70287">
        <ele>461.534119</ele>
        <time>2013-05-19T15:29:29Z</time>
      </trkpt>
      <trkpt lat="43.37206" lon="2.70289">
        <ele>459.619965</ele>
        <time>2013-05-19T15:29:31Z</time>
      </trkpt>
      <trkpt lat="43.37201" lon="2.70289">
        <ele>458.690796</ele>
        <time>2013-05-19T15:29:32Z</time>
      </trkpt>
      <trkpt lat="43.37196" lon="2.70289">
        <ele>457.888</ele>
        <time>2013-05-19T15:29:33Z</time>
      </trkpt>
      <trkpt lat="43.37192" lon="2.7029">
        <ele>457.064514</ele>
        <time>2013-05-19T15:29:34Z</time>
      </trkpt>
      <trkpt lat="43.37186" lon="2.70292">
        <ele>455.966003</ele>
        <time>2013-05-19T15:29:35Z</time>
      </trkpt>
      <trkpt lat="43.37181" lon="2.70294">
        <ele>454.708496</ele>
        <time>2013-05-19T15:29:36Z</time>
      </trkpt>
      <trkpt lat="43.37175" lon="2.70296">
        <ele>453.490601</ele>
        <time>2013-05-19T15:29:37Z</time>
      </trkpt>
      <trkpt lat="43.37157" lon="2.70301">
        <ele>448.951508</ele>
        <time>2013-05-19T15:29:41Z</time>
      </trkpt>
      <trkpt lat="43.37153" lon="2.70304">
        <ele>447.598755</ele>
        <time>2013-05-19T15:29:42Z</time>
      </trkpt>
      <trkpt lat="43.37149" lon="2.70309">
        <ele>446.720001</ele>
        <time>2013-05-19T15:29:43Z</time>
      </trkpt>
      <trkpt lat="43.37132" lon="2.70336">
        <ele>442.483765</ele>
        <time>2013-05-19T15:29:49Z</time>
      </trkpt>
      <trkpt lat="43.37128" lon="2.7034">
        <ele>441.551239</ele>
        <time>2013-05-19T15:29:50Z</time>
      </trkpt>
      <trkpt lat="43.37103" lon="2.70358">
        <ele>437.686737</ele>
        <time>2013-05-19T15:29:55Z</time>
      </trkpt>
      <trkpt lat="43.37098" lon="2.70361">
        <ele>436.719238</ele>
        <time>2013-05-19T15:29:56Z</time>
      </trkpt>
      <trkpt lat="43.37092" lon="2.70363">
        <ele>435.629639</ele>
        <time>2013-05-19T15:29:57Z</time>
      </trkpt>
      <trkpt lat="43.37077" lon="2.70368">
        <ele>433.862</ele>
        <time>2013-05-19T15:30:00Z</time>
      </trkpt>
      <trkpt lat="43.37075" lon="2.70368">
        <ele>433.68866</ele>
        <time>2013-05-19T15:30:01Z</time>
      </trkpt>
      <trkpt lat="43.37063" lon="2.70369">
        <ele>432.877289</ele>
        <time>2013-05-19T15:30:05Z</time>
      </trkpt>
      <trkpt lat="43.37059" lon="2.70371">
        <ele>432.57132</ele>
        <time>2013-05-19T15:30:06Z</time>
      </trkpt>
      <trkpt lat="43.37054" lon="2.70373">
        <ele>432.217346</ele>
        <time>2013-05-19T15:30:07Z</time>
      </trkpt>
      <trkpt lat="43.3705" lon="2.70377">
        <ele>431.928253</ele>
        <time>2013-05-19T15:30:08Z</time>
      </trkpt>
      <trkpt lat="43.37048" lon="2.70383">
        <ele>431.738342</ele>
        <time>2013-05-19T15:30:09Z</time>
      </trkpt>
      <trkpt lat="43.37048" lon="2.7039">
        <ele>431.651825</ele>
        <time>2013-05-19T15:30:10Z</time>
      </trkpt>
      <trkpt lat="43.37047" lon="2.70398">
        <ele>431.475983</ele>
        <time>2013-05-19T15:30:11Z</time>
      </trkpt>
      <trkpt lat="43.37045" lon="2.70404">
        <ele>431.108429</ele>
        <time>2013-05-19T15:30:12Z</time>
      </trkpt>
      <trkpt lat="43.37043" lon="2.70409">
        <ele>430.581696</ele>
        <time>2013-05-19T15:30:13Z</time>
      </trkpt>
      <trkpt lat="43.3704" lon="2.70415">
        <ele>429.853027</ele>
        <time>2013-05-19T15:30:14Z</time>
      </trkpt>
      <trkpt lat="43.37036" lon="2.7042">
        <ele>429.144806</ele>
        <time>2013-05-19T15:30:15Z</time>
      </trkpt>
      <trkpt lat="43.37018" lon="2.70443">
        <ele>428.77243</ele>
        <time>2013-05-19T15:30:19Z</time>
      </trkpt>
      <trkpt lat="43.37012" lon="2.70448">
        <ele>428.359711</ele>
        <time>2013-05-19T15:30:20Z</time>
      </trkpt>
      <trkpt lat="43.37007" lon="2.70455">
        <ele>427.83075</ele>
        <time>2013-05-19T15:30:21Z</time>
      </trkpt>
      <trkpt lat="43.36991" lon="2.70476">
        <ele>425.044403</ele>
        <time>2013-05-19T15:30:24Z</time>
      </trkpt>
      <trkpt lat="43.36986" lon="2.70481">
        <ele>424.354187</ele>
        <time>2013-05-19T15:30:25Z</time>
      </trkpt>
      <trkpt lat="43.36981" lon="2.70482">
        <ele>423.789215</ele>
        <time>2013-05-19T15:30:26Z</time>
      </trkpt>
      <trkpt lat="43.36977" lon="2.7048">
        <ele>423.442139</ele>
        <time>2013-05-19T15:30:27Z</time>
      </trkpt>
      <trkpt lat="43.36974" lon="2.70478">
        <ele>423.167694</ele>
        <time>2013-05-19T15:30:28Z</time>
      </trkpt>
      <trkpt lat="43.3697" lon="2.70477">
        <ele>422.82785</ele>
        <time>2013-05-19T15:30:29Z</time>
      </trkpt>
      <trkpt lat="43.36966" lon="2.70477">
        <ele>422.462616</ele>
        <time>2013-05-19T15:30:30Z</time>
      </trkpt>
      <trkpt lat="43.36963" lon="2.70478">
        <ele>422.068604</ele>
        <time>2013-05-19T15:30:31Z</time>
      </trkpt>
      <trkpt lat="43.3696" lon="2.7048">
        <ele>421.531097</ele>
        <time>2013-05-19T15:30:32Z</time>
      </trkpt>
      <trkpt lat="43.36957" lon="2.70482">
        <ele>421.036194</ele>
        <time>2013-05-19T15:30:33Z</time>
      </trkpt>
      <trkpt lat="43.36954" lon="2.70484">
        <ele>420.44986</ele>
        <time>2013-05-19T15:30:34Z</time>
      </trkpt>
      <trkpt lat="43.3695" lon="2.70486">
        <ele>419.594299</ele>
        <time>2013-05-19T15:30:35Z</time>
      </trkpt>
      <trkpt lat="43.36945" lon="2.70489">
        <ele>418.957489</ele>
        <time>2013-05-19T15:30:36Z</time>
      </trkpt>
      <trkpt lat="43.3694" lon="2.70492">
        <ele>418.841248</ele>
        <time>2013-05-19T15:30:37Z</time>
      </trkpt>
      <trkpt lat="43.36934" lon="2.70494">
        <ele>418.617493</ele>
        <time>2013-05-19T15:30:38Z</time>
      </trkpt>
      <trkpt lat="43.36928" lon="2.70495">
        <ele>418.048737</ele>
        <time>2013-05-19T15:30:39Z</time>
      </trkpt>
      <trkpt lat="43.36922" lon="2.70494">
        <ele>417.258759</ele>
        <time>2013-05-19T15:30:40Z</time>
      </trkpt>
      <trkpt lat="43.36916" lon="2.70494">
        <ele>416.642487</ele>
        <time>2013-05-19T15:30:41Z</time>
      </trkpt>
      <trkpt lat="43.36909" lon="2.70495">
        <ele>416.123749</ele>
        <time>2013-05-19T15:30:42Z</time>
      </trkpt>
      <trkpt lat="43.36902" lon="2.70495">
        <ele>415.347473</ele>
        <time>2013-05-19T15:30:43Z</time>
      </trkpt>
      <trkpt lat="43.36895" lon="2.70495">
        <ele>414.815186</ele>
        <time>2013-05-19T15:30:44Z</time>
      </trkpt>
      <trkpt lat="43.36888" lon="2.70494">
        <ele>414.284973</ele>
        <time>2013-05-19T15:30:45Z</time>
      </trkpt>
      <trkpt lat="43.36867" lon="2.70493">
        <ele>412.72052</ele>
        <time>2013-05-19T15:30:48Z</time>
      </trkpt>
      <trkpt lat="43.36861" lon="2.70493">
        <ele>412.340393</ele>
        <time>2013-05-19T15:30:49Z</time>
      </trkpt>
      <trkpt lat="43.36849" lon="2.70492">
        <ele>411.545166</ele>
        <time>2013-05-19T15:30:51Z</time>
      </trkpt>
      <trkpt lat="43.36843" lon="2.70494">
        <ele>411.651611</ele>
        <time>2013-05-19T15:30:52Z</time>
      </trkpt>
      <trkpt lat="43.36838" lon="2.70496">
        <ele>411.850708</ele>
        <time>2013-05-19T15:30:53Z</time>
      </trkpt>
      <trkpt lat="43.36834" lon="2.70498">
        <ele>412.156189</ele>
        <time>2013-05-19T15:30:54Z</time>
      </trkpt>
      <trkpt lat="43.3683" lon="2.70501">
        <ele>412.677368</ele>
        <time>2013-05-19T15:30:55Z</time>
      </trkpt>
      <trkpt lat="43.36827" lon="2.70504">
        <ele>413.312836</ele>
        <time>2013-05-19T15:30:56Z</time>
      </trkpt>
      <trkpt lat="43.36824" lon="2.70507">
        <ele>413.938538</ele>
        <time>2013-05-19T15:30:57Z</time>
      </trkpt>
      <trkpt lat="43.36822" lon="2.7051">
        <ele>414.549683</ele>
        <time>2013-05-19T15:30:58Z</time>
      </trkpt>
      <trkpt lat="43.36809" lon="2.70525">
        <ele>418.497498</ele>
        <time>2013-05-19T15:31:05Z</time>
      </trkpt>
      <trkpt lat="43.36792" lon="2.70527">
        <ele>419.071259</ele>
        <time>2013-05-19T15:31:14Z</time>
      </trkpt>
      <trkpt lat="43.36786" lon="2.70524">
        <ele>418.369995</ele>
        <time>2013-05-19T15:31:18Z</time>
      </trkpt>
      <trkpt lat="43.36769" lon="2.70526">
        <ele>418.795013</ele>
        <time>2013-05-19T15:31:29Z</time>
      </trkpt>
      <trkpt lat="43.36764" lon="2.70523">
        <ele>418.255859</ele>
        <time>2013-05-19T15:31:32Z</time>
      </trkpt>
      <trkpt lat="43.36755" lon="2.70523">
        <ele>418.565002</ele>
        <time>2013-05-19T15:31:38Z</time>
      </trkpt>
      <trkpt lat="43.36751" lon="2.70522">
        <ele>418.545319</ele>
        <time>2013-05-19T15:31:41Z</time>
      </trkpt>
      <trkpt lat="43.36741" lon="2.70527">
        <ele>420.091248</ele>
        <time>2013-05-19T15:31:50Z</time>
      </trkpt>
      <trkpt lat="43.36735" lon="2.70529">
        <ele>420.915405</ele>
        <time>2013-05-19T15:31:55Z</time>
      </trkpt>
      <trkpt lat="43.36724" lon="2.70542">
        <ele>423.816589</ele>
        <time>2013-05-19T15:32:09Z</time>
      </trkpt>
      <trkpt lat="43.36723" lon="2.70545">
        <ele>424.429993</ele>
        <time>2013-05-19T15:32:11Z</time>
      </trkpt>
      <trkpt lat="43.36729" lon="2.70553">
        <ele>425.72757</ele>
        <time>2013-05-19T15:32:25Z</time>
      </trkpt>
      <trkpt lat="43.36739" lon="2.70563">
        <ele>427.379333</ele>
        <time>2013-05-19T15:32:39Z</time>
      </trkpt>
      <trkpt lat="43.36748" lon="2.70576">
        <ele>429.919678</ele>
        <time>2013-05-19T15:32:54Z</time>
      </trkpt>
      <trkpt lat="43.36755" lon="2.70586">
        <ele>432.142517</ele>
        <time>2013-05-19T15:33:06Z</time>
      </trkpt>
      <trkpt lat="43.36768" lon="2.70589">
        <ele>433.713806</ele>
        <time>2013-05-19T15:33:21Z</time>
      </trkpt>
      <trkpt lat="43.36776" lon="2.70594">
        <ele>435.149017</ele>
        <time>2013-05-19T15:33:31Z</time>
      </trkpt>
      <trkpt lat="43.36786" lon="2.70609">
        <ele>438.887817</ele>
        <time>2013-05-19T15:33:44Z</time>
      </trkpt>
      <trkpt lat="43.36794" lon="2.7062">
        <ele>440.257507</ele>
        <time>2013-05-19T15:33:56Z</time>
      </trkpt>
      <trkpt lat="43.36797" lon="2.70627">
        <ele>440.808746</ele>
        <time>2013-05-19T15:34:03Z</time>
      </trkpt>
      <trkpt lat="43.36797" lon="2.7063">
        <ele>440.973755</ele>
        <time>2013-05-19T15:34:05Z</time>
      </trkpt>
      <trkpt lat="43.36802" lon="2.70641">
        <ele>441.779999</ele>
        <time>2013-05-19T15:34:16Z</time>
      </trkpt>
      <trkpt lat="43.36802" lon="2.70642">
        <ele>441.88501</ele>
        <time>2013-05-19T15:34:17Z</time>
      </trkpt>
      <trkpt lat="43.36811" lon="2.70658">
        <ele>443.261261</ele>
        <time>2013-05-19T15:34:27Z</time>
      </trkpt>
      <trkpt lat="43.36828" lon="2.70679">
        <ele>443.641418</ele>
        <time>2013-05-19T15:34:41Z</time>
      </trkpt>
      <trkpt lat="43.36833" lon="2.70684">
        <ele>443.509308</ele>
        <time>2013-05-19T15:34:45Z</time>
      </trkpt>
      <trkpt lat="43.36841" lon="2.70693">
        <ele>443.292755</ele>
        <time>2013-05-19T15:34:51Z</time>
      </trkpt>
      <trkpt lat="43.36863" lon="2.70722">
        <ele>443.716034</ele>
        <time>2013-05-19T15:35:06Z</time>
      </trkpt>
      <trkpt lat="43.36876" lon="2.70742">
        <ele>444.747925</ele>
        <time>2013-05-19T15:35:17Z</time>
      </trkpt>
      <trkpt lat="43.36872" lon="2.7075">
        <ele>444.541779</ele>
        <time>2013-05-19T15:35:29Z</time>
      </trkpt>
      <trkpt lat="43.36872" lon="2.7075">
        <ele>444.540131</ele>
        <time>2013-05-19T15:36:12Z</time>
      </trkpt>
      <trkpt lat="43.36849" lon="2.70755">
        <ele>442.687988</ele>
        <time>2013-05-19T15:36:19Z</time>
      </trkpt>
      <trkpt lat="43.36844" lon="2.70755">
        <ele>442.332489</ele>
        <time>2013-05-19T15:36:20Z</time>
      </trkpt>
      <trkpt lat="43.36812" lon="2.70753">
        <ele>439.729156</ele>
        <time>2013-05-19T15:36:25Z</time>
      </trkpt>
      <trkpt lat="43.36795" lon="2.70748">
        <ele>438.102753</ele>
        <time>2013-05-19T15:36:27Z</time>
      </trkpt>
      <trkpt lat="43.36772" lon="2.70739">
        <ele>436.200409</ele>
        <time>2013-05-19T15:36:30Z</time>
      </trkpt>
      <trkpt lat="43.36765" lon="2.70736">
        <ele>435.741241</ele>
        <time>2013-05-19T15:36:31Z</time>
      </trkpt>
      <trkpt lat="43.36753" lon="2.70731">
        <ele>435.181915</ele>
        <time>2013-05-19T15:36:33Z</time>
      </trkpt>
      <trkpt lat="43.36747" lon="2.70731">
        <ele>434.791992</ele>
        <time>2013-05-19T15:36:34Z</time>
      </trkpt>
      <trkpt lat="43.36735" lon="2.70732">
        <ele>433.883545</ele>
        <time>2013-05-19T15:36:36Z</time>
      </trkpt>
      <trkpt lat="43.36716" lon="2.70731">
        <ele>432.78183</ele>
        <time>2013-05-19T15:36:39Z</time>
      </trkpt>
      <trkpt lat="43.36712" lon="2.70732">
        <ele>432.55127</ele>
        <time>2013-05-19T15:36:40Z</time>
      </trkpt>
      <trkpt lat="43.36697" lon="2.70747">
        <ele>431.453796</ele>
        <time>2013-05-19T15:36:45Z</time>
      </trkpt>
      <trkpt lat="43.36695" lon="2.70752">
        <ele>431.240784</ele>
        <time>2013-05-19T15:36:46Z</time>
      </trkpt>
      <trkpt lat="43.36685" lon="2.70779">
        <ele>430.324707</ele>
        <time>2013-05-19T15:36:54Z</time>
      </trkpt>
      <trkpt lat="43.36665" lon="2.70828">
        <ele>427.132721</ele>
        <time>2013-05-19T15:37:04Z</time>
      </trkpt>
      <trkpt lat="43.36663" lon="2.70834">
        <ele>426.590515</ele>
        <time>2013-05-19T15:37:05Z</time>
      </trkpt>
      <trkpt lat="43.3666" lon="2.7084">
        <ele>426.001709</ele>
        <time>2013-05-19T15:37:06Z</time>
      </trkpt>
      <trkpt lat="43.36633" lon="2.70908">
        <ele>421.375244</ele>
        <time>2013-05-19T15:37:16Z</time>
      </trkpt>
      <trkpt lat="43.3663" lon="2.70912">
        <ele>421.03952</ele>
        <time>2013-05-19T15:37:17Z</time>
      </trkpt>
      <trkpt lat="43.36627" lon="2.70917">
        <ele>420.572632</ele>
        <time>2013-05-19T15:37:18Z</time>
      </trkpt>
      <trkpt lat="43.36622" lon="2.70921">
        <ele>419.893127</ele>
        <time>2013-05-19T15:37:19Z</time>
      </trkpt>
      <trkpt lat="43.36618" lon="2.70924">
        <ele>419.250824</ele>
        <time>2013-05-19T15:37:20Z</time>
      </trkpt>
      <trkpt lat="43.36609" lon="2.70931">
        <ele>418.041199</ele>
        <time>2013-05-19T15:37:22Z</time>
      </trkpt>
      <trkpt lat="43.36605" lon="2.70936">
        <ele>417.400787</ele>
        <time>2013-05-19T15:37:23Z</time>
      </trkpt>
      <trkpt lat="43.36601" lon="2.70943">
        <ele>416.738739</ele>
        <time>2013-05-19T15:37:24Z</time>
      </trkpt>
      <trkpt lat="43.36589" lon="2.70964">
        <ele>414.836243</ele>
        <time>2013-05-19T15:37:27Z</time>
      </trkpt>
      <trkpt lat="43.36584" lon="2.7097">
        <ele>414.149994</ele>
        <time>2013-05-19T15:37:28Z</time>
      </trkpt>
      <trkpt lat="43.36578" lon="2.70976">
        <ele>413.336243</ele>
        <time>2013-05-19T15:37:29Z</time>
      </trkpt>
      <trkpt lat="43.36566" lon="2.70989">
        <ele>411.202545</ele>
        <time>2013-05-19T15:37:31Z</time>
      </trkpt>
      <trkpt lat="43.3656" lon="2.70996">
        <ele>410.109741</ele>
        <time>2013-05-19T15:37:32Z</time>
      </trkpt>
      <trkpt lat="43.36508" lon="2.71063">
        <ele>403.54364</ele>
        <time>2013-05-19T15:37:41Z</time>
      </trkpt>
      <trkpt lat="43.36504" lon="2.71068">
        <ele>403.240967</ele>
        <time>2013-05-19T15:37:42Z</time>
      </trkpt>
      <trkpt lat="43.36497" lon="2.71093">
        <ele>402.267761</ele>
        <time>2013-05-19T15:37:47Z</time>
      </trkpt>
      <trkpt lat="43.36498" lon="2.71099">
        <ele>402.067932</ele>
        <time>2013-05-19T15:37:48Z</time>
      </trkpt>
      <trkpt lat="43.365" lon="2.71105">
        <ele>401.598816</ele>
        <time>2013-05-19T15:37:49Z</time>
      </trkpt>
      <trkpt lat="43.36509" lon="2.71136">
        <ele>398.964874</ele>
        <time>2013-05-19T15:37:58Z</time>
      </trkpt>
      <trkpt lat="43.3651" lon="2.71137">
        <ele>398.969849</ele>
        <time>2013-05-19T15:37:59Z</time>
      </trkpt>
      <trkpt lat="43.36511" lon="2.71138">
        <ele>399.002563</ele>
        <time>2013-05-19T15:38:00Z</time>
      </trkpt>
      <trkpt lat="43.36512" lon="2.71137">
        <ele>399.11734</ele>
        <time>2013-05-19T15:38:07Z</time>
      </trkpt>
      <trkpt lat="43.36513" lon="2.71139">
        <ele>399.114899</ele>
        <time>2013-05-19T15:38:08Z</time>
      </trkpt>
      <trkpt lat="43.36515" lon="2.7114">
        <ele>399.179382</ele>
        <time>2013-05-19T15:38:09Z</time>
      </trkpt>
      <trkpt lat="43.36517" lon="2.7114">
        <ele>399.282104</ele>
        <time>2013-05-19T15:38:10Z</time>
      </trkpt>
      <trkpt lat="43.36519" lon="2.71142">
        <ele>399.399597</ele>
        <time>2013-05-19T15:38:11Z</time>
      </trkpt>
      <trkpt lat="43.36522" lon="2.71144">
        <ele>399.510559</ele>
        <time>2013-05-19T15:38:12Z</time>
      </trkpt>
      <trkpt lat="43.36534" lon="2.71152">
        <ele>400.373199</ele>
        <time>2013-05-19T15:38:19Z</time>
      </trkpt>
      <trkpt lat="43.36535" lon="2.71154">
        <ele>400.469757</ele>
        <time>2013-05-19T15:38:21Z</time>
      </trkpt>
      <trkpt lat="43.36536" lon="2.71155">
        <ele>400.501465</ele>
        <time>2013-05-19T15:38:22Z</time>
      </trkpt>
      <trkpt lat="43.36536" lon="2.71156">
        <ele>400.53595</ele>
        <time>2013-05-19T15:38:23Z</time>
      </trkpt>
      <trkpt lat="43.3655" lon="2.71176">
        <ele>402.35907</ele>
        <time>2013-05-19T15:38:40Z</time>
      </trkpt>
      <trkpt lat="43.3656" lon="2.7119">
        <ele>403.59079</ele>
        <time>2013-05-19T15:38:53Z</time>
      </trkpt>
      <trkpt lat="43.3656" lon="2.71191">
        <ele>403.632233</ele>
        <time>2013-05-19T15:38:54Z</time>
      </trkpt>
      <trkpt lat="43.36563" lon="2.71203">
        <ele>403.929413</ele>
        <time>2013-05-19T15:39:03Z</time>
      </trkpt>
      <trkpt lat="43.36562" lon="2.71204">
        <ele>403.860199</ele>
        <time>2013-05-19T15:39:20Z</time>
      </trkpt>
      <trkpt lat="43.36564" lon="2.71205">
        <ele>404.034821</ele>
        <time>2013-05-19T15:40:59Z</time>
      </trkpt>
      <trkpt lat="43.36567" lon="2.7121">
        <ele>404.356201</ele>
        <time>2013-05-19T15:41:14Z</time>
      </trkpt>
      <trkpt lat="43.36568" lon="2.71212">
        <ele>404.452026</ele>
        <time>2013-05-19T15:41:15Z</time>
      </trkpt>
      <trkpt lat="43.36569" lon="2.71213">
        <ele>404.555267</ele>
        <time>2013-05-19T15:41:16Z</time>
      </trkpt>
      <trkpt lat="43.3657" lon="2.71215">
        <ele>404.644989</ele>
        <time>2013-05-19T15:41:17Z</time>
      </trkpt>
      <trkpt lat="43.36571" lon="2.71217">
        <ele>404.762299</ele>
        <time>2013-05-19T15:41:18Z</time>
      </trkpt>
      <trkpt lat="43.36572" lon="2.71219">
        <ele>404.853302</ele>
        <time>2013-05-19T15:41:19Z</time>
      </trkpt>
      <trkpt lat="43.36573" lon="2.71222">
        <ele>404.908905</ele>
        <time>2013-05-19T15:41:20Z</time>
      </trkpt>
      <trkpt lat="43.36578" lon="2.71257">
        <ele>404.201172</ele>
        <time>2013-05-19T15:41:32Z</time>
      </trkpt>
      <trkpt lat="43.36592" lon="2.71298">
        <ele>403.991974</ele>
        <time>2013-05-19T15:41:45Z</time>
      </trkpt>
      <trkpt lat="43.36611" lon="2.71329">
        <ele>403.823639</ele>
        <time>2013-05-19T15:41:58Z</time>
      </trkpt>
      <trkpt lat="43.36623" lon="2.71367">
        <ele>402.627502</ele>
        <time>2013-05-19T15:42:07Z</time>
      </trkpt>
      <trkpt lat="43.36623" lon="2.71372">
        <ele>402.331238</ele>
        <time>2013-05-19T15:42:08Z</time>
      </trkpt>
      <trkpt lat="43.36621" lon="2.71378">
        <ele>401.918762</ele>
        <time>2013-05-19T15:42:09Z</time>
      </trkpt>
      <trkpt lat="43.36615" lon="2.7139">
        <ele>400.992493</ele>
        <time>2013-05-19T15:42:11Z</time>
      </trkpt>
      <trkpt lat="43.36611" lon="2.71395">
        <ele>400.467499</ele>
        <time>2013-05-19T15:42:12Z</time>
      </trkpt>
      <trkpt lat="43.36608" lon="2.714">
        <ele>399.987488</ele>
        <time>2013-05-19T15:42:13Z</time>
      </trkpt>
      <trkpt lat="43.36605" lon="2.71406">
        <ele>399.503754</ele>
        <time>2013-05-19T15:42:14Z</time>
      </trkpt>
      <trkpt lat="43.36603" lon="2.71412">
        <ele>399.022614</ele>
        <time>2013-05-19T15:42:15Z</time>
      </trkpt>
      <trkpt lat="43.36602" lon="2.7142">
        <ele>398.547119</ele>
        <time>2013-05-19T15:42:16Z</time>
      </trkpt>
      <trkpt lat="43.36602" lon="2.71428">
        <ele>398.111603</ele>
        <time>2013-05-19T15:42:17Z</time>
      </trkpt>
      <trkpt lat="43.36602" lon="2.71436">
        <ele>397.688934</ele>
        <time>2013-05-19T15:42:18Z</time>
      </trkpt>
      <trkpt lat="43.36602" lon="2.71443">
        <ele>397.291351</ele>
        <time>2013-05-19T15:42:19Z</time>
      </trkpt>
      <trkpt lat="43.36601" lon="2.71449">
        <ele>396.937195</ele>
        <time>2013-05-19T15:42:20Z</time>
      </trkpt>
      <trkpt lat="43.36599" lon="2.71463">
        <ele>396.050293</ele>
        <time>2013-05-19T15:42:25Z</time>
      </trkpt>
      <trkpt lat="43.36598" lon="2.71464">
        <ele>395.937805</ele>
        <time>2013-05-19T15:42:26Z</time>
      </trkpt>
      <trkpt lat="43.36597" lon="2.71466">
        <ele>395.800476</ele>
        <time>2013-05-19T15:42:27Z</time>
      </trkpt>
      <trkpt lat="43.36596" lon="2.71468">
        <ele>395.664429</ele>
        <time>2013-05-19T15:42:28Z</time>
      </trkpt>
      <trkpt lat="43.36595" lon="2.71469">
        <ele>395.526611</ele>
        <time>2013-05-19T15:42:29Z</time>
      </trkpt>
      <trkpt lat="43.36595" lon="2.71473">
        <ele>395.320007</ele>
        <time>2013-05-19T15:42:36Z</time>
      </trkpt>
      <trkpt lat="43.36597" lon="2.71474">
        <ele>395.297516</ele>
        <time>2013-05-19T15:42:37Z</time>
      </trkpt>
      <trkpt lat="43.36598" lon="2.71474">
        <ele>395.320007</ele>
        <time>2013-05-19T15:42:38Z</time>
      </trkpt>
      <trkpt lat="43.36599" lon="2.71474">
        <ele>395.386261</ele>
        <time>2013-05-19T15:42:39Z</time>
      </trkpt>
      <trkpt lat="43.36601" lon="2.71474">
        <ele>395.475006</ele>
        <time>2013-05-19T15:42:40Z</time>
      </trkpt>
      <trkpt lat="43.36603" lon="2.71474">
        <ele>395.568756</ele>
        <time>2013-05-19T15:42:41Z</time>
      </trkpt>
      <trkpt lat="43.36631" lon="2.71476">
        <ele>396.706299</ele>
        <time>2013-05-19T15:42:55Z</time>
      </trkpt>
      <trkpt lat="43.36659" lon="2.71497">
        <ele>397.933319</ele>
        <time>2013-05-19T15:43:07Z</time>
      </trkpt>
      <trkpt lat="43.36668" lon="2.71556">
        <ele>397.984985</ele>
        <time>2013-05-19T15:43:21Z</time>
      </trkpt>
      <trkpt lat="43.36666" lon="2.71617">
        <ele>398.596313</ele>
        <time>2013-05-19T15:43:34Z</time>
      </trkpt>
      <trkpt lat="43.36664" lon="2.7162">
        <ele>398.375946</ele>
        <time>2013-05-19T15:43:35Z</time>
      </trkpt>
      <trkpt lat="43.36661" lon="2.71623">
        <ele>397.977234</ele>
        <time>2013-05-19T15:43:36Z</time>
      </trkpt>
      <trkpt lat="43.36656" lon="2.71625">
        <ele>397.361481</ele>
        <time>2013-05-19T15:43:37Z</time>
      </trkpt>
      <trkpt lat="43.3665" lon="2.71628">
        <ele>396.68219</ele>
        <time>2013-05-19T15:43:38Z</time>
      </trkpt>
      <trkpt lat="43.36644" lon="2.71631">
        <ele>395.975403</ele>
        <time>2013-05-19T15:43:39Z</time>
      </trkpt>
      <trkpt lat="43.36638" lon="2.71634">
        <ele>395.207611</ele>
        <time>2013-05-19T15:43:40Z</time>
      </trkpt>
      <trkpt lat="43.36631" lon="2.71639">
        <ele>394.411194</ele>
        <time>2013-05-19T15:43:41Z</time>
      </trkpt>
      <trkpt lat="43.36624" lon="2.71644">
        <ele>393.524628</ele>
        <time>2013-05-19T15:43:42Z</time>
      </trkpt>
      <trkpt lat="43.36616" lon="2.7165">
        <ele>392.455292</ele>
        <time>2013-05-19T15:43:43Z</time>
      </trkpt>
      <trkpt lat="43.36608" lon="2.71656">
        <ele>391.21051</ele>
        <time>2013-05-19T15:43:44Z</time>
      </trkpt>
      <trkpt lat="43.36558" lon="2.71693">
        <ele>385.225067</ele>
        <time>2013-05-19T15:43:51Z</time>
      </trkpt>
      <trkpt lat="43.36552" lon="2.717">
        <ele>384.770599</ele>
        <time>2013-05-19T15:43:52Z</time>
      </trkpt>
      <trkpt lat="43.36479" lon="2.71764">
        <ele>378.51001</ele>
        <time>2013-05-19T15:44:02Z</time>
      </trkpt>
      <trkpt lat="43.3638" lon="2.71798">
        <ele>367.060791</ele>
        <time>2013-05-19T15:44:13Z</time>
      </trkpt>
      <trkpt lat="43.36346" lon="2.71815">
        <ele>364.476837</ele>
        <time>2013-05-19T15:44:17Z</time>
      </trkpt>
      <trkpt lat="43.36339" lon="2.71821">
        <ele>364.39328</ele>
        <time>2013-05-19T15:44:18Z</time>
      </trkpt>
      <trkpt lat="43.36334" lon="2.71829">
        <ele>364.497131</ele>
        <time>2013-05-19T15:44:19Z</time>
      </trkpt>
      <trkpt lat="43.3633" lon="2.71838">
        <ele>364.726501</ele>
        <time>2013-05-19T15:44:20Z</time>
      </trkpt>
      <trkpt lat="43.36326" lon="2.71848">
        <ele>364.116211</ele>
        <time>2013-05-19T15:44:21Z</time>
      </trkpt>
      <trkpt lat="43.36325" lon="2.71859">
        <ele>363.619202</ele>
        <time>2013-05-19T15:44:22Z</time>
      </trkpt>
      <trkpt lat="43.36324" lon="2.7187">
        <ele>363.261078</ele>
        <time>2013-05-19T15:44:23Z</time>
      </trkpt>
      <trkpt lat="43.36325" lon="2.7188">
        <ele>363.08844</ele>
        <time>2013-05-19T15:44:24Z</time>
      </trkpt>
      <trkpt lat="43.36325" lon="2.71887">
        <ele>362.905182</ele>
        <time>2013-05-19T15:44:25Z</time>
      </trkpt>
      <trkpt lat="43.36324" lon="2.71894">
        <ele>362.559204</ele>
        <time>2013-05-19T15:44:26Z</time>
      </trkpt>
      <trkpt lat="43.36322" lon="2.71901">
        <ele>362.088135</ele>
        <time>2013-05-19T15:44:27Z</time>
      </trkpt>
      <trkpt lat="43.36318" lon="2.71906">
        <ele>361.862</ele>
        <time>2013-05-19T15:44:28Z</time>
      </trkpt>
      <trkpt lat="43.36314" lon="2.71911">
        <ele>361.524994</ele>
        <time>2013-05-19T15:44:29Z</time>
      </trkpt>
      <trkpt lat="43.36309" lon="2.71915">
        <ele>361.256561</ele>
        <time>2013-05-19T15:44:30Z</time>
      </trkpt>
      <trkpt lat="43.36252" lon="2.71973">
        <ele>355.131195</ele>
        <time>2013-05-19T15:44:40Z</time>
      </trkpt>
      <trkpt lat="43.36248" lon="2.71983">
        <ele>354.44101</ele>
        <time>2013-05-19T15:44:41Z</time>
      </trkpt>
      <trkpt lat="43.36218" lon="2.72067">
        <ele>349.003601</ele>
        <time>2013-05-19T15:44:49Z</time>
      </trkpt>
      <trkpt lat="43.36212" lon="2.72076">
        <ele>348.175568</ele>
        <time>2013-05-19T15:44:50Z</time>
      </trkpt>
      <trkpt lat="43.362" lon="2.72095">
        <ele>346.783508</ele>
        <time>2013-05-19T15:44:52Z</time>
      </trkpt>
      <trkpt lat="43.36196" lon="2.72107">
        <ele>346.138336</ele>
        <time>2013-05-19T15:44:53Z</time>
      </trkpt>
      <trkpt lat="43.36193" lon="2.72119">
        <ele>345.556793</ele>
        <time>2013-05-19T15:44:54Z</time>
      </trkpt>
      <trkpt lat="43.36191" lon="2.72131">
        <ele>345.079041</ele>
        <time>2013-05-19T15:44:55Z</time>
      </trkpt>
      <trkpt lat="43.36189" lon="2.72143">
        <ele>344.539551</ele>
        <time>2013-05-19T15:44:56Z</time>
      </trkpt>
      <trkpt lat="43.36185" lon="2.72155">
        <ele>343.959991</ele>
        <time>2013-05-19T15:44:57Z</time>
      </trkpt>
      <trkpt lat="43.3618" lon="2.72165">
        <ele>343.23999</ele>
        <time>2013-05-19T15:44:58Z</time>
      </trkpt>
      <trkpt lat="43.36174" lon="2.72174">
        <ele>342.524994</ele>
        <time>2013-05-19T15:44:59Z</time>
      </trkpt>
      <trkpt lat="43.36168" lon="2.72184">
        <ele>341.912506</ele>
        <time>2013-05-19T15:45:00Z</time>
      </trkpt>
      <trkpt lat="43.36148" lon="2.72241">
        <ele>339.102509</ele>
        <time>2013-05-19T15:45:05Z</time>
      </trkpt>
      <trkpt lat="43.36146" lon="2.72254">
        <ele>338.679993</ele>
        <time>2013-05-19T15:45:06Z</time>
      </trkpt>
      <trkpt lat="43.36145" lon="2.72267">
        <ele>338.342499</ele>
        <time>2013-05-19T15:45:07Z</time>
      </trkpt>
      <trkpt lat="43.36132" lon="2.72389">
        <ele>335.070007</ele>
        <time>2013-05-19T15:45:17Z</time>
      </trkpt>
      <trkpt lat="43.36133" lon="2.724">
        <ele>334.838013</ele>
        <time>2013-05-19T15:45:18Z</time>
      </trkpt>
      <trkpt lat="43.36135" lon="2.72411">
        <ele>334.656708</ele>
        <time>2013-05-19T15:45:19Z</time>
      </trkpt>
      <trkpt lat="43.36136" lon="2.72421">
        <ele>334.453094</ele>
        <time>2013-05-19T15:45:20Z</time>
      </trkpt>
      <trkpt lat="43.36137" lon="2.72428">
        <ele>334.210052</ele>
        <time>2013-05-19T15:45:21Z</time>
      </trkpt>
      <trkpt lat="43.36137" lon="2.72433">
        <ele>334.032379</ele>
        <time>2013-05-19T15:45:22Z</time>
      </trkpt>
      <trkpt lat="43.36136" lon="2.72438">
        <ele>333.813354</ele>
        <time>2013-05-19T15:45:31Z</time>
      </trkpt>
      <trkpt lat="43.36136" lon="2.7244">
        <ele>333.717896</ele>
        <time>2013-05-19T15:45:49Z</time>
      </trkpt>
      <trkpt lat="43.36134" lon="2.72441">
        <ele>333.580505</ele>
        <time>2013-05-19T15:45:50Z</time>
      </trkpt>
      <trkpt lat="43.3613" lon="2.72442">
        <ele>333.183624</ele>
        <time>2013-05-19T15:45:52Z</time>
      </trkpt>
      <trkpt lat="43.36128" lon="2.72441">
        <ele>332.956604</ele>
        <time>2013-05-19T15:45:53Z</time>
      </trkpt>
      <trkpt lat="43.36126" lon="2.72441">
        <ele>332.661316</ele>
        <time>2013-05-19T15:45:54Z</time>
      </trkpt>
      <trkpt lat="43.36118" lon="2.72441">
        <ele>331.743042</ele>
        <time>2013-05-19T15:45:56Z</time>
      </trkpt>
      <trkpt lat="43.36107" lon="2.72443">
        <ele>330.476563</ele>
        <time>2013-05-19T15:45:58Z</time>
      </trkpt>
      <trkpt lat="43.36101" lon="2.72446">
        <ele>329.732422</ele>
        <time>2013-05-19T15:45:59Z</time>
      </trkpt>
      <trkpt lat="43.36096" lon="2.72451">
        <ele>329.029999</ele>
        <time>2013-05-19T15:46:00Z</time>
      </trkpt>
      <trkpt lat="43.36091" lon="2.72459">
        <ele>328.340851</ele>
        <time>2013-05-19T15:46:01Z</time>
      </trkpt>
      <trkpt lat="43.36086" lon="2.72466">
        <ele>327.717499</ele>
        <time>2013-05-19T15:46:02Z</time>
      </trkpt>
      <trkpt lat="43.36081" lon="2.72472">
        <ele>327.151245</ele>
        <time>2013-05-19T15:46:03Z</time>
      </trkpt>
      <trkpt lat="43.36075" lon="2.72475">
        <ele>326.545013</ele>
        <time>2013-05-19T15:46:04Z</time>
      </trkpt>
      <trkpt lat="43.36068" lon="2.72477">
        <ele>325.899994</ele>
        <time>2013-05-19T15:46:05Z</time>
      </trkpt>
      <trkpt lat="43.36062" lon="2.72478">
        <ele>325.331238</ele>
        <time>2013-05-19T15:46:06Z</time>
      </trkpt>
      <trkpt lat="43.36056" lon="2.72482">
        <ele>324.821259</ele>
        <time>2013-05-19T15:46:07Z</time>
      </trkpt>
      <trkpt lat="43.36052" lon="2.72486">
        <ele>324.302521</ele>
        <time>2013-05-19T15:46:08Z</time>
      </trkpt>
      <trkpt lat="43.36047" lon="2.72493">
        <ele>323.816254</ele>
        <time>2013-05-19T15:46:09Z</time>
      </trkpt>
      <trkpt lat="43.36034" lon="2.72515">
        <ele>322.102509</ele>
        <time>2013-05-19T15:46:12Z</time>
      </trkpt>
      <trkpt lat="43.3603" lon="2.72521">
        <ele>321.515015</ele>
        <time>2013-05-19T15:46:13Z</time>
      </trkpt>
      <trkpt lat="43.36027" lon="2.72524">
        <ele>321.01001</ele>
        <time>2013-05-19T15:46:14Z</time>
      </trkpt>
      <trkpt lat="43.36023" lon="2.72525">
        <ele>320.545013</ele>
        <time>2013-05-19T15:46:15Z</time>
      </trkpt>
      <trkpt lat="43.36019" lon="2.72523">
        <ele>320.105011</ele>
        <time>2013-05-19T15:46:16Z</time>
      </trkpt>
      <trkpt lat="43.36014" lon="2.72523">
        <ele>319.557495</ele>
        <time>2013-05-19T15:46:17Z</time>
      </trkpt>
      <trkpt lat="43.3601" lon="2.72526">
        <ele>319.057495</ele>
        <time>2013-05-19T15:46:18Z</time>
      </trkpt>
      <trkpt lat="43.36004" lon="2.72533">
        <ele>318.130005</ele>
        <time>2013-05-19T15:46:20Z</time>
      </trkpt>
      <trkpt lat="43.36" lon="2.72538">
        <ele>317.577484</ele>
        <time>2013-05-19T15:46:21Z</time>
      </trkpt>
      <trkpt lat="43.35996" lon="2.72543">
        <ele>316.977509</ele>
        <time>2013-05-19T15:46:22Z</time>
      </trkpt>
      <trkpt lat="43.35992" lon="2.72549">
        <ele>316.417511</ele>
        <time>2013-05-19T15:46:23Z</time>
      </trkpt>
      <trkpt lat="43.35987" lon="2.72555">
        <ele>315.797485</ele>
        <time>2013-05-19T15:46:24Z</time>
      </trkpt>
      <trkpt lat="43.35983" lon="2.72563">
        <ele>315.142487</ele>
        <time>2013-05-19T15:46:25Z</time>
      </trkpt>
      <trkpt lat="43.35978" lon="2.72571">
        <ele>314.48999</ele>
        <time>2013-05-19T15:46:26Z</time>
      </trkpt>
      <trkpt lat="43.35975" lon="2.72578">
        <ele>313.851013</ele>
        <time>2013-05-19T15:46:27Z</time>
      </trkpt>
      <trkpt lat="43.35971" lon="2.72584">
        <ele>313.196686</ele>
        <time>2013-05-19T15:46:28Z</time>
      </trkpt>
      <trkpt lat="43.35966" lon="2.72587">
        <ele>312.56958</ele>
        <time>2013-05-19T15:46:29Z</time>
      </trkpt>
      <trkpt lat="43.35962" lon="2.7259">
        <ele>311.938568</ele>
        <time>2013-05-19T15:46:30Z</time>
      </trkpt>
      <trkpt lat="43.35957" lon="2.72592">
        <ele>311.412018</ele>
        <time>2013-05-19T15:46:31Z</time>
      </trkpt>
      <trkpt lat="43.35953" lon="2.72593">
        <ele>310.937317</ele>
        <time>2013-05-19T15:46:32Z</time>
      </trkpt>
      <trkpt lat="43.35942" lon="2.72596">
        <ele>309.716309</ele>
        <time>2013-05-19T15:46:35Z</time>
      </trkpt>
      <trkpt lat="43.35937" lon="2.72597">
        <ele>309.201111</ele>
        <time>2013-05-19T15:46:36Z</time>
      </trkpt>
      <trkpt lat="43.35933" lon="2.72598">
        <ele>308.693756</ele>
        <time>2013-05-19T15:46:37Z</time>
      </trkpt>
      <trkpt lat="43.35927" lon="2.72598">
        <ele>308.162231</ele>
        <time>2013-05-19T15:46:38Z</time>
      </trkpt>
      <trkpt lat="43.35921" lon="2.72598">
        <ele>307.592773</ele>
        <time>2013-05-19T15:46:39Z</time>
      </trkpt>
      <trkpt lat="43.35886" lon="2.72604">
        <ele>303.49469</ele>
        <time>2013-05-19T15:46:44Z</time>
      </trkpt>
      <trkpt lat="43.3588" lon="2.72611">
        <ele>302.553925</ele>
        <time>2013-05-19T15:46:45Z</time>
      </trkpt>
      <trkpt lat="43.35875" lon="2.72618">
        <ele>301.838959</ele>
        <time>2013-05-19T15:46:46Z</time>
      </trkpt>
      <trkpt lat="43.35871" lon="2.72624">
        <ele>301.205048</ele>
        <time>2013-05-19T15:46:47Z</time>
      </trkpt>
      <trkpt lat="43.35866" lon="2.72629">
        <ele>300.55249</ele>
        <time>2013-05-19T15:46:48Z</time>
      </trkpt>
      <trkpt lat="43.3586" lon="2.72633">
        <ele>299.772491</ele>
        <time>2013-05-19T15:46:49Z</time>
      </trkpt>
      <trkpt lat="43.35853" lon="2.72636">
        <ele>298.806</ele>
        <time>2013-05-19T15:46:50Z</time>
      </trkpt>
      <trkpt lat="43.35845" lon="2.72639">
        <ele>297.703186</ele>
        <time>2013-05-19T15:46:51Z</time>
      </trkpt>
      <trkpt lat="43.35837" lon="2.72641">
        <ele>296.57132</ele>
        <time>2013-05-19T15:46:52Z</time>
      </trkpt>
      <trkpt lat="43.35829" lon="2.72642">
        <ele>295.516113</ele>
        <time>2013-05-19T15:46:53Z</time>
      </trkpt>
      <trkpt lat="43.35822" lon="2.72643">
        <ele>294.610779</ele>
        <time>2013-05-19T15:46:54Z</time>
      </trkpt>
      <trkpt lat="43.35817" lon="2.72646">
        <ele>293.807068</ele>
        <time>2013-05-19T15:46:55Z</time>
      </trkpt>
      <trkpt lat="43.35812" lon="2.72651">
        <ele>293.155212</ele>
        <time>2013-05-19T15:46:56Z</time>
      </trkpt>
      <trkpt lat="43.3581" lon="2.72657">
        <ele>292.746002</ele>
        <time>2013-05-19T15:46:57Z</time>
      </trkpt>
      <trkpt lat="43.35809" lon="2.72665">
        <ele>292.597473</ele>
        <time>2013-05-19T15:46:58Z</time>
      </trkpt>
      <trkpt lat="43.3581" lon="2.72673">
        <ele>292.58786</ele>
        <time>2013-05-19T15:46:59Z</time>
      </trkpt>
      <trkpt lat="43.35814" lon="2.72703">
        <ele>292.628754</ele>
        <time>2013-05-19T15:47:03Z</time>
      </trkpt>
      <trkpt lat="43.35818" lon="2.72716">
        <ele>292.818787</ele>
        <time>2013-05-19T15:47:05Z</time>
      </trkpt>
      <trkpt lat="43.35819" lon="2.72721">
        <ele>292.85202</ele>
        <time>2013-05-19T15:47:06Z</time>
      </trkpt>
      <trkpt lat="43.35823" lon="2.72737">
        <ele>293.013367</ele>
        <time>2013-05-19T15:47:09Z</time>
      </trkpt>
      <trkpt lat="43.35828" lon="2.72755">
        <ele>293.129791</ele>
        <time>2013-05-19T15:47:12Z</time>
      </trkpt>
      <trkpt lat="43.35837" lon="2.72809">
        <ele>290.247284</ele>
        <time>2013-05-19T15:47:20Z</time>
      </trkpt>
      <trkpt lat="43.35838" lon="2.72817">
        <ele>289.718475</ele>
        <time>2013-05-19T15:47:21Z</time>
      </trkpt>
      <trkpt lat="43.35837" lon="2.72825">
        <ele>289.17749</ele>
        <time>2013-05-19T15:47:22Z</time>
      </trkpt>
      <trkpt lat="43.35835" lon="2.72833">
        <ele>288.674988</ele>
        <time>2013-05-19T15:47:23Z</time>
      </trkpt>
      <trkpt lat="43.35832" lon="2.72841">
        <ele>288.09375</ele>
        <time>2013-05-19T15:47:24Z</time>
      </trkpt>
      <trkpt lat="43.35828" lon="2.72849">
        <ele>287.448761</ele>
        <time>2013-05-19T15:47:25Z</time>
      </trkpt>
      <trkpt lat="43.35824" lon="2.72857">
        <ele>286.736237</ele>
        <time>2013-05-19T15:47:26Z</time>
      </trkpt>
      <trkpt lat="43.35819" lon="2.72866">
        <ele>285.993744</ele>
        <time>2013-05-19T15:47:27Z</time>
      </trkpt>
      <trkpt lat="43.35791" lon="2.72917">
        <ele>281.654999</ele>
        <time>2013-05-19T15:47:32Z</time>
      </trkpt>
      <trkpt lat="43.35723" lon="2.72997">
        <ele>272.094299</ele>
        <time>2013-05-19T15:47:41Z</time>
      </trkpt>
      <trkpt lat="43.35708" lon="2.73017">
        <ele>269.057007</ele>
        <time>2013-05-19T15:47:44Z</time>
      </trkpt>
      <trkpt lat="43.35703" lon="2.73027">
        <ele>267.862427</ele>
        <time>2013-05-19T15:47:45Z</time>
      </trkpt>
      <trkpt lat="43.35698" lon="2.73036">
        <ele>266.639069</ele>
        <time>2013-05-19T15:47:46Z</time>
      </trkpt>
      <trkpt lat="43.35651" lon="2.73092">
        <ele>257.000854</ele>
        <time>2013-05-19T15:47:53Z</time>
      </trkpt>
      <trkpt lat="43.3564" lon="2.73104">
        <ele>254.647629</ele>
        <time>2013-05-19T15:47:55Z</time>
      </trkpt>
      <trkpt lat="43.35636" lon="2.73113">
        <ele>253.148682</ele>
        <time>2013-05-19T15:47:56Z</time>
      </trkpt>
      <trkpt lat="43.35632" lon="2.7312">
        <ele>252.051224</ele>
        <time>2013-05-19T15:47:57Z</time>
      </trkpt>
      <trkpt lat="43.3563" lon="2.73127">
        <ele>251.182358</ele>
        <time>2013-05-19T15:47:58Z</time>
      </trkpt>
      <trkpt lat="43.35629" lon="2.73132">
        <ele>250.451218</ele>
        <time>2013-05-19T15:47:59Z</time>
      </trkpt>
      <trkpt lat="43.3563" lon="2.73137">
        <ele>249.79718</ele>
        <time>2013-05-19T15:48:00Z</time>
      </trkpt>
      <trkpt lat="43.35631" lon="2.73142">
        <ele>249.195297</ele>
        <time>2013-05-19T15:48:01Z</time>
      </trkpt>
      <trkpt lat="43.35633" lon="2.73146">
        <ele>248.625412</ele>
        <time>2013-05-19T15:48:02Z</time>
      </trkpt>
      <trkpt lat="43.35636" lon="2.7315">
        <ele>248.133591</ele>
        <time>2013-05-19T15:48:03Z</time>
      </trkpt>
      <trkpt lat="43.3564" lon="2.73153">
        <ele>248.075607</ele>
        <time>2013-05-19T15:48:04Z</time>
      </trkpt>
      <trkpt lat="43.35643" lon="2.73155">
        <ele>248.243668</ele>
        <time>2013-05-19T15:48:05Z</time>
      </trkpt>
      <trkpt lat="43.35647" lon="2.73156">
        <ele>248.513428</ele>
        <time>2013-05-19T15:48:06Z</time>
      </trkpt>
      <trkpt lat="43.3565" lon="2.73156">
        <ele>248.782394</ele>
        <time>2013-05-19T15:48:07Z</time>
      </trkpt>
      <trkpt lat="43.35652" lon="2.73156">
        <ele>249.040314</ele>
        <time>2013-05-19T15:48:08Z</time>
      </trkpt>
      <trkpt lat="43.35655" lon="2.73156">
        <ele>249.350174</ele>
        <time>2013-05-19T15:48:09Z</time>
      </trkpt>
      <trkpt lat="43.35657" lon="2.73156">
        <ele>249.688095</ele>
        <time>2013-05-19T15:48:10Z</time>
      </trkpt>
      <trkpt lat="43.3566" lon="2.73156">
        <ele>249.979523</ele>
        <time>2013-05-19T15:48:11Z</time>
      </trkpt>
      <trkpt lat="43.35696" lon="2.73145">
        <ele>255.800232</ele>
        <time>2013-05-19T15:48:23Z</time>
      </trkpt>
      <trkpt lat="43.35699" lon="2.73147">
        <ele>256.368011</ele>
        <time>2013-05-19T15:48:24Z</time>
      </trkpt>
      <trkpt lat="43.35701" lon="2.73151">
        <ele>256.842682</ele>
        <time>2013-05-19T15:48:25Z</time>
      </trkpt>
      <trkpt lat="43.35702" lon="2.73155">
        <ele>257.044586</ele>
        <time>2013-05-19T15:48:26Z</time>
      </trkpt>
      <trkpt lat="43.35701" lon="2.73159">
        <ele>256.990326</ele>
        <time>2013-05-19T15:48:27Z</time>
      </trkpt>
      <trkpt lat="43.35701" lon="2.73162">
        <ele>256.821716</ele>
        <time>2013-05-19T15:48:28Z</time>
      </trkpt>
      <trkpt lat="43.357" lon="2.73166">
        <ele>256.643494</ele>
        <time>2013-05-19T15:48:29Z</time>
      </trkpt>
      <trkpt lat="43.35699" lon="2.73169">
        <ele>256.569672</ele>
        <time>2013-05-19T15:48:30Z</time>
      </trkpt>
      <trkpt lat="43.35699" lon="2.73173">
        <ele>256.433258</ele>
        <time>2013-05-19T15:48:31Z</time>
      </trkpt>
      <trkpt lat="43.35698" lon="2.73176">
        <ele>256.229797</ele>
        <time>2013-05-19T15:48:32Z</time>
      </trkpt>
      <trkpt lat="43.35687" lon="2.73219">
        <ele>256.698334</ele>
        <time>2013-05-19T15:48:46Z</time>
      </trkpt>
      <trkpt lat="43.35659" lon="2.7327">
        <ele>253.500275</ele>
        <time>2013-05-19T15:48:58Z</time>
      </trkpt>
      <trkpt lat="43.3565" lon="2.73281">
        <ele>252.471405</ele>
        <time>2013-05-19T15:49:00Z</time>
      </trkpt>
      <trkpt lat="43.35647" lon="2.73288">
        <ele>252.530899</ele>
        <time>2013-05-19T15:49:01Z</time>
      </trkpt>
      <trkpt lat="43.35644" lon="2.73295">
        <ele>253.148819</ele>
        <time>2013-05-19T15:49:02Z</time>
      </trkpt>
      <trkpt lat="43.35643" lon="2.73303">
        <ele>254.115204</ele>
        <time>2013-05-19T15:49:03Z</time>
      </trkpt>
      <trkpt lat="43.35642" lon="2.73311">
        <ele>255.391556</ele>
        <time>2013-05-19T15:49:04Z</time>
      </trkpt>
      <trkpt lat="43.35642" lon="2.7332">
        <ele>255.757736</ele>
        <time>2013-05-19T15:49:05Z</time>
      </trkpt>
      <trkpt lat="43.35641" lon="2.73328">
        <ele>256.109283</ele>
        <time>2013-05-19T15:49:06Z</time>
      </trkpt>
      <trkpt lat="43.3564" lon="2.73351">
        <ele>256.898682</ele>
        <time>2013-05-19T15:49:09Z</time>
      </trkpt>
      <trkpt lat="43.35636" lon="2.73364">
        <ele>256.863098</ele>
        <time>2013-05-19T15:49:11Z</time>
      </trkpt>
      <trkpt lat="43.35634" lon="2.73369">
        <ele>256.747101</ele>
        <time>2013-05-19T15:49:12Z</time>
      </trkpt>
      <trkpt lat="43.35632" lon="2.73374">
        <ele>256.657715</ele>
        <time>2013-05-19T15:49:13Z</time>
      </trkpt>
      <trkpt lat="43.35631" lon="2.73379">
        <ele>256.361511</ele>
        <time>2013-05-19T15:49:14Z</time>
      </trkpt>
      <trkpt lat="43.3563" lon="2.73385">
        <ele>256.046997</ele>
        <time>2013-05-19T15:49:15Z</time>
      </trkpt>
      <trkpt lat="43.35628" lon="2.73391">
        <ele>255.668503</ele>
        <time>2013-05-19T15:49:16Z</time>
      </trkpt>
      <trkpt lat="43.35626" lon="2.73398">
        <ele>255.25</ele>
        <time>2013-05-19T15:49:17Z</time>
      </trkpt>
      <trkpt lat="43.35621" lon="2.73411">
        <ele>254.352997</ele>
        <time>2013-05-19T15:49:19Z</time>
      </trkpt>
      <trkpt lat="43.35614" lon="2.73424">
        <ele>253.381454</ele>
        <time>2013-05-19T15:49:21Z</time>
      </trkpt>
      <trkpt lat="43.35611" lon="2.7343">
        <ele>252.892151</ele>
        <time>2013-05-19T15:49:22Z</time>
      </trkpt>
      <trkpt lat="43.35585" lon="2.73482">
        <ele>248.761642</ele>
        <time>2013-05-19T15:49:33Z</time>
      </trkpt>
      <trkpt lat="43.35583" lon="2.73488">
        <ele>248.397659</ele>
        <time>2013-05-19T15:49:34Z</time>
      </trkpt>
      <trkpt lat="43.35582" lon="2.73494">
        <ele>248.089294</ele>
        <time>2013-05-19T15:49:35Z</time>
      </trkpt>
      <trkpt lat="43.35581" lon="2.73499">
        <ele>247.860855</ele>
        <time>2013-05-19T15:49:36Z</time>
      </trkpt>
      <trkpt lat="43.3558" lon="2.73505">
        <ele>247.729828</ele>
        <time>2013-05-19T15:49:37Z</time>
      </trkpt>
      <trkpt lat="43.3558" lon="2.73511">
        <ele>247.627014</ele>
        <time>2013-05-19T15:49:38Z</time>
      </trkpt>
      <trkpt lat="43.35574" lon="2.7356">
        <ele>245.942505</ele>
        <time>2013-05-19T15:49:50Z</time>
      </trkpt>
      <trkpt lat="43.35572" lon="2.73581">
        <ele>244.860001</ele>
        <time>2013-05-19T15:49:54Z</time>
      </trkpt>
      <trkpt lat="43.35573" lon="2.73588">
        <ele>244.815002</ele>
        <time>2013-05-19T15:49:55Z</time>
      </trkpt>
      <trkpt lat="43.35574" lon="2.73593">
        <ele>244.960007</ele>
        <time>2013-05-19T15:49:56Z</time>
      </trkpt>
      <trkpt lat="43.35576" lon="2.73599">
        <ele>245.139999</ele>
        <time>2013-05-19T15:49:57Z</time>
      </trkpt>
      <trkpt lat="43.35578" lon="2.73604">
        <ele>245.404999</ele>
        <time>2013-05-19T15:49:58Z</time>
      </trkpt>
      <trkpt lat="43.35577" lon="2.73658">
        <ele>243.542877</ele>
        <time>2013-05-19T15:50:06Z</time>
      </trkpt>
      <trkpt lat="43.35574" lon="2.7369">
        <ele>242.71431</ele>
        <time>2013-05-19T15:50:09Z</time>
      </trkpt>
      <trkpt lat="43.35569" lon="2.73699">
        <ele>242.201324</ele>
        <time>2013-05-19T15:50:10Z</time>
      </trkpt>
      <trkpt lat="43.35558" lon="2.73716">
        <ele>241.0569</ele>
        <time>2013-05-19T15:50:12Z</time>
      </trkpt>
      <trkpt lat="43.35554" lon="2.73726">
        <ele>240.736938</ele>
        <time>2013-05-19T15:50:13Z</time>
      </trkpt>
      <trkpt lat="43.3555" lon="2.73735">
        <ele>240.549561</ele>
        <time>2013-05-19T15:50:14Z</time>
      </trkpt>
      <trkpt lat="43.35546" lon="2.73746">
        <ele>240.235001</ele>
        <time>2013-05-19T15:50:15Z</time>
      </trkpt>
      <trkpt lat="43.35543" lon="2.73756">
        <ele>239.463181</ele>
        <time>2013-05-19T15:50:16Z</time>
      </trkpt>
      <trkpt lat="43.3554" lon="2.73766">
        <ele>238.800156</ele>
        <time>2013-05-19T15:50:17Z</time>
      </trkpt>
      <trkpt lat="43.35538" lon="2.73775">
        <ele>238.267319</ele>
        <time>2013-05-19T15:50:18Z</time>
      </trkpt>
      <trkpt lat="43.35535" lon="2.73791">
        <ele>237.469437</ele>
        <time>2013-05-19T15:50:20Z</time>
      </trkpt>
      <trkpt lat="43.35535" lon="2.73798">
        <ele>237.258499</ele>
        <time>2013-05-19T15:50:21Z</time>
      </trkpt>
      <trkpt lat="43.35536" lon="2.73806">
        <ele>237.085007</ele>
        <time>2013-05-19T15:50:22Z</time>
      </trkpt>
      <trkpt lat="43.35543" lon="2.73848">
        <ele>235.178329</ele>
        <time>2013-05-19T15:50:28Z</time>
      </trkpt>
      <trkpt lat="43.35543" lon="2.73856">
        <ele>234.715607</ele>
        <time>2013-05-19T15:50:29Z</time>
      </trkpt>
      <trkpt lat="43.35543" lon="2.73863">
        <ele>234.190216</ele>
        <time>2013-05-19T15:50:30Z</time>
      </trkpt>
      <trkpt lat="43.35541" lon="2.7387">
        <ele>233.347794</ele>
        <time>2013-05-19T15:50:31Z</time>
      </trkpt>
      <trkpt lat="43.35539" lon="2.73878">
        <ele>232.353973</ele>
        <time>2013-05-19T15:50:32Z</time>
      </trkpt>
      <trkpt lat="43.35539" lon="2.73887">
        <ele>231.466721</ele>
        <time>2013-05-19T15:50:33Z</time>
      </trkpt>
      <trkpt lat="43.35539" lon="2.73896">
        <ele>230.673752</ele>
        <time>2013-05-19T15:50:34Z</time>
      </trkpt>
      <trkpt lat="43.3554" lon="2.73905">
        <ele>229.882507</ele>
        <time>2013-05-19T15:50:35Z</time>
      </trkpt>
      <trkpt lat="43.3554" lon="2.73915">
        <ele>228.94841</ele>
        <time>2013-05-19T15:50:36Z</time>
      </trkpt>
      <trkpt lat="43.3554" lon="2.73925">
        <ele>227.948273</ele>
        <time>2013-05-19T15:50:37Z</time>
      </trkpt>
      <trkpt lat="43.35539" lon="2.73935">
        <ele>227.065903</ele>
        <time>2013-05-19T15:50:38Z</time>
      </trkpt>
      <trkpt lat="43.35538" lon="2.73978">
        <ele>223.548843</ele>
        <time>2013-05-19T15:50:42Z</time>
      </trkpt>
      <trkpt lat="43.35536" lon="2.7399">
        <ele>222.46347</ele>
        <time>2013-05-19T15:50:43Z</time>
      </trkpt>
      <trkpt lat="43.35534" lon="2.74003">
        <ele>221.411316</ele>
        <time>2013-05-19T15:50:44Z</time>
      </trkpt>
      <trkpt lat="43.35534" lon="2.74015">
        <ele>220.41452</ele>
        <time>2013-05-19T15:50:45Z</time>
      </trkpt>
      <trkpt lat="43.35534" lon="2.74028">
        <ele>219.490128</ele>
        <time>2013-05-19T15:50:46Z</time>
      </trkpt>
      <trkpt lat="43.35537" lon="2.74041">
        <ele>218.591293</ele>
        <time>2013-05-19T15:50:47Z</time>
      </trkpt>
      <trkpt lat="43.35539" lon="2.74054">
        <ele>217.730469</ele>
        <time>2013-05-19T15:50:48Z</time>
      </trkpt>
      <trkpt lat="43.35549" lon="2.74102">
        <ele>216.558929</ele>
        <time>2013-05-19T15:50:52Z</time>
      </trkpt>
      <trkpt lat="43.35549" lon="2.74109">
        <ele>216.209915</ele>
        <time>2013-05-19T15:50:53Z</time>
      </trkpt>
      <trkpt lat="43.35547" lon="2.74114">
        <ele>215.811203</ele>
        <time>2013-05-19T15:50:54Z</time>
      </trkpt>
      <trkpt lat="43.35546" lon="2.74118">
        <ele>215.478363</ele>
        <time>2013-05-19T15:50:55Z</time>
      </trkpt>
      <trkpt lat="43.35544" lon="2.74122">
        <ele>215.225372</ele>
        <time>2013-05-19T15:50:56Z</time>
      </trkpt>
      <trkpt lat="43.35543" lon="2.74126">
        <ele>215.005661</ele>
        <time>2013-05-19T15:50:57Z</time>
      </trkpt>
      <trkpt lat="43.35542" lon="2.7413">
        <ele>214.793884</ele>
        <time>2013-05-19T15:50:58Z</time>
      </trkpt>
      <trkpt lat="43.35542" lon="2.74133">
        <ele>214.687012</ele>
        <time>2013-05-19T15:50:59Z</time>
      </trkpt>
      <trkpt lat="43.35542" lon="2.74136">
        <ele>214.601257</ele>
        <time>2013-05-19T15:51:00Z</time>
      </trkpt>
      <trkpt lat="43.35541" lon="2.74139">
        <ele>214.477295</ele>
        <time>2013-05-19T15:51:01Z</time>
      </trkpt>
      <trkpt lat="43.35541" lon="2.74142">
        <ele>214.371536</ele>
        <time>2013-05-19T15:51:02Z</time>
      </trkpt>
      <trkpt lat="43.35541" lon="2.74145">
        <ele>214.235428</ele>
        <time>2013-05-19T15:51:03Z</time>
      </trkpt>
      <trkpt lat="43.35541" lon="2.74148">
        <ele>214.214966</ele>
        <time>2013-05-19T15:51:04Z</time>
      </trkpt>
      <trkpt lat="43.35541" lon="2.7415">
        <ele>214.17012</ele>
        <time>2013-05-19T15:51:05Z</time>
      </trkpt>
      <trkpt lat="43.35541" lon="2.74153">
        <ele>214.120926</ele>
        <time>2013-05-19T15:51:06Z</time>
      </trkpt>
      <trkpt lat="43.35541" lon="2.74156">
        <ele>214.162018</ele>
        <time>2013-05-19T15:51:07Z</time>
      </trkpt>
      <trkpt lat="43.35552" lon="2.74213">
        <ele>213.303894</ele>
        <time>2013-05-19T15:51:21Z</time>
      </trkpt>
      <trkpt lat="43.35574" lon="2.7422">
        <ele>216.923996</ele>
        <time>2013-05-19T15:51:30Z</time>
      </trkpt>
      <trkpt lat="43.35589" lon="2.74208">
        <ele>219.881256</ele>
        <time>2013-05-19T15:51:43Z</time>
      </trkpt>
      <trkpt lat="43.35593" lon="2.74206">
        <ele>220.512497</ele>
        <time>2013-05-19T15:51:46Z</time>
      </trkpt>
      <trkpt lat="43.35599" lon="2.74201">
        <ele>221.485001</ele>
        <time>2013-05-19T15:51:51Z</time>
      </trkpt>
      <trkpt lat="43.356" lon="2.742">
        <ele>221.728745</ele>
        <time>2013-05-19T15:51:52Z</time>
      </trkpt>
      <trkpt lat="43.35602" lon="2.74199">
        <ele>222.023743</ele>
        <time>2013-05-19T15:51:53Z</time>
      </trkpt>
      <trkpt lat="43.35604" lon="2.74198">
        <ele>222.315002</ele>
        <time>2013-05-19T15:51:54Z</time>
      </trkpt>
      <trkpt lat="43.35606" lon="2.74198">
        <ele>222.622498</ele>
        <time>2013-05-19T15:51:55Z</time>
      </trkpt>
      <trkpt lat="43.35612" lon="2.74195">
        <ele>223.637497</ele>
        <time>2013-05-19T15:51:58Z</time>
      </trkpt>
      <trkpt lat="43.35614" lon="2.74194">
        <ele>223.908752</ele>
        <time>2013-05-19T15:51:59Z</time>
      </trkpt>
      <trkpt lat="43.35615" lon="2.74192">
        <ele>224.131256</ele>
        <time>2013-05-19T15:52:00Z</time>
      </trkpt>
      <trkpt lat="43.35624" lon="2.74155">
        <ele>226.402496</ele>
        <time>2013-05-19T15:52:16Z</time>
      </trkpt>
      <trkpt lat="43.35629" lon="2.74113">
        <ele>228.632507</ele>
        <time>2013-05-19T15:52:33Z</time>
      </trkpt>
      <trkpt lat="43.35636" lon="2.74089">
        <ele>229.621323</ele>
        <time>2013-05-19T15:52:42Z</time>
      </trkpt>
      <trkpt lat="43.35643" lon="2.74086">
        <ele>230.62294</ele>
        <time>2013-05-19T15:52:47Z</time>
      </trkpt>
      <trkpt lat="43.35661" lon="2.74113">
        <ele>232.897507</ele>
        <time>2013-05-19T15:52:58Z</time>
      </trkpt>
      <trkpt lat="43.35688" lon="2.74156">
        <ele>235.110001</ele>
        <time>2013-05-19T15:53:14Z</time>
      </trkpt>
      <trkpt lat="43.3569" lon="2.74161">
        <ele>235.290009</ele>
        <time>2013-05-19T15:53:16Z</time>
      </trkpt>
      <trkpt lat="43.3569" lon="2.74163">
        <ele>235.1875</ele>
        <time>2013-05-19T15:53:17Z</time>
      </trkpt>
      <trkpt lat="43.35689" lon="2.74167">
        <ele>234.962494</ele>
        <time>2013-05-19T15:53:18Z</time>
      </trkpt>
      <trkpt lat="43.35688" lon="2.74171">
        <ele>234.662491</ele>
        <time>2013-05-19T15:53:19Z</time>
      </trkpt>
      <trkpt lat="43.35687" lon="2.74176">
        <ele>234.381119</ele>
        <time>2013-05-19T15:53:20Z</time>
      </trkpt>
      <trkpt lat="43.35687" lon="2.7418">
        <ele>234.1931</ele>
        <time>2013-05-19T15:53:21Z</time>
      </trkpt>
      <trkpt lat="43.35687" lon="2.74181">
        <ele>234.247253</ele>
        <time>2013-05-19T15:53:30Z</time>
      </trkpt>
      <trkpt lat="43.35687" lon="2.74181">
        <ele>234.243225</ele>
        <time>2013-05-19T15:53:38Z</time>
      </trkpt>
      <trkpt lat="43.35688" lon="2.74182">
        <ele>234.311066</ele>
        <time>2013-05-19T15:53:50Z</time>
      </trkpt>
    </trkseg>
  </trk>
</gpx>